<?xml version="1.0" encoding="UTF-8" standalone="no" ?>
<gpx xmlns="http://www.topografix.com/GPX/1/1" xmlns:xsi="http://www.w3.org/2001/XMLSchema-instance" xsi:schemaLocation="http://www.topografix.com/GPX/1/1 http://www.topografix.com/GPX/1/1/gpx.xsd" version="1.1" creator="VisuGPX - https://www.visugpx.com">
  <metadata>
    <name>Sortie du 16/07/2016 80kms </name>
    <desc><![CDATA[Randonnée au départ de creuzier-le-vieux roulant dans l'ensemble.]]></desc>
  </metadata>
  <trk>
    <name><![CDATA[2016-07-16 10:28]]></name>
    <desc><![CDATA[<p>Heure de départ: 07/16/2016 10:32</p><p>Heure d'arrivée: 07/16/2016 18:00</p><p>Distance: 81,4 km (07:28)</p><p>Temps déplacement: 06:46</p><p>Vitesse moyenne: 10,89 km/h</p><p>Vitesse moyenne mouv.: 12,02 km/h</p><p>Vitesse Max.: 53,08km/h</p><p>Altitude minimale: 271 m</p><p>Altitude maximale: 679 m</p><p>Vitesse de montée: 632,6 m/h</p><p>Vitesse de descente: -1183,1 m/h</p><p>Gain d'altitude: 2886 m</p><p>Perte d'altitude: -2897 m</p><p>Temps de montée: 04:33</p><p>Temps de descente: 02:26</p><hr align="center" width="480" style="height: 2px; width: 517px"/>]]></desc>
    <trkseg>
      <trkpt lat="46.1704" lon="3.43108">
        <ele>329.55</ele>
        <time>2016-07-16T08:32:04Z</time>
      </trkpt>
      <trkpt lat="46.17058" lon="3.43117">
        <ele>321.35</ele>
        <time>2016-07-16T08:33:56Z</time>
      </trkpt>
      <trkpt lat="46.17072" lon="3.43135">
        <ele>324.54</ele>
        <time>2016-07-16T08:34:06Z</time>
      </trkpt>
      <trkpt lat="46.17088" lon="3.43149">
        <ele>324.34</ele>
        <time>2016-07-16T08:36:36Z</time>
      </trkpt>
      <trkpt lat="46.17104" lon="3.43164">
        <ele>325.74</ele>
        <time>2016-07-16T08:36:44Z</time>
      </trkpt>
      <trkpt lat="46.17119" lon="3.4318">
        <ele>331.55</ele>
        <time>2016-07-16T08:36:52Z</time>
      </trkpt>
      <trkpt lat="46.17137" lon="3.4319">
        <ele>329.55</ele>
        <time>2016-07-16T08:36:59Z</time>
      </trkpt>
      <trkpt lat="46.17153" lon="3.43203">
        <ele>332.55</ele>
        <time>2016-07-16T08:37:07Z</time>
      </trkpt>
      <trkpt lat="46.1717" lon="3.43216">
        <ele>332.51</ele>
        <time>2016-07-16T08:37:14Z</time>
      </trkpt>
      <trkpt lat="46.17185" lon="3.43235">
        <ele>331.55</ele>
        <time>2016-07-16T08:37:21Z</time>
      </trkpt>
      <trkpt lat="46.17201" lon="3.4325">
        <ele>331.32</ele>
        <time>2016-07-16T08:37:28Z</time>
      </trkpt>
      <trkpt lat="46.17216" lon="3.43269">
        <ele>329.72</ele>
        <time>2016-07-16T08:37:37Z</time>
      </trkpt>
      <trkpt lat="46.17231" lon="3.43286">
        <ele>332.39</ele>
        <time>2016-07-16T08:37:44Z</time>
      </trkpt>
      <trkpt lat="46.17247" lon="3.43303">
        <ele>334.34</ele>
        <time>2016-07-16T08:37:51Z</time>
      </trkpt>
      <trkpt lat="46.17263" lon="3.43318">
        <ele>333.71</ele>
        <time>2016-07-16T08:37:57Z</time>
      </trkpt>
      <trkpt lat="46.17279" lon="3.43337">
        <ele>334.67</ele>
        <time>2016-07-16T08:38:05Z</time>
      </trkpt>
      <trkpt lat="46.17295" lon="3.43355">
        <ele>336.72</ele>
        <time>2016-07-16T08:38:12Z</time>
      </trkpt>
      <trkpt lat="46.17312" lon="3.43368">
        <ele>340.74</ele>
        <time>2016-07-16T08:38:19Z</time>
      </trkpt>
      <trkpt lat="46.17329" lon="3.43384">
        <ele>339.55</ele>
        <time>2016-07-16T08:38:26Z</time>
      </trkpt>
      <trkpt lat="46.17344" lon="3.43401">
        <ele>333.74</ele>
        <time>2016-07-16T08:38:32Z</time>
      </trkpt>
      <trkpt lat="46.17361" lon="3.43415">
        <ele>335.74</ele>
        <time>2016-07-16T08:38:39Z</time>
      </trkpt>
      <trkpt lat="46.17378" lon="3.4343">
        <ele>336.55</ele>
        <time>2016-07-16T08:38:46Z</time>
      </trkpt>
      <trkpt lat="46.17394" lon="3.43443">
        <ele>338.51</ele>
        <time>2016-07-16T08:38:52Z</time>
      </trkpt>
      <trkpt lat="46.17413" lon="3.43455">
        <ele>341.47</ele>
        <time>2016-07-16T08:39:00Z</time>
      </trkpt>
      <trkpt lat="46.17426" lon="3.43478">
        <ele>340</ele>
        <time>2016-07-16T08:39:07Z</time>
      </trkpt>
      <trkpt lat="46.17439" lon="3.43498">
        <ele>342.35</ele>
        <time>2016-07-16T08:39:13Z</time>
      </trkpt>
      <trkpt lat="46.17452" lon="3.43519">
        <ele>339.55</ele>
        <time>2016-07-16T08:39:20Z</time>
      </trkpt>
      <trkpt lat="46.17457" lon="3.43548">
        <ele>336.75</ele>
        <time>2016-07-16T08:39:26Z</time>
      </trkpt>
      <trkpt lat="46.17456" lon="3.43578">
        <ele>336.63</ele>
        <time>2016-07-16T08:39:30Z</time>
      </trkpt>
      <trkpt lat="46.17458" lon="3.43608">
        <ele>332.99</ele>
        <time>2016-07-16T08:39:34Z</time>
      </trkpt>
      <trkpt lat="46.17463" lon="3.4364">
        <ele>328.96</ele>
        <time>2016-07-16T08:39:38Z</time>
      </trkpt>
      <trkpt lat="46.17464" lon="3.4367">
        <ele>324.81</ele>
        <time>2016-07-16T08:39:41Z</time>
      </trkpt>
      <trkpt lat="46.17455" lon="3.43693">
        <ele>324.72</ele>
        <time>2016-07-16T08:39:43Z</time>
      </trkpt>
      <trkpt lat="46.17446" lon="3.43718">
        <ele>323.76</ele>
        <time>2016-07-16T08:39:45Z</time>
      </trkpt>
      <trkpt lat="46.17436" lon="3.43743">
        <ele>320.84</ele>
        <time>2016-07-16T08:39:47Z</time>
      </trkpt>
      <trkpt lat="46.17421" lon="3.43768">
        <ele>320.84</ele>
        <time>2016-07-16T08:39:50Z</time>
      </trkpt>
      <trkpt lat="46.17401" lon="3.43781">
        <ele>317.64</ele>
        <time>2016-07-16T08:39:53Z</time>
      </trkpt>
      <trkpt lat="46.17382" lon="3.43787">
        <ele>314.77</ele>
        <time>2016-07-16T08:39:56Z</time>
      </trkpt>
      <trkpt lat="46.17363" lon="3.43797">
        <ele>312.6</ele>
        <time>2016-07-16T08:39:59Z</time>
      </trkpt>
      <trkpt lat="46.1735" lon="3.43822">
        <ele>311.59</ele>
        <time>2016-07-16T08:40:03Z</time>
      </trkpt>
      <trkpt lat="46.17345" lon="3.43847">
        <ele>313.36</ele>
        <time>2016-07-16T08:40:08Z</time>
      </trkpt>
      <trkpt lat="46.17339" lon="3.43872">
        <ele>308.48</ele>
        <time>2016-07-16T08:40:13Z</time>
      </trkpt>
      <trkpt lat="46.17336" lon="3.43898">
        <ele>311.47</ele>
        <time>2016-07-16T08:40:19Z</time>
      </trkpt>
      <trkpt lat="46.17329" lon="3.43923">
        <ele>312.51</ele>
        <time>2016-07-16T08:40:25Z</time>
      </trkpt>
      <trkpt lat="46.17321" lon="3.43949">
        <ele>312.76</ele>
        <time>2016-07-16T08:40:32Z</time>
      </trkpt>
      <trkpt lat="46.17307" lon="3.43968">
        <ele>319.1</ele>
        <time>2016-07-16T08:40:40Z</time>
      </trkpt>
      <trkpt lat="46.17289" lon="3.4398">
        <ele>318.59</ele>
        <time>2016-07-16T08:40:46Z</time>
      </trkpt>
      <trkpt lat="46.17271" lon="3.43986">
        <ele>315.56</ele>
        <time>2016-07-16T08:40:53Z</time>
      </trkpt>
      <trkpt lat="46.17281" lon="3.43963">
        <ele>318.48</ele>
        <time>2016-07-16T08:41:05Z</time>
      </trkpt>
      <trkpt lat="46.17294" lon="3.43943">
        <ele>320.32</ele>
        <time>2016-07-16T08:41:14Z</time>
      </trkpt>
      <trkpt lat="46.17282" lon="3.43924">
        <ele>322.58</ele>
        <time>2016-07-16T08:41:26Z</time>
      </trkpt>
      <trkpt lat="46.17262" lon="3.43924">
        <ele>327.31</ele>
        <time>2016-07-16T08:41:36Z</time>
      </trkpt>
      <trkpt lat="46.17243" lon="3.43922">
        <ele>327.55</ele>
        <time>2016-07-16T08:41:45Z</time>
      </trkpt>
      <trkpt lat="46.17226" lon="3.43931">
        <ele>329.55</ele>
        <time>2016-07-16T08:41:55Z</time>
      </trkpt>
      <trkpt lat="46.17208" lon="3.43936">
        <ele>331.55</ele>
        <time>2016-07-16T08:42:05Z</time>
      </trkpt>
      <trkpt lat="46.1719" lon="3.43942">
        <ele>332.51</ele>
        <time>2016-07-16T08:42:15Z</time>
      </trkpt>
      <trkpt lat="46.17172" lon="3.43949">
        <ele>332.55</ele>
        <time>2016-07-16T08:42:25Z</time>
      </trkpt>
      <trkpt lat="46.17154" lon="3.43955">
        <ele>335.35</ele>
        <time>2016-07-16T08:42:34Z</time>
      </trkpt>
      <trkpt lat="46.17136" lon="3.4396">
        <ele>334.4</ele>
        <time>2016-07-16T08:42:45Z</time>
      </trkpt>
      <trkpt lat="46.17118" lon="3.4397">
        <ele>336.54</ele>
        <time>2016-07-16T08:42:55Z</time>
      </trkpt>
      <trkpt lat="46.171" lon="3.43978">
        <ele>340.55</ele>
        <time>2016-07-16T08:43:06Z</time>
      </trkpt>
      <trkpt lat="46.17082" lon="3.43985">
        <ele>344.35</ele>
        <time>2016-07-16T08:43:17Z</time>
      </trkpt>
      <trkpt lat="46.17065" lon="3.43995">
        <ele>346.51</ele>
        <time>2016-07-16T08:43:26Z</time>
      </trkpt>
      <trkpt lat="46.17048" lon="3.44007">
        <ele>348.55</ele>
        <time>2016-07-16T08:43:35Z</time>
      </trkpt>
      <trkpt lat="46.1703" lon="3.44013">
        <ele>348.56</ele>
        <time>2016-07-16T08:43:44Z</time>
      </trkpt>
      <trkpt lat="46.1701" lon="3.44015">
        <ele>347.75</ele>
        <time>2016-07-16T08:43:55Z</time>
      </trkpt>
      <trkpt lat="46.16992" lon="3.44018">
        <ele>346.71</ele>
        <time>2016-07-16T08:44:04Z</time>
      </trkpt>
      <trkpt lat="46.16974" lon="3.44021">
        <ele>350.34</ele>
        <time>2016-07-16T08:44:14Z</time>
      </trkpt>
      <trkpt lat="46.16956" lon="3.44021">
        <ele>351.55</ele>
        <time>2016-07-16T08:44:23Z</time>
      </trkpt>
      <trkpt lat="46.16936" lon="3.44025">
        <ele>353.35</ele>
        <time>2016-07-16T08:44:32Z</time>
      </trkpt>
      <trkpt lat="46.16918" lon="3.44032">
        <ele>352.52</ele>
        <time>2016-07-16T08:44:40Z</time>
      </trkpt>
      <trkpt lat="46.169" lon="3.4404">
        <ele>354.52</ele>
        <time>2016-07-16T08:44:49Z</time>
      </trkpt>
      <trkpt lat="46.1688" lon="3.44045">
        <ele>355.55</ele>
        <time>2016-07-16T08:44:58Z</time>
      </trkpt>
      <trkpt lat="46.16863" lon="3.44055">
        <ele>357.36</ele>
        <time>2016-07-16T08:45:07Z</time>
      </trkpt>
      <trkpt lat="46.16851" lon="3.44077">
        <ele>361.3</ele>
        <time>2016-07-16T08:45:17Z</time>
      </trkpt>
      <trkpt lat="46.16838" lon="3.44099">
        <ele>363.54</ele>
        <time>2016-07-16T08:45:26Z</time>
      </trkpt>
      <trkpt lat="46.16829" lon="3.44122">
        <ele>363.35</ele>
        <time>2016-07-16T08:45:35Z</time>
      </trkpt>
      <trkpt lat="46.16819" lon="3.44148">
        <ele>366.38</ele>
        <time>2016-07-16T08:45:45Z</time>
      </trkpt>
      <trkpt lat="46.1681" lon="3.44176">
        <ele>366.55</ele>
        <time>2016-07-16T08:45:54Z</time>
      </trkpt>
      <trkpt lat="46.16803" lon="3.44201">
        <ele>369.35</ele>
        <time>2016-07-16T08:46:02Z</time>
      </trkpt>
      <trkpt lat="46.16797" lon="3.44227">
        <ele>370.55</ele>
        <time>2016-07-16T08:46:09Z</time>
      </trkpt>
      <trkpt lat="46.16792" lon="3.44252">
        <ele>371.55</ele>
        <time>2016-07-16T08:46:15Z</time>
      </trkpt>
      <trkpt lat="46.16777" lon="3.44269">
        <ele>373.5</ele>
        <time>2016-07-16T08:46:21Z</time>
      </trkpt>
      <trkpt lat="46.16757" lon="3.44277">
        <ele>376.34</ele>
        <time>2016-07-16T08:46:26Z</time>
      </trkpt>
      <trkpt lat="46.16737" lon="3.44287">
        <ele>379.5</ele>
        <time>2016-07-16T08:46:32Z</time>
      </trkpt>
      <trkpt lat="46.16717" lon="3.44295">
        <ele>378.59</ele>
        <time>2016-07-16T08:46:38Z</time>
      </trkpt>
      <trkpt lat="46.16698" lon="3.44306">
        <ele>380.54</ele>
        <time>2016-07-16T08:46:45Z</time>
      </trkpt>
      <trkpt lat="46.16681" lon="3.44318">
        <ele>379.56</ele>
        <time>2016-07-16T08:46:51Z</time>
      </trkpt>
      <trkpt lat="46.16664" lon="3.44334">
        <ele>379.72</ele>
        <time>2016-07-16T08:46:57Z</time>
      </trkpt>
      <trkpt lat="46.16647" lon="3.44345">
        <ele>380.71</ele>
        <time>2016-07-16T08:47:03Z</time>
      </trkpt>
      <trkpt lat="46.16627" lon="3.44358">
        <ele>379.55</ele>
        <time>2016-07-16T08:47:10Z</time>
      </trkpt>
      <trkpt lat="46.16609" lon="3.44368">
        <ele>380.55</ele>
        <time>2016-07-16T08:47:16Z</time>
      </trkpt>
      <trkpt lat="46.1659" lon="3.4438">
        <ele>379.55</ele>
        <time>2016-07-16T08:47:22Z</time>
      </trkpt>
      <trkpt lat="46.1657" lon="3.44389">
        <ele>378.55</ele>
        <time>2016-07-16T08:47:28Z</time>
      </trkpt>
      <trkpt lat="46.16552" lon="3.44402">
        <ele>381.5</ele>
        <time>2016-07-16T08:47:35Z</time>
      </trkpt>
      <trkpt lat="46.16535" lon="3.44412">
        <ele>380.59</ele>
        <time>2016-07-16T08:47:40Z</time>
      </trkpt>
      <trkpt lat="46.16518" lon="3.44424">
        <ele>380.55</ele>
        <time>2016-07-16T08:47:46Z</time>
      </trkpt>
      <trkpt lat="46.16502" lon="3.4444">
        <ele>382.7</ele>
        <time>2016-07-16T08:47:52Z</time>
      </trkpt>
      <trkpt lat="46.16487" lon="3.44457">
        <ele>383.35</ele>
        <time>2016-07-16T08:47:58Z</time>
      </trkpt>
      <trkpt lat="46.1647" lon="3.44473">
        <ele>384.54</ele>
        <time>2016-07-16T08:48:04Z</time>
      </trkpt>
      <trkpt lat="46.16455" lon="3.44488">
        <ele>384.55</ele>
        <time>2016-07-16T08:48:09Z</time>
      </trkpt>
      <trkpt lat="46.1644" lon="3.44504">
        <ele>385.35</ele>
        <time>2016-07-16T08:48:15Z</time>
      </trkpt>
      <trkpt lat="46.16424" lon="3.44522">
        <ele>385.55</ele>
        <time>2016-07-16T08:48:21Z</time>
      </trkpt>
      <trkpt lat="46.16407" lon="3.44537">
        <ele>386.39</ele>
        <time>2016-07-16T08:48:27Z</time>
      </trkpt>
      <trkpt lat="46.16392" lon="3.44551">
        <ele>386.56</ele>
        <time>2016-07-16T08:48:33Z</time>
      </trkpt>
      <trkpt lat="46.16374" lon="3.44565">
        <ele>385.56</ele>
        <time>2016-07-16T08:48:39Z</time>
      </trkpt>
      <trkpt lat="46.16354" lon="3.4457">
        <ele>385.51</ele>
        <time>2016-07-16T08:48:45Z</time>
      </trkpt>
      <trkpt lat="46.16333" lon="3.44574">
        <ele>387.54</ele>
        <time>2016-07-16T08:48:51Z</time>
      </trkpt>
      <trkpt lat="46.16313" lon="3.44581">
        <ele>387.75</ele>
        <time>2016-07-16T08:48:57Z</time>
      </trkpt>
      <trkpt lat="46.16293" lon="3.44589">
        <ele>388.51</ele>
        <time>2016-07-16T08:49:03Z</time>
      </trkpt>
      <trkpt lat="46.16274" lon="3.44597">
        <ele>389.52</ele>
        <time>2016-07-16T08:49:09Z</time>
      </trkpt>
      <trkpt lat="46.16254" lon="3.44603">
        <ele>390.51</ele>
        <time>2016-07-16T08:49:16Z</time>
      </trkpt>
      <trkpt lat="46.16234" lon="3.44608">
        <ele>390.51</ele>
        <time>2016-07-16T08:49:23Z</time>
      </trkpt>
      <trkpt lat="46.16214" lon="3.44612">
        <ele>388.75</ele>
        <time>2016-07-16T08:49:29Z</time>
      </trkpt>
      <trkpt lat="46.16196" lon="3.44616">
        <ele>389.39</ele>
        <time>2016-07-16T08:49:33Z</time>
      </trkpt>
      <trkpt lat="46.16178" lon="3.44625">
        <ele>389.35</ele>
        <time>2016-07-16T08:49:37Z</time>
      </trkpt>
      <trkpt lat="46.16166" lon="3.44647">
        <ele>390.51</ele>
        <time>2016-07-16T08:49:42Z</time>
      </trkpt>
      <trkpt lat="46.16154" lon="3.44667">
        <ele>392.54</ele>
        <time>2016-07-16T08:49:47Z</time>
      </trkpt>
      <trkpt lat="46.16141" lon="3.44685">
        <ele>392.71</ele>
        <time>2016-07-16T08:49:52Z</time>
      </trkpt>
      <trkpt lat="46.16126" lon="3.44703">
        <ele>394.55</ele>
        <time>2016-07-16T08:49:58Z</time>
      </trkpt>
      <trkpt lat="46.16105" lon="3.447">
        <ele>396.52</ele>
        <time>2016-07-16T08:50:04Z</time>
      </trkpt>
      <trkpt lat="46.16088" lon="3.44694">
        <ele>397.55</ele>
        <time>2016-07-16T08:50:09Z</time>
      </trkpt>
      <trkpt lat="46.16067" lon="3.44687">
        <ele>397.55</ele>
        <time>2016-07-16T08:50:14Z</time>
      </trkpt>
      <trkpt lat="46.16046" lon="3.44682">
        <ele>395.59</ele>
        <time>2016-07-16T08:50:19Z</time>
      </trkpt>
      <trkpt lat="46.16024" lon="3.44683">
        <ele>395.39</ele>
        <time>2016-07-16T08:50:24Z</time>
      </trkpt>
      <trkpt lat="46.16004" lon="3.44688">
        <ele>396.55</ele>
        <time>2016-07-16T08:50:29Z</time>
      </trkpt>
      <trkpt lat="46.15983" lon="3.44694">
        <ele>395.55</ele>
        <time>2016-07-16T08:50:34Z</time>
      </trkpt>
      <trkpt lat="46.15962" lon="3.44697">
        <ele>396.55</ele>
        <time>2016-07-16T08:50:39Z</time>
      </trkpt>
      <trkpt lat="46.1594" lon="3.44701">
        <ele>396.55</ele>
        <time>2016-07-16T08:50:44Z</time>
      </trkpt>
      <trkpt lat="46.15922" lon="3.44702">
        <ele>395.59</ele>
        <time>2016-07-16T08:50:48Z</time>
      </trkpt>
      <trkpt lat="46.15904" lon="3.44707">
        <ele>394.75</ele>
        <time>2016-07-16T08:50:52Z</time>
      </trkpt>
      <trkpt lat="46.15886" lon="3.44717">
        <ele>395.51</ele>
        <time>2016-07-16T08:50:57Z</time>
      </trkpt>
      <trkpt lat="46.15866" lon="3.4473">
        <ele>395.75</ele>
        <time>2016-07-16T08:51:02Z</time>
      </trkpt>
      <trkpt lat="46.15849" lon="3.44741">
        <ele>396.55</ele>
        <time>2016-07-16T08:51:06Z</time>
      </trkpt>
      <trkpt lat="46.15832" lon="3.44751">
        <ele>395.59</ele>
        <time>2016-07-16T08:51:10Z</time>
      </trkpt>
      <trkpt lat="46.15811" lon="3.44763">
        <ele>395.71</ele>
        <time>2016-07-16T08:51:14Z</time>
      </trkpt>
      <trkpt lat="46.15795" lon="3.44776">
        <ele>394.56</ele>
        <time>2016-07-16T08:51:17Z</time>
      </trkpt>
      <trkpt lat="46.15779" lon="3.44787">
        <ele>392.6</ele>
        <time>2016-07-16T08:51:20Z</time>
      </trkpt>
      <trkpt lat="46.15761" lon="3.44795">
        <ele>390.63</ele>
        <time>2016-07-16T08:51:23Z</time>
      </trkpt>
      <trkpt lat="46.15738" lon="3.44803">
        <ele>389.75</ele>
        <time>2016-07-16T08:51:26Z</time>
      </trkpt>
      <trkpt lat="46.15714" lon="3.44809">
        <ele>387.76</ele>
        <time>2016-07-16T08:51:29Z</time>
      </trkpt>
      <trkpt lat="46.15689" lon="3.44815">
        <ele>384.8</ele>
        <time>2016-07-16T08:51:32Z</time>
      </trkpt>
      <trkpt lat="46.15663" lon="3.44828">
        <ele>381.8</ele>
        <time>2016-07-16T08:51:35Z</time>
      </trkpt>
      <trkpt lat="46.15642" lon="3.44846">
        <ele>379.6</ele>
        <time>2016-07-16T08:51:38Z</time>
      </trkpt>
      <trkpt lat="46.15633" lon="3.44877">
        <ele>376.61</ele>
        <time>2016-07-16T08:51:41Z</time>
      </trkpt>
      <trkpt lat="46.15621" lon="3.449">
        <ele>373.84</ele>
        <time>2016-07-16T08:51:43Z</time>
      </trkpt>
      <trkpt lat="46.15605" lon="3.44918">
        <ele>370.04</ele>
        <time>2016-07-16T08:51:45Z</time>
      </trkpt>
      <trkpt lat="46.15583" lon="3.44932">
        <ele>365.89</ele>
        <time>2016-07-16T08:51:47Z</time>
      </trkpt>
      <trkpt lat="46.15561" lon="3.44944">
        <ele>363.97</ele>
        <time>2016-07-16T08:51:49Z</time>
      </trkpt>
      <trkpt lat="46.15543" lon="3.44958">
        <ele>365.32</ele>
        <time>2016-07-16T08:51:52Z</time>
      </trkpt>
      <trkpt lat="46.15553" lon="3.4498">
        <ele>368.35</ele>
        <time>2016-07-16T08:51:57Z</time>
      </trkpt>
      <trkpt lat="46.15566" lon="3.45002">
        <ele>371.34</ele>
        <time>2016-07-16T08:52:02Z</time>
      </trkpt>
      <trkpt lat="46.15574" lon="3.45031">
        <ele>371.52</ele>
        <time>2016-07-16T08:52:07Z</time>
      </trkpt>
      <trkpt lat="46.15578" lon="3.4506">
        <ele>373.75</ele>
        <time>2016-07-16T08:52:12Z</time>
      </trkpt>
      <trkpt lat="46.15583" lon="3.45088">
        <ele>375.55</ele>
        <time>2016-07-16T08:52:17Z</time>
      </trkpt>
      <trkpt lat="46.15585" lon="3.45117">
        <ele>375.58</ele>
        <time>2016-07-16T08:52:22Z</time>
      </trkpt>
      <trkpt lat="46.15588" lon="3.45146">
        <ele>375.36</ele>
        <time>2016-07-16T08:52:27Z</time>
      </trkpt>
      <trkpt lat="46.1559" lon="3.45173">
        <ele>377.55</ele>
        <time>2016-07-16T08:52:33Z</time>
      </trkpt>
      <trkpt lat="46.15595" lon="3.45202">
        <ele>379.35</ele>
        <time>2016-07-16T08:52:39Z</time>
      </trkpt>
      <trkpt lat="46.15597" lon="3.45232">
        <ele>376.76</ele>
        <time>2016-07-16T08:52:44Z</time>
      </trkpt>
      <trkpt lat="46.15599" lon="3.45264">
        <ele>373.79</ele>
        <time>2016-07-16T08:52:48Z</time>
      </trkpt>
      <trkpt lat="46.15594" lon="3.45292">
        <ele>371.79</ele>
        <time>2016-07-16T08:52:51Z</time>
      </trkpt>
      <trkpt lat="46.15578" lon="3.4531">
        <ele>366.05</ele>
        <time>2016-07-16T08:52:54Z</time>
      </trkpt>
      <trkpt lat="46.15569" lon="3.45333">
        <ele>362.58</ele>
        <time>2016-07-16T08:52:57Z</time>
      </trkpt>
      <trkpt lat="46.15564" lon="3.45365">
        <ele>358.84</ele>
        <time>2016-07-16T08:53:00Z</time>
      </trkpt>
      <trkpt lat="46.15567" lon="3.45397">
        <ele>353.24</ele>
        <time>2016-07-16T08:53:03Z</time>
      </trkpt>
      <trkpt lat="46.1557" lon="3.4543">
        <ele>346.86</ele>
        <time>2016-07-16T08:53:06Z</time>
      </trkpt>
      <trkpt lat="46.15576" lon="3.45463">
        <ele>344.8</ele>
        <time>2016-07-16T08:53:09Z</time>
      </trkpt>
      <trkpt lat="46.15587" lon="3.45497">
        <ele>344.59</ele>
        <time>2016-07-16T08:53:12Z</time>
      </trkpt>
      <trkpt lat="46.15602" lon="3.45529">
        <ele>342.03</ele>
        <time>2016-07-16T08:53:15Z</time>
      </trkpt>
      <trkpt lat="46.15608" lon="3.45566">
        <ele>333.84</ele>
        <time>2016-07-16T08:53:18Z</time>
      </trkpt>
      <trkpt lat="46.15598" lon="3.45596">
        <ele>330</ele>
        <time>2016-07-16T08:53:21Z</time>
      </trkpt>
      <trkpt lat="46.15583" lon="3.45628">
        <ele>328.6</ele>
        <time>2016-07-16T08:53:24Z</time>
      </trkpt>
      <trkpt lat="46.15572" lon="3.45653">
        <ele>327.72</ele>
        <time>2016-07-16T08:53:27Z</time>
      </trkpt>
      <trkpt lat="46.15583" lon="3.45684">
        <ele>325.59</ele>
        <time>2016-07-16T08:53:31Z</time>
      </trkpt>
      <trkpt lat="46.15597" lon="3.4571">
        <ele>324.75</ele>
        <time>2016-07-16T08:53:34Z</time>
      </trkpt>
      <trkpt lat="46.15614" lon="3.45737">
        <ele>322.63</ele>
        <time>2016-07-16T08:53:37Z</time>
      </trkpt>
      <trkpt lat="46.1563" lon="3.45761">
        <ele>320.79</ele>
        <time>2016-07-16T08:53:40Z</time>
      </trkpt>
      <trkpt lat="46.15631" lon="3.45789">
        <ele>318.63</ele>
        <time>2016-07-16T08:53:43Z</time>
      </trkpt>
      <trkpt lat="46.15621" lon="3.4582">
        <ele>319.55</ele>
        <time>2016-07-16T08:53:47Z</time>
      </trkpt>
      <trkpt lat="46.15611" lon="3.45849">
        <ele>319.51</ele>
        <time>2016-07-16T08:53:51Z</time>
      </trkpt>
      <trkpt lat="46.15592" lon="3.45862">
        <ele>316.6</ele>
        <time>2016-07-16T08:53:55Z</time>
      </trkpt>
      <trkpt lat="46.15571" lon="3.45868">
        <ele>316.55</ele>
        <time>2016-07-16T08:53:59Z</time>
      </trkpt>
      <trkpt lat="46.1556" lon="3.45897">
        <ele>314.59</ele>
        <time>2016-07-16T08:54:04Z</time>
      </trkpt>
      <trkpt lat="46.15562" lon="3.45926">
        <ele>312.79</ele>
        <time>2016-07-16T08:54:07Z</time>
      </trkpt>
      <trkpt lat="46.15568" lon="3.4596">
        <ele>308.81</ele>
        <time>2016-07-16T08:54:10Z</time>
      </trkpt>
      <trkpt lat="46.15569" lon="3.45998">
        <ele>309.36</ele>
        <time>2016-07-16T08:54:13Z</time>
      </trkpt>
      <trkpt lat="46.1557" lon="3.46024">
        <ele>309.55</ele>
        <time>2016-07-16T08:54:15Z</time>
      </trkpt>
      <trkpt lat="46.1557" lon="3.46057">
        <ele>310.51</ele>
        <time>2016-07-16T08:54:18Z</time>
      </trkpt>
      <trkpt lat="46.15574" lon="3.46083">
        <ele>310.55</ele>
        <time>2016-07-16T08:54:21Z</time>
      </trkpt>
      <trkpt lat="46.15563" lon="3.46105">
        <ele>313.7</ele>
        <time>2016-07-16T08:54:26Z</time>
      </trkpt>
      <trkpt lat="46.15545" lon="3.46119">
        <ele>312.55</ele>
        <time>2016-07-16T08:54:31Z</time>
      </trkpt>
      <trkpt lat="46.15528" lon="3.46135">
        <ele>311.75</ele>
        <time>2016-07-16T08:54:36Z</time>
      </trkpt>
      <trkpt lat="46.15524" lon="3.46163">
        <ele>310.55</ele>
        <time>2016-07-16T08:54:40Z</time>
      </trkpt>
      <trkpt lat="46.15516" lon="3.46194">
        <ele>311.51</ele>
        <time>2016-07-16T08:54:44Z</time>
      </trkpt>
      <trkpt lat="46.15508" lon="3.46223">
        <ele>310.56</ele>
        <time>2016-07-16T08:54:48Z</time>
      </trkpt>
      <trkpt lat="46.155" lon="3.46249">
        <ele>309.59</ele>
        <time>2016-07-16T08:54:52Z</time>
      </trkpt>
      <trkpt lat="46.15493" lon="3.46273">
        <ele>310.35</ele>
        <time>2016-07-16T08:54:56Z</time>
      </trkpt>
      <trkpt lat="46.15483" lon="3.46299">
        <ele>310.55</ele>
        <time>2016-07-16T08:55:00Z</time>
      </trkpt>
      <trkpt lat="46.15473" lon="3.46325">
        <ele>309.55</ele>
        <time>2016-07-16T08:55:04Z</time>
      </trkpt>
      <trkpt lat="46.15462" lon="3.46353">
        <ele>308.39</ele>
        <time>2016-07-16T08:55:08Z</time>
      </trkpt>
      <trkpt lat="46.15453" lon="3.46381">
        <ele>308.71</ele>
        <time>2016-07-16T08:55:12Z</time>
      </trkpt>
      <trkpt lat="46.15444" lon="3.46411">
        <ele>308.76</ele>
        <time>2016-07-16T08:55:16Z</time>
      </trkpt>
      <trkpt lat="46.15437" lon="3.46439">
        <ele>306.76</ele>
        <time>2016-07-16T08:55:20Z</time>
      </trkpt>
      <trkpt lat="46.15429" lon="3.46464">
        <ele>304.6</ele>
        <time>2016-07-16T08:55:23Z</time>
      </trkpt>
      <trkpt lat="46.15421" lon="3.46488">
        <ele>304.55</ele>
        <time>2016-07-16T08:55:26Z</time>
      </trkpt>
      <trkpt lat="46.1541" lon="3.46511">
        <ele>304.39</ele>
        <time>2016-07-16T08:55:29Z</time>
      </trkpt>
      <trkpt lat="46.15399" lon="3.46533">
        <ele>303.72</ele>
        <time>2016-07-16T08:55:32Z</time>
      </trkpt>
      <trkpt lat="46.15387" lon="3.46553">
        <ele>304.35</ele>
        <time>2016-07-16T08:55:35Z</time>
      </trkpt>
      <trkpt lat="46.15375" lon="3.46575">
        <ele>304.71</ele>
        <time>2016-07-16T08:55:38Z</time>
      </trkpt>
      <trkpt lat="46.15357" lon="3.46591">
        <ele>306.51</ele>
        <time>2016-07-16T08:55:42Z</time>
      </trkpt>
      <trkpt lat="46.15337" lon="3.46587">
        <ele>304.59</ele>
        <time>2016-07-16T08:55:47Z</time>
      </trkpt>
      <trkpt lat="46.15318" lon="3.46572">
        <ele>305.35</ele>
        <time>2016-07-16T08:55:52Z</time>
      </trkpt>
      <trkpt lat="46.15302" lon="3.46559">
        <ele>304.4</ele>
        <time>2016-07-16T08:55:56Z</time>
      </trkpt>
      <trkpt lat="46.15285" lon="3.46545">
        <ele>304.35</ele>
        <time>2016-07-16T08:56:01Z</time>
      </trkpt>
      <trkpt lat="46.15269" lon="3.4653">
        <ele>304.55</ele>
        <time>2016-07-16T08:56:06Z</time>
      </trkpt>
      <trkpt lat="46.15255" lon="3.46512">
        <ele>305.52</ele>
        <time>2016-07-16T08:56:11Z</time>
      </trkpt>
      <trkpt lat="46.15244" lon="3.4649">
        <ele>306.55</ele>
        <time>2016-07-16T08:56:16Z</time>
      </trkpt>
      <trkpt lat="46.15232" lon="3.46468">
        <ele>304.72</ele>
        <time>2016-07-16T08:56:21Z</time>
      </trkpt>
      <trkpt lat="46.15215" lon="3.46449">
        <ele>307.31</ele>
        <time>2016-07-16T08:56:27Z</time>
      </trkpt>
      <trkpt lat="46.15199" lon="3.46436">
        <ele>309.51</ele>
        <time>2016-07-16T08:56:32Z</time>
      </trkpt>
      <trkpt lat="46.15182" lon="3.46425">
        <ele>310.52</ele>
        <time>2016-07-16T08:56:37Z</time>
      </trkpt>
      <trkpt lat="46.15163" lon="3.46412">
        <ele>310.55</ele>
        <time>2016-07-16T08:56:42Z</time>
      </trkpt>
      <trkpt lat="46.15145" lon="3.46398">
        <ele>311.36</ele>
        <time>2016-07-16T08:56:47Z</time>
      </trkpt>
      <trkpt lat="46.15128" lon="3.46382">
        <ele>313.51</ele>
        <time>2016-07-16T08:56:52Z</time>
      </trkpt>
      <trkpt lat="46.15116" lon="3.46362">
        <ele>314.51</ele>
        <time>2016-07-16T08:56:57Z</time>
      </trkpt>
      <trkpt lat="46.15103" lon="3.46337">
        <ele>315.39</ele>
        <time>2016-07-16T08:57:03Z</time>
      </trkpt>
      <trkpt lat="46.15086" lon="3.4632">
        <ele>317.51</ele>
        <time>2016-07-16T08:57:09Z</time>
      </trkpt>
      <trkpt lat="46.15068" lon="3.46309">
        <ele>320.35</ele>
        <time>2016-07-16T08:57:15Z</time>
      </trkpt>
      <trkpt lat="46.1505" lon="3.46306">
        <ele>322.55</ele>
        <time>2016-07-16T08:57:21Z</time>
      </trkpt>
      <trkpt lat="46.15031" lon="3.46317">
        <ele>322.75</ele>
        <time>2016-07-16T08:57:27Z</time>
      </trkpt>
      <trkpt lat="46.15014" lon="3.46331">
        <ele>323.55</ele>
        <time>2016-07-16T08:57:33Z</time>
      </trkpt>
      <trkpt lat="46.14997" lon="3.46344">
        <ele>325.51</ele>
        <time>2016-07-16T08:57:39Z</time>
      </trkpt>
      <trkpt lat="46.14981" lon="3.46357">
        <ele>326.35</ele>
        <time>2016-07-16T08:57:45Z</time>
      </trkpt>
      <trkpt lat="46.14963" lon="3.4637">
        <ele>328.7</ele>
        <time>2016-07-16T08:57:51Z</time>
      </trkpt>
      <trkpt lat="46.14945" lon="3.46382">
        <ele>330.35</ele>
        <time>2016-07-16T08:57:57Z</time>
      </trkpt>
      <trkpt lat="46.14927" lon="3.46394">
        <ele>331.35</ele>
        <time>2016-07-16T08:58:03Z</time>
      </trkpt>
      <trkpt lat="46.1491" lon="3.46401">
        <ele>332.38</ele>
        <time>2016-07-16T08:58:08Z</time>
      </trkpt>
      <trkpt lat="46.14892" lon="3.46405">
        <ele>333.35</ele>
        <time>2016-07-16T08:58:14Z</time>
      </trkpt>
      <trkpt lat="46.14873" lon="3.46405">
        <ele>335.55</ele>
        <time>2016-07-16T08:58:20Z</time>
      </trkpt>
      <trkpt lat="46.14854" lon="3.46406">
        <ele>334.75</ele>
        <time>2016-07-16T08:58:26Z</time>
      </trkpt>
      <trkpt lat="46.14835" lon="3.46404">
        <ele>335.35</ele>
        <time>2016-07-16T08:58:32Z</time>
      </trkpt>
      <trkpt lat="46.14817" lon="3.46402">
        <ele>337.55</ele>
        <time>2016-07-16T08:58:38Z</time>
      </trkpt>
      <trkpt lat="46.14797" lon="3.46398">
        <ele>337.56</ele>
        <time>2016-07-16T08:58:44Z</time>
      </trkpt>
      <trkpt lat="46.14776" lon="3.46394">
        <ele>338.55</ele>
        <time>2016-07-16T08:58:50Z</time>
      </trkpt>
      <trkpt lat="46.14756" lon="3.4639">
        <ele>340.39</ele>
        <time>2016-07-16T08:58:56Z</time>
      </trkpt>
      <trkpt lat="46.14737" lon="3.46386">
        <ele>340.55</ele>
        <time>2016-07-16T08:59:02Z</time>
      </trkpt>
      <trkpt lat="46.14717" lon="3.4639">
        <ele>341.52</ele>
        <time>2016-07-16T08:59:08Z</time>
      </trkpt>
      <trkpt lat="46.14698" lon="3.46393">
        <ele>341.58</ele>
        <time>2016-07-16T08:59:14Z</time>
      </trkpt>
      <trkpt lat="46.14679" lon="3.46396">
        <ele>342.39</ele>
        <time>2016-07-16T08:59:19Z</time>
      </trkpt>
      <trkpt lat="46.14661" lon="3.464">
        <ele>343.55</ele>
        <time>2016-07-16T08:59:25Z</time>
      </trkpt>
      <trkpt lat="46.14641" lon="3.46402">
        <ele>346.31</ele>
        <time>2016-07-16T08:59:31Z</time>
      </trkpt>
      <trkpt lat="46.14622" lon="3.46406">
        <ele>347.39</ele>
        <time>2016-07-16T08:59:37Z</time>
      </trkpt>
      <trkpt lat="46.1461" lon="3.46429">
        <ele>349.51</ele>
        <time>2016-07-16T08:59:44Z</time>
      </trkpt>
      <trkpt lat="46.14607" lon="3.46456">
        <ele>350.51</ele>
        <time>2016-07-16T08:59:50Z</time>
      </trkpt>
      <trkpt lat="46.14595" lon="3.46481">
        <ele>350.55</ele>
        <time>2016-07-16T08:59:56Z</time>
      </trkpt>
      <trkpt lat="46.14581" lon="3.46497">
        <ele>349.4</ele>
        <time>2016-07-16T09:00:00Z</time>
      </trkpt>
      <trkpt lat="46.14562" lon="3.46517">
        <ele>347.59</ele>
        <time>2016-07-16T09:00:04Z</time>
      </trkpt>
      <trkpt lat="46.14542" lon="3.46535">
        <ele>344.8</ele>
        <time>2016-07-16T09:00:07Z</time>
      </trkpt>
      <trkpt lat="46.14522" lon="3.46555">
        <ele>341.8</ele>
        <time>2016-07-16T09:00:10Z</time>
      </trkpt>
      <trkpt lat="46.14505" lon="3.46575">
        <ele>340.56</ele>
        <time>2016-07-16T09:00:14Z</time>
      </trkpt>
      <trkpt lat="46.14509" lon="3.46603">
        <ele>340.36</ele>
        <time>2016-07-16T09:00:19Z</time>
      </trkpt>
      <trkpt lat="46.14518" lon="3.4663">
        <ele>340.55</ele>
        <time>2016-07-16T09:00:24Z</time>
      </trkpt>
      <trkpt lat="46.14525" lon="3.46659">
        <ele>340.55</ele>
        <time>2016-07-16T09:00:29Z</time>
      </trkpt>
      <trkpt lat="46.14529" lon="3.46686">
        <ele>340.55</ele>
        <time>2016-07-16T09:00:33Z</time>
      </trkpt>
      <trkpt lat="46.14536" lon="3.46713">
        <ele>340.55</ele>
        <time>2016-07-16T09:00:37Z</time>
      </trkpt>
      <trkpt lat="46.14545" lon="3.46737">
        <ele>339.56</ele>
        <time>2016-07-16T09:00:41Z</time>
      </trkpt>
      <trkpt lat="46.14557" lon="3.4676">
        <ele>339.55</ele>
        <time>2016-07-16T09:00:45Z</time>
      </trkpt>
      <trkpt lat="46.14567" lon="3.46783">
        <ele>339.55</ele>
        <time>2016-07-16T09:00:49Z</time>
      </trkpt>
      <trkpt lat="46.14578" lon="3.46807">
        <ele>339.55</ele>
        <time>2016-07-16T09:00:53Z</time>
      </trkpt>
      <trkpt lat="46.14586" lon="3.46836">
        <ele>339.52</ele>
        <time>2016-07-16T09:00:58Z</time>
      </trkpt>
      <trkpt lat="46.14583" lon="3.46864">
        <ele>338.59</ele>
        <time>2016-07-16T09:01:02Z</time>
      </trkpt>
      <trkpt lat="46.14575" lon="3.4689">
        <ele>335.76</ele>
        <time>2016-07-16T09:01:06Z</time>
      </trkpt>
      <trkpt lat="46.14584" lon="3.46916">
        <ele>334.51</ele>
        <time>2016-07-16T09:01:20Z</time>
      </trkpt>
      <trkpt lat="46.14594" lon="3.46939">
        <ele>336.51</ele>
        <time>2016-07-16T09:01:26Z</time>
      </trkpt>
      <trkpt lat="46.14583" lon="3.4697">
        <ele>333.63</ele>
        <time>2016-07-16T09:01:31Z</time>
      </trkpt>
      <trkpt lat="46.14571" lon="3.46998">
        <ele>332.55</ele>
        <time>2016-07-16T09:01:35Z</time>
      </trkpt>
      <trkpt lat="46.14565" lon="3.47024">
        <ele>334.35</ele>
        <time>2016-07-16T09:01:39Z</time>
      </trkpt>
      <trkpt lat="46.1456" lon="3.4705">
        <ele>335.35</ele>
        <time>2016-07-16T09:01:43Z</time>
      </trkpt>
      <trkpt lat="46.14554" lon="3.47079">
        <ele>338.3</ele>
        <time>2016-07-16T09:01:49Z</time>
      </trkpt>
      <trkpt lat="46.14544" lon="3.47102">
        <ele>340.35</ele>
        <time>2016-07-16T09:01:56Z</time>
      </trkpt>
      <trkpt lat="46.1453" lon="3.47123">
        <ele>342.38</ele>
        <time>2016-07-16T09:02:03Z</time>
      </trkpt>
      <trkpt lat="46.14519" lon="3.47143">
        <ele>343.55</ele>
        <time>2016-07-16T09:02:10Z</time>
      </trkpt>
      <trkpt lat="46.14507" lon="3.47164">
        <ele>346.54</ele>
        <time>2016-07-16T09:02:17Z</time>
      </trkpt>
      <trkpt lat="46.14495" lon="3.47187">
        <ele>346.55</ele>
        <time>2016-07-16T09:02:24Z</time>
      </trkpt>
      <trkpt lat="46.14482" lon="3.47207">
        <ele>349.51</ele>
        <time>2016-07-16T09:02:31Z</time>
      </trkpt>
      <trkpt lat="46.14469" lon="3.47225">
        <ele>351.38</ele>
        <time>2016-07-16T09:02:38Z</time>
      </trkpt>
      <trkpt lat="46.14463" lon="3.4725">
        <ele>350.55</ele>
        <time>2016-07-16T09:02:44Z</time>
      </trkpt>
      <trkpt lat="46.14478" lon="3.47271">
        <ele>347.59</ele>
        <time>2016-07-16T09:02:51Z</time>
      </trkpt>
      <trkpt lat="46.14495" lon="3.47286">
        <ele>344.87</ele>
        <time>2016-07-16T09:02:56Z</time>
      </trkpt>
      <trkpt lat="46.14512" lon="3.47301">
        <ele>342.63</ele>
        <time>2016-07-16T09:03:01Z</time>
      </trkpt>
      <trkpt lat="46.14527" lon="3.47323">
        <ele>342.56</ele>
        <time>2016-07-16T09:03:06Z</time>
      </trkpt>
      <trkpt lat="46.14538" lon="3.47351">
        <ele>340.57</ele>
        <time>2016-07-16T09:03:11Z</time>
      </trkpt>
      <trkpt lat="46.14554" lon="3.47372">
        <ele>340.55</ele>
        <time>2016-07-16T09:03:16Z</time>
      </trkpt>
      <trkpt lat="46.14571" lon="3.4739">
        <ele>339.71</ele>
        <time>2016-07-16T09:03:21Z</time>
      </trkpt>
      <trkpt lat="46.14588" lon="3.47405">
        <ele>342.34</ele>
        <time>2016-07-16T09:03:26Z</time>
      </trkpt>
      <trkpt lat="46.14597" lon="3.47428">
        <ele>342.55</ele>
        <time>2016-07-16T09:03:32Z</time>
      </trkpt>
      <trkpt lat="46.14591" lon="3.47454">
        <ele>341.79</ele>
        <time>2016-07-16T09:03:36Z</time>
      </trkpt>
      <trkpt lat="46.14575" lon="3.47473">
        <ele>339.79</ele>
        <time>2016-07-16T09:03:40Z</time>
      </trkpt>
      <trkpt lat="46.14555" lon="3.47481">
        <ele>338.59</ele>
        <time>2016-07-16T09:03:44Z</time>
      </trkpt>
      <trkpt lat="46.14534" lon="3.47483">
        <ele>340.35</ele>
        <time>2016-07-16T09:03:48Z</time>
      </trkpt>
      <trkpt lat="46.14514" lon="3.47479">
        <ele>339.79</ele>
        <time>2016-07-16T09:03:53Z</time>
      </trkpt>
      <trkpt lat="46.14493" lon="3.47475">
        <ele>340.35</ele>
        <time>2016-07-16T09:03:59Z</time>
      </trkpt>
      <trkpt lat="46.14475" lon="3.47462">
        <ele>342.51</ele>
        <time>2016-07-16T09:04:05Z</time>
      </trkpt>
      <trkpt lat="46.14461" lon="3.47441">
        <ele>340.63</ele>
        <time>2016-07-16T09:04:11Z</time>
      </trkpt>
      <trkpt lat="46.14442" lon="3.4743">
        <ele>338.56</ele>
        <time>2016-07-16T09:04:15Z</time>
      </trkpt>
      <trkpt lat="46.14418" lon="3.47424">
        <ele>336.59</ele>
        <time>2016-07-16T09:04:19Z</time>
      </trkpt>
      <trkpt lat="46.14399" lon="3.47417">
        <ele>335.56</ele>
        <time>2016-07-16T09:04:22Z</time>
      </trkpt>
      <trkpt lat="46.14381" lon="3.4741">
        <ele>333.44</ele>
        <time>2016-07-16T09:04:25Z</time>
      </trkpt>
      <trkpt lat="46.14363" lon="3.47398">
        <ele>332.4</ele>
        <time>2016-07-16T09:04:28Z</time>
      </trkpt>
      <trkpt lat="46.14346" lon="3.47386">
        <ele>329.8</ele>
        <time>2016-07-16T09:04:31Z</time>
      </trkpt>
      <trkpt lat="46.1433" lon="3.47372">
        <ele>328.59</ele>
        <time>2016-07-16T09:04:34Z</time>
      </trkpt>
      <trkpt lat="46.14312" lon="3.47355">
        <ele>326.63</ele>
        <time>2016-07-16T09:04:37Z</time>
      </trkpt>
      <trkpt lat="46.1429" lon="3.47349">
        <ele>326.36</ele>
        <time>2016-07-16T09:04:40Z</time>
      </trkpt>
      <trkpt lat="46.14265" lon="3.47347">
        <ele>325.75</ele>
        <time>2016-07-16T09:04:43Z</time>
      </trkpt>
      <trkpt lat="46.14242" lon="3.47335">
        <ele>318.64</ele>
        <time>2016-07-16T09:04:46Z</time>
      </trkpt>
      <trkpt lat="46.14224" lon="3.47326">
        <ele>316.64</ele>
        <time>2016-07-16T09:04:48Z</time>
      </trkpt>
      <trkpt lat="46.14206" lon="3.47318">
        <ele>316.56</ele>
        <time>2016-07-16T09:04:50Z</time>
      </trkpt>
      <trkpt lat="46.14181" lon="3.47306">
        <ele>312.81</ele>
        <time>2016-07-16T09:04:53Z</time>
      </trkpt>
      <trkpt lat="46.1416" lon="3.47297">
        <ele>310.76</ele>
        <time>2016-07-16T09:04:56Z</time>
      </trkpt>
      <trkpt lat="46.14134" lon="3.47305">
        <ele>302.33</ele>
        <time>2016-07-16T09:04:59Z</time>
      </trkpt>
      <trkpt lat="46.14115" lon="3.47316">
        <ele>298.86</ele>
        <time>2016-07-16T09:05:01Z</time>
      </trkpt>
      <trkpt lat="46.14095" lon="3.47326">
        <ele>296.81</ele>
        <time>2016-07-16T09:05:03Z</time>
      </trkpt>
      <trkpt lat="46.14075" lon="3.47332">
        <ele>295.76</ele>
        <time>2016-07-16T09:05:05Z</time>
      </trkpt>
      <trkpt lat="46.14052" lon="3.47346">
        <ele>292.8</ele>
        <time>2016-07-16T09:05:08Z</time>
      </trkpt>
      <trkpt lat="46.1404" lon="3.47366">
        <ele>290.8</ele>
        <time>2016-07-16T09:05:10Z</time>
      </trkpt>
      <trkpt lat="46.14029" lon="3.47391">
        <ele>288.8</ele>
        <time>2016-07-16T09:05:12Z</time>
      </trkpt>
      <trkpt lat="46.14018" lon="3.47415">
        <ele>286.8</ele>
        <time>2016-07-16T09:05:14Z</time>
      </trkpt>
      <trkpt lat="46.1401" lon="3.4744">
        <ele>287.52</ele>
        <time>2016-07-16T09:05:16Z</time>
      </trkpt>
      <trkpt lat="46.14001" lon="3.47471">
        <ele>289.15</ele>
        <time>2016-07-16T09:05:19Z</time>
      </trkpt>
      <trkpt lat="46.13991" lon="3.47494">
        <ele>292.5</ele>
        <time>2016-07-16T09:05:23Z</time>
      </trkpt>
      <trkpt lat="46.13974" lon="3.47505">
        <ele>294.55</ele>
        <time>2016-07-16T09:05:29Z</time>
      </trkpt>
      <trkpt lat="46.13956" lon="3.47495">
        <ele>293.55</ele>
        <time>2016-07-16T09:05:33Z</time>
      </trkpt>
      <trkpt lat="46.13936" lon="3.47487">
        <ele>294.55</ele>
        <time>2016-07-16T09:05:37Z</time>
      </trkpt>
      <trkpt lat="46.13916" lon="3.47492">
        <ele>294.56</ele>
        <time>2016-07-16T09:05:41Z</time>
      </trkpt>
      <trkpt lat="46.13893" lon="3.47501">
        <ele>290.84</ele>
        <time>2016-07-16T09:05:45Z</time>
      </trkpt>
      <trkpt lat="46.13872" lon="3.47499">
        <ele>290.56</ele>
        <time>2016-07-16T09:05:48Z</time>
      </trkpt>
      <trkpt lat="46.13855" lon="3.47481">
        <ele>287.8</ele>
        <time>2016-07-16T09:05:51Z</time>
      </trkpt>
      <trkpt lat="46.13836" lon="3.47462">
        <ele>285.76</ele>
        <time>2016-07-16T09:05:54Z</time>
      </trkpt>
      <trkpt lat="46.13815" lon="3.47456">
        <ele>283.6</ele>
        <time>2016-07-16T09:05:57Z</time>
      </trkpt>
      <trkpt lat="46.13803" lon="3.47436">
        <ele>283.51</ele>
        <time>2016-07-16T09:06:01Z</time>
      </trkpt>
      <trkpt lat="46.13792" lon="3.4741">
        <ele>281.63</ele>
        <time>2016-07-16T09:06:05Z</time>
      </trkpt>
      <trkpt lat="46.1378" lon="3.47384">
        <ele>282.51</ele>
        <time>2016-07-16T09:06:09Z</time>
      </trkpt>
      <trkpt lat="46.1377" lon="3.47354">
        <ele>282.55</ele>
        <time>2016-07-16T09:06:13Z</time>
      </trkpt>
      <trkpt lat="46.13756" lon="3.47327">
        <ele>280.75</ele>
        <time>2016-07-16T09:06:17Z</time>
      </trkpt>
      <trkpt lat="46.13734" lon="3.4734">
        <ele>279.56</ele>
        <time>2016-07-16T09:06:21Z</time>
      </trkpt>
      <trkpt lat="46.13724" lon="3.47364">
        <ele>279.55</ele>
        <time>2016-07-16T09:06:24Z</time>
      </trkpt>
      <trkpt lat="46.13716" lon="3.47388">
        <ele>279.55</ele>
        <time>2016-07-16T09:06:27Z</time>
      </trkpt>
      <trkpt lat="46.13705" lon="3.47418">
        <ele>279.56</ele>
        <time>2016-07-16T09:06:31Z</time>
      </trkpt>
      <trkpt lat="46.13693" lon="3.47438">
        <ele>278.56</ele>
        <time>2016-07-16T09:06:34Z</time>
      </trkpt>
      <trkpt lat="46.13677" lon="3.47459">
        <ele>278.56</ele>
        <time>2016-07-16T09:06:38Z</time>
      </trkpt>
      <trkpt lat="46.13665" lon="3.47481">
        <ele>280.7</ele>
        <time>2016-07-16T09:06:42Z</time>
      </trkpt>
      <trkpt lat="46.13652" lon="3.47506">
        <ele>283.7</ele>
        <time>2016-07-16T09:06:47Z</time>
      </trkpt>
      <trkpt lat="46.13652" lon="3.47533">
        <ele>284.54</ele>
        <time>2016-07-16T09:06:51Z</time>
      </trkpt>
      <trkpt lat="46.13656" lon="3.47561">
        <ele>281.43</ele>
        <time>2016-07-16T09:06:55Z</time>
      </trkpt>
      <trkpt lat="46.13664" lon="3.47588">
        <ele>287.29</ele>
        <time>2016-07-16T09:06:59Z</time>
      </trkpt>
      <trkpt lat="46.13669" lon="3.47614">
        <ele>288.31</ele>
        <time>2016-07-16T09:07:03Z</time>
      </trkpt>
      <trkpt lat="46.13672" lon="3.47642">
        <ele>289.7</ele>
        <time>2016-07-16T09:07:07Z</time>
      </trkpt>
      <trkpt lat="46.13676" lon="3.47674">
        <ele>287.36</ele>
        <time>2016-07-16T09:07:12Z</time>
      </trkpt>
      <trkpt lat="46.13675" lon="3.47702">
        <ele>289.5</ele>
        <time>2016-07-16T09:07:18Z</time>
      </trkpt>
      <trkpt lat="46.13659" lon="3.47715">
        <ele>290.36</ele>
        <time>2016-07-16T09:07:24Z</time>
      </trkpt>
      <trkpt lat="46.13643" lon="3.47726">
        <ele>291.71</ele>
        <time>2016-07-16T09:07:29Z</time>
      </trkpt>
      <trkpt lat="46.13622" lon="3.47731">
        <ele>293.55</ele>
        <time>2016-07-16T09:07:36Z</time>
      </trkpt>
      <trkpt lat="46.13602" lon="3.47735">
        <ele>291.71</ele>
        <time>2016-07-16T09:07:43Z</time>
      </trkpt>
      <trkpt lat="46.13584" lon="3.47741">
        <ele>294.32</ele>
        <time>2016-07-16T09:07:51Z</time>
      </trkpt>
      <trkpt lat="46.13564" lon="3.4775">
        <ele>294.91</ele>
        <time>2016-07-16T09:07:59Z</time>
      </trkpt>
      <trkpt lat="46.13547" lon="3.4776">
        <ele>298.51</ele>
        <time>2016-07-16T09:08:09Z</time>
      </trkpt>
      <trkpt lat="46.13531" lon="3.47774">
        <ele>303.54</ele>
        <time>2016-07-16T09:08:20Z</time>
      </trkpt>
      <trkpt lat="46.13515" lon="3.47791">
        <ele>306.55</ele>
        <time>2016-07-16T09:08:31Z</time>
      </trkpt>
      <trkpt lat="46.13496" lon="3.47797">
        <ele>307.55</ele>
        <time>2016-07-16T09:08:42Z</time>
      </trkpt>
      <trkpt lat="46.13476" lon="3.47799">
        <ele>307.55</ele>
        <time>2016-07-16T09:08:53Z</time>
      </trkpt>
      <trkpt lat="46.13461" lon="3.47815">
        <ele>309.51</ele>
        <time>2016-07-16T09:09:03Z</time>
      </trkpt>
      <trkpt lat="46.13445" lon="3.47829">
        <ele>313.54</ele>
        <time>2016-07-16T09:09:14Z</time>
      </trkpt>
      <trkpt lat="46.13431" lon="3.47845">
        <ele>314.71</ele>
        <time>2016-07-16T09:09:25Z</time>
      </trkpt>
      <trkpt lat="46.13414" lon="3.47858">
        <ele>319.52</ele>
        <time>2016-07-16T09:09:38Z</time>
      </trkpt>
      <trkpt lat="46.134" lon="3.47876">
        <ele>323.56</ele>
        <time>2016-07-16T09:09:51Z</time>
      </trkpt>
      <trkpt lat="46.13385" lon="3.47894">
        <ele>329.32</ele>
        <time>2016-07-16T09:10:03Z</time>
      </trkpt>
      <trkpt lat="46.13376" lon="3.47919">
        <ele>331.55</ele>
        <time>2016-07-16T09:10:14Z</time>
      </trkpt>
      <trkpt lat="46.13362" lon="3.47937">
        <ele>331.55</ele>
        <time>2016-07-16T09:10:25Z</time>
      </trkpt>
      <trkpt lat="46.13346" lon="3.47951">
        <ele>333.3</ele>
        <time>2016-07-16T09:10:36Z</time>
      </trkpt>
      <trkpt lat="46.13329" lon="3.47962">
        <ele>334.59</ele>
        <time>2016-07-16T09:10:47Z</time>
      </trkpt>
      <trkpt lat="46.13311" lon="3.47971">
        <ele>337.54</ele>
        <time>2016-07-16T09:10:58Z</time>
      </trkpt>
      <trkpt lat="46.13294" lon="3.47981">
        <ele>340.51</ele>
        <time>2016-07-16T09:11:10Z</time>
      </trkpt>
      <trkpt lat="46.13275" lon="3.47987">
        <ele>339.55</ele>
        <time>2016-07-16T09:11:20Z</time>
      </trkpt>
      <trkpt lat="46.13256" lon="3.4799">
        <ele>340.52</ele>
        <time>2016-07-16T09:11:30Z</time>
      </trkpt>
      <trkpt lat="46.13238" lon="3.47997">
        <ele>340.55</ele>
        <time>2016-07-16T09:11:40Z</time>
      </trkpt>
      <trkpt lat="46.13218" lon="3.48004">
        <ele>343.35</ele>
        <time>2016-07-16T09:11:51Z</time>
      </trkpt>
      <trkpt lat="46.132" lon="3.48011">
        <ele>343.75</ele>
        <time>2016-07-16T09:11:59Z</time>
      </trkpt>
      <trkpt lat="46.13181" lon="3.48018">
        <ele>342.71</ele>
        <time>2016-07-16T09:12:09Z</time>
      </trkpt>
      <trkpt lat="46.13163" lon="3.48025">
        <ele>345.54</ele>
        <time>2016-07-16T09:12:18Z</time>
      </trkpt>
      <trkpt lat="46.13145" lon="3.48035">
        <ele>347.54</ele>
        <time>2016-07-16T09:12:28Z</time>
      </trkpt>
      <trkpt lat="46.13126" lon="3.48039">
        <ele>349.51</ele>
        <time>2016-07-16T09:12:37Z</time>
      </trkpt>
      <trkpt lat="46.13107" lon="3.48045">
        <ele>352.51</ele>
        <time>2016-07-16T09:12:46Z</time>
      </trkpt>
      <trkpt lat="46.13088" lon="3.48047">
        <ele>353.51</ele>
        <time>2016-07-16T09:12:57Z</time>
      </trkpt>
      <trkpt lat="46.1307" lon="3.4804">
        <ele>354.52</ele>
        <time>2016-07-16T09:13:07Z</time>
      </trkpt>
      <trkpt lat="46.1306" lon="3.48014">
        <ele>357.55</ele>
        <time>2016-07-16T09:13:17Z</time>
      </trkpt>
      <trkpt lat="46.13055" lon="3.47987">
        <ele>355.76</ele>
        <time>2016-07-16T09:13:24Z</time>
      </trkpt>
      <trkpt lat="46.13051" lon="3.47962">
        <ele>354.56</ele>
        <time>2016-07-16T09:13:30Z</time>
      </trkpt>
      <trkpt lat="46.13047" lon="3.47935">
        <ele>355.75</ele>
        <time>2016-07-16T09:13:35Z</time>
      </trkpt>
      <trkpt lat="46.13045" lon="3.47904">
        <ele>353.6</ele>
        <time>2016-07-16T09:13:39Z</time>
      </trkpt>
      <trkpt lat="46.13041" lon="3.47879">
        <ele>352.75</ele>
        <time>2016-07-16T09:13:42Z</time>
      </trkpt>
      <trkpt lat="46.13033" lon="3.47854">
        <ele>350.95</ele>
        <time>2016-07-16T09:13:45Z</time>
      </trkpt>
      <trkpt lat="46.1303" lon="3.47822">
        <ele>349.59</ele>
        <time>2016-07-16T09:13:49Z</time>
      </trkpt>
      <trkpt lat="46.13015" lon="3.47804">
        <ele>348.4</ele>
        <time>2016-07-16T09:13:53Z</time>
      </trkpt>
      <trkpt lat="46.12996" lon="3.47809">
        <ele>350.35</ele>
        <time>2016-07-16T09:13:59Z</time>
      </trkpt>
      <trkpt lat="46.12977" lon="3.47813">
        <ele>354.34</ele>
        <time>2016-07-16T09:14:07Z</time>
      </trkpt>
      <trkpt lat="46.12966" lon="3.47837">
        <ele>358.35</ele>
        <time>2016-07-16T09:14:16Z</time>
      </trkpt>
      <trkpt lat="46.12948" lon="3.4785">
        <ele>360.32</ele>
        <time>2016-07-16T09:14:24Z</time>
      </trkpt>
      <trkpt lat="46.12929" lon="3.47844">
        <ele>362.34</ele>
        <time>2016-07-16T09:14:32Z</time>
      </trkpt>
      <trkpt lat="46.12909" lon="3.47837">
        <ele>363.74</ele>
        <time>2016-07-16T09:14:40Z</time>
      </trkpt>
      <trkpt lat="46.12891" lon="3.47834">
        <ele>363.52</ele>
        <time>2016-07-16T09:14:47Z</time>
      </trkpt>
      <trkpt lat="46.12871" lon="3.47832">
        <ele>364.92</ele>
        <time>2016-07-16T09:14:55Z</time>
      </trkpt>
      <trkpt lat="46.12853" lon="3.47841">
        <ele>367.55</ele>
        <time>2016-07-16T09:15:03Z</time>
      </trkpt>
      <trkpt lat="46.12832" lon="3.47844">
        <ele>369.52</ele>
        <time>2016-07-16T09:15:12Z</time>
      </trkpt>
      <trkpt lat="46.12814" lon="3.47848">
        <ele>371.31</ele>
        <time>2016-07-16T09:15:21Z</time>
      </trkpt>
      <trkpt lat="46.12794" lon="3.47847">
        <ele>372.36</ele>
        <time>2016-07-16T09:15:32Z</time>
      </trkpt>
      <trkpt lat="46.12777" lon="3.47852">
        <ele>374.35</ele>
        <time>2016-07-16T09:15:41Z</time>
      </trkpt>
      <trkpt lat="46.12757" lon="3.47856">
        <ele>373.53</ele>
        <time>2016-07-16T09:15:51Z</time>
      </trkpt>
      <trkpt lat="46.12738" lon="3.47857">
        <ele>374.31</ele>
        <time>2016-07-16T09:16:02Z</time>
      </trkpt>
      <trkpt lat="46.1272" lon="3.47857">
        <ele>378.7</ele>
        <time>2016-07-16T09:16:13Z</time>
      </trkpt>
      <trkpt lat="46.12701" lon="3.47859">
        <ele>382.51</ele>
        <time>2016-07-16T09:16:27Z</time>
      </trkpt>
      <trkpt lat="46.12681" lon="3.47861">
        <ele>378.55</ele>
        <time>2016-07-16T09:16:42Z</time>
      </trkpt>
      <trkpt lat="46.12663" lon="3.47862">
        <ele>378.55</ele>
        <time>2016-07-16T09:16:54Z</time>
      </trkpt>
      <trkpt lat="46.12645" lon="3.47865">
        <ele>379.75</ele>
        <time>2016-07-16T09:17:06Z</time>
      </trkpt>
      <trkpt lat="46.12628" lon="3.47872">
        <ele>381.54</ele>
        <time>2016-07-16T09:17:18Z</time>
      </trkpt>
      <trkpt lat="46.1261" lon="3.4788">
        <ele>387.3</ele>
        <time>2016-07-16T09:17:31Z</time>
      </trkpt>
      <trkpt lat="46.12603" lon="3.47904">
        <ele>394.51</ele>
        <time>2016-07-16T09:17:44Z</time>
      </trkpt>
      <trkpt lat="46.126" lon="3.47932">
        <ele>398.35</ele>
        <time>2016-07-16T09:17:58Z</time>
      </trkpt>
      <trkpt lat="46.12595" lon="3.47958">
        <ele>401.51</ele>
        <time>2016-07-16T09:18:13Z</time>
      </trkpt>
      <trkpt lat="46.12588" lon="3.47984">
        <ele>405.59</ele>
        <time>2016-07-16T09:18:26Z</time>
      </trkpt>
      <trkpt lat="46.12583" lon="3.48013">
        <ele>405.95</ele>
        <time>2016-07-16T09:18:39Z</time>
      </trkpt>
      <trkpt lat="46.1258" lon="3.4804">
        <ele>409.5</ele>
        <time>2016-07-16T09:18:53Z</time>
      </trkpt>
      <trkpt lat="46.12576" lon="3.48067">
        <ele>416.5</ele>
        <time>2016-07-16T09:19:07Z</time>
      </trkpt>
      <trkpt lat="46.12562" lon="3.48084">
        <ele>423.31</ele>
        <time>2016-07-16T09:19:18Z</time>
      </trkpt>
      <trkpt lat="46.12554" lon="3.48109">
        <ele>425.75</ele>
        <time>2016-07-16T09:19:27Z</time>
      </trkpt>
      <trkpt lat="46.12551" lon="3.48137">
        <ele>422.73</ele>
        <time>2016-07-16T09:19:39Z</time>
      </trkpt>
      <trkpt lat="46.12553" lon="3.48164">
        <ele>423.55</ele>
        <time>2016-07-16T09:19:52Z</time>
      </trkpt>
      <trkpt lat="46.12555" lon="3.48192">
        <ele>422.71</ele>
        <time>2016-07-16T09:20:06Z</time>
      </trkpt>
      <trkpt lat="46.12554" lon="3.48219">
        <ele>422.36</ele>
        <time>2016-07-16T09:20:17Z</time>
      </trkpt>
      <trkpt lat="46.12547" lon="3.48245">
        <ele>424.56</ele>
        <time>2016-07-16T09:20:29Z</time>
      </trkpt>
      <trkpt lat="46.12542" lon="3.48271">
        <ele>429.34</ele>
        <time>2016-07-16T09:20:41Z</time>
      </trkpt>
      <trkpt lat="46.12535" lon="3.48295">
        <ele>429.55</ele>
        <time>2016-07-16T09:20:53Z</time>
      </trkpt>
      <trkpt lat="46.12529" lon="3.48322">
        <ele>426.59</ele>
        <time>2016-07-16T09:21:05Z</time>
      </trkpt>
      <trkpt lat="46.12521" lon="3.48346">
        <ele>434.51</ele>
        <time>2016-07-16T09:21:17Z</time>
      </trkpt>
      <trkpt lat="46.12514" lon="3.48371">
        <ele>437.36</ele>
        <time>2016-07-16T09:21:29Z</time>
      </trkpt>
      <trkpt lat="46.12505" lon="3.48395">
        <ele>438.35</ele>
        <time>2016-07-16T09:21:40Z</time>
      </trkpt>
      <trkpt lat="46.12496" lon="3.48419">
        <ele>438.55</ele>
        <time>2016-07-16T09:21:50Z</time>
      </trkpt>
      <trkpt lat="46.12491" lon="3.48444">
        <ele>440.39</ele>
        <time>2016-07-16T09:22:01Z</time>
      </trkpt>
      <trkpt lat="46.12482" lon="3.48468">
        <ele>442.71</ele>
        <time>2016-07-16T09:22:12Z</time>
      </trkpt>
      <trkpt lat="46.12474" lon="3.48492">
        <ele>441.79</ele>
        <time>2016-07-16T09:22:22Z</time>
      </trkpt>
      <trkpt lat="46.12468" lon="3.48517">
        <ele>442.6</ele>
        <time>2016-07-16T09:22:33Z</time>
      </trkpt>
      <trkpt lat="46.1246" lon="3.48541">
        <ele>442.56</ele>
        <time>2016-07-16T09:22:44Z</time>
      </trkpt>
      <trkpt lat="46.12451" lon="3.48565">
        <ele>445.55</ele>
        <time>2016-07-16T09:22:54Z</time>
      </trkpt>
      <trkpt lat="46.12438" lon="3.48587">
        <ele>450.38</ele>
        <time>2016-07-16T09:23:06Z</time>
      </trkpt>
      <trkpt lat="46.12427" lon="3.48608">
        <ele>451.55</ele>
        <time>2016-07-16T09:23:16Z</time>
      </trkpt>
      <trkpt lat="46.12411" lon="3.48624">
        <ele>455.39</ele>
        <time>2016-07-16T09:23:26Z</time>
      </trkpt>
      <trkpt lat="46.12395" lon="3.48637">
        <ele>454.56</ele>
        <time>2016-07-16T09:23:34Z</time>
      </trkpt>
      <trkpt lat="46.12377" lon="3.48648">
        <ele>457.34</ele>
        <time>2016-07-16T09:23:43Z</time>
      </trkpt>
      <trkpt lat="46.12362" lon="3.48663">
        <ele>457.55</ele>
        <time>2016-07-16T09:23:51Z</time>
      </trkpt>
      <trkpt lat="46.12346" lon="3.48683">
        <ele>458.51</ele>
        <time>2016-07-16T09:23:57Z</time>
      </trkpt>
      <trkpt lat="46.12331" lon="3.48701">
        <ele>458.51</ele>
        <time>2016-07-16T09:24:04Z</time>
      </trkpt>
      <trkpt lat="46.12317" lon="3.4872">
        <ele>457.56</ele>
        <time>2016-07-16T09:24:11Z</time>
      </trkpt>
      <trkpt lat="46.12303" lon="3.48739">
        <ele>459.38</ele>
        <time>2016-07-16T09:24:18Z</time>
      </trkpt>
      <trkpt lat="46.12288" lon="3.48759">
        <ele>462.55</ele>
        <time>2016-07-16T09:24:26Z</time>
      </trkpt>
      <trkpt lat="46.12274" lon="3.48777">
        <ele>463.58</ele>
        <time>2016-07-16T09:24:33Z</time>
      </trkpt>
      <trkpt lat="46.12259" lon="3.48794">
        <ele>464.55</ele>
        <time>2016-07-16T09:24:40Z</time>
      </trkpt>
      <trkpt lat="46.12244" lon="3.48814">
        <ele>466.51</ele>
        <time>2016-07-16T09:24:48Z</time>
      </trkpt>
      <trkpt lat="46.12232" lon="3.48834">
        <ele>469.35</ele>
        <time>2016-07-16T09:24:55Z</time>
      </trkpt>
      <trkpt lat="46.12222" lon="3.48857">
        <ele>469.74</ele>
        <time>2016-07-16T09:25:02Z</time>
      </trkpt>
      <trkpt lat="46.12212" lon="3.48881">
        <ele>469.55</ele>
        <time>2016-07-16T09:25:10Z</time>
      </trkpt>
      <trkpt lat="46.12202" lon="3.48904">
        <ele>469.52</ele>
        <time>2016-07-16T09:25:17Z</time>
      </trkpt>
      <trkpt lat="46.12193" lon="3.48933">
        <ele>468.55</ele>
        <time>2016-07-16T09:25:24Z</time>
      </trkpt>
      <trkpt lat="46.12184" lon="3.48966">
        <ele>464</ele>
        <time>2016-07-16T09:25:28Z</time>
      </trkpt>
      <trkpt lat="46.12175" lon="3.48997">
        <ele>461.8</ele>
        <time>2016-07-16T09:25:31Z</time>
      </trkpt>
      <trkpt lat="46.12168" lon="3.49024">
        <ele>459.76</ele>
        <time>2016-07-16T09:25:35Z</time>
      </trkpt>
      <trkpt lat="46.1217" lon="3.49057">
        <ele>458.52</ele>
        <time>2016-07-16T09:25:40Z</time>
      </trkpt>
      <trkpt lat="46.1217" lon="3.49084">
        <ele>459.67</ele>
        <time>2016-07-16T09:25:44Z</time>
      </trkpt>
      <trkpt lat="46.12164" lon="3.49109">
        <ele>458.57</ele>
        <time>2016-07-16T09:25:48Z</time>
      </trkpt>
      <trkpt lat="46.12152" lon="3.49134">
        <ele>459.71</ele>
        <time>2016-07-16T09:25:53Z</time>
      </trkpt>
      <trkpt lat="46.12139" lon="3.49153">
        <ele>461.35</ele>
        <time>2016-07-16T09:25:57Z</time>
      </trkpt>
      <trkpt lat="46.12124" lon="3.49172">
        <ele>461.55</ele>
        <time>2016-07-16T09:26:02Z</time>
      </trkpt>
      <trkpt lat="46.12109" lon="3.49194">
        <ele>460.59</ele>
        <time>2016-07-16T09:26:07Z</time>
      </trkpt>
      <trkpt lat="46.12093" lon="3.49211">
        <ele>461.55</ele>
        <time>2016-07-16T09:26:12Z</time>
      </trkpt>
      <trkpt lat="46.12075" lon="3.49231">
        <ele>462.55</ele>
        <time>2016-07-16T09:26:17Z</time>
      </trkpt>
      <trkpt lat="46.1206" lon="3.49246">
        <ele>462.55</ele>
        <time>2016-07-16T09:26:21Z</time>
      </trkpt>
      <trkpt lat="46.12045" lon="3.49263">
        <ele>462.58</ele>
        <time>2016-07-16T09:26:25Z</time>
      </trkpt>
      <trkpt lat="46.12029" lon="3.49281">
        <ele>464.54</ele>
        <time>2016-07-16T09:26:30Z</time>
      </trkpt>
      <trkpt lat="46.12013" lon="3.49298">
        <ele>464.55</ele>
        <time>2016-07-16T09:26:35Z</time>
      </trkpt>
      <trkpt lat="46.11997" lon="3.49316">
        <ele>466.54</ele>
        <time>2016-07-16T09:26:40Z</time>
      </trkpt>
      <trkpt lat="46.11978" lon="3.49331">
        <ele>467.71</ele>
        <time>2016-07-16T09:26:45Z</time>
      </trkpt>
      <trkpt lat="46.1196" lon="3.49342">
        <ele>468.51</ele>
        <time>2016-07-16T09:26:50Z</time>
      </trkpt>
      <trkpt lat="46.11942" lon="3.49351">
        <ele>469.35</ele>
        <time>2016-07-16T09:26:55Z</time>
      </trkpt>
      <trkpt lat="46.11925" lon="3.49361">
        <ele>470.52</ele>
        <time>2016-07-16T09:27:00Z</time>
      </trkpt>
      <trkpt lat="46.11906" lon="3.49373">
        <ele>470.55</ele>
        <time>2016-07-16T09:27:06Z</time>
      </trkpt>
      <trkpt lat="46.11887" lon="3.49384">
        <ele>472.51</ele>
        <time>2016-07-16T09:27:12Z</time>
      </trkpt>
      <trkpt lat="46.11868" lon="3.49395">
        <ele>473.35</ele>
        <time>2016-07-16T09:27:18Z</time>
      </trkpt>
      <trkpt lat="46.1185" lon="3.49403">
        <ele>474.58</ele>
        <time>2016-07-16T09:27:23Z</time>
      </trkpt>
      <trkpt lat="46.1183" lon="3.49411">
        <ele>474.75</ele>
        <time>2016-07-16T09:27:29Z</time>
      </trkpt>
      <trkpt lat="46.11811" lon="3.49411">
        <ele>474.55</ele>
        <time>2016-07-16T09:27:34Z</time>
      </trkpt>
      <trkpt lat="46.11792" lon="3.49409">
        <ele>474.51</ele>
        <time>2016-07-16T09:27:39Z</time>
      </trkpt>
      <trkpt lat="46.11773" lon="3.49406">
        <ele>473.59</ele>
        <time>2016-07-16T09:27:44Z</time>
      </trkpt>
      <trkpt lat="46.11755" lon="3.49403">
        <ele>475.35</ele>
        <time>2016-07-16T09:27:49Z</time>
      </trkpt>
      <trkpt lat="46.11736" lon="3.49398">
        <ele>474.55</ele>
        <time>2016-07-16T09:27:55Z</time>
      </trkpt>
      <trkpt lat="46.11718" lon="3.49394">
        <ele>474.39</ele>
        <time>2016-07-16T09:28:00Z</time>
      </trkpt>
      <trkpt lat="46.11698" lon="3.49387">
        <ele>474.51</ele>
        <time>2016-07-16T09:28:06Z</time>
      </trkpt>
      <trkpt lat="46.11678" lon="3.49378">
        <ele>472.75</ele>
        <time>2016-07-16T09:28:12Z</time>
      </trkpt>
      <trkpt lat="46.11658" lon="3.49373">
        <ele>472.56</ele>
        <time>2016-07-16T09:28:17Z</time>
      </trkpt>
      <trkpt lat="46.11637" lon="3.49367">
        <ele>473.55</ele>
        <time>2016-07-16T09:28:22Z</time>
      </trkpt>
      <trkpt lat="46.11618" lon="3.49363">
        <ele>471.59</ele>
        <time>2016-07-16T09:28:26Z</time>
      </trkpt>
      <trkpt lat="46.11597" lon="3.49359">
        <ele>471.55</ele>
        <time>2016-07-16T09:28:30Z</time>
      </trkpt>
      <trkpt lat="46.11574" lon="3.49359">
        <ele>471.55</ele>
        <time>2016-07-16T09:28:35Z</time>
      </trkpt>
      <trkpt lat="46.11557" lon="3.49349">
        <ele>471.55</ele>
        <time>2016-07-16T09:28:39Z</time>
      </trkpt>
      <trkpt lat="46.11537" lon="3.49343">
        <ele>469.8</ele>
        <time>2016-07-16T09:28:43Z</time>
      </trkpt>
      <trkpt lat="46.1152" lon="3.49358">
        <ele>469.55</ele>
        <time>2016-07-16T09:28:46Z</time>
      </trkpt>
      <trkpt lat="46.11505" lon="3.49379">
        <ele>467.76</ele>
        <time>2016-07-16T09:28:50Z</time>
      </trkpt>
      <trkpt lat="46.11485" lon="3.49375">
        <ele>465.52</ele>
        <time>2016-07-16T09:28:54Z</time>
      </trkpt>
      <trkpt lat="46.11468" lon="3.49361">
        <ele>460.61</ele>
        <time>2016-07-16T09:28:59Z</time>
      </trkpt>
      <trkpt lat="46.11448" lon="3.49367">
        <ele>461.74</ele>
        <time>2016-07-16T09:29:42Z</time>
      </trkpt>
      <trkpt lat="46.11431" lon="3.49377">
        <ele>461.55</ele>
        <time>2016-07-16T09:29:53Z</time>
      </trkpt>
      <trkpt lat="46.11412" lon="3.49377">
        <ele>461.75</ele>
        <time>2016-07-16T09:30:08Z</time>
      </trkpt>
      <trkpt lat="46.11394" lon="3.49369">
        <ele>460.55</ele>
        <time>2016-07-16T09:30:20Z</time>
      </trkpt>
      <trkpt lat="46.11377" lon="3.49364">
        <ele>459.56</ele>
        <time>2016-07-16T09:30:34Z</time>
      </trkpt>
      <trkpt lat="46.11363" lon="3.49345">
        <ele>456.76</ele>
        <time>2016-07-16T09:30:42Z</time>
      </trkpt>
      <trkpt lat="46.11354" lon="3.49319">
        <ele>454.59</ele>
        <time>2016-07-16T09:30:48Z</time>
      </trkpt>
      <trkpt lat="46.11345" lon="3.49295">
        <ele>452.76</ele>
        <time>2016-07-16T09:30:52Z</time>
      </trkpt>
      <trkpt lat="46.11338" lon="3.49265">
        <ele>450.59</ele>
        <time>2016-07-16T09:30:56Z</time>
      </trkpt>
      <trkpt lat="46.11328" lon="3.49241">
        <ele>449.76</ele>
        <time>2016-07-16T09:31:01Z</time>
      </trkpt>
      <trkpt lat="46.11324" lon="3.49214">
        <ele>446.79</ele>
        <time>2016-07-16T09:31:06Z</time>
      </trkpt>
      <trkpt lat="46.1132" lon="3.49185">
        <ele>441.79</ele>
        <time>2016-07-16T09:33:06Z</time>
      </trkpt>
      <trkpt lat="46.1131" lon="3.49159">
        <ele>441.55</ele>
        <time>2016-07-16T09:33:12Z</time>
      </trkpt>
      <trkpt lat="46.11303" lon="3.49133">
        <ele>435.84</ele>
        <time>2016-07-16T09:33:16Z</time>
      </trkpt>
      <trkpt lat="46.11294" lon="3.49106">
        <ele>432.8</ele>
        <time>2016-07-16T09:33:20Z</time>
      </trkpt>
      <trkpt lat="46.11287" lon="3.49081">
        <ele>428.76</ele>
        <time>2016-07-16T09:34:51Z</time>
      </trkpt>
      <trkpt lat="46.1128" lon="3.49053">
        <ele>426.53</ele>
        <time>2016-07-16T09:35:22Z</time>
      </trkpt>
      <trkpt lat="46.11274" lon="3.49028">
        <ele>425.56</ele>
        <time>2016-07-16T09:35:26Z</time>
      </trkpt>
      <trkpt lat="46.11266" lon="3.48998">
        <ele>425.35</ele>
        <time>2016-07-16T09:35:30Z</time>
      </trkpt>
      <trkpt lat="46.1126" lon="3.48965">
        <ele>424.63</ele>
        <time>2016-07-16T09:35:34Z</time>
      </trkpt>
      <trkpt lat="46.11256" lon="3.48935">
        <ele>421.99</ele>
        <time>2016-07-16T09:35:37Z</time>
      </trkpt>
      <trkpt lat="46.11251" lon="3.48903">
        <ele>421.59</ele>
        <time>2016-07-16T09:35:40Z</time>
      </trkpt>
      <trkpt lat="46.11246" lon="3.48871">
        <ele>421.71</ele>
        <time>2016-07-16T09:35:42Z</time>
      </trkpt>
      <trkpt lat="46.11241" lon="3.48842">
        <ele>418.04</ele>
        <time>2016-07-16T09:35:45Z</time>
      </trkpt>
      <trkpt lat="46.11237" lon="3.4881">
        <ele>414</ele>
        <time>2016-07-16T09:35:48Z</time>
      </trkpt>
      <trkpt lat="46.11232" lon="3.48775">
        <ele>411.76</ele>
        <time>2016-07-16T09:35:51Z</time>
      </trkpt>
      <trkpt lat="46.11227" lon="3.4874">
        <ele>409.79</ele>
        <time>2016-07-16T09:35:54Z</time>
      </trkpt>
      <trkpt lat="46.11225" lon="3.48708">
        <ele>406.16</ele>
        <time>2016-07-16T09:35:57Z</time>
      </trkpt>
      <trkpt lat="46.11222" lon="3.48676">
        <ele>401.61</ele>
        <time>2016-07-16T09:36:01Z</time>
      </trkpt>
      <trkpt lat="46.11212" lon="3.4865">
        <ele>398.41</ele>
        <time>2016-07-16T09:36:05Z</time>
      </trkpt>
      <trkpt lat="46.11196" lon="3.48629">
        <ele>397.72</ele>
        <time>2016-07-16T09:36:08Z</time>
      </trkpt>
      <trkpt lat="46.11182" lon="3.48609">
        <ele>395.8</ele>
        <time>2016-07-16T09:36:10Z</time>
      </trkpt>
      <trkpt lat="46.1117" lon="3.48582">
        <ele>390.88</ele>
        <time>2016-07-16T09:36:13Z</time>
      </trkpt>
      <trkpt lat="46.11157" lon="3.48551">
        <ele>387.64</ele>
        <time>2016-07-16T09:36:16Z</time>
      </trkpt>
      <trkpt lat="46.11148" lon="3.48523">
        <ele>388.35</ele>
        <time>2016-07-16T09:36:19Z</time>
      </trkpt>
      <trkpt lat="46.1114" lon="3.48488">
        <ele>382.97</ele>
        <time>2016-07-16T09:36:23Z</time>
      </trkpt>
      <trkpt lat="46.1112" lon="3.4849">
        <ele>375.79</ele>
        <time>2016-07-16T09:36:27Z</time>
      </trkpt>
      <trkpt lat="46.1111" lon="3.48513">
        <ele>374.79</ele>
        <time>2016-07-16T09:36:30Z</time>
      </trkpt>
      <trkpt lat="46.111" lon="3.48542">
        <ele>369.82</ele>
        <time>2016-07-16T09:36:33Z</time>
      </trkpt>
      <trkpt lat="46.11095" lon="3.48568">
        <ele>367.6</ele>
        <time>2016-07-16T09:36:36Z</time>
      </trkpt>
      <trkpt lat="46.11088" lon="3.486">
        <ele>369.73</ele>
        <time>2016-07-16T09:36:39Z</time>
      </trkpt>
      <trkpt lat="46.11079" lon="3.48633">
        <ele>364.08</ele>
        <time>2016-07-16T09:36:42Z</time>
      </trkpt>
      <trkpt lat="46.11066" lon="3.48656">
        <ele>360.74</ele>
        <time>2016-07-16T09:36:45Z</time>
      </trkpt>
      <trkpt lat="46.11056" lon="3.48683">
        <ele>357.8</ele>
        <time>2016-07-16T09:36:48Z</time>
      </trkpt>
      <trkpt lat="46.11045" lon="3.48708">
        <ele>352.21</ele>
        <time>2016-07-16T09:36:51Z</time>
      </trkpt>
      <trkpt lat="46.11038" lon="3.4874">
        <ele>348.81</ele>
        <time>2016-07-16T09:36:54Z</time>
      </trkpt>
      <trkpt lat="46.11033" lon="3.48771">
        <ele>346.57</ele>
        <time>2016-07-16T09:36:57Z</time>
      </trkpt>
      <trkpt lat="46.11031" lon="3.48807">
        <ele>344.79</ele>
        <time>2016-07-16T09:37:00Z</time>
      </trkpt>
      <trkpt lat="46.11028" lon="3.48836">
        <ele>340.81</ele>
        <time>2016-07-16T09:37:03Z</time>
      </trkpt>
      <trkpt lat="46.11025" lon="3.48863">
        <ele>337</ele>
        <time>2016-07-16T09:37:06Z</time>
      </trkpt>
      <trkpt lat="46.11018" lon="3.48888">
        <ele>335.56</ele>
        <time>2016-07-16T09:37:09Z</time>
      </trkpt>
      <trkpt lat="46.11" lon="3.48909">
        <ele>329.66</ele>
        <time>2016-07-16T09:37:13Z</time>
      </trkpt>
      <trkpt lat="46.10975" lon="3.48918">
        <ele>327.52</ele>
        <time>2016-07-16T09:37:17Z</time>
      </trkpt>
      <trkpt lat="46.10955" lon="3.48929">
        <ele>325.79</ele>
        <time>2016-07-16T09:37:20Z</time>
      </trkpt>
      <trkpt lat="46.10937" lon="3.48942">
        <ele>323.92</ele>
        <time>2016-07-16T09:37:23Z</time>
      </trkpt>
      <trkpt lat="46.10919" lon="3.4896">
        <ele>319.04</ele>
        <time>2016-07-16T09:37:26Z</time>
      </trkpt>
      <trkpt lat="46.10906" lon="3.48982">
        <ele>317.4</ele>
        <time>2016-07-16T09:37:29Z</time>
      </trkpt>
      <trkpt lat="46.10894" lon="3.49003">
        <ele>318.54</ele>
        <time>2016-07-16T09:37:32Z</time>
      </trkpt>
      <trkpt lat="46.10881" lon="3.49028">
        <ele>317.35</ele>
        <time>2016-07-16T09:37:36Z</time>
      </trkpt>
      <trkpt lat="46.10869" lon="3.49047">
        <ele>316.72</ele>
        <time>2016-07-16T09:37:39Z</time>
      </trkpt>
      <trkpt lat="46.10852" lon="3.49067">
        <ele>314.07</ele>
        <time>2016-07-16T09:37:43Z</time>
      </trkpt>
      <trkpt lat="46.10836" lon="3.4908">
        <ele>308.59</ele>
        <time>2016-07-16T09:37:49Z</time>
      </trkpt>
      <trkpt lat="46.10818" lon="3.49088">
        <ele>309.27</ele>
        <time>2016-07-16T09:37:57Z</time>
      </trkpt>
      <trkpt lat="46.10805" lon="3.4911">
        <ele>313.55</ele>
        <time>2016-07-16T09:38:02Z</time>
      </trkpt>
      <trkpt lat="46.10791" lon="3.49133">
        <ele>315.9</ele>
        <time>2016-07-16T09:38:07Z</time>
      </trkpt>
      <trkpt lat="46.10777" lon="3.49157">
        <ele>317.55</ele>
        <time>2016-07-16T09:38:12Z</time>
      </trkpt>
      <trkpt lat="46.10763" lon="3.49178">
        <ele>317.78</ele>
        <time>2016-07-16T09:38:17Z</time>
      </trkpt>
      <trkpt lat="46.10751" lon="3.49197">
        <ele>315.6</ele>
        <time>2016-07-16T09:38:21Z</time>
      </trkpt>
      <trkpt lat="46.10737" lon="3.49218">
        <ele>315.55</ele>
        <time>2016-07-16T09:38:25Z</time>
      </trkpt>
      <trkpt lat="46.10722" lon="3.49241">
        <ele>317.35</ele>
        <time>2016-07-16T09:38:29Z</time>
      </trkpt>
      <trkpt lat="46.10708" lon="3.49258">
        <ele>318.68</ele>
        <time>2016-07-16T09:38:33Z</time>
      </trkpt>
      <trkpt lat="46.10697" lon="3.49282">
        <ele>317.72</ele>
        <time>2016-07-16T09:38:37Z</time>
      </trkpt>
      <trkpt lat="46.10684" lon="3.49304">
        <ele>316.6</ele>
        <time>2016-07-16T09:38:41Z</time>
      </trkpt>
      <trkpt lat="46.10672" lon="3.49328">
        <ele>314.4</ele>
        <time>2016-07-16T09:38:45Z</time>
      </trkpt>
      <trkpt lat="46.10658" lon="3.49352">
        <ele>315.51</ele>
        <time>2016-07-16T09:38:50Z</time>
      </trkpt>
      <trkpt lat="46.10647" lon="3.49376">
        <ele>311.87</ele>
        <time>2016-07-16T09:38:54Z</time>
      </trkpt>
      <trkpt lat="46.10634" lon="3.49401">
        <ele>304.96</ele>
        <time>2016-07-16T09:38:58Z</time>
      </trkpt>
      <trkpt lat="46.10621" lon="3.49425">
        <ele>305.39</ele>
        <time>2016-07-16T09:39:02Z</time>
      </trkpt>
      <trkpt lat="46.10609" lon="3.49449">
        <ele>306.53</ele>
        <time>2016-07-16T09:39:06Z</time>
      </trkpt>
      <trkpt lat="46.10596" lon="3.49472">
        <ele>304.56</ele>
        <time>2016-07-16T09:39:10Z</time>
      </trkpt>
      <trkpt lat="46.10585" lon="3.49497">
        <ele>303.59</ele>
        <time>2016-07-16T09:39:14Z</time>
      </trkpt>
      <trkpt lat="46.10573" lon="3.49516">
        <ele>305.31</ele>
        <time>2016-07-16T09:39:18Z</time>
      </trkpt>
      <trkpt lat="46.10562" lon="3.49538">
        <ele>305.39</ele>
        <time>2016-07-16T09:39:22Z</time>
      </trkpt>
      <trkpt lat="46.10553" lon="3.49561">
        <ele>305.59</ele>
        <time>2016-07-16T09:39:26Z</time>
      </trkpt>
      <trkpt lat="46.1054" lon="3.49583">
        <ele>307.16</ele>
        <time>2016-07-16T09:39:30Z</time>
      </trkpt>
      <trkpt lat="46.10528" lon="3.49609">
        <ele>307.39</ele>
        <time>2016-07-16T09:39:34Z</time>
      </trkpt>
      <trkpt lat="46.1051" lon="3.49628">
        <ele>310.75</ele>
        <time>2016-07-16T09:39:39Z</time>
      </trkpt>
      <trkpt lat="46.10502" lon="3.49653">
        <ele>311.28</ele>
        <time>2016-07-16T09:39:43Z</time>
      </trkpt>
      <trkpt lat="46.10489" lon="3.49675">
        <ele>312.54</ele>
        <time>2016-07-16T09:39:47Z</time>
      </trkpt>
      <trkpt lat="46.10476" lon="3.49695">
        <ele>315.54</ele>
        <time>2016-07-16T09:39:51Z</time>
      </trkpt>
      <trkpt lat="46.10466" lon="3.49725">
        <ele>316.14</ele>
        <time>2016-07-16T09:39:56Z</time>
      </trkpt>
      <trkpt lat="46.10455" lon="3.49746">
        <ele>316.55</ele>
        <time>2016-07-16T09:40:00Z</time>
      </trkpt>
      <trkpt lat="46.10443" lon="3.49768">
        <ele>315.75</ele>
        <time>2016-07-16T09:40:04Z</time>
      </trkpt>
      <trkpt lat="46.10431" lon="3.49791">
        <ele>316.31</ele>
        <time>2016-07-16T09:40:08Z</time>
      </trkpt>
      <trkpt lat="46.10415" lon="3.49811">
        <ele>320.55</ele>
        <time>2016-07-16T09:40:13Z</time>
      </trkpt>
      <trkpt lat="46.10404" lon="3.49837">
        <ele>318.83</ele>
        <time>2016-07-16T09:40:17Z</time>
      </trkpt>
      <trkpt lat="46.10392" lon="3.4986">
        <ele>315.76</ele>
        <time>2016-07-16T09:40:21Z</time>
      </trkpt>
      <trkpt lat="46.10382" lon="3.49887">
        <ele>312.8</ele>
        <time>2016-07-16T09:40:25Z</time>
      </trkpt>
      <trkpt lat="46.10369" lon="3.49912">
        <ele>310.79</ele>
        <time>2016-07-16T09:40:29Z</time>
      </trkpt>
      <trkpt lat="46.10358" lon="3.49937">
        <ele>309.48</ele>
        <time>2016-07-16T09:40:34Z</time>
      </trkpt>
      <trkpt lat="46.10347" lon="3.49961">
        <ele>308.6</ele>
        <time>2016-07-16T09:40:38Z</time>
      </trkpt>
      <trkpt lat="46.10339" lon="3.49986">
        <ele>309.55</ele>
        <time>2016-07-16T09:40:42Z</time>
      </trkpt>
      <trkpt lat="46.10327" lon="3.50006">
        <ele>317.25</ele>
        <time>2016-07-16T09:40:47Z</time>
      </trkpt>
      <trkpt lat="46.10314" lon="3.50025">
        <ele>320.18</ele>
        <time>2016-07-16T09:40:52Z</time>
      </trkpt>
      <trkpt lat="46.10305" lon="3.50048">
        <ele>321.7</ele>
        <time>2016-07-16T09:40:56Z</time>
      </trkpt>
      <trkpt lat="46.10299" lon="3.50074">
        <ele>314.99</ele>
        <time>2016-07-16T09:40:59Z</time>
      </trkpt>
      <trkpt lat="46.10291" lon="3.501">
        <ele>315.55</ele>
        <time>2016-07-16T09:41:03Z</time>
      </trkpt>
      <trkpt lat="46.10278" lon="3.50125">
        <ele>318.66</ele>
        <time>2016-07-16T09:41:08Z</time>
      </trkpt>
      <trkpt lat="46.10263" lon="3.50147">
        <ele>327.45</ele>
        <time>2016-07-16T09:41:14Z</time>
      </trkpt>
      <trkpt lat="46.10255" lon="3.50173">
        <ele>324.99</ele>
        <time>2016-07-16T09:41:18Z</time>
      </trkpt>
      <trkpt lat="46.10249" lon="3.50199">
        <ele>322.63</ele>
        <time>2016-07-16T09:41:22Z</time>
      </trkpt>
      <trkpt lat="46.10239" lon="3.50227">
        <ele>323.36</ele>
        <time>2016-07-16T09:41:26Z</time>
      </trkpt>
      <trkpt lat="46.10231" lon="3.50254">
        <ele>325.19</ele>
        <time>2016-07-16T09:41:30Z</time>
      </trkpt>
      <trkpt lat="46.10225" lon="3.50284">
        <ele>325.53</ele>
        <time>2016-07-16T09:41:35Z</time>
      </trkpt>
      <trkpt lat="46.10219" lon="3.50308">
        <ele>321.04</ele>
        <time>2016-07-16T09:41:38Z</time>
      </trkpt>
      <trkpt lat="46.10209" lon="3.50336">
        <ele>321.55</ele>
        <time>2016-07-16T09:41:42Z</time>
      </trkpt>
      <trkpt lat="46.10203" lon="3.50362">
        <ele>320.63</ele>
        <time>2016-07-16T09:41:46Z</time>
      </trkpt>
      <trkpt lat="46.10196" lon="3.50389">
        <ele>320.36</ele>
        <time>2016-07-16T09:41:50Z</time>
      </trkpt>
      <trkpt lat="46.10186" lon="3.50414">
        <ele>321.32</ele>
        <time>2016-07-16T09:41:55Z</time>
      </trkpt>
      <trkpt lat="46.10179" lon="3.50445">
        <ele>323.34</ele>
        <time>2016-07-16T09:42:00Z</time>
      </trkpt>
      <trkpt lat="46.10169" lon="3.50468">
        <ele>324.48</ele>
        <time>2016-07-16T09:42:04Z</time>
      </trkpt>
      <trkpt lat="46.10166" lon="3.50495">
        <ele>323.63</ele>
        <time>2016-07-16T09:42:08Z</time>
      </trkpt>
      <trkpt lat="46.10159" lon="3.50524">
        <ele>322.98</ele>
        <time>2016-07-16T09:42:12Z</time>
      </trkpt>
      <trkpt lat="46.10154" lon="3.50556">
        <ele>319.96</ele>
        <time>2016-07-16T09:42:16Z</time>
      </trkpt>
      <trkpt lat="46.1015" lon="3.50588">
        <ele>318.72</ele>
        <time>2016-07-16T09:42:20Z</time>
      </trkpt>
      <trkpt lat="46.10147" lon="3.50617">
        <ele>321.55</ele>
        <time>2016-07-16T09:42:24Z</time>
      </trkpt>
      <trkpt lat="46.10144" lon="3.50644">
        <ele>319.02</ele>
        <time>2016-07-16T09:42:28Z</time>
      </trkpt>
      <trkpt lat="46.10136" lon="3.50676">
        <ele>319.78</ele>
        <time>2016-07-16T09:42:33Z</time>
      </trkpt>
      <trkpt lat="46.10128" lon="3.50706">
        <ele>321.74</ele>
        <time>2016-07-16T09:42:38Z</time>
      </trkpt>
      <trkpt lat="46.10128" lon="3.50738">
        <ele>317.67</ele>
        <time>2016-07-16T09:42:43Z</time>
      </trkpt>
      <trkpt lat="46.10133" lon="3.50766">
        <ele>320.34</ele>
        <time>2016-07-16T09:42:47Z</time>
      </trkpt>
      <trkpt lat="46.1014" lon="3.50794">
        <ele>319.62</ele>
        <time>2016-07-16T09:42:51Z</time>
      </trkpt>
      <trkpt lat="46.10144" lon="3.50823">
        <ele>319.55</ele>
        <time>2016-07-16T09:42:55Z</time>
      </trkpt>
      <trkpt lat="46.10144" lon="3.50853">
        <ele>325.83</ele>
        <time>2016-07-16T09:42:59Z</time>
      </trkpt>
      <trkpt lat="46.10147" lon="3.50884">
        <ele>322.84</ele>
        <time>2016-07-16T09:43:03Z</time>
      </trkpt>
      <trkpt lat="46.10153" lon="3.50914">
        <ele>321.76</ele>
        <time>2016-07-16T09:43:07Z</time>
      </trkpt>
      <trkpt lat="46.10162" lon="3.50941">
        <ele>316.68</ele>
        <time>2016-07-16T09:43:11Z</time>
      </trkpt>
      <trkpt lat="46.10176" lon="3.50966">
        <ele>316.51</ele>
        <time>2016-07-16T09:43:16Z</time>
      </trkpt>
      <trkpt lat="46.10192" lon="3.50983">
        <ele>320.31</ele>
        <time>2016-07-16T09:43:20Z</time>
      </trkpt>
      <trkpt lat="46.10206" lon="3.51007">
        <ele>325.34</ele>
        <time>2016-07-16T09:43:25Z</time>
      </trkpt>
      <trkpt lat="46.10226" lon="3.51026">
        <ele>326.89</ele>
        <time>2016-07-16T09:43:30Z</time>
      </trkpt>
      <trkpt lat="46.1024" lon="3.51047">
        <ele>324.38</ele>
        <time>2016-07-16T09:43:34Z</time>
      </trkpt>
      <trkpt lat="46.10242" lon="3.51075">
        <ele>321.96</ele>
        <time>2016-07-16T09:43:38Z</time>
      </trkpt>
      <trkpt lat="46.10247" lon="3.51101">
        <ele>327.3</ele>
        <time>2016-07-16T09:43:43Z</time>
      </trkpt>
      <trkpt lat="46.10256" lon="3.51124">
        <ele>326.59</ele>
        <time>2016-07-16T09:43:48Z</time>
      </trkpt>
      <trkpt lat="46.10274" lon="3.51135">
        <ele>325.78</ele>
        <time>2016-07-16T09:43:54Z</time>
      </trkpt>
      <trkpt lat="46.10287" lon="3.51157">
        <ele>333.29</ele>
        <time>2016-07-16T09:44:04Z</time>
      </trkpt>
      <trkpt lat="46.10285" lon="3.51185">
        <ele>335.53</ele>
        <time>2016-07-16T09:44:13Z</time>
      </trkpt>
      <trkpt lat="46.10278" lon="3.51211">
        <ele>341.75</ele>
        <time>2016-07-16T09:44:23Z</time>
      </trkpt>
      <trkpt lat="46.10271" lon="3.51237">
        <ele>342</ele>
        <time>2016-07-16T09:44:32Z</time>
      </trkpt>
      <trkpt lat="46.10259" lon="3.51261">
        <ele>352.78</ele>
        <time>2016-07-16T09:44:44Z</time>
      </trkpt>
      <trkpt lat="46.10251" lon="3.51286">
        <ele>350.76</ele>
        <time>2016-07-16T09:44:53Z</time>
      </trkpt>
      <trkpt lat="46.10242" lon="3.51309">
        <ele>349.57</ele>
        <time>2016-07-16T09:45:02Z</time>
      </trkpt>
      <trkpt lat="46.10234" lon="3.51336">
        <ele>347.67</ele>
        <time>2016-07-16T09:45:11Z</time>
      </trkpt>
      <trkpt lat="46.10227" lon="3.5136">
        <ele>343.79</ele>
        <time>2016-07-16T09:45:20Z</time>
      </trkpt>
      <trkpt lat="46.1022" lon="3.51386">
        <ele>340.44</ele>
        <time>2016-07-16T09:45:29Z</time>
      </trkpt>
      <trkpt lat="46.10209" lon="3.51407">
        <ele>348.46</ele>
        <time>2016-07-16T09:45:38Z</time>
      </trkpt>
      <trkpt lat="46.10193" lon="3.51425">
        <ele>343.79</ele>
        <time>2016-07-16T09:45:48Z</time>
      </trkpt>
      <trkpt lat="46.10173" lon="3.51423">
        <ele>345.35</ele>
        <time>2016-07-16T09:46:00Z</time>
      </trkpt>
      <trkpt lat="46.10154" lon="3.51421">
        <ele>349.31</ele>
        <time>2016-07-16T09:46:11Z</time>
      </trkpt>
      <trkpt lat="46.10161" lon="3.51448">
        <ele>355.55</ele>
        <time>2016-07-16T09:46:47Z</time>
      </trkpt>
      <trkpt lat="46.10179" lon="3.51456">
        <ele>367.46</ele>
        <time>2016-07-16T09:47:01Z</time>
      </trkpt>
      <trkpt lat="46.10186" lon="3.51482">
        <ele>364.88</ele>
        <time>2016-07-16T09:47:12Z</time>
      </trkpt>
      <trkpt lat="46.1019" lon="3.51509">
        <ele>364.66</ele>
        <time>2016-07-16T09:47:24Z</time>
      </trkpt>
      <trkpt lat="46.10197" lon="3.51533">
        <ele>364.28</ele>
        <time>2016-07-16T09:47:35Z</time>
      </trkpt>
      <trkpt lat="46.10206" lon="3.51559">
        <ele>365.88</ele>
        <time>2016-07-16T09:47:48Z</time>
      </trkpt>
      <trkpt lat="46.10213" lon="3.51583">
        <ele>363.51</ele>
        <time>2016-07-16T09:47:57Z</time>
      </trkpt>
      <trkpt lat="46.10222" lon="3.51609">
        <ele>375.49</ele>
        <time>2016-07-16T09:48:11Z</time>
      </trkpt>
      <trkpt lat="46.10235" lon="3.51628">
        <ele>386.49</ele>
        <time>2016-07-16T09:48:25Z</time>
      </trkpt>
      <trkpt lat="46.10251" lon="3.5164">
        <ele>394.26</ele>
        <time>2016-07-16T09:48:37Z</time>
      </trkpt>
      <trkpt lat="46.10267" lon="3.51624">
        <ele>389.59</ele>
        <time>2016-07-16T09:48:59Z</time>
      </trkpt>
      <trkpt lat="46.10274" lon="3.516">
        <ele>390.55</ele>
        <time>2016-07-16T09:49:10Z</time>
      </trkpt>
      <trkpt lat="46.10278" lon="3.51574">
        <ele>394.23</ele>
        <time>2016-07-16T09:49:21Z</time>
      </trkpt>
      <trkpt lat="46.10285" lon="3.5155">
        <ele>393.58</ele>
        <time>2016-07-16T09:49:32Z</time>
      </trkpt>
      <trkpt lat="46.10289" lon="3.51524">
        <ele>390.54</ele>
        <time>2016-07-16T09:49:45Z</time>
      </trkpt>
      <trkpt lat="46.10302" lon="3.51506">
        <ele>395.1</ele>
        <time>2016-07-16T09:49:58Z</time>
      </trkpt>
      <trkpt lat="46.10312" lon="3.51483">
        <ele>391.79</ele>
        <time>2016-07-16T09:50:09Z</time>
      </trkpt>
      <trkpt lat="46.10323" lon="3.51462">
        <ele>394.3</ele>
        <time>2016-07-16T09:50:22Z</time>
      </trkpt>
      <trkpt lat="46.10334" lon="3.51441">
        <ele>397.75</ele>
        <time>2016-07-16T09:50:32Z</time>
      </trkpt>
      <trkpt lat="46.10347" lon="3.51418">
        <ele>396.76</ele>
        <time>2016-07-16T09:50:44Z</time>
      </trkpt>
      <trkpt lat="46.10359" lon="3.51396">
        <ele>394.82</ele>
        <time>2016-07-16T09:50:55Z</time>
      </trkpt>
      <trkpt lat="46.10353" lon="3.51423">
        <ele>403.3</ele>
        <time>2016-07-16T09:51:17Z</time>
      </trkpt>
      <trkpt lat="46.10349" lon="3.5145">
        <ele>404.73</ele>
        <time>2016-07-16T09:51:28Z</time>
      </trkpt>
      <trkpt lat="46.10348" lon="3.51475">
        <ele>413.82</ele>
        <time>2016-07-16T09:51:42Z</time>
      </trkpt>
      <trkpt lat="46.10345" lon="3.51503">
        <ele>420.43</ele>
        <time>2016-07-16T09:51:56Z</time>
      </trkpt>
      <trkpt lat="46.10342" lon="3.51533">
        <ele>418.75</ele>
        <time>2016-07-16T09:52:07Z</time>
      </trkpt>
      <trkpt lat="46.1034" lon="3.51559">
        <ele>419.95</ele>
        <time>2016-07-16T09:52:21Z</time>
      </trkpt>
      <trkpt lat="46.10345" lon="3.51585">
        <ele>420.95</ele>
        <time>2016-07-16T09:52:31Z</time>
      </trkpt>
      <trkpt lat="46.10352" lon="3.51613">
        <ele>415.54</ele>
        <time>2016-07-16T09:52:43Z</time>
      </trkpt>
      <trkpt lat="46.10359" lon="3.51639">
        <ele>415.78</ele>
        <time>2016-07-16T09:52:55Z</time>
      </trkpt>
      <trkpt lat="46.10369" lon="3.51661">
        <ele>422.5</ele>
        <time>2016-07-16T09:53:06Z</time>
      </trkpt>
      <trkpt lat="46.10378" lon="3.51686">
        <ele>424.55</ele>
        <time>2016-07-16T09:53:17Z</time>
      </trkpt>
      <trkpt lat="46.10385" lon="3.51712">
        <ele>424.79</ele>
        <time>2016-07-16T09:53:28Z</time>
      </trkpt>
      <trkpt lat="46.10395" lon="3.51736">
        <ele>429.51</ele>
        <time>2016-07-16T09:53:41Z</time>
      </trkpt>
      <trkpt lat="46.10402" lon="3.5176">
        <ele>429.31</ele>
        <time>2016-07-16T09:53:53Z</time>
      </trkpt>
      <trkpt lat="46.10415" lon="3.51779">
        <ele>436.31</ele>
        <time>2016-07-16T09:54:05Z</time>
      </trkpt>
      <trkpt lat="46.10425" lon="3.51802">
        <ele>438.78</ele>
        <time>2016-07-16T09:54:16Z</time>
      </trkpt>
      <trkpt lat="46.10435" lon="3.51826">
        <ele>438.57</ele>
        <time>2016-07-16T09:54:27Z</time>
      </trkpt>
      <trkpt lat="46.10451" lon="3.51844">
        <ele>439.32</ele>
        <time>2016-07-16T09:54:38Z</time>
      </trkpt>
      <trkpt lat="46.10467" lon="3.5186">
        <ele>440.6</ele>
        <time>2016-07-16T09:54:50Z</time>
      </trkpt>
      <trkpt lat="46.10478" lon="3.51881">
        <ele>437.54</ele>
        <time>2016-07-16T09:54:59Z</time>
      </trkpt>
      <trkpt lat="46.10492" lon="3.51901">
        <ele>432.95</ele>
        <time>2016-07-16T09:55:10Z</time>
      </trkpt>
      <trkpt lat="46.10507" lon="3.51919">
        <ele>433.55</ele>
        <time>2016-07-16T09:55:23Z</time>
      </trkpt>
      <trkpt lat="46.10521" lon="3.51938">
        <ele>436.51</ele>
        <time>2016-07-16T09:55:35Z</time>
      </trkpt>
      <trkpt lat="46.10517" lon="3.51965">
        <ele>436.55</ele>
        <time>2016-07-16T09:55:45Z</time>
      </trkpt>
      <trkpt lat="46.10512" lon="3.51992">
        <ele>437.55</ele>
        <time>2016-07-16T09:55:53Z</time>
      </trkpt>
      <trkpt lat="46.10506" lon="3.52019">
        <ele>437.56</ele>
        <time>2016-07-16T09:56:00Z</time>
      </trkpt>
      <trkpt lat="46.10501" lon="3.52049">
        <ele>438.71</ele>
        <time>2016-07-16T09:56:07Z</time>
      </trkpt>
      <trkpt lat="46.10497" lon="3.52074">
        <ele>440.56</ele>
        <time>2016-07-16T09:56:13Z</time>
      </trkpt>
      <trkpt lat="46.1049" lon="3.521">
        <ele>438.75</ele>
        <time>2016-07-16T09:56:19Z</time>
      </trkpt>
      <trkpt lat="46.10485" lon="3.52126">
        <ele>441.54</ele>
        <time>2016-07-16T09:56:26Z</time>
      </trkpt>
      <trkpt lat="46.10481" lon="3.52152">
        <ele>441.58</ele>
        <time>2016-07-16T09:56:32Z</time>
      </trkpt>
      <trkpt lat="46.10475" lon="3.52179">
        <ele>441.55</ele>
        <time>2016-07-16T09:56:38Z</time>
      </trkpt>
      <trkpt lat="46.1047" lon="3.52209">
        <ele>442.74</ele>
        <time>2016-07-16T09:56:45Z</time>
      </trkpt>
      <trkpt lat="46.10463" lon="3.52236">
        <ele>441.59</ele>
        <time>2016-07-16T09:56:51Z</time>
      </trkpt>
      <trkpt lat="46.10458" lon="3.52264">
        <ele>442.55</ele>
        <time>2016-07-16T09:56:58Z</time>
      </trkpt>
      <trkpt lat="46.10452" lon="3.52293">
        <ele>440.76</ele>
        <time>2016-07-16T09:57:04Z</time>
      </trkpt>
      <trkpt lat="46.10446" lon="3.5232">
        <ele>442.55</ele>
        <time>2016-07-16T09:57:11Z</time>
      </trkpt>
      <trkpt lat="46.10441" lon="3.52347">
        <ele>443.36</ele>
        <time>2016-07-16T09:57:17Z</time>
      </trkpt>
      <trkpt lat="46.10434" lon="3.52375">
        <ele>444.43</ele>
        <time>2016-07-16T09:57:23Z</time>
      </trkpt>
      <trkpt lat="46.1043" lon="3.52404">
        <ele>444.55</ele>
        <time>2016-07-16T09:57:29Z</time>
      </trkpt>
      <trkpt lat="46.10425" lon="3.52431">
        <ele>447.55</ele>
        <time>2016-07-16T09:57:35Z</time>
      </trkpt>
      <trkpt lat="46.10421" lon="3.52457">
        <ele>451.5</ele>
        <time>2016-07-16T09:57:41Z</time>
      </trkpt>
      <trkpt lat="46.10418" lon="3.52483">
        <ele>451.59</ele>
        <time>2016-07-16T09:57:47Z</time>
      </trkpt>
      <trkpt lat="46.10415" lon="3.52511">
        <ele>451.55</ele>
        <time>2016-07-16T09:57:53Z</time>
      </trkpt>
      <trkpt lat="46.10412" lon="3.52539">
        <ele>449.76</ele>
        <time>2016-07-16T09:57:57Z</time>
      </trkpt>
      <trkpt lat="46.10406" lon="3.5257">
        <ele>448.76</ele>
        <time>2016-07-16T09:58:01Z</time>
      </trkpt>
      <trkpt lat="46.10402" lon="3.52598">
        <ele>447.56</ele>
        <time>2016-07-16T09:58:04Z</time>
      </trkpt>
      <trkpt lat="46.10399" lon="3.52627">
        <ele>446.75</ele>
        <time>2016-07-16T09:58:07Z</time>
      </trkpt>
      <trkpt lat="46.10395" lon="3.52653">
        <ele>444.6</ele>
        <time>2016-07-16T09:58:10Z</time>
      </trkpt>
      <trkpt lat="46.1039" lon="3.52682">
        <ele>445.35</ele>
        <time>2016-07-16T09:58:13Z</time>
      </trkpt>
      <trkpt lat="46.10384" lon="3.52713">
        <ele>445.36</ele>
        <time>2016-07-16T09:58:17Z</time>
      </trkpt>
      <trkpt lat="46.10371" lon="3.5273">
        <ele>442.63</ele>
        <time>2016-07-16T09:58:21Z</time>
      </trkpt>
      <trkpt lat="46.10358" lon="3.52749">
        <ele>440.83</ele>
        <time>2016-07-16T09:58:25Z</time>
      </trkpt>
      <trkpt lat="46.10349" lon="3.52772">
        <ele>441.47</ele>
        <time>2016-07-16T09:58:30Z</time>
      </trkpt>
      <trkpt lat="46.10338" lon="3.52797">
        <ele>443.59</ele>
        <time>2016-07-16T09:58:36Z</time>
      </trkpt>
      <trkpt lat="46.10325" lon="3.5282">
        <ele>446.5</ele>
        <time>2016-07-16T09:58:43Z</time>
      </trkpt>
      <trkpt lat="46.10313" lon="3.52841">
        <ele>449.32</ele>
        <time>2016-07-16T09:58:49Z</time>
      </trkpt>
      <trkpt lat="46.10301" lon="3.52862">
        <ele>452.51</ele>
        <time>2016-07-16T09:58:56Z</time>
      </trkpt>
      <trkpt lat="46.10289" lon="3.52882">
        <ele>452.76</ele>
        <time>2016-07-16T09:59:03Z</time>
      </trkpt>
      <trkpt lat="46.10277" lon="3.52903">
        <ele>452.55</ele>
        <time>2016-07-16T09:59:11Z</time>
      </trkpt>
      <trkpt lat="46.10264" lon="3.52923">
        <ele>452.52</ele>
        <time>2016-07-16T09:59:19Z</time>
      </trkpt>
      <trkpt lat="46.10252" lon="3.52943">
        <ele>454.35</ele>
        <time>2016-07-16T09:59:27Z</time>
      </trkpt>
      <trkpt lat="46.10238" lon="3.52963">
        <ele>459.5</ele>
        <time>2016-07-16T09:59:37Z</time>
      </trkpt>
      <trkpt lat="46.10225" lon="3.52981">
        <ele>461.51</ele>
        <time>2016-07-16T09:59:45Z</time>
      </trkpt>
      <trkpt lat="46.1021" lon="3.52998">
        <ele>461.55</ele>
        <time>2016-07-16T09:59:54Z</time>
      </trkpt>
      <trkpt lat="46.10196" lon="3.53018">
        <ele>461.55</ele>
        <time>2016-07-16T10:00:03Z</time>
      </trkpt>
      <trkpt lat="46.10182" lon="3.53036">
        <ele>460.59</ele>
        <time>2016-07-16T10:00:11Z</time>
      </trkpt>
      <trkpt lat="46.10168" lon="3.53055">
        <ele>460.55</ele>
        <time>2016-07-16T10:00:20Z</time>
      </trkpt>
      <trkpt lat="46.10153" lon="3.53072">
        <ele>462.55</ele>
        <time>2016-07-16T10:00:29Z</time>
      </trkpt>
      <trkpt lat="46.1014" lon="3.5309">
        <ele>464.54</ele>
        <time>2016-07-16T10:00:38Z</time>
      </trkpt>
      <trkpt lat="46.10124" lon="3.53105">
        <ele>467.34</ele>
        <time>2016-07-16T10:00:47Z</time>
      </trkpt>
      <trkpt lat="46.10111" lon="3.53124">
        <ele>472.35</ele>
        <time>2016-07-16T10:00:57Z</time>
      </trkpt>
      <trkpt lat="46.10097" lon="3.53141">
        <ele>474.51</ele>
        <time>2016-07-16T10:01:06Z</time>
      </trkpt>
      <trkpt lat="46.10082" lon="3.53158">
        <ele>474.55</ele>
        <time>2016-07-16T10:01:15Z</time>
      </trkpt>
      <trkpt lat="46.10071" lon="3.53179">
        <ele>475.51</ele>
        <time>2016-07-16T10:01:24Z</time>
      </trkpt>
      <trkpt lat="46.10062" lon="3.53201">
        <ele>476.55</ele>
        <time>2016-07-16T10:01:33Z</time>
      </trkpt>
      <trkpt lat="46.10047" lon="3.53219">
        <ele>478.35</ele>
        <time>2016-07-16T10:01:42Z</time>
      </trkpt>
      <trkpt lat="46.10031" lon="3.53236">
        <ele>478.75</ele>
        <time>2016-07-16T10:01:51Z</time>
      </trkpt>
      <trkpt lat="46.10012" lon="3.53242">
        <ele>479.71</ele>
        <time>2016-07-16T10:02:01Z</time>
      </trkpt>
      <trkpt lat="46.09995" lon="3.5325">
        <ele>482.35</ele>
        <time>2016-07-16T10:02:11Z</time>
      </trkpt>
      <trkpt lat="46.09978" lon="3.53265">
        <ele>488.51</ele>
        <time>2016-07-16T10:02:20Z</time>
      </trkpt>
      <trkpt lat="46.09968" lon="3.53288">
        <ele>487.75</ele>
        <time>2016-07-16T10:02:27Z</time>
      </trkpt>
      <trkpt lat="46.09957" lon="3.53313">
        <ele>487.51</ele>
        <time>2016-07-16T10:02:34Z</time>
      </trkpt>
      <trkpt lat="46.09947" lon="3.53339">
        <ele>485.76</ele>
        <time>2016-07-16T10:02:41Z</time>
      </trkpt>
      <trkpt lat="46.0994" lon="3.53362">
        <ele>482</ele>
        <time>2016-07-16T10:02:46Z</time>
      </trkpt>
      <trkpt lat="46.09931" lon="3.53389">
        <ele>479.56</ele>
        <time>2016-07-16T10:02:50Z</time>
      </trkpt>
      <trkpt lat="46.0992" lon="3.5342">
        <ele>480.58</ele>
        <time>2016-07-16T10:02:54Z</time>
      </trkpt>
      <trkpt lat="46.09901" lon="3.53437">
        <ele>477.77</ele>
        <time>2016-07-16T10:02:57Z</time>
      </trkpt>
      <trkpt lat="46.09875" lon="3.53433">
        <ele>475.67</ele>
        <time>2016-07-16T10:03:00Z</time>
      </trkpt>
      <trkpt lat="46.09857" lon="3.53429">
        <ele>473</ele>
        <time>2016-07-16T10:03:02Z</time>
      </trkpt>
      <trkpt lat="46.09832" lon="3.53438">
        <ele>470.76</ele>
        <time>2016-07-16T10:03:05Z</time>
      </trkpt>
      <trkpt lat="46.09812" lon="3.53446">
        <ele>468.96</ele>
        <time>2016-07-16T10:03:07Z</time>
      </trkpt>
      <trkpt lat="46.09791" lon="3.53453">
        <ele>466.97</ele>
        <time>2016-07-16T10:03:09Z</time>
      </trkpt>
      <trkpt lat="46.09772" lon="3.53465">
        <ele>465.61</ele>
        <time>2016-07-16T10:03:11Z</time>
      </trkpt>
      <trkpt lat="46.09752" lon="3.5348">
        <ele>464.6</ele>
        <time>2016-07-16T10:03:13Z</time>
      </trkpt>
      <trkpt lat="46.09738" lon="3.53502">
        <ele>462.95</ele>
        <time>2016-07-16T10:03:15Z</time>
      </trkpt>
      <trkpt lat="46.09726" lon="3.53527">
        <ele>460.81</ele>
        <time>2016-07-16T10:03:17Z</time>
      </trkpt>
      <trkpt lat="46.0971" lon="3.5355">
        <ele>457.84</ele>
        <time>2016-07-16T10:03:19Z</time>
      </trkpt>
      <trkpt lat="46.09689" lon="3.5357">
        <ele>453.08</ele>
        <time>2016-07-16T10:03:21Z</time>
      </trkpt>
      <trkpt lat="46.09669" lon="3.53586">
        <ele>451.61</ele>
        <time>2016-07-16T10:03:23Z</time>
      </trkpt>
      <trkpt lat="46.0965" lon="3.53599">
        <ele>449.8</ele>
        <time>2016-07-16T10:03:25Z</time>
      </trkpt>
      <trkpt lat="46.09633" lon="3.53606">
        <ele>447.8</ele>
        <time>2016-07-16T10:03:27Z</time>
      </trkpt>
      <trkpt lat="46.09604" lon="3.53607">
        <ele>445.95</ele>
        <time>2016-07-16T10:03:30Z</time>
      </trkpt>
      <trkpt lat="46.09582" lon="3.5362">
        <ele>442.61</ele>
        <time>2016-07-16T10:03:33Z</time>
      </trkpt>
      <trkpt lat="46.09563" lon="3.53634">
        <ele>439.07</ele>
        <time>2016-07-16T10:03:36Z</time>
      </trkpt>
      <trkpt lat="46.09548" lon="3.53662">
        <ele>434.85</ele>
        <time>2016-07-16T10:03:39Z</time>
      </trkpt>
      <trkpt lat="46.09537" lon="3.53694">
        <ele>430.81</ele>
        <time>2016-07-16T10:03:42Z</time>
      </trkpt>
      <trkpt lat="46.09523" lon="3.53726">
        <ele>430.52</ele>
        <time>2016-07-16T10:03:45Z</time>
      </trkpt>
      <trkpt lat="46.09511" lon="3.53746">
        <ele>430.71</ele>
        <time>2016-07-16T10:03:47Z</time>
      </trkpt>
      <trkpt lat="46.09499" lon="3.53766">
        <ele>429.6</ele>
        <time>2016-07-16T10:03:49Z</time>
      </trkpt>
      <trkpt lat="46.09479" lon="3.53791">
        <ele>428.75</ele>
        <time>2016-07-16T10:03:52Z</time>
      </trkpt>
      <trkpt lat="46.09458" lon="3.53809">
        <ele>429.19</ele>
        <time>2016-07-16T10:03:55Z</time>
      </trkpt>
      <trkpt lat="46.09434" lon="3.53821">
        <ele>427.15</ele>
        <time>2016-07-16T10:03:58Z</time>
      </trkpt>
      <trkpt lat="46.09412" lon="3.53831">
        <ele>422.26</ele>
        <time>2016-07-16T10:04:00Z</time>
      </trkpt>
      <trkpt lat="46.09382" lon="3.5383">
        <ele>418.36</ele>
        <time>2016-07-16T10:04:03Z</time>
      </trkpt>
      <trkpt lat="46.09358" lon="3.53824">
        <ele>414.97</ele>
        <time>2016-07-16T10:04:06Z</time>
      </trkpt>
      <trkpt lat="46.09339" lon="3.5382">
        <ele>411.05</ele>
        <time>2016-07-16T10:04:08Z</time>
      </trkpt>
      <trkpt lat="46.09318" lon="3.53816">
        <ele>409.77</ele>
        <time>2016-07-16T10:04:10Z</time>
      </trkpt>
      <trkpt lat="46.09297" lon="3.53807">
        <ele>408.6</ele>
        <time>2016-07-16T10:04:12Z</time>
      </trkpt>
      <trkpt lat="46.09277" lon="3.53796">
        <ele>405.03</ele>
        <time>2016-07-16T10:04:14Z</time>
      </trkpt>
      <trkpt lat="46.09257" lon="3.5379">
        <ele>403.77</ele>
        <time>2016-07-16T10:04:16Z</time>
      </trkpt>
      <trkpt lat="46.09237" lon="3.53787">
        <ele>403.56</ele>
        <time>2016-07-16T10:04:18Z</time>
      </trkpt>
      <trkpt lat="46.09212" lon="3.53776">
        <ele>403.71</ele>
        <time>2016-07-16T10:04:21Z</time>
      </trkpt>
      <trkpt lat="46.09186" lon="3.53765">
        <ele>402.59</ele>
        <time>2016-07-16T10:04:24Z</time>
      </trkpt>
      <trkpt lat="46.09162" lon="3.53758">
        <ele>403.35</ele>
        <time>2016-07-16T10:04:27Z</time>
      </trkpt>
      <trkpt lat="46.09143" lon="3.53757">
        <ele>403.52</ele>
        <time>2016-07-16T10:04:30Z</time>
      </trkpt>
      <trkpt lat="46.09125" lon="3.53758">
        <ele>402.56</ele>
        <time>2016-07-16T10:04:33Z</time>
      </trkpt>
      <trkpt lat="46.09105" lon="3.53761">
        <ele>401.59</ele>
        <time>2016-07-16T10:04:36Z</time>
      </trkpt>
      <trkpt lat="46.09084" lon="3.53773">
        <ele>399.53</ele>
        <time>2016-07-16T10:04:40Z</time>
      </trkpt>
      <trkpt lat="46.09065" lon="3.53789">
        <ele>396.99</ele>
        <time>2016-07-16T10:04:43Z</time>
      </trkpt>
      <trkpt lat="46.09047" lon="3.538">
        <ele>394</ele>
        <time>2016-07-16T10:04:46Z</time>
      </trkpt>
      <trkpt lat="46.09027" lon="3.5381">
        <ele>390.8</ele>
        <time>2016-07-16T10:04:49Z</time>
      </trkpt>
      <trkpt lat="46.09007" lon="3.53814">
        <ele>387.84</ele>
        <time>2016-07-16T10:04:52Z</time>
      </trkpt>
      <trkpt lat="46.08979" lon="3.5381">
        <ele>383.81</ele>
        <time>2016-07-16T10:04:55Z</time>
      </trkpt>
      <trkpt lat="46.0896" lon="3.53807">
        <ele>380.84</ele>
        <time>2016-07-16T10:04:57Z</time>
      </trkpt>
      <trkpt lat="46.08942" lon="3.53803">
        <ele>378.96</ele>
        <time>2016-07-16T10:04:59Z</time>
      </trkpt>
      <trkpt lat="46.08924" lon="3.53792">
        <ele>377.61</ele>
        <time>2016-07-16T10:05:01Z</time>
      </trkpt>
      <trkpt lat="46.08907" lon="3.53778">
        <ele>375.96</ele>
        <time>2016-07-16T10:05:03Z</time>
      </trkpt>
      <trkpt lat="46.08885" lon="3.53766">
        <ele>372</ele>
        <time>2016-07-16T10:05:06Z</time>
      </trkpt>
      <trkpt lat="46.08868" lon="3.53761">
        <ele>367.01</ele>
        <time>2016-07-16T10:05:09Z</time>
      </trkpt>
      <trkpt lat="46.0885" lon="3.53765">
        <ele>362.57</ele>
        <time>2016-07-16T10:05:15Z</time>
      </trkpt>
      <trkpt lat="46.0883" lon="3.53773">
        <ele>363.52</ele>
        <time>2016-07-16T10:05:21Z</time>
      </trkpt>
      <trkpt lat="46.08809" lon="3.53773">
        <ele>358.76</ele>
        <time>2016-07-16T10:05:26Z</time>
      </trkpt>
      <trkpt lat="46.0879" lon="3.53769">
        <ele>350.86</ele>
        <time>2016-07-16T10:05:31Z</time>
      </trkpt>
      <trkpt lat="46.08769" lon="3.5376">
        <ele>346.8</ele>
        <time>2016-07-16T10:05:38Z</time>
      </trkpt>
      <trkpt lat="46.08753" lon="3.53772">
        <ele>343.73</ele>
        <time>2016-07-16T10:05:46Z</time>
      </trkpt>
      <trkpt lat="46.08733" lon="3.53768">
        <ele>345.55</ele>
        <time>2016-07-16T10:05:53Z</time>
      </trkpt>
      <trkpt lat="46.08715" lon="3.53749">
        <ele>343.79</ele>
        <time>2016-07-16T10:05:58Z</time>
      </trkpt>
      <trkpt lat="46.08697" lon="3.53739">
        <ele>343.59</ele>
        <time>2016-07-16T10:06:02Z</time>
      </trkpt>
      <trkpt lat="46.08678" lon="3.53735">
        <ele>344.31</ele>
        <time>2016-07-16T10:06:07Z</time>
      </trkpt>
      <trkpt lat="46.08657" lon="3.53741">
        <ele>343.55</ele>
        <time>2016-07-16T10:06:13Z</time>
      </trkpt>
      <trkpt lat="46.08639" lon="3.53749">
        <ele>343.55</ele>
        <time>2016-07-16T10:06:18Z</time>
      </trkpt>
      <trkpt lat="46.08621" lon="3.53758">
        <ele>344.51</ele>
        <time>2016-07-16T10:06:23Z</time>
      </trkpt>
      <trkpt lat="46.08602" lon="3.53764">
        <ele>345.54</ele>
        <time>2016-07-16T10:06:28Z</time>
      </trkpt>
      <trkpt lat="46.08583" lon="3.53771">
        <ele>345.55</ele>
        <time>2016-07-16T10:06:33Z</time>
      </trkpt>
      <trkpt lat="46.08564" lon="3.53779">
        <ele>346.39</ele>
        <time>2016-07-16T10:06:38Z</time>
      </trkpt>
      <trkpt lat="46.08546" lon="3.53785">
        <ele>346.55</ele>
        <time>2016-07-16T10:06:43Z</time>
      </trkpt>
      <trkpt lat="46.08528" lon="3.53793">
        <ele>347.55</ele>
        <time>2016-07-16T10:06:48Z</time>
      </trkpt>
      <trkpt lat="46.08509" lon="3.53799">
        <ele>347.55</ele>
        <time>2016-07-16T10:06:53Z</time>
      </trkpt>
      <trkpt lat="46.0849" lon="3.53807">
        <ele>348.35</ele>
        <time>2016-07-16T10:06:58Z</time>
      </trkpt>
      <trkpt lat="46.0847" lon="3.53815">
        <ele>348.55</ele>
        <time>2016-07-16T10:07:03Z</time>
      </trkpt>
      <trkpt lat="46.08452" lon="3.53821">
        <ele>347.59</ele>
        <time>2016-07-16T10:07:08Z</time>
      </trkpt>
      <trkpt lat="46.08433" lon="3.53827">
        <ele>346.55</ele>
        <time>2016-07-16T10:07:13Z</time>
      </trkpt>
      <trkpt lat="46.08413" lon="3.53837">
        <ele>344.76</ele>
        <time>2016-07-16T10:07:18Z</time>
      </trkpt>
      <trkpt lat="46.08394" lon="3.53843">
        <ele>346.55</ele>
        <time>2016-07-16T10:07:23Z</time>
      </trkpt>
      <trkpt lat="46.08375" lon="3.53851">
        <ele>345.37</ele>
        <time>2016-07-16T10:07:29Z</time>
      </trkpt>
      <trkpt lat="46.08368" lon="3.53825">
        <ele>348.51</ele>
        <time>2016-07-16T10:07:44Z</time>
      </trkpt>
      <trkpt lat="46.08351" lon="3.53836">
        <ele>352.58</ele>
        <time>2016-07-16T10:07:59Z</time>
      </trkpt>
      <trkpt lat="46.08337" lon="3.53852">
        <ele>358.1</ele>
        <time>2016-07-16T10:08:15Z</time>
      </trkpt>
      <trkpt lat="46.08322" lon="3.53867">
        <ele>363.56</ele>
        <time>2016-07-16T10:08:30Z</time>
      </trkpt>
      <trkpt lat="46.08305" lon="3.53877">
        <ele>366.75</ele>
        <time>2016-07-16T10:08:42Z</time>
      </trkpt>
      <trkpt lat="46.08286" lon="3.53876">
        <ele>366.5</ele>
        <time>2016-07-16T10:08:52Z</time>
      </trkpt>
      <trkpt lat="46.08276" lon="3.53852">
        <ele>368.51</ele>
        <time>2016-07-16T10:09:08Z</time>
      </trkpt>
      <trkpt lat="46.0827" lon="3.53826">
        <ele>371.59</ele>
        <time>2016-07-16T10:09:22Z</time>
      </trkpt>
      <trkpt lat="46.08265" lon="3.53801">
        <ele>375.31</ele>
        <time>2016-07-16T10:09:39Z</time>
      </trkpt>
      <trkpt lat="46.0826" lon="3.53775">
        <ele>378.35</ele>
        <time>2016-07-16T10:09:53Z</time>
      </trkpt>
      <trkpt lat="46.08251" lon="3.53752">
        <ele>381.55</ele>
        <time>2016-07-16T10:10:08Z</time>
      </trkpt>
      <trkpt lat="46.0824" lon="3.53731">
        <ele>385.74</ele>
        <time>2016-07-16T10:10:22Z</time>
      </trkpt>
      <trkpt lat="46.08232" lon="3.53708">
        <ele>389.54</ele>
        <time>2016-07-16T10:10:34Z</time>
      </trkpt>
      <trkpt lat="46.08227" lon="3.53682">
        <ele>391.35</ele>
        <time>2016-07-16T10:10:47Z</time>
      </trkpt>
      <trkpt lat="46.0822" lon="3.53657">
        <ele>391.55</ele>
        <time>2016-07-16T10:11:00Z</time>
      </trkpt>
      <trkpt lat="46.0821" lon="3.53635">
        <ele>396.74</ele>
        <time>2016-07-16T10:11:11Z</time>
      </trkpt>
      <trkpt lat="46.08199" lon="3.53611">
        <ele>397.75</ele>
        <time>2016-07-16T10:11:24Z</time>
      </trkpt>
      <trkpt lat="46.08185" lon="3.53592">
        <ele>400.59</ele>
        <time>2016-07-16T10:11:38Z</time>
      </trkpt>
      <trkpt lat="46.08168" lon="3.53604">
        <ele>404.31</ele>
        <time>2016-07-16T10:11:48Z</time>
      </trkpt>
      <trkpt lat="46.0815" lon="3.53617">
        <ele>404.59</ele>
        <time>2016-07-16T10:11:53Z</time>
      </trkpt>
      <trkpt lat="46.08131" lon="3.53631">
        <ele>407.54</ele>
        <time>2016-07-16T10:11:58Z</time>
      </trkpt>
      <trkpt lat="46.08112" lon="3.53644">
        <ele>406.78</ele>
        <time>2016-07-16T10:12:02Z</time>
      </trkpt>
      <trkpt lat="46.08097" lon="3.53665">
        <ele>405.39</ele>
        <time>2016-07-16T10:12:06Z</time>
      </trkpt>
      <trkpt lat="46.08076" lon="3.53675">
        <ele>404.55</ele>
        <time>2016-07-16T10:12:10Z</time>
      </trkpt>
      <trkpt lat="46.08057" lon="3.53685">
        <ele>394.61</ele>
        <time>2016-07-16T10:12:14Z</time>
      </trkpt>
      <trkpt lat="46.08038" lon="3.53699">
        <ele>400.11</ele>
        <time>2016-07-16T10:12:21Z</time>
      </trkpt>
      <trkpt lat="46.08019" lon="3.53709">
        <ele>400.41</ele>
        <time>2016-07-16T10:12:27Z</time>
      </trkpt>
      <trkpt lat="46.07999" lon="3.53718">
        <ele>400.51</ele>
        <time>2016-07-16T10:12:34Z</time>
      </trkpt>
      <trkpt lat="46.0798" lon="3.53734">
        <ele>405.37</ele>
        <time>2016-07-16T10:12:39Z</time>
      </trkpt>
      <trkpt lat="46.07965" lon="3.53754">
        <ele>404.36</ele>
        <time>2016-07-16T10:12:45Z</time>
      </trkpt>
      <trkpt lat="46.07947" lon="3.53763">
        <ele>404.48</ele>
        <time>2016-07-16T10:12:50Z</time>
      </trkpt>
      <trkpt lat="46.07928" lon="3.53779">
        <ele>404.51</ele>
        <time>2016-07-16T10:12:55Z</time>
      </trkpt>
      <trkpt lat="46.07904" lon="3.53785">
        <ele>408.1</ele>
        <time>2016-07-16T10:13:00Z</time>
      </trkpt>
      <trkpt lat="46.07885" lon="3.53774">
        <ele>404.07</ele>
        <time>2016-07-16T10:13:03Z</time>
      </trkpt>
      <trkpt lat="46.07866" lon="3.5376">
        <ele>403.59</ele>
        <time>2016-07-16T10:13:06Z</time>
      </trkpt>
      <trkpt lat="46.07848" lon="3.53741">
        <ele>405.54</ele>
        <time>2016-07-16T10:13:10Z</time>
      </trkpt>
      <trkpt lat="46.07831" lon="3.53724">
        <ele>407.31</ele>
        <time>2016-07-16T10:13:14Z</time>
      </trkpt>
      <trkpt lat="46.07814" lon="3.53711">
        <ele>404.64</ele>
        <time>2016-07-16T10:13:18Z</time>
      </trkpt>
      <trkpt lat="46.07798" lon="3.53693">
        <ele>404.75</ele>
        <time>2016-07-16T10:13:23Z</time>
      </trkpt>
      <trkpt lat="46.07785" lon="3.53672">
        <ele>401.07</ele>
        <time>2016-07-16T10:13:27Z</time>
      </trkpt>
      <trkpt lat="46.07765" lon="3.53673">
        <ele>398.75</ele>
        <time>2016-07-16T10:13:31Z</time>
      </trkpt>
      <trkpt lat="46.07752" lon="3.53695">
        <ele>396.55</ele>
        <time>2016-07-16T10:13:36Z</time>
      </trkpt>
      <trkpt lat="46.07739" lon="3.53716">
        <ele>395.56</ele>
        <time>2016-07-16T10:13:42Z</time>
      </trkpt>
      <trkpt lat="46.0772" lon="3.5372">
        <ele>394.56</ele>
        <time>2016-07-16T10:13:45Z</time>
      </trkpt>
      <trkpt lat="46.07705" lon="3.53737">
        <ele>397.15</ele>
        <time>2016-07-16T10:13:48Z</time>
      </trkpt>
      <trkpt lat="46.07699" lon="3.53764">
        <ele>397.58</ele>
        <time>2016-07-16T10:13:51Z</time>
      </trkpt>
      <trkpt lat="46.07705" lon="3.53794">
        <ele>397.52</ele>
        <time>2016-07-16T10:13:55Z</time>
      </trkpt>
      <trkpt lat="46.07711" lon="3.5382">
        <ele>399.15</ele>
        <time>2016-07-16T10:13:59Z</time>
      </trkpt>
      <trkpt lat="46.0771" lon="3.53846">
        <ele>400.75</ele>
        <time>2016-07-16T10:14:04Z</time>
      </trkpt>
      <trkpt lat="46.07712" lon="3.53875">
        <ele>402.35</ele>
        <time>2016-07-16T10:14:11Z</time>
      </trkpt>
      <trkpt lat="46.07695" lon="3.53889">
        <ele>402.64</ele>
        <time>2016-07-16T10:14:18Z</time>
      </trkpt>
      <trkpt lat="46.0768" lon="3.53868">
        <ele>403.75</ele>
        <time>2016-07-16T10:14:24Z</time>
      </trkpt>
      <trkpt lat="46.07657" lon="3.53869">
        <ele>399</ele>
        <time>2016-07-16T10:14:29Z</time>
      </trkpt>
      <trkpt lat="46.07636" lon="3.5389">
        <ele>393.02</ele>
        <time>2016-07-16T10:14:32Z</time>
      </trkpt>
      <trkpt lat="46.07617" lon="3.53917">
        <ele>389.64</ele>
        <time>2016-07-16T10:14:35Z</time>
      </trkpt>
      <trkpt lat="46.07605" lon="3.53939">
        <ele>386.04</ele>
        <time>2016-07-16T10:14:37Z</time>
      </trkpt>
      <trkpt lat="46.0759" lon="3.53957">
        <ele>383.01</ele>
        <time>2016-07-16T10:14:39Z</time>
      </trkpt>
      <trkpt lat="46.07568" lon="3.5397">
        <ele>379.8</ele>
        <time>2016-07-16T10:14:42Z</time>
      </trkpt>
      <trkpt lat="46.07551" lon="3.53959">
        <ele>375.81</ele>
        <time>2016-07-16T10:14:45Z</time>
      </trkpt>
      <trkpt lat="46.07533" lon="3.53945">
        <ele>373.76</ele>
        <time>2016-07-16T10:14:49Z</time>
      </trkpt>
      <trkpt lat="46.07531" lon="3.53976">
        <ele>369.83</ele>
        <time>2016-07-16T10:14:53Z</time>
      </trkpt>
      <trkpt lat="46.07546" lon="3.5399">
        <ele>369.72</ele>
        <time>2016-07-16T10:14:56Z</time>
      </trkpt>
      <trkpt lat="46.07562" lon="3.54007">
        <ele>365.84</ele>
        <time>2016-07-16T10:14:59Z</time>
      </trkpt>
      <trkpt lat="46.07563" lon="3.54036">
        <ele>365.59</ele>
        <time>2016-07-16T10:15:02Z</time>
      </trkpt>
      <trkpt lat="46.0757" lon="3.5407">
        <ele>361.81</ele>
        <time>2016-07-16T10:15:05Z</time>
      </trkpt>
      <trkpt lat="46.07588" lon="3.54084">
        <ele>358.61</ele>
        <time>2016-07-16T10:15:09Z</time>
      </trkpt>
      <trkpt lat="46.07571" lon="3.54094">
        <ele>358.59</ele>
        <time>2016-07-16T10:15:13Z</time>
      </trkpt>
      <trkpt lat="46.07549" lon="3.54092">
        <ele>356.6</ele>
        <time>2016-07-16T10:15:17Z</time>
      </trkpt>
      <trkpt lat="46.07531" lon="3.54089">
        <ele>355.75</ele>
        <time>2016-07-16T10:15:20Z</time>
      </trkpt>
      <trkpt lat="46.07512" lon="3.54078">
        <ele>362.3</ele>
        <time>2016-07-16T10:15:29Z</time>
      </trkpt>
      <trkpt lat="46.07494" lon="3.54066">
        <ele>371.35</ele>
        <time>2016-07-16T10:15:42Z</time>
      </trkpt>
      <trkpt lat="46.07481" lon="3.54046">
        <ele>382.3</ele>
        <time>2016-07-16T10:15:58Z</time>
      </trkpt>
      <trkpt lat="46.07476" lon="3.5402">
        <ele>386.55</ele>
        <time>2016-07-16T10:16:12Z</time>
      </trkpt>
      <trkpt lat="46.07459" lon="3.54007">
        <ele>386.6</ele>
        <time>2016-07-16T10:16:24Z</time>
      </trkpt>
      <trkpt lat="46.07444" lon="3.53992">
        <ele>392.51</ele>
        <time>2016-07-16T10:16:39Z</time>
      </trkpt>
      <trkpt lat="46.0743" lon="3.53972">
        <ele>387.01</ele>
        <time>2016-07-16T10:16:49Z</time>
      </trkpt>
      <trkpt lat="46.07422" lon="3.53946">
        <ele>390.74</ele>
        <time>2016-07-16T10:17:13Z</time>
      </trkpt>
      <trkpt lat="46.07405" lon="3.53934">
        <ele>400.35</ele>
        <time>2016-07-16T10:18:06Z</time>
      </trkpt>
      <trkpt lat="46.07387" lon="3.53937">
        <ele>399.71</ele>
        <time>2016-07-16T10:18:33Z</time>
      </trkpt>
      <trkpt lat="46.0737" lon="3.53924">
        <ele>407.55</ele>
        <time>2016-07-16T10:19:30Z</time>
      </trkpt>
      <trkpt lat="46.07353" lon="3.53918">
        <ele>409.75</ele>
        <time>2016-07-16T10:19:45Z</time>
      </trkpt>
      <trkpt lat="46.07333" lon="3.53916">
        <ele>412.94</ele>
        <time>2016-07-16T10:19:59Z</time>
      </trkpt>
      <trkpt lat="46.07312" lon="3.53916">
        <ele>417.75</ele>
        <time>2016-07-16T10:20:21Z</time>
      </trkpt>
      <trkpt lat="46.07292" lon="3.53915">
        <ele>424.54</ele>
        <time>2016-07-16T10:21:01Z</time>
      </trkpt>
      <trkpt lat="46.07274" lon="3.53912">
        <ele>429.35</ele>
        <time>2016-07-16T10:21:14Z</time>
      </trkpt>
      <trkpt lat="46.07255" lon="3.53906">
        <ele>435.5</ele>
        <time>2016-07-16T10:21:30Z</time>
      </trkpt>
      <trkpt lat="46.07237" lon="3.53912">
        <ele>439.55</ele>
        <time>2016-07-16T10:21:45Z</time>
      </trkpt>
      <trkpt lat="46.07219" lon="3.53911">
        <ele>443.39</ele>
        <time>2016-07-16T10:22:00Z</time>
      </trkpt>
      <trkpt lat="46.072" lon="3.53917">
        <ele>447.51</ele>
        <time>2016-07-16T10:22:12Z</time>
      </trkpt>
      <trkpt lat="46.0718" lon="3.5393">
        <ele>438.97</ele>
        <time>2016-07-16T10:22:37Z</time>
      </trkpt>
      <trkpt lat="46.07165" lon="3.53945">
        <ele>449.11</ele>
        <time>2016-07-16T10:23:08Z</time>
      </trkpt>
      <trkpt lat="46.07145" lon="3.53947">
        <ele>449.55</ele>
        <time>2016-07-16T10:23:18Z</time>
      </trkpt>
      <trkpt lat="46.07125" lon="3.53943">
        <ele>450.51</ele>
        <time>2016-07-16T10:23:26Z</time>
      </trkpt>
      <trkpt lat="46.07109" lon="3.53932">
        <ele>447.39</ele>
        <time>2016-07-16T10:23:35Z</time>
      </trkpt>
      <trkpt lat="46.07092" lon="3.53924">
        <ele>451.54</ele>
        <time>2016-07-16T10:23:43Z</time>
      </trkpt>
      <trkpt lat="46.07075" lon="3.53909">
        <ele>454.66</ele>
        <time>2016-07-16T10:23:52Z</time>
      </trkpt>
      <trkpt lat="46.07057" lon="3.53897">
        <ele>455.5</ele>
        <time>2016-07-16T10:23:59Z</time>
      </trkpt>
      <trkpt lat="46.07036" lon="3.53886">
        <ele>457.54</ele>
        <time>2016-07-16T10:24:06Z</time>
      </trkpt>
      <trkpt lat="46.07021" lon="3.53868">
        <ele>458.68</ele>
        <time>2016-07-16T10:24:14Z</time>
      </trkpt>
      <trkpt lat="46.07003" lon="3.53849">
        <ele>457.08</ele>
        <time>2016-07-16T10:24:20Z</time>
      </trkpt>
      <trkpt lat="46.06986" lon="3.53829">
        <ele>454.91</ele>
        <time>2016-07-16T10:24:26Z</time>
      </trkpt>
      <trkpt lat="46.06969" lon="3.5382">
        <ele>455.38</ele>
        <time>2016-07-16T10:24:33Z</time>
      </trkpt>
      <trkpt lat="46.0695" lon="3.53815">
        <ele>453.56</ele>
        <time>2016-07-16T10:24:42Z</time>
      </trkpt>
      <trkpt lat="46.06931" lon="3.53819">
        <ele>457.34</ele>
        <time>2016-07-16T10:24:51Z</time>
      </trkpt>
      <trkpt lat="46.06912" lon="3.5382">
        <ele>456.39</ele>
        <time>2016-07-16T10:25:00Z</time>
      </trkpt>
      <trkpt lat="46.06892" lon="3.53827">
        <ele>463.55</ele>
        <time>2016-07-16T10:25:13Z</time>
      </trkpt>
      <trkpt lat="46.06873" lon="3.53831">
        <ele>464.72</ele>
        <time>2016-07-16T10:25:22Z</time>
      </trkpt>
      <trkpt lat="46.06854" lon="3.53837">
        <ele>464.31</ele>
        <time>2016-07-16T10:25:31Z</time>
      </trkpt>
      <trkpt lat="46.06835" lon="3.53845">
        <ele>464.55</ele>
        <time>2016-07-16T10:25:40Z</time>
      </trkpt>
      <trkpt lat="46.06818" lon="3.53854">
        <ele>464.34</ele>
        <time>2016-07-16T10:25:50Z</time>
      </trkpt>
      <trkpt lat="46.068" lon="3.53853">
        <ele>471.51</ele>
        <time>2016-07-16T10:26:01Z</time>
      </trkpt>
      <trkpt lat="46.06782" lon="3.53861">
        <ele>475.95</ele>
        <time>2016-07-16T10:26:11Z</time>
      </trkpt>
      <trkpt lat="46.06765" lon="3.53872">
        <ele>474.59</ele>
        <time>2016-07-16T10:26:18Z</time>
      </trkpt>
      <trkpt lat="46.06745" lon="3.53884">
        <ele>475.6</ele>
        <time>2016-07-16T10:26:25Z</time>
      </trkpt>
      <trkpt lat="46.06728" lon="3.53907">
        <ele>474.92</ele>
        <time>2016-07-16T10:26:30Z</time>
      </trkpt>
      <trkpt lat="46.0672" lon="3.53932">
        <ele>470.01</ele>
        <time>2016-07-16T10:26:33Z</time>
      </trkpt>
      <trkpt lat="46.06703" lon="3.53953">
        <ele>465.08</ele>
        <time>2016-07-16T10:26:36Z</time>
      </trkpt>
      <trkpt lat="46.06681" lon="3.53961">
        <ele>462.61</ele>
        <time>2016-07-16T10:26:39Z</time>
      </trkpt>
      <trkpt lat="46.06663" lon="3.53968">
        <ele>462.36</ele>
        <time>2016-07-16T10:26:42Z</time>
      </trkpt>
      <trkpt lat="46.06644" lon="3.53988">
        <ele>466.54</ele>
        <time>2016-07-16T10:26:47Z</time>
      </trkpt>
      <trkpt lat="46.06632" lon="3.54011">
        <ele>466.55</ele>
        <time>2016-07-16T10:26:56Z</time>
      </trkpt>
      <trkpt lat="46.06637" lon="3.54043">
        <ele>465.75</ele>
        <time>2016-07-16T10:27:02Z</time>
      </trkpt>
      <trkpt lat="46.06649" lon="3.54069">
        <ele>463.76</ele>
        <time>2016-07-16T10:27:05Z</time>
      </trkpt>
      <trkpt lat="46.06663" lon="3.54097">
        <ele>458.63</ele>
        <time>2016-07-16T10:27:08Z</time>
      </trkpt>
      <trkpt lat="46.06679" lon="3.54118">
        <ele>456.6</ele>
        <time>2016-07-16T10:27:11Z</time>
      </trkpt>
      <trkpt lat="46.06693" lon="3.5414">
        <ele>453.64</ele>
        <time>2016-07-16T10:27:14Z</time>
      </trkpt>
      <trkpt lat="46.0671" lon="3.54163">
        <ele>452.69</ele>
        <time>2016-07-16T10:27:17Z</time>
      </trkpt>
      <trkpt lat="46.06726" lon="3.54188">
        <ele>456.87</ele>
        <time>2016-07-16T10:27:20Z</time>
      </trkpt>
      <trkpt lat="46.06738" lon="3.54214">
        <ele>452.81</ele>
        <time>2016-07-16T10:27:23Z</time>
      </trkpt>
      <trkpt lat="46.06745" lon="3.54252">
        <ele>451.31</ele>
        <time>2016-07-16T10:27:26Z</time>
      </trkpt>
      <trkpt lat="46.06746" lon="3.5428">
        <ele>448.18</ele>
        <time>2016-07-16T10:27:28Z</time>
      </trkpt>
      <trkpt lat="46.06744" lon="3.54308">
        <ele>440.38</ele>
        <time>2016-07-16T10:27:30Z</time>
      </trkpt>
      <trkpt lat="46.06753" lon="3.54334">
        <ele>436.23</ele>
        <time>2016-07-16T10:27:32Z</time>
      </trkpt>
      <trkpt lat="46.06763" lon="3.54357">
        <ele>434.46</ele>
        <time>2016-07-16T10:27:34Z</time>
      </trkpt>
      <trkpt lat="46.06774" lon="3.54388">
        <ele>435.96</ele>
        <time>2016-07-16T10:27:37Z</time>
      </trkpt>
      <trkpt lat="46.06782" lon="3.54418">
        <ele>436.07</ele>
        <time>2016-07-16T10:27:40Z</time>
      </trkpt>
      <trkpt lat="46.06787" lon="3.54454">
        <ele>429.09</ele>
        <time>2016-07-16T10:27:43Z</time>
      </trkpt>
      <trkpt lat="46.06785" lon="3.54487">
        <ele>424.56</ele>
        <time>2016-07-16T10:27:46Z</time>
      </trkpt>
      <trkpt lat="46.06784" lon="3.54515">
        <ele>423.56</ele>
        <time>2016-07-16T10:27:49Z</time>
      </trkpt>
      <trkpt lat="46.06783" lon="3.54543">
        <ele>422.59</ele>
        <time>2016-07-16T10:27:52Z</time>
      </trkpt>
      <trkpt lat="46.06778" lon="3.54572">
        <ele>419.93</ele>
        <time>2016-07-16T10:27:56Z</time>
      </trkpt>
      <trkpt lat="46.06775" lon="3.54602">
        <ele>419.59</ele>
        <time>2016-07-16T10:28:00Z</time>
      </trkpt>
      <trkpt lat="46.0677" lon="3.54628">
        <ele>419.2</ele>
        <time>2016-07-16T10:28:03Z</time>
      </trkpt>
      <trkpt lat="46.06769" lon="3.54658">
        <ele>418.24</ele>
        <time>2016-07-16T10:28:07Z</time>
      </trkpt>
      <trkpt lat="46.06772" lon="3.54686">
        <ele>419.35</ele>
        <time>2016-07-16T10:28:11Z</time>
      </trkpt>
      <trkpt lat="46.06775" lon="3.54714">
        <ele>421.97</ele>
        <time>2016-07-16T10:28:17Z</time>
      </trkpt>
      <trkpt lat="46.06785" lon="3.54736">
        <ele>427.51</ele>
        <time>2016-07-16T10:28:23Z</time>
      </trkpt>
      <trkpt lat="46.06795" lon="3.54759">
        <ele>428.51</ele>
        <time>2016-07-16T10:28:29Z</time>
      </trkpt>
      <trkpt lat="46.06809" lon="3.54781">
        <ele>424.6</ele>
        <time>2016-07-16T10:28:34Z</time>
      </trkpt>
      <trkpt lat="46.06824" lon="3.54796">
        <ele>420.81</ele>
        <time>2016-07-16T10:28:37Z</time>
      </trkpt>
      <trkpt lat="46.06846" lon="3.54816">
        <ele>416.62</ele>
        <time>2016-07-16T10:28:40Z</time>
      </trkpt>
      <trkpt lat="46.06864" lon="3.54832">
        <ele>415.76</ele>
        <time>2016-07-16T10:28:42Z</time>
      </trkpt>
      <trkpt lat="46.06881" lon="3.54846">
        <ele>413.8</ele>
        <time>2016-07-16T10:28:44Z</time>
      </trkpt>
      <trkpt lat="46.06897" lon="3.54861">
        <ele>411.8</ele>
        <time>2016-07-16T10:28:46Z</time>
      </trkpt>
      <trkpt lat="46.0691" lon="3.54878">
        <ele>408.84</ele>
        <time>2016-07-16T10:28:48Z</time>
      </trkpt>
      <trkpt lat="46.06927" lon="3.54892">
        <ele>406.76</ele>
        <time>2016-07-16T10:28:51Z</time>
      </trkpt>
      <trkpt lat="46.06927" lon="3.54918">
        <ele>404.39</ele>
        <time>2016-07-16T10:28:57Z</time>
      </trkpt>
      <trkpt lat="46.06908" lon="3.54915">
        <ele>403.59</ele>
        <time>2016-07-16T10:29:02Z</time>
      </trkpt>
      <trkpt lat="46.0689" lon="3.549">
        <ele>404.35</ele>
        <time>2016-07-16T10:29:08Z</time>
      </trkpt>
      <trkpt lat="46.06868" lon="3.54889">
        <ele>403.56</ele>
        <time>2016-07-16T10:29:12Z</time>
      </trkpt>
      <trkpt lat="46.06849" lon="3.5489">
        <ele>403.36</ele>
        <time>2016-07-16T10:29:15Z</time>
      </trkpt>
      <trkpt lat="46.06835" lon="3.54909">
        <ele>401.79</ele>
        <time>2016-07-16T10:29:18Z</time>
      </trkpt>
      <trkpt lat="46.06824" lon="3.54933">
        <ele>399.76</ele>
        <time>2016-07-16T10:29:21Z</time>
      </trkpt>
      <trkpt lat="46.06817" lon="3.54959">
        <ele>396.99</ele>
        <time>2016-07-16T10:29:24Z</time>
      </trkpt>
      <trkpt lat="46.06796" lon="3.54977">
        <ele>393.77</ele>
        <time>2016-07-16T10:29:28Z</time>
      </trkpt>
      <trkpt lat="46.06773" lon="3.54974">
        <ele>390.8</ele>
        <time>2016-07-16T10:29:31Z</time>
      </trkpt>
      <trkpt lat="46.06748" lon="3.54972">
        <ele>390.71</ele>
        <time>2016-07-16T10:29:34Z</time>
      </trkpt>
      <trkpt lat="46.06729" lon="3.54966">
        <ele>387.61</ele>
        <time>2016-07-16T10:29:37Z</time>
      </trkpt>
      <trkpt lat="46.06706" lon="3.54974">
        <ele>386.75</ele>
        <time>2016-07-16T10:29:40Z</time>
      </trkpt>
      <trkpt lat="46.06689" lon="3.54989">
        <ele>386.56</ele>
        <time>2016-07-16T10:29:42Z</time>
      </trkpt>
      <trkpt lat="46.06667" lon="3.55005">
        <ele>384.83</ele>
        <time>2016-07-16T10:29:45Z</time>
      </trkpt>
      <trkpt lat="46.06649" lon="3.55011">
        <ele>387.31</ele>
        <time>2016-07-16T10:29:52Z</time>
      </trkpt>
      <trkpt lat="46.06633" lon="3.55026">
        <ele>387.55</ele>
        <time>2016-07-16T10:30:02Z</time>
      </trkpt>
      <trkpt lat="46.06614" lon="3.55032">
        <ele>394.55</ele>
        <time>2016-07-16T10:30:13Z</time>
      </trkpt>
      <trkpt lat="46.06599" lon="3.55049">
        <ele>394.6</ele>
        <time>2016-07-16T10:30:24Z</time>
      </trkpt>
      <trkpt lat="46.06584" lon="3.55063">
        <ele>393.56</ele>
        <time>2016-07-16T10:30:34Z</time>
      </trkpt>
      <trkpt lat="46.06568" lon="3.55078">
        <ele>393.55</ele>
        <time>2016-07-16T10:30:45Z</time>
      </trkpt>
      <trkpt lat="46.06554" lon="3.55096">
        <ele>395.51</ele>
        <time>2016-07-16T10:30:57Z</time>
      </trkpt>
      <trkpt lat="46.06543" lon="3.55118">
        <ele>400.15</ele>
        <time>2016-07-16T10:31:11Z</time>
      </trkpt>
      <trkpt lat="46.0654" lon="3.55144">
        <ele>401.38</ele>
        <time>2016-07-16T10:31:25Z</time>
      </trkpt>
      <trkpt lat="46.06539" lon="3.55171">
        <ele>400.62</ele>
        <time>2016-07-16T10:31:38Z</time>
      </trkpt>
      <trkpt lat="46.06528" lon="3.55194">
        <ele>402.36</ele>
        <time>2016-07-16T10:31:53Z</time>
      </trkpt>
      <trkpt lat="46.06521" lon="3.55218">
        <ele>409.54</ele>
        <time>2016-07-16T10:32:06Z</time>
      </trkpt>
      <trkpt lat="46.06525" lon="3.55245">
        <ele>411.51</ele>
        <time>2016-07-16T10:32:18Z</time>
      </trkpt>
      <trkpt lat="46.06533" lon="3.55268">
        <ele>406.6</ele>
        <time>2016-07-16T10:32:28Z</time>
      </trkpt>
      <trkpt lat="46.06545" lon="3.5529">
        <ele>408.35</ele>
        <time>2016-07-16T10:32:37Z</time>
      </trkpt>
      <trkpt lat="46.0656" lon="3.55305">
        <ele>408.55</ele>
        <time>2016-07-16T10:32:47Z</time>
      </trkpt>
      <trkpt lat="46.06568" lon="3.5533">
        <ele>411.55</ele>
        <time>2016-07-16T10:32:57Z</time>
      </trkpt>
      <trkpt lat="46.06574" lon="3.55357">
        <ele>412.39</ele>
        <time>2016-07-16T10:33:07Z</time>
      </trkpt>
      <trkpt lat="46.06582" lon="3.5538">
        <ele>413.51</ele>
        <time>2016-07-16T10:33:16Z</time>
      </trkpt>
      <trkpt lat="46.06595" lon="3.554">
        <ele>412.71</ele>
        <time>2016-07-16T10:33:26Z</time>
      </trkpt>
      <trkpt lat="46.06609" lon="3.5542">
        <ele>414.35</ele>
        <time>2016-07-16T10:33:36Z</time>
      </trkpt>
      <trkpt lat="46.06623" lon="3.55439">
        <ele>415.55</ele>
        <time>2016-07-16T10:33:45Z</time>
      </trkpt>
      <trkpt lat="46.06619" lon="3.55465">
        <ele>416.75</ele>
        <time>2016-07-16T10:33:56Z</time>
      </trkpt>
      <trkpt lat="46.06608" lon="3.55489">
        <ele>419.51</ele>
        <time>2016-07-16T10:34:05Z</time>
      </trkpt>
      <trkpt lat="46.06602" lon="3.55516">
        <ele>421.51</ele>
        <time>2016-07-16T10:34:15Z</time>
      </trkpt>
      <trkpt lat="46.06597" lon="3.55544">
        <ele>423.55</ele>
        <time>2016-07-16T10:34:25Z</time>
      </trkpt>
      <trkpt lat="46.06596" lon="3.55572">
        <ele>427.54</ele>
        <time>2016-07-16T10:34:34Z</time>
      </trkpt>
      <trkpt lat="46.06595" lon="3.55598">
        <ele>428.55</ele>
        <time>2016-07-16T10:34:43Z</time>
      </trkpt>
      <trkpt lat="46.06594" lon="3.55626">
        <ele>429.55</ele>
        <time>2016-07-16T10:34:53Z</time>
      </trkpt>
      <trkpt lat="46.06592" lon="3.55652">
        <ele>432.51</ele>
        <time>2016-07-16T10:35:04Z</time>
      </trkpt>
      <trkpt lat="46.06581" lon="3.55674">
        <ele>433.55</ele>
        <time>2016-07-16T10:35:14Z</time>
      </trkpt>
      <trkpt lat="46.06565" lon="3.55687">
        <ele>434.78</ele>
        <time>2016-07-16T10:35:21Z</time>
      </trkpt>
      <trkpt lat="46.06544" lon="3.55688">
        <ele>435.35</ele>
        <time>2016-07-16T10:35:29Z</time>
      </trkpt>
      <trkpt lat="46.06525" lon="3.55682">
        <ele>435.55</ele>
        <time>2016-07-16T10:35:37Z</time>
      </trkpt>
      <trkpt lat="46.06505" lon="3.55692">
        <ele>434.75</ele>
        <time>2016-07-16T10:35:44Z</time>
      </trkpt>
      <trkpt lat="46.06483" lon="3.55701">
        <ele>433.59</ele>
        <time>2016-07-16T10:35:48Z</time>
      </trkpt>
      <trkpt lat="46.06466" lon="3.5571">
        <ele>431.79</ele>
        <time>2016-07-16T10:35:51Z</time>
      </trkpt>
      <trkpt lat="46.06446" lon="3.55721">
        <ele>430.59</ele>
        <time>2016-07-16T10:35:54Z</time>
      </trkpt>
      <trkpt lat="46.06428" lon="3.55731">
        <ele>428.6</ele>
        <time>2016-07-16T10:35:57Z</time>
      </trkpt>
      <trkpt lat="46.06416" lon="3.55751">
        <ele>426.56</ele>
        <time>2016-07-16T10:36:02Z</time>
      </trkpt>
      <trkpt lat="46.06421" lon="3.55778">
        <ele>423.15</ele>
        <time>2016-07-16T10:36:06Z</time>
      </trkpt>
      <trkpt lat="46.06429" lon="3.55805">
        <ele>419.97</ele>
        <time>2016-07-16T10:36:09Z</time>
      </trkpt>
      <trkpt lat="46.06441" lon="3.55836">
        <ele>416</ele>
        <time>2016-07-16T10:36:12Z</time>
      </trkpt>
      <trkpt lat="46.06456" lon="3.5586">
        <ele>413.6</ele>
        <time>2016-07-16T10:36:15Z</time>
      </trkpt>
      <trkpt lat="46.06472" lon="3.55881">
        <ele>410</ele>
        <time>2016-07-16T10:36:18Z</time>
      </trkpt>
      <trkpt lat="46.06492" lon="3.55898">
        <ele>406.61</ele>
        <time>2016-07-16T10:36:21Z</time>
      </trkpt>
      <trkpt lat="46.06512" lon="3.55915">
        <ele>401.82</ele>
        <time>2016-07-16T10:36:24Z</time>
      </trkpt>
      <trkpt lat="46.06528" lon="3.55941">
        <ele>396.85</ele>
        <time>2016-07-16T10:36:27Z</time>
      </trkpt>
      <trkpt lat="46.06539" lon="3.55965">
        <ele>393.64</ele>
        <time>2016-07-16T10:36:30Z</time>
      </trkpt>
      <trkpt lat="46.06557" lon="3.55976">
        <ele>391.76</ele>
        <time>2016-07-16T10:36:33Z</time>
      </trkpt>
      <trkpt lat="46.06578" lon="3.55975">
        <ele>389.76</ele>
        <time>2016-07-16T10:36:36Z</time>
      </trkpt>
      <trkpt lat="46.06602" lon="3.55978">
        <ele>387.6</ele>
        <time>2016-07-16T10:36:39Z</time>
      </trkpt>
      <trkpt lat="46.06616" lon="3.55996">
        <ele>384.8</ele>
        <time>2016-07-16T10:36:42Z</time>
      </trkpt>
      <trkpt lat="46.06619" lon="3.56022">
        <ele>381.8</ele>
        <time>2016-07-16T10:36:45Z</time>
      </trkpt>
      <trkpt lat="46.06616" lon="3.56053">
        <ele>379.76</ele>
        <time>2016-07-16T10:36:48Z</time>
      </trkpt>
      <trkpt lat="46.066" lon="3.56069">
        <ele>376.95</ele>
        <time>2016-07-16T10:36:52Z</time>
      </trkpt>
      <trkpt lat="46.06578" lon="3.56064">
        <ele>371.61</ele>
        <time>2016-07-16T10:36:56Z</time>
      </trkpt>
      <trkpt lat="46.0656" lon="3.56078">
        <ele>368.03</ele>
        <time>2016-07-16T10:36:59Z</time>
      </trkpt>
      <trkpt lat="46.06556" lon="3.56109">
        <ele>367.43</ele>
        <time>2016-07-16T10:37:03Z</time>
      </trkpt>
      <trkpt lat="46.06547" lon="3.56132">
        <ele>365.75</ele>
        <time>2016-07-16T10:37:08Z</time>
      </trkpt>
      <trkpt lat="46.06531" lon="3.56149">
        <ele>364.56</ele>
        <time>2016-07-16T10:37:15Z</time>
      </trkpt>
      <trkpt lat="46.06518" lon="3.56171">
        <ele>366.58</ele>
        <time>2016-07-16T10:37:23Z</time>
      </trkpt>
      <trkpt lat="46.06505" lon="3.56194">
        <ele>365.95</ele>
        <time>2016-07-16T10:37:31Z</time>
      </trkpt>
      <trkpt lat="46.06486" lon="3.56208">
        <ele>362.91</ele>
        <time>2016-07-16T10:37:37Z</time>
      </trkpt>
      <trkpt lat="46.06467" lon="3.56221">
        <ele>359.76</ele>
        <time>2016-07-16T10:37:42Z</time>
      </trkpt>
      <trkpt lat="46.0645" lon="3.56233">
        <ele>358.72</ele>
        <time>2016-07-16T10:37:47Z</time>
      </trkpt>
      <trkpt lat="46.06435" lon="3.5625">
        <ele>359.55</ele>
        <time>2016-07-16T10:37:52Z</time>
      </trkpt>
      <trkpt lat="46.06419" lon="3.5627">
        <ele>364.3</ele>
        <time>2016-07-16T10:37:57Z</time>
      </trkpt>
      <trkpt lat="46.06403" lon="3.5629">
        <ele>367.34</ele>
        <time>2016-07-16T10:38:02Z</time>
      </trkpt>
      <trkpt lat="46.06386" lon="3.56308">
        <ele>369.7</ele>
        <time>2016-07-16T10:38:09Z</time>
      </trkpt>
      <trkpt lat="46.06373" lon="3.56328">
        <ele>369.35</ele>
        <time>2016-07-16T10:38:15Z</time>
      </trkpt>
      <trkpt lat="46.0636" lon="3.56348">
        <ele>370.59</ele>
        <time>2016-07-16T10:38:21Z</time>
      </trkpt>
      <trkpt lat="46.06346" lon="3.56365">
        <ele>372.55</ele>
        <time>2016-07-16T10:38:27Z</time>
      </trkpt>
      <trkpt lat="46.06328" lon="3.56377">
        <ele>372.51</ele>
        <time>2016-07-16T10:38:33Z</time>
      </trkpt>
      <trkpt lat="46.06312" lon="3.5639">
        <ele>375.46</ele>
        <time>2016-07-16T10:38:38Z</time>
      </trkpt>
      <trkpt lat="46.06295" lon="3.56407">
        <ele>373.55</ele>
        <time>2016-07-16T10:38:44Z</time>
      </trkpt>
      <trkpt lat="46.06279" lon="3.56421">
        <ele>376.48</ele>
        <time>2016-07-16T10:38:52Z</time>
      </trkpt>
      <trkpt lat="46.0626" lon="3.56432">
        <ele>377.78</ele>
        <time>2016-07-16T10:38:58Z</time>
      </trkpt>
      <trkpt lat="46.06242" lon="3.56442">
        <ele>375.41</ele>
        <time>2016-07-16T10:39:03Z</time>
      </trkpt>
      <trkpt lat="46.06224" lon="3.56453">
        <ele>371.64</ele>
        <time>2016-07-16T10:39:09Z</time>
      </trkpt>
      <trkpt lat="46.06203" lon="3.56458">
        <ele>369.55</ele>
        <time>2016-07-16T10:39:18Z</time>
      </trkpt>
      <trkpt lat="46.06183" lon="3.56461">
        <ele>371.36</ele>
        <time>2016-07-16T10:39:24Z</time>
      </trkpt>
      <trkpt lat="46.06163" lon="3.56468">
        <ele>375.3</ele>
        <time>2016-07-16T10:39:31Z</time>
      </trkpt>
      <trkpt lat="46.06145" lon="3.56477">
        <ele>376.75</ele>
        <time>2016-07-16T10:39:37Z</time>
      </trkpt>
      <trkpt lat="46.06126" lon="3.56487">
        <ele>377.51</ele>
        <time>2016-07-16T10:39:43Z</time>
      </trkpt>
      <trkpt lat="46.06107" lon="3.56494">
        <ele>381.3</ele>
        <time>2016-07-16T10:39:51Z</time>
      </trkpt>
      <trkpt lat="46.06089" lon="3.56497">
        <ele>378.83</ele>
        <time>2016-07-16T10:39:57Z</time>
      </trkpt>
      <trkpt lat="46.06069" lon="3.56507">
        <ele>380.36</ele>
        <time>2016-07-16T10:40:04Z</time>
      </trkpt>
      <trkpt lat="46.0605" lon="3.56516">
        <ele>379.55</ele>
        <time>2016-07-16T10:40:11Z</time>
      </trkpt>
      <trkpt lat="46.06032" lon="3.56526">
        <ele>379.55</ele>
        <time>2016-07-16T10:40:17Z</time>
      </trkpt>
      <trkpt lat="46.06014" lon="3.56536">
        <ele>379.74</ele>
        <time>2016-07-16T10:40:22Z</time>
      </trkpt>
      <trkpt lat="46.05994" lon="3.56547">
        <ele>378.75</ele>
        <time>2016-07-16T10:40:27Z</time>
      </trkpt>
      <trkpt lat="46.05976" lon="3.56558">
        <ele>377.76</ele>
        <time>2016-07-16T10:40:31Z</time>
      </trkpt>
      <trkpt lat="46.0596" lon="3.56576">
        <ele>376.59</ele>
        <time>2016-07-16T10:40:36Z</time>
      </trkpt>
      <trkpt lat="46.05945" lon="3.56602">
        <ele>373.76</ele>
        <time>2016-07-16T10:40:40Z</time>
      </trkpt>
      <trkpt lat="46.05924" lon="3.56617">
        <ele>370.76</ele>
        <time>2016-07-16T10:40:44Z</time>
      </trkpt>
      <trkpt lat="46.05909" lon="3.56632">
        <ele>368.76</ele>
        <time>2016-07-16T10:40:49Z</time>
      </trkpt>
      <trkpt lat="46.05905" lon="3.56661">
        <ele>366.76</ele>
        <time>2016-07-16T10:40:52Z</time>
      </trkpt>
      <trkpt lat="46.05903" lon="3.56692">
        <ele>366.55</ele>
        <time>2016-07-16T10:40:55Z</time>
      </trkpt>
      <trkpt lat="46.05899" lon="3.5672">
        <ele>363.96</ele>
        <time>2016-07-16T10:40:58Z</time>
      </trkpt>
      <trkpt lat="46.05899" lon="3.56752">
        <ele>362.56</ele>
        <time>2016-07-16T10:41:02Z</time>
      </trkpt>
      <trkpt lat="46.05904" lon="3.56781">
        <ele>365.5</ele>
        <time>2016-07-16T10:41:07Z</time>
      </trkpt>
      <trkpt lat="46.05898" lon="3.5681">
        <ele>365.71</ele>
        <time>2016-07-16T10:41:13Z</time>
      </trkpt>
      <trkpt lat="46.05882" lon="3.56829">
        <ele>370.5</ele>
        <time>2016-07-16T10:41:19Z</time>
      </trkpt>
      <trkpt lat="46.05867" lon="3.56844">
        <ele>370.59</ele>
        <time>2016-07-16T10:41:24Z</time>
      </trkpt>
      <trkpt lat="46.05865" lon="3.56872">
        <ele>369.52</ele>
        <time>2016-07-16T10:41:30Z</time>
      </trkpt>
      <trkpt lat="46.05873" lon="3.56897">
        <ele>365.64</ele>
        <time>2016-07-16T10:41:35Z</time>
      </trkpt>
      <trkpt lat="46.05889" lon="3.56916">
        <ele>364.59</ele>
        <time>2016-07-16T10:41:41Z</time>
      </trkpt>
      <trkpt lat="46.05905" lon="3.56932">
        <ele>368.54</ele>
        <time>2016-07-16T10:41:48Z</time>
      </trkpt>
      <trkpt lat="46.05896" lon="3.56956">
        <ele>370.54</ele>
        <time>2016-07-16T10:41:56Z</time>
      </trkpt>
      <trkpt lat="46.05885" lon="3.56977">
        <ele>371.55</ele>
        <time>2016-07-16T10:42:02Z</time>
      </trkpt>
      <trkpt lat="46.05873" lon="3.57004">
        <ele>372.71</ele>
        <time>2016-07-16T10:42:09Z</time>
      </trkpt>
      <trkpt lat="46.0586" lon="3.57026">
        <ele>373.55</ele>
        <time>2016-07-16T10:42:16Z</time>
      </trkpt>
      <trkpt lat="46.05843" lon="3.57044">
        <ele>372.56</ele>
        <time>2016-07-16T10:42:21Z</time>
      </trkpt>
      <trkpt lat="46.0582" lon="3.57045">
        <ele>370.95</ele>
        <time>2016-07-16T10:42:25Z</time>
      </trkpt>
      <trkpt lat="46.05797" lon="3.57045">
        <ele>370.56</ele>
        <time>2016-07-16T10:42:29Z</time>
      </trkpt>
      <trkpt lat="46.05779" lon="3.57042">
        <ele>368.75</ele>
        <time>2016-07-16T10:42:33Z</time>
      </trkpt>
      <trkpt lat="46.05759" lon="3.57043">
        <ele>368.55</ele>
        <time>2016-07-16T10:42:38Z</time>
      </trkpt>
      <trkpt lat="46.05737" lon="3.57048">
        <ele>369.54</ele>
        <time>2016-07-16T10:42:44Z</time>
      </trkpt>
      <trkpt lat="46.0572" lon="3.57057">
        <ele>370.56</ele>
        <time>2016-07-16T10:42:49Z</time>
      </trkpt>
      <trkpt lat="46.05702" lon="3.57068">
        <ele>369.75</ele>
        <time>2016-07-16T10:42:54Z</time>
      </trkpt>
      <trkpt lat="46.05685" lon="3.57079">
        <ele>369.55</ele>
        <time>2016-07-16T10:42:59Z</time>
      </trkpt>
      <trkpt lat="46.05667" lon="3.57091">
        <ele>367.6</ele>
        <time>2016-07-16T10:43:04Z</time>
      </trkpt>
      <trkpt lat="46.0565" lon="3.57101">
        <ele>368.52</ele>
        <time>2016-07-16T10:43:09Z</time>
      </trkpt>
      <trkpt lat="46.05633" lon="3.57111">
        <ele>369.55</ele>
        <time>2016-07-16T10:43:14Z</time>
      </trkpt>
      <trkpt lat="46.05613" lon="3.57123">
        <ele>369.55</ele>
        <time>2016-07-16T10:43:20Z</time>
      </trkpt>
      <trkpt lat="46.05594" lon="3.57132">
        <ele>369.75</ele>
        <time>2016-07-16T10:43:25Z</time>
      </trkpt>
      <trkpt lat="46.05576" lon="3.57141">
        <ele>369.55</ele>
        <time>2016-07-16T10:43:30Z</time>
      </trkpt>
      <trkpt lat="46.0556" lon="3.57154">
        <ele>369.58</ele>
        <time>2016-07-16T10:43:35Z</time>
      </trkpt>
      <trkpt lat="46.05544" lon="3.57168">
        <ele>370.55</ele>
        <time>2016-07-16T10:43:40Z</time>
      </trkpt>
      <trkpt lat="46.05527" lon="3.57187">
        <ele>369.75</ele>
        <time>2016-07-16T10:43:46Z</time>
      </trkpt>
      <trkpt lat="46.05511" lon="3.57207">
        <ele>369.32</ele>
        <time>2016-07-16T10:43:52Z</time>
      </trkpt>
      <trkpt lat="46.05495" lon="3.57226">
        <ele>369.59</ele>
        <time>2016-07-16T10:43:58Z</time>
      </trkpt>
      <trkpt lat="46.05479" lon="3.57246">
        <ele>370.55</ele>
        <time>2016-07-16T10:44:04Z</time>
      </trkpt>
      <trkpt lat="46.05464" lon="3.57262">
        <ele>368.75</ele>
        <time>2016-07-16T10:44:09Z</time>
      </trkpt>
      <trkpt lat="46.05447" lon="3.57273">
        <ele>373.11</ele>
        <time>2016-07-16T10:44:14Z</time>
      </trkpt>
      <trkpt lat="46.05427" lon="3.57285">
        <ele>375.59</ele>
        <time>2016-07-16T10:44:20Z</time>
      </trkpt>
      <trkpt lat="46.05409" lon="3.57293">
        <ele>375.33</ele>
        <time>2016-07-16T10:44:25Z</time>
      </trkpt>
      <trkpt lat="46.05388" lon="3.57295">
        <ele>381.22</ele>
        <time>2016-07-16T10:44:31Z</time>
      </trkpt>
      <trkpt lat="46.05369" lon="3.57302">
        <ele>380.56</ele>
        <time>2016-07-16T10:44:36Z</time>
      </trkpt>
      <trkpt lat="46.05348" lon="3.57303">
        <ele>380.71</ele>
        <time>2016-07-16T10:44:41Z</time>
      </trkpt>
      <trkpt lat="46.05328" lon="3.57301">
        <ele>378.72</ele>
        <time>2016-07-16T10:44:47Z</time>
      </trkpt>
      <trkpt lat="46.05306" lon="3.57298">
        <ele>378.47</ele>
        <time>2016-07-16T10:44:53Z</time>
      </trkpt>
      <trkpt lat="46.05288" lon="3.57315">
        <ele>380.58</ele>
        <time>2016-07-16T10:45:00Z</time>
      </trkpt>
      <trkpt lat="46.05278" lon="3.57338">
        <ele>380.51</ele>
        <time>2016-07-16T10:45:06Z</time>
      </trkpt>
      <trkpt lat="46.05265" lon="3.5736">
        <ele>378.6</ele>
        <time>2016-07-16T10:45:13Z</time>
      </trkpt>
      <trkpt lat="46.05248" lon="3.57376">
        <ele>378.52</ele>
        <time>2016-07-16T10:45:18Z</time>
      </trkpt>
      <trkpt lat="46.05231" lon="3.57393">
        <ele>376.59</ele>
        <time>2016-07-16T10:45:24Z</time>
      </trkpt>
      <trkpt lat="46.05214" lon="3.57406">
        <ele>377.51</ele>
        <time>2016-07-16T10:45:30Z</time>
      </trkpt>
      <trkpt lat="46.052" lon="3.57423">
        <ele>376.55</ele>
        <time>2016-07-16T10:45:37Z</time>
      </trkpt>
      <trkpt lat="46.05185" lon="3.5744">
        <ele>378.51</ele>
        <time>2016-07-16T10:45:46Z</time>
      </trkpt>
      <trkpt lat="46.05168" lon="3.57455">
        <ele>382.35</ele>
        <time>2016-07-16T10:45:54Z</time>
      </trkpt>
      <trkpt lat="46.05154" lon="3.57475">
        <ele>381.77</ele>
        <time>2016-07-16T10:46:02Z</time>
      </trkpt>
      <trkpt lat="46.05138" lon="3.57484">
        <ele>384.35</ele>
        <time>2016-07-16T10:46:09Z</time>
      </trkpt>
      <trkpt lat="46.05118" lon="3.57493">
        <ele>383.55</ele>
        <time>2016-07-16T10:46:15Z</time>
      </trkpt>
      <trkpt lat="46.051" lon="3.57496">
        <ele>383.71</ele>
        <time>2016-07-16T10:46:21Z</time>
      </trkpt>
      <trkpt lat="46.05081" lon="3.57499">
        <ele>388.34</ele>
        <time>2016-07-16T10:46:29Z</time>
      </trkpt>
      <trkpt lat="46.05062" lon="3.57501">
        <ele>392.5</ele>
        <time>2016-07-16T10:46:38Z</time>
      </trkpt>
      <trkpt lat="46.05044" lon="3.57513">
        <ele>393.75</ele>
        <time>2016-07-16T10:46:48Z</time>
      </trkpt>
      <trkpt lat="46.05024" lon="3.57518">
        <ele>394.75</ele>
        <time>2016-07-16T10:46:56Z</time>
      </trkpt>
      <trkpt lat="46.05004" lon="3.57522">
        <ele>394.75</ele>
        <time>2016-07-16T10:47:02Z</time>
      </trkpt>
      <trkpt lat="46.04983" lon="3.57529">
        <ele>395.32</ele>
        <time>2016-07-16T10:47:06Z</time>
      </trkpt>
      <trkpt lat="46.04962" lon="3.57538">
        <ele>393.79</ele>
        <time>2016-07-16T10:47:09Z</time>
      </trkpt>
      <trkpt lat="46.04939" lon="3.57544">
        <ele>388.21</ele>
        <time>2016-07-16T10:47:12Z</time>
      </trkpt>
      <trkpt lat="46.04919" lon="3.57546">
        <ele>386.57</ele>
        <time>2016-07-16T10:47:15Z</time>
      </trkpt>
      <trkpt lat="46.04899" lon="3.5754">
        <ele>383.96</ele>
        <time>2016-07-16T10:47:19Z</time>
      </trkpt>
      <trkpt lat="46.0488" lon="3.57535">
        <ele>384.77</ele>
        <time>2016-07-16T10:47:26Z</time>
      </trkpt>
      <trkpt lat="46.0486" lon="3.57532">
        <ele>382.56</ele>
        <time>2016-07-16T10:47:34Z</time>
      </trkpt>
      <trkpt lat="46.04838" lon="3.57527">
        <ele>381.55</ele>
        <time>2016-07-16T10:47:41Z</time>
      </trkpt>
      <trkpt lat="46.04817" lon="3.57519">
        <ele>385.31</ele>
        <time>2016-07-16T10:47:46Z</time>
      </trkpt>
      <trkpt lat="46.04797" lon="3.57514">
        <ele>384.71</ele>
        <time>2016-07-16T10:47:52Z</time>
      </trkpt>
      <trkpt lat="46.04778" lon="3.5751">
        <ele>386.34</ele>
        <time>2016-07-16T10:47:58Z</time>
      </trkpt>
      <trkpt lat="46.0476" lon="3.57513">
        <ele>385.75</ele>
        <time>2016-07-16T10:48:04Z</time>
      </trkpt>
      <trkpt lat="46.04743" lon="3.57505">
        <ele>389.54</ele>
        <time>2016-07-16T10:48:15Z</time>
      </trkpt>
      <trkpt lat="46.04729" lon="3.57488">
        <ele>390.6</ele>
        <time>2016-07-16T10:48:27Z</time>
      </trkpt>
      <trkpt lat="46.04712" lon="3.57477">
        <ele>393.71</ele>
        <time>2016-07-16T10:48:40Z</time>
      </trkpt>
      <trkpt lat="46.04692" lon="3.57472">
        <ele>404.51</ele>
        <time>2016-07-16T10:48:56Z</time>
      </trkpt>
      <trkpt lat="46.04673" lon="3.57467">
        <ele>407.8</ele>
        <time>2016-07-16T10:49:13Z</time>
      </trkpt>
      <trkpt lat="46.04655" lon="3.57465">
        <ele>411.55</ele>
        <time>2016-07-16T10:49:29Z</time>
      </trkpt>
      <trkpt lat="46.04637" lon="3.57462">
        <ele>414.48</ele>
        <time>2016-07-16T10:49:48Z</time>
      </trkpt>
      <trkpt lat="46.04619" lon="3.5747">
        <ele>413.55</ele>
        <time>2016-07-16T10:50:03Z</time>
      </trkpt>
      <trkpt lat="46.04602" lon="3.57483">
        <ele>417.57</ele>
        <time>2016-07-16T10:50:19Z</time>
      </trkpt>
      <trkpt lat="46.04587" lon="3.57499">
        <ele>423.55</ele>
        <time>2016-07-16T10:50:38Z</time>
      </trkpt>
      <trkpt lat="46.04573" lon="3.57519">
        <ele>429.55</ele>
        <time>2016-07-16T10:50:55Z</time>
      </trkpt>
      <trkpt lat="46.04566" lon="3.57545">
        <ele>433.35</ele>
        <time>2016-07-16T10:51:12Z</time>
      </trkpt>
      <trkpt lat="46.04566" lon="3.57574">
        <ele>432.76</ele>
        <time>2016-07-16T10:51:24Z</time>
      </trkpt>
      <trkpt lat="46.04562" lon="3.57608">
        <ele>430.77</ele>
        <time>2016-07-16T10:51:29Z</time>
      </trkpt>
      <trkpt lat="46.04555" lon="3.57632">
        <ele>427</ele>
        <time>2016-07-16T10:51:32Z</time>
      </trkpt>
      <trkpt lat="46.04549" lon="3.57659">
        <ele>430.3</ele>
        <time>2016-07-16T10:51:39Z</time>
      </trkpt>
      <trkpt lat="46.04542" lon="3.57684">
        <ele>431.59</ele>
        <time>2016-07-16T10:51:54Z</time>
      </trkpt>
      <trkpt lat="46.0454" lon="3.5771">
        <ele>435.46</ele>
        <time>2016-07-16T10:52:09Z</time>
      </trkpt>
      <trkpt lat="46.04535" lon="3.57736">
        <ele>436.71</ele>
        <time>2016-07-16T10:52:22Z</time>
      </trkpt>
      <trkpt lat="46.04525" lon="3.57758">
        <ele>441.55</ele>
        <time>2016-07-16T10:52:34Z</time>
      </trkpt>
      <trkpt lat="46.04521" lon="3.57784">
        <ele>443.35</ele>
        <time>2016-07-16T10:52:51Z</time>
      </trkpt>
      <trkpt lat="46.04509" lon="3.57806">
        <ele>445.75</ele>
        <time>2016-07-16T10:53:06Z</time>
      </trkpt>
      <trkpt lat="46.04495" lon="3.57824">
        <ele>447.6</ele>
        <time>2016-07-16T10:53:26Z</time>
      </trkpt>
      <trkpt lat="46.04479" lon="3.5784">
        <ele>455.35</ele>
        <time>2016-07-16T10:53:43Z</time>
      </trkpt>
      <trkpt lat="46.04466" lon="3.57857">
        <ele>458.71</ele>
        <time>2016-07-16T10:53:59Z</time>
      </trkpt>
      <trkpt lat="46.04453" lon="3.57876">
        <ele>458.75</ele>
        <time>2016-07-16T10:54:13Z</time>
      </trkpt>
      <trkpt lat="46.04445" lon="3.579">
        <ele>461.51</ele>
        <time>2016-07-16T10:54:23Z</time>
      </trkpt>
      <trkpt lat="46.04432" lon="3.57918">
        <ele>466.51</ele>
        <time>2016-07-16T10:54:38Z</time>
      </trkpt>
      <trkpt lat="46.0442" lon="3.57938">
        <ele>470.75</ele>
        <time>2016-07-16T10:55:09Z</time>
      </trkpt>
      <trkpt lat="46.04405" lon="3.57953">
        <ele>472.55</ele>
        <time>2016-07-16T10:55:23Z</time>
      </trkpt>
      <trkpt lat="46.0439" lon="3.57969">
        <ele>476.55</ele>
        <time>2016-07-16T10:55:40Z</time>
      </trkpt>
      <trkpt lat="46.04375" lon="3.57984">
        <ele>480.36</ele>
        <time>2016-07-16T10:55:55Z</time>
      </trkpt>
      <trkpt lat="46.04359" lon="3.57995">
        <ele>486.53</ele>
        <time>2016-07-16T10:56:11Z</time>
      </trkpt>
      <trkpt lat="46.04345" lon="3.58013">
        <ele>487.35</ele>
        <time>2016-07-16T10:56:24Z</time>
      </trkpt>
      <trkpt lat="46.04344" lon="3.5804">
        <ele>488.59</ele>
        <time>2016-07-16T10:56:35Z</time>
      </trkpt>
      <trkpt lat="46.04345" lon="3.58066">
        <ele>486.59</ele>
        <time>2016-07-16T10:56:44Z</time>
      </trkpt>
      <trkpt lat="46.0435" lon="3.58091">
        <ele>484.35</ele>
        <time>2016-07-16T10:56:53Z</time>
      </trkpt>
      <trkpt lat="46.04352" lon="3.58117">
        <ele>485.55</ele>
        <time>2016-07-16T10:57:04Z</time>
      </trkpt>
      <trkpt lat="46.04356" lon="3.58143">
        <ele>488.51</ele>
        <time>2016-07-16T10:57:13Z</time>
      </trkpt>
      <trkpt lat="46.04359" lon="3.58171">
        <ele>492.52</ele>
        <time>2016-07-16T10:57:23Z</time>
      </trkpt>
      <trkpt lat="46.04363" lon="3.58197">
        <ele>493.55</ele>
        <time>2016-07-16T10:57:32Z</time>
      </trkpt>
      <trkpt lat="46.04362" lon="3.58224">
        <ele>495.32</ele>
        <time>2016-07-16T10:57:41Z</time>
      </trkpt>
      <trkpt lat="46.04361" lon="3.58252">
        <ele>497.51</ele>
        <time>2016-07-16T10:57:50Z</time>
      </trkpt>
      <trkpt lat="46.0436" lon="3.58279">
        <ele>500.75</ele>
        <time>2016-07-16T10:57:59Z</time>
      </trkpt>
      <trkpt lat="46.04356" lon="3.58306">
        <ele>501.11</ele>
        <time>2016-07-16T10:58:09Z</time>
      </trkpt>
      <trkpt lat="46.04337" lon="3.583">
        <ele>501.55</ele>
        <time>2016-07-16T10:58:15Z</time>
      </trkpt>
      <trkpt lat="46.0432" lon="3.58288">
        <ele>502.52</ele>
        <time>2016-07-16T10:58:19Z</time>
      </trkpt>
      <trkpt lat="46.04298" lon="3.58271">
        <ele>500.56</ele>
        <time>2016-07-16T10:58:23Z</time>
      </trkpt>
      <trkpt lat="46.04281" lon="3.58257">
        <ele>499.56</ele>
        <time>2016-07-16T10:58:26Z</time>
      </trkpt>
      <trkpt lat="46.04258" lon="3.58249">
        <ele>495.81</ele>
        <time>2016-07-16T10:58:29Z</time>
      </trkpt>
      <trkpt lat="46.04235" lon="3.58247">
        <ele>490.88</ele>
        <time>2016-07-16T10:58:32Z</time>
      </trkpt>
      <trkpt lat="46.04212" lon="3.5825">
        <ele>489.76</ele>
        <time>2016-07-16T10:58:35Z</time>
      </trkpt>
      <trkpt lat="46.04193" lon="3.5825">
        <ele>485.78</ele>
        <time>2016-07-16T10:58:38Z</time>
      </trkpt>
      <trkpt lat="46.04174" lon="3.58247">
        <ele>483.57</ele>
        <time>2016-07-16T10:58:41Z</time>
      </trkpt>
      <trkpt lat="46.04154" lon="3.58247">
        <ele>482.56</ele>
        <time>2016-07-16T10:58:44Z</time>
      </trkpt>
      <trkpt lat="46.04137" lon="3.58236">
        <ele>480.79</ele>
        <time>2016-07-16T10:58:47Z</time>
      </trkpt>
      <trkpt lat="46.04119" lon="3.58223">
        <ele>477.8</ele>
        <time>2016-07-16T10:58:50Z</time>
      </trkpt>
      <trkpt lat="46.04102" lon="3.58209">
        <ele>476.79</ele>
        <time>2016-07-16T10:58:53Z</time>
      </trkpt>
      <trkpt lat="46.04088" lon="3.5819">
        <ele>472.57</ele>
        <time>2016-07-16T10:58:57Z</time>
      </trkpt>
      <trkpt lat="46.04072" lon="3.58172">
        <ele>467.64</ele>
        <time>2016-07-16T10:59:02Z</time>
      </trkpt>
      <trkpt lat="46.04055" lon="3.58149">
        <ele>465.59</ele>
        <time>2016-07-16T10:59:07Z</time>
      </trkpt>
      <trkpt lat="46.0404" lon="3.58133">
        <ele>458.19</ele>
        <time>2016-07-16T10:59:15Z</time>
      </trkpt>
      <trkpt lat="46.04022" lon="3.58145">
        <ele>452.83</ele>
        <time>2016-07-16T10:59:20Z</time>
      </trkpt>
      <trkpt lat="46.0401" lon="3.58166">
        <ele>449.8</ele>
        <time>2016-07-16T10:59:24Z</time>
      </trkpt>
      <trkpt lat="46.04001" lon="3.5819">
        <ele>445.8</ele>
        <time>2016-07-16T10:59:28Z</time>
      </trkpt>
      <trkpt lat="46.03993" lon="3.58215">
        <ele>442.8</ele>
        <time>2016-07-16T10:59:32Z</time>
      </trkpt>
      <trkpt lat="46.03988" lon="3.58243">
        <ele>441.6</ele>
        <time>2016-07-16T10:59:35Z</time>
      </trkpt>
      <trkpt lat="46.03982" lon="3.58268">
        <ele>439.79</ele>
        <time>2016-07-16T10:59:38Z</time>
      </trkpt>
      <trkpt lat="46.03981" lon="3.58299">
        <ele>438.56</ele>
        <time>2016-07-16T10:59:41Z</time>
      </trkpt>
      <trkpt lat="46.03975" lon="3.5833">
        <ele>435.8</ele>
        <time>2016-07-16T10:59:44Z</time>
      </trkpt>
      <trkpt lat="46.03967" lon="3.58354">
        <ele>435.55</ele>
        <time>2016-07-16T10:59:47Z</time>
      </trkpt>
      <trkpt lat="46.03953" lon="3.58375">
        <ele>432.96</ele>
        <time>2016-07-16T10:59:50Z</time>
      </trkpt>
      <trkpt lat="46.03939" lon="3.58392">
        <ele>430.73</ele>
        <time>2016-07-16T10:59:53Z</time>
      </trkpt>
      <trkpt lat="46.03924" lon="3.5842">
        <ele>423.79</ele>
        <time>2016-07-16T10:59:57Z</time>
      </trkpt>
      <trkpt lat="46.03924" lon="3.58449">
        <ele>418.61</ele>
        <time>2016-07-16T11:00:01Z</time>
      </trkpt>
      <trkpt lat="46.03925" lon="3.58478">
        <ele>416.55</ele>
        <time>2016-07-16T11:00:06Z</time>
      </trkpt>
      <trkpt lat="46.03925" lon="3.58505">
        <ele>415.75</ele>
        <time>2016-07-16T11:00:11Z</time>
      </trkpt>
      <trkpt lat="46.03931" lon="3.5853">
        <ele>416.74</ele>
        <time>2016-07-16T11:00:18Z</time>
      </trkpt>
      <trkpt lat="46.03946" lon="3.5855">
        <ele>417.55</ele>
        <time>2016-07-16T11:00:24Z</time>
      </trkpt>
      <trkpt lat="46.03962" lon="3.58565">
        <ele>417.55</ele>
        <time>2016-07-16T11:00:28Z</time>
      </trkpt>
      <trkpt lat="46.03976" lon="3.58586">
        <ele>417.55</ele>
        <time>2016-07-16T11:00:32Z</time>
      </trkpt>
      <trkpt lat="46.03957" lon="3.58599">
        <ele>412.19</ele>
        <time>2016-07-16T11:00:42Z</time>
      </trkpt>
      <trkpt lat="46.03938" lon="3.58608">
        <ele>411.56</ele>
        <time>2016-07-16T11:00:47Z</time>
      </trkpt>
      <trkpt lat="46.03922" lon="3.58624">
        <ele>407.81</ele>
        <time>2016-07-16T11:00:51Z</time>
      </trkpt>
      <trkpt lat="46.03904" lon="3.58641">
        <ele>406.56</ele>
        <time>2016-07-16T11:00:55Z</time>
      </trkpt>
      <trkpt lat="46.03884" lon="3.58657">
        <ele>404.76</ele>
        <time>2016-07-16T11:00:59Z</time>
      </trkpt>
      <trkpt lat="46.03866" lon="3.5867">
        <ele>400.84</ele>
        <time>2016-07-16T11:01:02Z</time>
      </trkpt>
      <trkpt lat="46.03847" lon="3.58687">
        <ele>398.6</ele>
        <time>2016-07-16T11:01:05Z</time>
      </trkpt>
      <trkpt lat="46.03831" lon="3.58702">
        <ele>398.71</ele>
        <time>2016-07-16T11:01:08Z</time>
      </trkpt>
      <trkpt lat="46.03808" lon="3.58697">
        <ele>398.59</ele>
        <time>2016-07-16T11:01:12Z</time>
      </trkpt>
      <trkpt lat="46.03794" lon="3.58679">
        <ele>398.55</ele>
        <time>2016-07-16T11:01:15Z</time>
      </trkpt>
      <trkpt lat="46.03778" lon="3.58665">
        <ele>398.36</ele>
        <time>2016-07-16T11:01:19Z</time>
      </trkpt>
      <trkpt lat="46.03758" lon="3.58661">
        <ele>400.38</ele>
        <time>2016-07-16T11:01:25Z</time>
      </trkpt>
      <trkpt lat="46.0374" lon="3.5866">
        <ele>402.35</ele>
        <time>2016-07-16T11:01:34Z</time>
      </trkpt>
      <trkpt lat="46.03722" lon="3.58667">
        <ele>407.47</ele>
        <time>2016-07-16T11:01:41Z</time>
      </trkpt>
      <trkpt lat="46.03704" lon="3.58679">
        <ele>408.74</ele>
        <time>2016-07-16T11:01:49Z</time>
      </trkpt>
      <trkpt lat="46.03687" lon="3.58691">
        <ele>408.55</ele>
        <time>2016-07-16T11:01:56Z</time>
      </trkpt>
      <trkpt lat="46.03672" lon="3.58708">
        <ele>409.75</ele>
        <time>2016-07-16T11:02:07Z</time>
      </trkpt>
      <trkpt lat="46.03658" lon="3.58725">
        <ele>408.76</ele>
        <time>2016-07-16T11:02:17Z</time>
      </trkpt>
      <trkpt lat="46.03641" lon="3.58738">
        <ele>406.32</ele>
        <time>2016-07-16T11:02:25Z</time>
      </trkpt>
      <trkpt lat="46.03623" lon="3.58749">
        <ele>408.35</ele>
        <time>2016-07-16T11:02:35Z</time>
      </trkpt>
      <trkpt lat="46.03604" lon="3.5875">
        <ele>411.35</ele>
        <time>2016-07-16T11:02:47Z</time>
      </trkpt>
      <trkpt lat="46.03586" lon="3.58745">
        <ele>414.58</ele>
        <time>2016-07-16T11:02:59Z</time>
      </trkpt>
      <trkpt lat="46.03567" lon="3.58743">
        <ele>418.55</ele>
        <time>2016-07-16T11:03:14Z</time>
      </trkpt>
      <trkpt lat="46.03549" lon="3.5874">
        <ele>420.72</ele>
        <time>2016-07-16T11:03:29Z</time>
      </trkpt>
      <trkpt lat="46.03531" lon="3.58737">
        <ele>425.55</ele>
        <time>2016-07-16T11:03:45Z</time>
      </trkpt>
      <trkpt lat="46.03512" lon="3.58738">
        <ele>431.35</ele>
        <time>2016-07-16T11:04:02Z</time>
      </trkpt>
      <trkpt lat="46.03495" lon="3.58743">
        <ele>438.7</ele>
        <time>2016-07-16T11:04:16Z</time>
      </trkpt>
      <trkpt lat="46.03476" lon="3.58749">
        <ele>442.55</ele>
        <time>2016-07-16T11:04:32Z</time>
      </trkpt>
      <trkpt lat="46.03461" lon="3.58763">
        <ele>444.32</ele>
        <time>2016-07-16T11:04:50Z</time>
      </trkpt>
      <trkpt lat="46.03445" lon="3.58776">
        <ele>445.55</ele>
        <time>2016-07-16T11:05:02Z</time>
      </trkpt>
      <trkpt lat="46.03427" lon="3.58785">
        <ele>447.55</ele>
        <time>2016-07-16T11:05:15Z</time>
      </trkpt>
      <trkpt lat="46.03409" lon="3.58789">
        <ele>453.51</ele>
        <time>2016-07-16T11:05:31Z</time>
      </trkpt>
      <trkpt lat="46.0339" lon="3.58788">
        <ele>454.55</ele>
        <time>2016-07-16T11:05:42Z</time>
      </trkpt>
      <trkpt lat="46.03371" lon="3.58773">
        <ele>452.76</ele>
        <time>2016-07-16T11:05:49Z</time>
      </trkpt>
      <trkpt lat="46.03357" lon="3.58751">
        <ele>451.59</ele>
        <time>2016-07-16T11:05:53Z</time>
      </trkpt>
      <trkpt lat="46.0334" lon="3.58732">
        <ele>452.55</ele>
        <time>2016-07-16T11:05:58Z</time>
      </trkpt>
      <trkpt lat="46.03321" lon="3.58721">
        <ele>453.51</ele>
        <time>2016-07-16T11:06:02Z</time>
      </trkpt>
      <trkpt lat="46.03303" lon="3.58734">
        <ele>453.55</ele>
        <time>2016-07-16T11:06:07Z</time>
      </trkpt>
      <trkpt lat="46.03299" lon="3.58759">
        <ele>455.54</ele>
        <time>2016-07-16T11:06:17Z</time>
      </trkpt>
      <trkpt lat="46.03294" lon="3.58786">
        <ele>453.51</ele>
        <time>2016-07-16T11:06:28Z</time>
      </trkpt>
      <trkpt lat="46.03289" lon="3.58812">
        <ele>454.55</ele>
        <time>2016-07-16T11:06:39Z</time>
      </trkpt>
      <trkpt lat="46.03274" lon="3.58829">
        <ele>456.55</ele>
        <time>2016-07-16T11:06:50Z</time>
      </trkpt>
      <trkpt lat="46.03255" lon="3.58839">
        <ele>457.55</ele>
        <time>2016-07-16T11:07:01Z</time>
      </trkpt>
      <trkpt lat="46.03235" lon="3.58836">
        <ele>458.35</ele>
        <time>2016-07-16T11:07:11Z</time>
      </trkpt>
      <trkpt lat="46.03216" lon="3.58836">
        <ele>460.54</ele>
        <time>2016-07-16T11:07:21Z</time>
      </trkpt>
      <trkpt lat="46.03197" lon="3.58838">
        <ele>462.59</ele>
        <time>2016-07-16T11:07:32Z</time>
      </trkpt>
      <trkpt lat="46.03178" lon="3.58837">
        <ele>469.35</ele>
        <time>2016-07-16T11:07:47Z</time>
      </trkpt>
      <trkpt lat="46.03159" lon="3.58837">
        <ele>473.59</ele>
        <time>2016-07-16T11:07:57Z</time>
      </trkpt>
      <trkpt lat="46.0314" lon="3.58835">
        <ele>472.75</ele>
        <time>2016-07-16T11:08:07Z</time>
      </trkpt>
      <trkpt lat="46.03121" lon="3.58835">
        <ele>471.52</ele>
        <time>2016-07-16T11:08:16Z</time>
      </trkpt>
      <trkpt lat="46.03101" lon="3.58835">
        <ele>471.35</ele>
        <time>2016-07-16T11:08:25Z</time>
      </trkpt>
      <trkpt lat="46.03084" lon="3.58845">
        <ele>472.55</ele>
        <time>2016-07-16T11:08:35Z</time>
      </trkpt>
      <trkpt lat="46.03067" lon="3.58855">
        <ele>477.5</ele>
        <time>2016-07-16T11:08:48Z</time>
      </trkpt>
      <trkpt lat="46.03049" lon="3.58849">
        <ele>478.39</ele>
        <time>2016-07-16T11:09:02Z</time>
      </trkpt>
      <trkpt lat="46.0303" lon="3.58848">
        <ele>481.35</ele>
        <time>2016-07-16T11:09:17Z</time>
      </trkpt>
      <trkpt lat="46.03011" lon="3.58839">
        <ele>483.92</ele>
        <time>2016-07-16T11:09:32Z</time>
      </trkpt>
      <trkpt lat="46.02993" lon="3.58827">
        <ele>485.51</ele>
        <time>2016-07-16T11:09:47Z</time>
      </trkpt>
      <trkpt lat="46.02975" lon="3.58817">
        <ele>483.51</ele>
        <time>2016-07-16T11:10:03Z</time>
      </trkpt>
      <trkpt lat="46.02959" lon="3.58805">
        <ele>491.35</ele>
        <time>2016-07-16T11:10:18Z</time>
      </trkpt>
      <trkpt lat="46.02943" lon="3.58792">
        <ele>496.35</ele>
        <time>2016-07-16T11:10:31Z</time>
      </trkpt>
      <trkpt lat="46.02928" lon="3.58777">
        <ele>501.55</ele>
        <time>2016-07-16T11:10:45Z</time>
      </trkpt>
      <trkpt lat="46.02913" lon="3.58763">
        <ele>499.55</ele>
        <time>2016-07-16T11:10:57Z</time>
      </trkpt>
      <trkpt lat="46.02899" lon="3.58745">
        <ele>503.35</ele>
        <time>2016-07-16T11:11:09Z</time>
      </trkpt>
      <trkpt lat="46.02885" lon="3.58727">
        <ele>504.75</ele>
        <time>2016-07-16T11:11:25Z</time>
      </trkpt>
      <trkpt lat="46.02869" lon="3.58712">
        <ele>505.55</ele>
        <time>2016-07-16T11:11:38Z</time>
      </trkpt>
      <trkpt lat="46.02854" lon="3.58697">
        <ele>505.56</ele>
        <time>2016-07-16T11:11:52Z</time>
      </trkpt>
      <trkpt lat="46.02838" lon="3.58685">
        <ele>508.51</ele>
        <time>2016-07-16T11:12:05Z</time>
      </trkpt>
      <trkpt lat="46.02823" lon="3.5867">
        <ele>514.31</ele>
        <time>2016-07-16T11:12:18Z</time>
      </trkpt>
      <trkpt lat="46.02809" lon="3.58652">
        <ele>518.55</ele>
        <time>2016-07-16T11:12:31Z</time>
      </trkpt>
      <trkpt lat="46.02796" lon="3.58633">
        <ele>520.34</ele>
        <time>2016-07-16T11:12:41Z</time>
      </trkpt>
      <trkpt lat="46.02782" lon="3.58613">
        <ele>523.75</ele>
        <time>2016-07-16T11:12:54Z</time>
      </trkpt>
      <trkpt lat="46.0278" lon="3.58586">
        <ele>519.52</ele>
        <time>2016-07-16T11:13:05Z</time>
      </trkpt>
      <trkpt lat="46.02786" lon="3.58561">
        <ele>524.54</ele>
        <time>2016-07-16T11:13:17Z</time>
      </trkpt>
      <trkpt lat="46.02791" lon="3.58534">
        <ele>525.75</ele>
        <time>2016-07-16T11:13:28Z</time>
      </trkpt>
      <trkpt lat="46.02798" lon="3.58508">
        <ele>527.54</ele>
        <time>2016-07-16T11:13:40Z</time>
      </trkpt>
      <trkpt lat="46.02806" lon="3.58483">
        <ele>528.36</ele>
        <time>2016-07-16T11:13:51Z</time>
      </trkpt>
      <trkpt lat="46.02813" lon="3.58459">
        <ele>529.54</ele>
        <time>2016-07-16T11:14:01Z</time>
      </trkpt>
      <trkpt lat="46.02817" lon="3.58432">
        <ele>530.55</ele>
        <time>2016-07-16T11:14:11Z</time>
      </trkpt>
      <trkpt lat="46.02814" lon="3.58405">
        <ele>532.51</ele>
        <time>2016-07-16T11:14:21Z</time>
      </trkpt>
      <trkpt lat="46.02803" lon="3.58383">
        <ele>534.35</ele>
        <time>2016-07-16T11:14:32Z</time>
      </trkpt>
      <trkpt lat="46.0279" lon="3.58365">
        <ele>536.55</ele>
        <time>2016-07-16T11:14:44Z</time>
      </trkpt>
      <trkpt lat="46.02777" lon="3.58345">
        <ele>539.35</ele>
        <time>2016-07-16T11:14:55Z</time>
      </trkpt>
      <trkpt lat="46.02763" lon="3.58327">
        <ele>540.35</ele>
        <time>2016-07-16T11:15:03Z</time>
      </trkpt>
      <trkpt lat="46.02752" lon="3.58306">
        <ele>541.55</ele>
        <time>2016-07-16T11:15:10Z</time>
      </trkpt>
      <trkpt lat="46.02742" lon="3.58281">
        <ele>544.51</ele>
        <time>2016-07-16T11:15:19Z</time>
      </trkpt>
      <trkpt lat="46.0273" lon="3.58261">
        <ele>547.34</ele>
        <time>2016-07-16T11:15:30Z</time>
      </trkpt>
      <trkpt lat="46.02718" lon="3.58238">
        <ele>550.51</ele>
        <time>2016-07-16T11:15:41Z</time>
      </trkpt>
      <trkpt lat="46.02707" lon="3.58216">
        <ele>551.36</ele>
        <time>2016-07-16T11:15:50Z</time>
      </trkpt>
      <trkpt lat="46.02698" lon="3.58192">
        <ele>550.56</ele>
        <time>2016-07-16T11:16:00Z</time>
      </trkpt>
      <trkpt lat="46.02689" lon="3.58168">
        <ele>551.54</ele>
        <time>2016-07-16T11:16:09Z</time>
      </trkpt>
      <trkpt lat="46.02682" lon="3.58143">
        <ele>551.35</ele>
        <time>2016-07-16T11:16:17Z</time>
      </trkpt>
      <trkpt lat="46.02671" lon="3.58122">
        <ele>552.55</ele>
        <time>2016-07-16T11:16:25Z</time>
      </trkpt>
      <trkpt lat="46.02657" lon="3.58103">
        <ele>554.54</ele>
        <time>2016-07-16T11:16:34Z</time>
      </trkpt>
      <trkpt lat="46.02645" lon="3.58081">
        <ele>556.51</ele>
        <time>2016-07-16T11:16:44Z</time>
      </trkpt>
      <trkpt lat="46.02635" lon="3.5806">
        <ele>558.71</ele>
        <time>2016-07-16T11:16:52Z</time>
      </trkpt>
      <trkpt lat="46.0263" lon="3.58035">
        <ele>560.51</ele>
        <time>2016-07-16T11:17:00Z</time>
      </trkpt>
      <trkpt lat="46.02632" lon="3.58007">
        <ele>560.52</ele>
        <time>2016-07-16T11:17:08Z</time>
      </trkpt>
      <trkpt lat="46.02636" lon="3.5798">
        <ele>562.51</ele>
        <time>2016-07-16T11:17:17Z</time>
      </trkpt>
      <trkpt lat="46.02643" lon="3.57953">
        <ele>564.71</ele>
        <time>2016-07-16T11:17:27Z</time>
      </trkpt>
      <trkpt lat="46.02654" lon="3.57931">
        <ele>567.55</ele>
        <time>2016-07-16T11:17:37Z</time>
      </trkpt>
      <trkpt lat="46.02664" lon="3.57907">
        <ele>569.55</ele>
        <time>2016-07-16T11:17:46Z</time>
      </trkpt>
      <trkpt lat="46.02672" lon="3.57881">
        <ele>569.36</ele>
        <time>2016-07-16T11:17:54Z</time>
      </trkpt>
      <trkpt lat="46.02672" lon="3.57852">
        <ele>571.71</ele>
        <time>2016-07-16T11:18:03Z</time>
      </trkpt>
      <trkpt lat="46.02665" lon="3.57828">
        <ele>573.51</ele>
        <time>2016-07-16T11:18:11Z</time>
      </trkpt>
      <trkpt lat="46.02661" lon="3.57802">
        <ele>572.75</ele>
        <time>2016-07-16T11:18:20Z</time>
      </trkpt>
      <trkpt lat="46.02662" lon="3.57776">
        <ele>573.34</ele>
        <time>2016-07-16T11:18:29Z</time>
      </trkpt>
      <trkpt lat="46.02666" lon="3.5775">
        <ele>575.35</ele>
        <time>2016-07-16T11:18:37Z</time>
      </trkpt>
      <trkpt lat="46.02672" lon="3.57725">
        <ele>574.51</ele>
        <time>2016-07-16T11:18:44Z</time>
      </trkpt>
      <trkpt lat="46.02682" lon="3.577">
        <ele>577.5</ele>
        <time>2016-07-16T11:18:53Z</time>
      </trkpt>
      <trkpt lat="46.02682" lon="3.57674">
        <ele>573.23</ele>
        <time>2016-07-16T11:19:03Z</time>
      </trkpt>
      <trkpt lat="46.0266" lon="3.57679">
        <ele>570.79</ele>
        <time>2016-07-16T11:19:07Z</time>
      </trkpt>
      <trkpt lat="46.0264" lon="3.57682">
        <ele>570.55</ele>
        <time>2016-07-16T11:19:10Z</time>
      </trkpt>
      <trkpt lat="46.02616" lon="3.57683">
        <ele>568.79</ele>
        <time>2016-07-16T11:19:13Z</time>
      </trkpt>
      <trkpt lat="46.02588" lon="3.57683">
        <ele>568.39</ele>
        <time>2016-07-16T11:19:16Z</time>
      </trkpt>
      <trkpt lat="46.0257" lon="3.57678">
        <ele>566.79</ele>
        <time>2016-07-16T11:19:18Z</time>
      </trkpt>
      <trkpt lat="46.02551" lon="3.57674">
        <ele>567.36</ele>
        <time>2016-07-16T11:19:20Z</time>
      </trkpt>
      <trkpt lat="46.02527" lon="3.57664">
        <ele>565.92</ele>
        <time>2016-07-16T11:19:23Z</time>
      </trkpt>
      <trkpt lat="46.02504" lon="3.57659">
        <ele>563</ele>
        <time>2016-07-16T11:19:26Z</time>
      </trkpt>
      <trkpt lat="46.02479" lon="3.57653">
        <ele>560.44</ele>
        <time>2016-07-16T11:19:29Z</time>
      </trkpt>
      <trkpt lat="46.0246" lon="3.57649">
        <ele>557.83</ele>
        <time>2016-07-16T11:19:31Z</time>
      </trkpt>
      <trkpt lat="46.02437" lon="3.57651">
        <ele>554.84</ele>
        <time>2016-07-16T11:19:33Z</time>
      </trkpt>
      <trkpt lat="46.02414" lon="3.57658">
        <ele>550.08</ele>
        <time>2016-07-16T11:19:35Z</time>
      </trkpt>
      <trkpt lat="46.02393" lon="3.57666">
        <ele>546.21</ele>
        <time>2016-07-16T11:19:37Z</time>
      </trkpt>
      <trkpt lat="46.02367" lon="3.5767">
        <ele>543.98</ele>
        <time>2016-07-16T11:19:39Z</time>
      </trkpt>
      <trkpt lat="46.02341" lon="3.57672">
        <ele>542.77</ele>
        <time>2016-07-16T11:19:41Z</time>
      </trkpt>
      <trkpt lat="46.0232" lon="3.57678">
        <ele>540.8</ele>
        <time>2016-07-16T11:19:43Z</time>
      </trkpt>
      <trkpt lat="46.023" lon="3.57676">
        <ele>538.8</ele>
        <time>2016-07-16T11:19:45Z</time>
      </trkpt>
      <trkpt lat="46.0228" lon="3.57666">
        <ele>536</ele>
        <time>2016-07-16T11:19:47Z</time>
      </trkpt>
      <trkpt lat="46.02263" lon="3.57651">
        <ele>534.61</ele>
        <time>2016-07-16T11:19:49Z</time>
      </trkpt>
      <trkpt lat="46.02247" lon="3.57636">
        <ele>532.8</ele>
        <time>2016-07-16T11:19:51Z</time>
      </trkpt>
      <trkpt lat="46.02226" lon="3.5762">
        <ele>530.8</ele>
        <time>2016-07-16T11:19:53Z</time>
      </trkpt>
      <trkpt lat="46.02206" lon="3.5761">
        <ele>528.8</ele>
        <time>2016-07-16T11:19:55Z</time>
      </trkpt>
      <trkpt lat="46.02188" lon="3.5761">
        <ele>525.36</ele>
        <time>2016-07-16T11:19:57Z</time>
      </trkpt>
      <trkpt lat="46.0217" lon="3.57622">
        <ele>521.87</ele>
        <time>2016-07-16T11:19:59Z</time>
      </trkpt>
      <trkpt lat="46.02145" lon="3.57639">
        <ele>517.09</ele>
        <time>2016-07-16T11:20:01Z</time>
      </trkpt>
      <trkpt lat="46.02119" lon="3.57655">
        <ele>515.61</ele>
        <time>2016-07-16T11:20:03Z</time>
      </trkpt>
      <trkpt lat="46.02094" lon="3.57664">
        <ele>513</ele>
        <time>2016-07-16T11:20:05Z</time>
      </trkpt>
      <trkpt lat="46.02068" lon="3.57669">
        <ele>510.49</ele>
        <time>2016-07-16T11:20:07Z</time>
      </trkpt>
      <trkpt lat="46.02044" lon="3.5768">
        <ele>507.19</ele>
        <time>2016-07-16T11:20:09Z</time>
      </trkpt>
      <trkpt lat="46.02022" lon="3.57688">
        <ele>502.26</ele>
        <time>2016-07-16T11:20:11Z</time>
      </trkpt>
      <trkpt lat="46.02002" lon="3.57691">
        <ele>499.02</ele>
        <time>2016-07-16T11:20:13Z</time>
      </trkpt>
      <trkpt lat="46.01982" lon="3.57684">
        <ele>495.85</ele>
        <time>2016-07-16T11:20:15Z</time>
      </trkpt>
      <trkpt lat="46.01962" lon="3.57673">
        <ele>492.04</ele>
        <time>2016-07-16T11:20:17Z</time>
      </trkpt>
      <trkpt lat="46.01943" lon="3.57665">
        <ele>488.85</ele>
        <time>2016-07-16T11:20:19Z</time>
      </trkpt>
      <trkpt lat="46.01924" lon="3.57658">
        <ele>485.85</ele>
        <time>2016-07-16T11:20:21Z</time>
      </trkpt>
      <trkpt lat="46.01901" lon="3.57654">
        <ele>485.56</ele>
        <time>2016-07-16T11:20:23Z</time>
      </trkpt>
      <trkpt lat="46.01883" lon="3.5765">
        <ele>485.55</ele>
        <time>2016-07-16T11:20:25Z</time>
      </trkpt>
      <trkpt lat="46.01869" lon="3.5763">
        <ele>480.85</ele>
        <time>2016-07-16T11:20:29Z</time>
      </trkpt>
      <trkpt lat="46.0185" lon="3.57621">
        <ele>473.98</ele>
        <time>2016-07-16T11:20:41Z</time>
      </trkpt>
      <trkpt lat="46.0183" lon="3.57636">
        <ele>471.77</ele>
        <time>2016-07-16T11:20:45Z</time>
      </trkpt>
      <trkpt lat="46.01808" lon="3.57643">
        <ele>467.65</ele>
        <time>2016-07-16T11:20:49Z</time>
      </trkpt>
      <trkpt lat="46.01792" lon="3.5766">
        <ele>464.8</ele>
        <time>2016-07-16T11:20:52Z</time>
      </trkpt>
      <trkpt lat="46.01784" lon="3.57685">
        <ele>460.81</ele>
        <time>2016-07-16T11:20:55Z</time>
      </trkpt>
      <trkpt lat="46.01775" lon="3.57712">
        <ele>461.39</ele>
        <time>2016-07-16T11:20:59Z</time>
      </trkpt>
      <trkpt lat="46.01761" lon="3.57729">
        <ele>464.53</ele>
        <time>2016-07-16T11:21:04Z</time>
      </trkpt>
      <trkpt lat="46.01747" lon="3.57745">
        <ele>465.51</ele>
        <time>2016-07-16T11:21:14Z</time>
      </trkpt>
      <trkpt lat="46.01744" lon="3.57772">
        <ele>466.6</ele>
        <time>2016-07-16T11:21:26Z</time>
      </trkpt>
      <trkpt lat="46.01736" lon="3.57795">
        <ele>468.31</ele>
        <time>2016-07-16T11:21:41Z</time>
      </trkpt>
      <trkpt lat="46.01748" lon="3.57819">
        <ele>472.35</ele>
        <time>2016-07-16T11:21:53Z</time>
      </trkpt>
      <trkpt lat="46.01756" lon="3.57845">
        <ele>474.51</ele>
        <time>2016-07-16T11:22:06Z</time>
      </trkpt>
      <trkpt lat="46.01762" lon="3.5787">
        <ele>471.74</ele>
        <time>2016-07-16T11:22:19Z</time>
      </trkpt>
      <trkpt lat="46.01778" lon="3.57884">
        <ele>473.35</ele>
        <time>2016-07-16T11:22:38Z</time>
      </trkpt>
      <trkpt lat="46.01795" lon="3.57896">
        <ele>474.55</ele>
        <time>2016-07-16T11:22:53Z</time>
      </trkpt>
      <trkpt lat="46.01812" lon="3.57909">
        <ele>479.54</ele>
        <time>2016-07-16T11:23:09Z</time>
      </trkpt>
      <trkpt lat="46.01829" lon="3.57922">
        <ele>479.59</ele>
        <time>2016-07-16T11:23:24Z</time>
      </trkpt>
      <trkpt lat="46.01842" lon="3.57941">
        <ele>477.59</ele>
        <time>2016-07-16T11:23:39Z</time>
      </trkpt>
      <trkpt lat="46.01855" lon="3.57959">
        <ele>488.51</ele>
        <time>2016-07-16T11:23:52Z</time>
      </trkpt>
      <trkpt lat="46.01858" lon="3.57986">
        <ele>487.64</ele>
        <time>2016-07-16T11:24:07Z</time>
      </trkpt>
      <trkpt lat="46.01851" lon="3.58011">
        <ele>489.54</ele>
        <time>2016-07-16T11:24:22Z</time>
      </trkpt>
      <trkpt lat="46.01839" lon="3.58032">
        <ele>494.39</ele>
        <time>2016-07-16T11:24:45Z</time>
      </trkpt>
      <trkpt lat="46.01821" lon="3.58038">
        <ele>496.59</ele>
        <time>2016-07-16T11:25:02Z</time>
      </trkpt>
      <trkpt lat="46.01801" lon="3.58041">
        <ele>506.76</ele>
        <time>2016-07-16T11:25:16Z</time>
      </trkpt>
      <trkpt lat="46.01783" lon="3.58033">
        <ele>511.38</ele>
        <time>2016-07-16T11:25:29Z</time>
      </trkpt>
      <trkpt lat="46.01768" lon="3.58019">
        <ele>508.79</ele>
        <time>2016-07-16T11:25:41Z</time>
      </trkpt>
      <trkpt lat="46.01753" lon="3.58004">
        <ele>512.32</ele>
        <time>2016-07-16T11:25:50Z</time>
      </trkpt>
      <trkpt lat="46.01735" lon="3.57996">
        <ele>518.58</ele>
        <time>2016-07-16T11:26:01Z</time>
      </trkpt>
      <trkpt lat="46.01715" lon="3.57989">
        <ele>516.09</ele>
        <time>2016-07-16T11:26:15Z</time>
      </trkpt>
      <trkpt lat="46.01696" lon="3.57991">
        <ele>514.55</ele>
        <time>2016-07-16T11:26:28Z</time>
      </trkpt>
      <trkpt lat="46.01677" lon="3.57996">
        <ele>518.53</ele>
        <time>2016-07-16T11:26:45Z</time>
      </trkpt>
      <trkpt lat="46.01659" lon="3.58004">
        <ele>520.5</ele>
        <time>2016-07-16T11:27:00Z</time>
      </trkpt>
      <trkpt lat="46.01641" lon="3.58007">
        <ele>524.54</ele>
        <time>2016-07-16T11:27:15Z</time>
      </trkpt>
      <trkpt lat="46.01622" lon="3.5801">
        <ele>524.74</ele>
        <time>2016-07-16T11:27:26Z</time>
      </trkpt>
      <trkpt lat="46.01604" lon="3.58009">
        <ele>530.55</ele>
        <time>2016-07-16T11:27:44Z</time>
      </trkpt>
      <trkpt lat="46.01585" lon="3.58009">
        <ele>537.3</ele>
        <time>2016-07-16T11:28:03Z</time>
      </trkpt>
      <trkpt lat="46.01566" lon="3.58009">
        <ele>541.19</ele>
        <time>2016-07-16T11:28:21Z</time>
      </trkpt>
      <trkpt lat="46.01548" lon="3.58007">
        <ele>543.54</ele>
        <time>2016-07-16T11:28:33Z</time>
      </trkpt>
      <trkpt lat="46.0153" lon="3.57996">
        <ele>541.75</ele>
        <time>2016-07-16T11:28:46Z</time>
      </trkpt>
      <trkpt lat="46.01512" lon="3.57988">
        <ele>539.59</ele>
        <time>2016-07-16T11:28:57Z</time>
      </trkpt>
      <trkpt lat="46.01494" lon="3.57983">
        <ele>538.39</ele>
        <time>2016-07-16T11:29:07Z</time>
      </trkpt>
      <trkpt lat="46.01475" lon="3.57979">
        <ele>537.55</ele>
        <time>2016-07-16T11:29:17Z</time>
      </trkpt>
      <trkpt lat="46.01455" lon="3.57971">
        <ele>535.56</ele>
        <time>2016-07-16T11:29:23Z</time>
      </trkpt>
      <trkpt lat="46.01439" lon="3.57959">
        <ele>535.55</ele>
        <time>2016-07-16T11:29:31Z</time>
      </trkpt>
      <trkpt lat="46.01424" lon="3.57942">
        <ele>535.55</ele>
        <time>2016-07-16T11:29:42Z</time>
      </trkpt>
      <trkpt lat="46.01409" lon="3.57927">
        <ele>536.55</ele>
        <time>2016-07-16T11:29:53Z</time>
      </trkpt>
      <trkpt lat="46.01395" lon="3.57909">
        <ele>538.54</ele>
        <time>2016-07-16T11:30:05Z</time>
      </trkpt>
      <trkpt lat="46.01381" lon="3.5789">
        <ele>542.54</ele>
        <time>2016-07-16T11:30:20Z</time>
      </trkpt>
      <trkpt lat="46.01365" lon="3.57878">
        <ele>545.55</ele>
        <time>2016-07-16T11:30:36Z</time>
      </trkpt>
      <trkpt lat="46.01348" lon="3.57868">
        <ele>549.51</ele>
        <time>2016-07-16T11:30:52Z</time>
      </trkpt>
      <trkpt lat="46.0133" lon="3.57859">
        <ele>555.35</ele>
        <time>2016-07-16T11:31:11Z</time>
      </trkpt>
      <trkpt lat="46.01313" lon="3.57847">
        <ele>558.54</ele>
        <time>2016-07-16T11:31:26Z</time>
      </trkpt>
      <trkpt lat="46.01295" lon="3.5784">
        <ele>564.56</ele>
        <time>2016-07-16T11:31:41Z</time>
      </trkpt>
      <trkpt lat="46.01277" lon="3.57829">
        <ele>568.71</ele>
        <time>2016-07-16T11:31:54Z</time>
      </trkpt>
      <trkpt lat="46.01259" lon="3.57824">
        <ele>567.51</ele>
        <time>2016-07-16T11:32:07Z</time>
      </trkpt>
      <trkpt lat="46.01241" lon="3.57827">
        <ele>568.52</ele>
        <time>2016-07-16T11:32:20Z</time>
      </trkpt>
      <trkpt lat="46.01222" lon="3.57828">
        <ele>567.59</ele>
        <time>2016-07-16T11:32:31Z</time>
      </trkpt>
      <trkpt lat="46.01202" lon="3.57829">
        <ele>566.63</ele>
        <time>2016-07-16T11:32:40Z</time>
      </trkpt>
      <trkpt lat="46.01182" lon="3.57835">
        <ele>567.35</ele>
        <time>2016-07-16T11:32:49Z</time>
      </trkpt>
      <trkpt lat="46.01165" lon="3.57848">
        <ele>570.55</ele>
        <time>2016-07-16T11:32:59Z</time>
      </trkpt>
      <trkpt lat="46.01158" lon="3.57873">
        <ele>571.75</ele>
        <time>2016-07-16T11:33:09Z</time>
      </trkpt>
      <trkpt lat="46.01157" lon="3.57899">
        <ele>572.55</ele>
        <time>2016-07-16T11:33:18Z</time>
      </trkpt>
      <trkpt lat="46.01149" lon="3.57923">
        <ele>571.55</ele>
        <time>2016-07-16T11:33:27Z</time>
      </trkpt>
      <trkpt lat="46.01138" lon="3.57945">
        <ele>570.59</ele>
        <time>2016-07-16T11:33:34Z</time>
      </trkpt>
      <trkpt lat="46.01126" lon="3.57973">
        <ele>569.56</ele>
        <time>2016-07-16T11:33:39Z</time>
      </trkpt>
      <trkpt lat="46.01107" lon="3.57974">
        <ele>569.55</ele>
        <time>2016-07-16T11:33:46Z</time>
      </trkpt>
      <trkpt lat="46.01089" lon="3.5798">
        <ele>570.71</ele>
        <time>2016-07-16T11:33:58Z</time>
      </trkpt>
      <trkpt lat="46.01072" lon="3.58001">
        <ele>570.76</ele>
        <time>2016-07-16T11:34:05Z</time>
      </trkpt>
      <trkpt lat="46.01055" lon="3.58017">
        <ele>570.59</ele>
        <time>2016-07-16T11:34:10Z</time>
      </trkpt>
      <trkpt lat="46.01039" lon="3.58034">
        <ele>568.79</ele>
        <time>2016-07-16T11:34:15Z</time>
      </trkpt>
      <trkpt lat="46.01021" lon="3.58046">
        <ele>565.8</ele>
        <time>2016-07-16T11:34:19Z</time>
      </trkpt>
      <trkpt lat="46.01004" lon="3.58056">
        <ele>564.55</ele>
        <time>2016-07-16T11:34:26Z</time>
      </trkpt>
      <trkpt lat="46.00998" lon="3.58082">
        <ele>562.55</ele>
        <time>2016-07-16T11:34:40Z</time>
      </trkpt>
      <trkpt lat="46.01002" lon="3.5811">
        <ele>565.35</ele>
        <time>2016-07-16T11:34:51Z</time>
      </trkpt>
      <trkpt lat="46.01005" lon="3.5814">
        <ele>566.38</ele>
        <time>2016-07-16T11:34:56Z</time>
      </trkpt>
      <trkpt lat="46.01009" lon="3.58169">
        <ele>564.82</ele>
        <time>2016-07-16T11:35:00Z</time>
      </trkpt>
      <trkpt lat="46.00997" lon="3.58188">
        <ele>562.99</ele>
        <time>2016-07-16T11:35:09Z</time>
      </trkpt>
      <trkpt lat="46.01001" lon="3.58215">
        <ele>563.79</ele>
        <time>2016-07-16T11:35:23Z</time>
      </trkpt>
      <trkpt lat="46.01016" lon="3.5824">
        <ele>564.72</ele>
        <time>2016-07-16T11:35:28Z</time>
      </trkpt>
      <trkpt lat="46.01027" lon="3.58262">
        <ele>562.6</ele>
        <time>2016-07-16T11:35:33Z</time>
      </trkpt>
      <trkpt lat="46.01034" lon="3.58287">
        <ele>562.51</ele>
        <time>2016-07-16T11:35:46Z</time>
      </trkpt>
      <trkpt lat="46.01039" lon="3.58315">
        <ele>566.5</ele>
        <time>2016-07-16T11:35:59Z</time>
      </trkpt>
      <trkpt lat="46.01039" lon="3.58345">
        <ele>564.39</ele>
        <time>2016-07-16T11:36:07Z</time>
      </trkpt>
      <trkpt lat="46.01034" lon="3.58374">
        <ele>560.61</ele>
        <time>2016-07-16T11:36:14Z</time>
      </trkpt>
      <trkpt lat="46.01028" lon="3.584">
        <ele>561.14</ele>
        <time>2016-07-16T11:36:19Z</time>
      </trkpt>
      <trkpt lat="46.0101" lon="3.58417">
        <ele>557.81</ele>
        <time>2016-07-16T11:36:22Z</time>
      </trkpt>
      <trkpt lat="46.00996" lon="3.58436">
        <ele>554</ele>
        <time>2016-07-16T11:36:25Z</time>
      </trkpt>
      <trkpt lat="46.00985" lon="3.58462">
        <ele>551.8</ele>
        <time>2016-07-16T11:36:30Z</time>
      </trkpt>
      <trkpt lat="46.00986" lon="3.58491">
        <ele>555.3</ele>
        <time>2016-07-16T11:36:36Z</time>
      </trkpt>
      <trkpt lat="46.01001" lon="3.58506">
        <ele>565.34</ele>
        <time>2016-07-16T11:36:46Z</time>
      </trkpt>
      <trkpt lat="46.00995" lon="3.58531">
        <ele>557.8</ele>
        <time>2016-07-16T11:37:12Z</time>
      </trkpt>
      <trkpt lat="46.00977" lon="3.58532">
        <ele>559.35</ele>
        <time>2016-07-16T11:37:32Z</time>
      </trkpt>
      <trkpt lat="46.00958" lon="3.58529">
        <ele>576.3</ele>
        <time>2016-07-16T11:38:08Z</time>
      </trkpt>
      <trkpt lat="46.0095" lon="3.58555">
        <ele>583.87</ele>
        <time>2016-07-16T11:45:03Z</time>
      </trkpt>
      <trkpt lat="46.00942" lon="3.58531">
        <ele>572.6</ele>
        <time>2016-07-16T11:54:05Z</time>
      </trkpt>
      <trkpt lat="46.00924" lon="3.58528">
        <ele>573.55</ele>
        <time>2016-07-16T11:54:32Z</time>
      </trkpt>
      <trkpt lat="46.00905" lon="3.58525">
        <ele>572.55</ele>
        <time>2016-07-16T11:54:52Z</time>
      </trkpt>
      <trkpt lat="46.00887" lon="3.58528">
        <ele>571.55</ele>
        <time>2016-07-16T11:55:08Z</time>
      </trkpt>
      <trkpt lat="46.00869" lon="3.58538">
        <ele>575.56</ele>
        <time>2016-07-16T11:55:25Z</time>
      </trkpt>
      <trkpt lat="46.00851" lon="3.58543">
        <ele>579.35</ele>
        <time>2016-07-16T11:55:42Z</time>
      </trkpt>
      <trkpt lat="46.00832" lon="3.58548">
        <ele>581.76</ele>
        <time>2016-07-16T11:55:55Z</time>
      </trkpt>
      <trkpt lat="46.00812" lon="3.58552">
        <ele>586.54</ele>
        <time>2016-07-16T11:56:10Z</time>
      </trkpt>
      <trkpt lat="46.00794" lon="3.58556">
        <ele>586.56</ele>
        <time>2016-07-16T11:56:25Z</time>
      </trkpt>
      <trkpt lat="46.00776" lon="3.58562">
        <ele>593.58</ele>
        <time>2016-07-16T11:56:44Z</time>
      </trkpt>
      <trkpt lat="46.00762" lon="3.58581">
        <ele>602.54</ele>
        <time>2016-07-16T11:56:57Z</time>
      </trkpt>
      <trkpt lat="46.00751" lon="3.58602">
        <ele>599.55</ele>
        <time>2016-07-16T11:57:11Z</time>
      </trkpt>
      <trkpt lat="46.00736" lon="3.58617">
        <ele>600.55</ele>
        <time>2016-07-16T11:57:27Z</time>
      </trkpt>
      <trkpt lat="46.00717" lon="3.5862">
        <ele>603.51</ele>
        <time>2016-07-16T11:57:45Z</time>
      </trkpt>
      <trkpt lat="46.00699" lon="3.58619">
        <ele>606.59</ele>
        <time>2016-07-16T11:58:04Z</time>
      </trkpt>
      <trkpt lat="46.00682" lon="3.58611">
        <ele>606.55</ele>
        <time>2016-07-16T11:58:26Z</time>
      </trkpt>
      <trkpt lat="46.00664" lon="3.58602">
        <ele>610.55</ele>
        <time>2016-07-16T11:58:42Z</time>
      </trkpt>
      <trkpt lat="46.00656" lon="3.58579">
        <ele>616.55</ele>
        <time>2016-07-16T11:59:00Z</time>
      </trkpt>
      <trkpt lat="46.00661" lon="3.58553">
        <ele>616.51</ele>
        <time>2016-07-16T11:59:16Z</time>
      </trkpt>
      <trkpt lat="46.00667" lon="3.58528">
        <ele>617.55</ele>
        <time>2016-07-16T11:59:32Z</time>
      </trkpt>
      <trkpt lat="46.00663" lon="3.58502">
        <ele>622.31</ele>
        <time>2016-07-16T11:59:49Z</time>
      </trkpt>
      <trkpt lat="46.00651" lon="3.5848">
        <ele>629.55</ele>
        <time>2016-07-16T12:00:05Z</time>
      </trkpt>
      <trkpt lat="46.00643" lon="3.58456">
        <ele>629.76</ele>
        <time>2016-07-16T12:00:20Z</time>
      </trkpt>
      <trkpt lat="46.00633" lon="3.58434">
        <ele>632.54</ele>
        <time>2016-07-16T12:00:35Z</time>
      </trkpt>
      <trkpt lat="46.00629" lon="3.58407">
        <ele>634.55</ele>
        <time>2016-07-16T12:00:49Z</time>
      </trkpt>
      <trkpt lat="46.00622" lon="3.58382">
        <ele>636.52</ele>
        <time>2016-07-16T12:01:04Z</time>
      </trkpt>
      <trkpt lat="46.00617" lon="3.58354">
        <ele>637.75</ele>
        <time>2016-07-16T12:01:18Z</time>
      </trkpt>
      <trkpt lat="46.00613" lon="3.58328">
        <ele>639.55</ele>
        <time>2016-07-16T12:01:31Z</time>
      </trkpt>
      <trkpt lat="46.00606" lon="3.58303">
        <ele>642.35</ele>
        <time>2016-07-16T12:01:45Z</time>
      </trkpt>
      <trkpt lat="46.00599" lon="3.58278">
        <ele>644.35</ele>
        <time>2016-07-16T12:01:59Z</time>
      </trkpt>
      <trkpt lat="46.00592" lon="3.58254">
        <ele>646.51</ele>
        <time>2016-07-16T12:02:14Z</time>
      </trkpt>
      <trkpt lat="46.00579" lon="3.58234">
        <ele>650.35</ele>
        <time>2016-07-16T12:02:27Z</time>
      </trkpt>
      <trkpt lat="46.00569" lon="3.58213">
        <ele>652.35</ele>
        <time>2016-07-16T12:02:40Z</time>
      </trkpt>
      <trkpt lat="46.0056" lon="3.58189">
        <ele>650.56</ele>
        <time>2016-07-16T12:02:51Z</time>
      </trkpt>
      <trkpt lat="46.00556" lon="3.58162">
        <ele>655.27</ele>
        <time>2016-07-16T12:03:04Z</time>
      </trkpt>
      <trkpt lat="46.00549" lon="3.58138">
        <ele>660.55</ele>
        <time>2016-07-16T12:03:17Z</time>
      </trkpt>
      <trkpt lat="46.00542" lon="3.58112">
        <ele>663.55</ele>
        <time>2016-07-16T12:03:29Z</time>
      </trkpt>
      <trkpt lat="46.00534" lon="3.58086">
        <ele>664.55</ele>
        <time>2016-07-16T12:03:40Z</time>
      </trkpt>
      <trkpt lat="46.00523" lon="3.58064">
        <ele>664.51</ele>
        <time>2016-07-16T12:03:51Z</time>
      </trkpt>
      <trkpt lat="46.00505" lon="3.58059">
        <ele>667.51</ele>
        <time>2016-07-16T12:04:02Z</time>
      </trkpt>
      <trkpt lat="46.00485" lon="3.58064">
        <ele>670.35</ele>
        <time>2016-07-16T12:04:13Z</time>
      </trkpt>
      <trkpt lat="46.00466" lon="3.5807">
        <ele>672.55</ele>
        <time>2016-07-16T12:04:24Z</time>
      </trkpt>
      <trkpt lat="46.00447" lon="3.5807">
        <ele>672.55</ele>
        <time>2016-07-16T12:04:34Z</time>
      </trkpt>
      <trkpt lat="46.00429" lon="3.58068">
        <ele>676.35</ele>
        <time>2016-07-16T12:04:43Z</time>
      </trkpt>
      <trkpt lat="46.00411" lon="3.58067">
        <ele>678.51</ele>
        <time>2016-07-16T12:04:52Z</time>
      </trkpt>
      <trkpt lat="46.00392" lon="3.58066">
        <ele>679.51</ele>
        <time>2016-07-16T12:05:01Z</time>
      </trkpt>
      <trkpt lat="46.00372" lon="3.58058">
        <ele>679.59</ele>
        <time>2016-07-16T12:05:10Z</time>
      </trkpt>
      <trkpt lat="46.00356" lon="3.58046">
        <ele>678.56</ele>
        <time>2016-07-16T12:05:16Z</time>
      </trkpt>
      <trkpt lat="46.00337" lon="3.58036">
        <ele>676.56</ele>
        <time>2016-07-16T12:05:21Z</time>
      </trkpt>
      <trkpt lat="46.00317" lon="3.58028">
        <ele>675.55</ele>
        <time>2016-07-16T12:05:25Z</time>
      </trkpt>
      <trkpt lat="46.00296" lon="3.58022">
        <ele>673.75</ele>
        <time>2016-07-16T12:05:29Z</time>
      </trkpt>
      <trkpt lat="46.00277" lon="3.5802">
        <ele>675.38</ele>
        <time>2016-07-16T12:05:32Z</time>
      </trkpt>
      <trkpt lat="46.00256" lon="3.58025">
        <ele>671.97</ele>
        <time>2016-07-16T12:05:35Z</time>
      </trkpt>
      <trkpt lat="46.00238" lon="3.5804">
        <ele>669.83</ele>
        <time>2016-07-16T12:05:38Z</time>
      </trkpt>
      <trkpt lat="46.0022" lon="3.58062">
        <ele>668.59</ele>
        <time>2016-07-16T12:05:42Z</time>
      </trkpt>
      <trkpt lat="46.00204" lon="3.58079">
        <ele>669.35</ele>
        <time>2016-07-16T12:05:46Z</time>
      </trkpt>
      <trkpt lat="46.00187" lon="3.58097">
        <ele>669.55</ele>
        <time>2016-07-16T12:05:52Z</time>
      </trkpt>
      <trkpt lat="46.00171" lon="3.58116">
        <ele>671.34</ele>
        <time>2016-07-16T12:05:58Z</time>
      </trkpt>
      <trkpt lat="46.00158" lon="3.58134">
        <ele>672.71</ele>
        <time>2016-07-16T12:06:04Z</time>
      </trkpt>
      <trkpt lat="46.00143" lon="3.58154">
        <ele>673.55</ele>
        <time>2016-07-16T12:06:11Z</time>
      </trkpt>
      <trkpt lat="46.00129" lon="3.58173">
        <ele>674.35</ele>
        <time>2016-07-16T12:06:22Z</time>
      </trkpt>
      <trkpt lat="46.00114" lon="3.58191">
        <ele>674.55</ele>
        <time>2016-07-16T12:06:30Z</time>
      </trkpt>
      <trkpt lat="46.00101" lon="3.58212">
        <ele>674.55</ele>
        <time>2016-07-16T12:06:38Z</time>
      </trkpt>
      <trkpt lat="46.00087" lon="3.5823">
        <ele>674.52</ele>
        <time>2016-07-16T12:06:47Z</time>
      </trkpt>
      <trkpt lat="46.00075" lon="3.58249">
        <ele>672.59</ele>
        <time>2016-07-16T12:06:55Z</time>
      </trkpt>
      <trkpt lat="46.0006" lon="3.5827">
        <ele>671.55</ele>
        <time>2016-07-16T12:07:04Z</time>
      </trkpt>
      <trkpt lat="46.00048" lon="3.5829">
        <ele>670.59</ele>
        <time>2016-07-16T12:07:10Z</time>
      </trkpt>
      <trkpt lat="46.00037" lon="3.5831">
        <ele>670.55</ele>
        <time>2016-07-16T12:07:16Z</time>
      </trkpt>
      <trkpt lat="46.00024" lon="3.58329">
        <ele>667.76</ele>
        <time>2016-07-16T12:07:23Z</time>
      </trkpt>
      <trkpt lat="46.00008" lon="3.58346">
        <ele>669.55</ele>
        <time>2016-07-16T12:07:31Z</time>
      </trkpt>
      <trkpt lat="45.99993" lon="3.58365">
        <ele>671.55</ele>
        <time>2016-07-16T12:07:39Z</time>
      </trkpt>
      <trkpt lat="45.9998" lon="3.58383">
        <ele>672.55</ele>
        <time>2016-07-16T12:07:47Z</time>
      </trkpt>
      <trkpt lat="45.99968" lon="3.58406">
        <ele>670.56</ele>
        <time>2016-07-16T12:07:54Z</time>
      </trkpt>
      <trkpt lat="45.99964" lon="3.58435">
        <ele>668.6</ele>
        <time>2016-07-16T12:07:59Z</time>
      </trkpt>
      <trkpt lat="45.99962" lon="3.58463">
        <ele>667.75</ele>
        <time>2016-07-16T12:08:02Z</time>
      </trkpt>
      <trkpt lat="45.99959" lon="3.58493">
        <ele>666.59</ele>
        <time>2016-07-16T12:08:05Z</time>
      </trkpt>
      <trkpt lat="45.9995" lon="3.58519">
        <ele>666.55</ele>
        <time>2016-07-16T12:08:08Z</time>
      </trkpt>
      <trkpt lat="45.99935" lon="3.58542">
        <ele>664.79</ele>
        <time>2016-07-16T12:08:11Z</time>
      </trkpt>
      <trkpt lat="45.99915" lon="3.58564">
        <ele>661.99</ele>
        <time>2016-07-16T12:08:14Z</time>
      </trkpt>
      <trkpt lat="45.99894" lon="3.58589">
        <ele>661.68</ele>
        <time>2016-07-16T12:08:17Z</time>
      </trkpt>
      <trkpt lat="45.99876" lon="3.58617">
        <ele>657.81</ele>
        <time>2016-07-16T12:08:20Z</time>
      </trkpt>
      <trkpt lat="45.99857" lon="3.58642">
        <ele>655.76</ele>
        <time>2016-07-16T12:08:23Z</time>
      </trkpt>
      <trkpt lat="45.99842" lon="3.58669">
        <ele>654.56</ele>
        <time>2016-07-16T12:08:26Z</time>
      </trkpt>
      <trkpt lat="45.99824" lon="3.58693">
        <ele>652.41</ele>
        <time>2016-07-16T12:08:29Z</time>
      </trkpt>
      <trkpt lat="45.99809" lon="3.5871">
        <ele>653.35</ele>
        <time>2016-07-16T12:08:32Z</time>
      </trkpt>
      <trkpt lat="45.99788" lon="3.58713">
        <ele>652.75</ele>
        <time>2016-07-16T12:08:37Z</time>
      </trkpt>
      <trkpt lat="45.99775" lon="3.58694">
        <ele>651.75</ele>
        <time>2016-07-16T12:08:40Z</time>
      </trkpt>
      <trkpt lat="45.99759" lon="3.58672">
        <ele>648.8</ele>
        <time>2016-07-16T12:08:43Z</time>
      </trkpt>
      <trkpt lat="45.99741" lon="3.58652">
        <ele>647.76</ele>
        <time>2016-07-16T12:08:46Z</time>
      </trkpt>
      <trkpt lat="45.99727" lon="3.58636">
        <ele>645.56</ele>
        <time>2016-07-16T12:08:50Z</time>
      </trkpt>
      <trkpt lat="45.99721" lon="3.58607">
        <ele>645.55</ele>
        <time>2016-07-16T12:08:55Z</time>
      </trkpt>
      <trkpt lat="45.99714" lon="3.58577">
        <ele>644.59</ele>
        <time>2016-07-16T12:08:59Z</time>
      </trkpt>
      <trkpt lat="45.99707" lon="3.58545">
        <ele>643.59</ele>
        <time>2016-07-16T12:09:03Z</time>
      </trkpt>
      <trkpt lat="45.99703" lon="3.58518">
        <ele>643.55</ele>
        <time>2016-07-16T12:09:06Z</time>
      </trkpt>
      <trkpt lat="45.99701" lon="3.58489">
        <ele>642.56</ele>
        <time>2016-07-16T12:09:09Z</time>
      </trkpt>
      <trkpt lat="45.99708" lon="3.58459">
        <ele>641.75</ele>
        <time>2016-07-16T12:09:12Z</time>
      </trkpt>
      <trkpt lat="45.99723" lon="3.58435">
        <ele>639.95</ele>
        <time>2016-07-16T12:09:15Z</time>
      </trkpt>
      <trkpt lat="45.9974" lon="3.58411">
        <ele>637.8</ele>
        <time>2016-07-16T12:09:18Z</time>
      </trkpt>
      <trkpt lat="45.99753" lon="3.58379">
        <ele>635.79</ele>
        <time>2016-07-16T12:09:21Z</time>
      </trkpt>
      <trkpt lat="45.99761" lon="3.58356">
        <ele>634.76</ele>
        <time>2016-07-16T12:09:23Z</time>
      </trkpt>
      <trkpt lat="45.99769" lon="3.58331">
        <ele>633.76</ele>
        <time>2016-07-16T12:09:25Z</time>
      </trkpt>
      <trkpt lat="45.99777" lon="3.58308">
        <ele>632.6</ele>
        <time>2016-07-16T12:09:27Z</time>
      </trkpt>
      <trkpt lat="45.99785" lon="3.58284">
        <ele>631.75</ele>
        <time>2016-07-16T12:09:29Z</time>
      </trkpt>
      <trkpt lat="45.99797" lon="3.58249">
        <ele>629.79</ele>
        <time>2016-07-16T12:09:32Z</time>
      </trkpt>
      <trkpt lat="45.99805" lon="3.58223">
        <ele>628.76</ele>
        <time>2016-07-16T12:09:34Z</time>
      </trkpt>
      <trkpt lat="45.99813" lon="3.58198">
        <ele>627.76</ele>
        <time>2016-07-16T12:09:36Z</time>
      </trkpt>
      <trkpt lat="45.9982" lon="3.58171">
        <ele>625.8</ele>
        <time>2016-07-16T12:09:38Z</time>
      </trkpt>
      <trkpt lat="45.99828" lon="3.58144">
        <ele>624.76</ele>
        <time>2016-07-16T12:09:40Z</time>
      </trkpt>
      <trkpt lat="45.99834" lon="3.58116">
        <ele>623.76</ele>
        <time>2016-07-16T12:09:42Z</time>
      </trkpt>
      <trkpt lat="45.9984" lon="3.58089">
        <ele>622.76</ele>
        <time>2016-07-16T12:09:44Z</time>
      </trkpt>
      <trkpt lat="45.99844" lon="3.58063">
        <ele>621.76</ele>
        <time>2016-07-16T12:09:46Z</time>
      </trkpt>
      <trkpt lat="45.99843" lon="3.58036">
        <ele>620.76</ele>
        <time>2016-07-16T12:09:48Z</time>
      </trkpt>
      <trkpt lat="45.99835" lon="3.58002">
        <ele>620.55</ele>
        <time>2016-07-16T12:09:51Z</time>
      </trkpt>
      <trkpt lat="45.99826" lon="3.57975">
        <ele>621.35</ele>
        <time>2016-07-16T12:09:54Z</time>
      </trkpt>
      <trkpt lat="45.99821" lon="3.57949">
        <ele>623.34</ele>
        <time>2016-07-16T12:09:58Z</time>
      </trkpt>
      <trkpt lat="45.99821" lon="3.57921">
        <ele>624.55</ele>
        <time>2016-07-16T12:10:04Z</time>
      </trkpt>
      <trkpt lat="45.99821" lon="3.57895">
        <ele>629.23</ele>
        <time>2016-07-16T12:10:10Z</time>
      </trkpt>
      <trkpt lat="45.9982" lon="3.57867">
        <ele>629.56</ele>
        <time>2016-07-16T12:10:16Z</time>
      </trkpt>
      <trkpt lat="45.99809" lon="3.57843">
        <ele>632.55</ele>
        <time>2016-07-16T12:10:24Z</time>
      </trkpt>
      <trkpt lat="45.99791" lon="3.57836">
        <ele>628.56</ele>
        <time>2016-07-16T12:10:31Z</time>
      </trkpt>
      <trkpt lat="45.99771" lon="3.57839">
        <ele>626.92</ele>
        <time>2016-07-16T12:10:36Z</time>
      </trkpt>
      <trkpt lat="45.9975" lon="3.5785">
        <ele>624.59</ele>
        <time>2016-07-16T12:10:41Z</time>
      </trkpt>
      <trkpt lat="45.99729" lon="3.57858">
        <ele>623.36</ele>
        <time>2016-07-16T12:10:45Z</time>
      </trkpt>
      <trkpt lat="45.99706" lon="3.57857">
        <ele>621.59</ele>
        <time>2016-07-16T12:10:49Z</time>
      </trkpt>
      <trkpt lat="45.99685" lon="3.57855">
        <ele>621.75</ele>
        <time>2016-07-16T12:10:53Z</time>
      </trkpt>
      <trkpt lat="45.99666" lon="3.57858">
        <ele>620.63</ele>
        <time>2016-07-16T12:10:56Z</time>
      </trkpt>
      <trkpt lat="45.99645" lon="3.57864">
        <ele>619.75</ele>
        <time>2016-07-16T12:11:00Z</time>
      </trkpt>
      <trkpt lat="45.99626" lon="3.57872">
        <ele>618.76</ele>
        <time>2016-07-16T12:11:06Z</time>
      </trkpt>
      <trkpt lat="45.99607" lon="3.5787">
        <ele>615.59</ele>
        <time>2016-07-16T12:11:11Z</time>
      </trkpt>
      <trkpt lat="45.99586" lon="3.57861">
        <ele>612.59</ele>
        <time>2016-07-16T12:11:16Z</time>
      </trkpt>
      <trkpt lat="45.99567" lon="3.57862">
        <ele>612.55</ele>
        <time>2016-07-16T12:11:21Z</time>
      </trkpt>
      <trkpt lat="45.99551" lon="3.57876">
        <ele>611.59</ele>
        <time>2016-07-16T12:11:28Z</time>
      </trkpt>
      <trkpt lat="45.99535" lon="3.57893">
        <ele>611.71</ele>
        <time>2016-07-16T12:11:37Z</time>
      </trkpt>
      <trkpt lat="45.99515" lon="3.57893">
        <ele>612.55</ele>
        <time>2016-07-16T12:11:44Z</time>
      </trkpt>
      <trkpt lat="45.99495" lon="3.57884">
        <ele>612.52</ele>
        <time>2016-07-16T12:11:51Z</time>
      </trkpt>
      <trkpt lat="45.99476" lon="3.57875">
        <ele>609.56</ele>
        <time>2016-07-16T12:11:57Z</time>
      </trkpt>
      <trkpt lat="45.99458" lon="3.57864">
        <ele>609.55</ele>
        <time>2016-07-16T12:12:03Z</time>
      </trkpt>
      <trkpt lat="45.99476" lon="3.57875">
        <ele>613.35</ele>
        <time>2016-07-16T12:13:08Z</time>
      </trkpt>
      <trkpt lat="45.99495" lon="3.57885">
        <ele>616.5</ele>
        <time>2016-07-16T12:13:15Z</time>
      </trkpt>
      <trkpt lat="45.99515" lon="3.57894">
        <ele>616.55</ele>
        <time>2016-07-16T12:13:22Z</time>
      </trkpt>
      <trkpt lat="45.99535" lon="3.57892">
        <ele>615.59</ele>
        <time>2016-07-16T12:13:29Z</time>
      </trkpt>
      <trkpt lat="45.9955" lon="3.57876">
        <ele>611.56</ele>
        <time>2016-07-16T12:13:35Z</time>
      </trkpt>
      <trkpt lat="45.9957" lon="3.57862">
        <ele>609.56</ele>
        <time>2016-07-16T12:13:40Z</time>
      </trkpt>
      <trkpt lat="45.99591" lon="3.57862">
        <ele>609.55</ele>
        <time>2016-07-16T12:13:45Z</time>
      </trkpt>
      <trkpt lat="45.99609" lon="3.5787">
        <ele>611.51</ele>
        <time>2016-07-16T12:13:51Z</time>
      </trkpt>
      <trkpt lat="45.9963" lon="3.57871">
        <ele>610.56</ele>
        <time>2016-07-16T12:13:58Z</time>
      </trkpt>
      <trkpt lat="45.99642" lon="3.57847">
        <ele>613.35</ele>
        <time>2016-07-16T12:14:06Z</time>
      </trkpt>
      <trkpt lat="45.99642" lon="3.5782">
        <ele>616.18</ele>
        <time>2016-07-16T12:14:11Z</time>
      </trkpt>
      <trkpt lat="45.99638" lon="3.57792">
        <ele>616.37</ele>
        <time>2016-07-16T12:14:17Z</time>
      </trkpt>
      <trkpt lat="45.99633" lon="3.57766">
        <ele>613.59</ele>
        <time>2016-07-16T12:14:22Z</time>
      </trkpt>
      <trkpt lat="45.99628" lon="3.57739">
        <ele>612.52</ele>
        <time>2016-07-16T12:14:27Z</time>
      </trkpt>
      <trkpt lat="45.99626" lon="3.57712">
        <ele>615.31</ele>
        <time>2016-07-16T12:14:33Z</time>
      </trkpt>
      <trkpt lat="45.99623" lon="3.57684">
        <ele>616.55</ele>
        <time>2016-07-16T12:14:39Z</time>
      </trkpt>
      <trkpt lat="45.99621" lon="3.57654">
        <ele>617.55</ele>
        <time>2016-07-16T12:14:45Z</time>
      </trkpt>
      <trkpt lat="45.99626" lon="3.57627">
        <ele>618.55</ele>
        <time>2016-07-16T12:14:50Z</time>
      </trkpt>
      <trkpt lat="45.99635" lon="3.576">
        <ele>616.6</ele>
        <time>2016-07-16T12:14:54Z</time>
      </trkpt>
      <trkpt lat="45.99645" lon="3.57572">
        <ele>621.79</ele>
        <time>2016-07-16T12:14:58Z</time>
      </trkpt>
      <trkpt lat="45.99649" lon="3.57544">
        <ele>615.85</ele>
        <time>2016-07-16T12:15:02Z</time>
      </trkpt>
      <trkpt lat="45.99641" lon="3.57514">
        <ele>612.4</ele>
        <time>2016-07-16T12:15:06Z</time>
      </trkpt>
      <trkpt lat="45.99635" lon="3.57488">
        <ele>609.61</ele>
        <time>2016-07-16T12:15:09Z</time>
      </trkpt>
      <trkpt lat="45.99626" lon="3.5746">
        <ele>606.64</ele>
        <time>2016-07-16T12:15:13Z</time>
      </trkpt>
      <trkpt lat="45.99615" lon="3.57439">
        <ele>605.39</ele>
        <time>2016-07-16T12:15:17Z</time>
      </trkpt>
      <trkpt lat="45.99599" lon="3.57427">
        <ele>605.59</ele>
        <time>2016-07-16T12:15:41Z</time>
      </trkpt>
      <trkpt lat="45.99582" lon="3.57419">
        <ele>603.76</ele>
        <time>2016-07-16T12:15:46Z</time>
      </trkpt>
      <trkpt lat="45.99562" lon="3.57408">
        <ele>602.59</ele>
        <time>2016-07-16T12:15:52Z</time>
      </trkpt>
      <trkpt lat="45.99546" lon="3.57399">
        <ele>599.75</ele>
        <time>2016-07-16T12:15:58Z</time>
      </trkpt>
      <trkpt lat="45.99527" lon="3.5739">
        <ele>599.55</ele>
        <time>2016-07-16T12:16:04Z</time>
      </trkpt>
      <trkpt lat="45.99506" lon="3.57386">
        <ele>598.8</ele>
        <time>2016-07-16T12:16:09Z</time>
      </trkpt>
      <trkpt lat="45.99482" lon="3.57377">
        <ele>595.84</ele>
        <time>2016-07-16T12:16:13Z</time>
      </trkpt>
      <trkpt lat="45.9946" lon="3.57372">
        <ele>591.84</ele>
        <time>2016-07-16T12:16:16Z</time>
      </trkpt>
      <trkpt lat="45.99434" lon="3.57364">
        <ele>589.64</ele>
        <time>2016-07-16T12:16:19Z</time>
      </trkpt>
      <trkpt lat="45.99416" lon="3.57357">
        <ele>586.84</ele>
        <time>2016-07-16T12:16:21Z</time>
      </trkpt>
      <trkpt lat="45.99391" lon="3.57346">
        <ele>583.8</ele>
        <time>2016-07-16T12:16:24Z</time>
      </trkpt>
      <trkpt lat="45.99373" lon="3.57338">
        <ele>581.79</ele>
        <time>2016-07-16T12:16:27Z</time>
      </trkpt>
      <trkpt lat="45.9936" lon="3.57317">
        <ele>579.6</ele>
        <time>2016-07-16T12:16:30Z</time>
      </trkpt>
      <trkpt lat="45.99358" lon="3.57288">
        <ele>577.57</ele>
        <time>2016-07-16T12:16:33Z</time>
      </trkpt>
      <trkpt lat="45.99364" lon="3.57261">
        <ele>576.56</ele>
        <time>2016-07-16T12:16:36Z</time>
      </trkpt>
      <trkpt lat="45.99349" lon="3.57244">
        <ele>573.56</ele>
        <time>2016-07-16T12:16:41Z</time>
      </trkpt>
      <trkpt lat="45.99331" lon="3.57223">
        <ele>570.76</ele>
        <time>2016-07-16T12:16:46Z</time>
      </trkpt>
      <trkpt lat="45.9932" lon="3.57203">
        <ele>567.79</ele>
        <time>2016-07-16T12:16:50Z</time>
      </trkpt>
      <trkpt lat="45.99306" lon="3.57184">
        <ele>566.59</ele>
        <time>2016-07-16T12:16:54Z</time>
      </trkpt>
      <trkpt lat="45.99293" lon="3.57165">
        <ele>564.59</ele>
        <time>2016-07-16T12:16:58Z</time>
      </trkpt>
      <trkpt lat="45.99294" lon="3.57139">
        <ele>565.55</ele>
        <time>2016-07-16T12:17:12Z</time>
      </trkpt>
      <trkpt lat="45.993" lon="3.57114">
        <ele>567.55</ele>
        <time>2016-07-16T12:17:21Z</time>
      </trkpt>
      <trkpt lat="45.99307" lon="3.57088">
        <ele>568.56</ele>
        <time>2016-07-16T12:17:28Z</time>
      </trkpt>
      <trkpt lat="45.99321" lon="3.57069">
        <ele>569.52</ele>
        <time>2016-07-16T12:17:35Z</time>
      </trkpt>
      <trkpt lat="45.99334" lon="3.57048">
        <ele>573.54</ele>
        <time>2016-07-16T12:17:44Z</time>
      </trkpt>
      <trkpt lat="45.99349" lon="3.57026">
        <ele>570.79</ele>
        <time>2016-07-16T12:17:50Z</time>
      </trkpt>
      <trkpt lat="45.99364" lon="3.56999">
        <ele>567.79</ele>
        <time>2016-07-16T12:17:54Z</time>
      </trkpt>
      <trkpt lat="45.99382" lon="3.5699">
        <ele>564</ele>
        <time>2016-07-16T12:17:58Z</time>
      </trkpt>
      <trkpt lat="45.99398" lon="3.56975">
        <ele>561.8</ele>
        <time>2016-07-16T12:18:01Z</time>
      </trkpt>
      <trkpt lat="45.99409" lon="3.56949">
        <ele>560.71</ele>
        <time>2016-07-16T12:18:05Z</time>
      </trkpt>
      <trkpt lat="45.99411" lon="3.56919">
        <ele>563.34</ele>
        <time>2016-07-16T12:18:11Z</time>
      </trkpt>
      <trkpt lat="45.99421" lon="3.56892">
        <ele>561.63</ele>
        <time>2016-07-16T12:18:16Z</time>
      </trkpt>
      <trkpt lat="45.99441" lon="3.5687">
        <ele>559.76</ele>
        <time>2016-07-16T12:18:19Z</time>
      </trkpt>
      <trkpt lat="45.99458" lon="3.56845">
        <ele>559.55</ele>
        <time>2016-07-16T12:18:22Z</time>
      </trkpt>
      <trkpt lat="45.9947" lon="3.56821">
        <ele>557.92</ele>
        <time>2016-07-16T12:18:25Z</time>
      </trkpt>
      <trkpt lat="45.99486" lon="3.56799">
        <ele>560.12</ele>
        <time>2016-07-16T12:18:28Z</time>
      </trkpt>
      <trkpt lat="45.99508" lon="3.56791">
        <ele>560.52</ele>
        <time>2016-07-16T12:18:31Z</time>
      </trkpt>
      <trkpt lat="45.99532" lon="3.56789">
        <ele>562.5</ele>
        <time>2016-07-16T12:18:34Z</time>
      </trkpt>
      <trkpt lat="45.99549" lon="3.56774">
        <ele>561.55</ele>
        <time>2016-07-16T12:18:38Z</time>
      </trkpt>
      <trkpt lat="45.99566" lon="3.5676">
        <ele>562.72</ele>
        <time>2016-07-16T12:18:45Z</time>
      </trkpt>
      <trkpt lat="45.99584" lon="3.56752">
        <ele>554.95</ele>
        <time>2016-07-16T12:18:55Z</time>
      </trkpt>
      <trkpt lat="45.99604" lon="3.56756">
        <ele>556.55</ele>
        <time>2016-07-16T12:19:07Z</time>
      </trkpt>
      <trkpt lat="45.99622" lon="3.56761">
        <ele>564.54</ele>
        <time>2016-07-16T12:19:18Z</time>
      </trkpt>
      <trkpt lat="45.99641" lon="3.56767">
        <ele>575.3</ele>
        <time>2016-07-16T12:19:29Z</time>
      </trkpt>
      <trkpt lat="45.99659" lon="3.56766">
        <ele>577.7</ele>
        <time>2016-07-16T12:19:37Z</time>
      </trkpt>
      <trkpt lat="45.99663" lon="3.5674">
        <ele>573.55</ele>
        <time>2016-07-16T12:19:51Z</time>
      </trkpt>
      <trkpt lat="45.9966" lon="3.56713">
        <ele>577.54</ele>
        <time>2016-07-16T12:20:06Z</time>
      </trkpt>
      <trkpt lat="45.99665" lon="3.56688">
        <ele>577.58</ele>
        <time>2016-07-16T12:20:17Z</time>
      </trkpt>
      <trkpt lat="45.99681" lon="3.56674">
        <ele>577.39</ele>
        <time>2016-07-16T12:20:32Z</time>
      </trkpt>
      <trkpt lat="45.99701" lon="3.56672">
        <ele>576.59</ele>
        <time>2016-07-16T12:20:45Z</time>
      </trkpt>
      <trkpt lat="45.99718" lon="3.56664">
        <ele>577.55</ele>
        <time>2016-07-16T12:20:55Z</time>
      </trkpt>
      <trkpt lat="45.99735" lon="3.56654">
        <ele>578.51</ele>
        <time>2016-07-16T12:21:03Z</time>
      </trkpt>
      <trkpt lat="45.99753" lon="3.56642">
        <ele>577.35</ele>
        <time>2016-07-16T12:21:11Z</time>
      </trkpt>
      <trkpt lat="45.9977" lon="3.56628">
        <ele>576.55</ele>
        <time>2016-07-16T12:21:16Z</time>
      </trkpt>
      <trkpt lat="45.99786" lon="3.56616">
        <ele>573.6</ele>
        <time>2016-07-16T12:21:20Z</time>
      </trkpt>
      <trkpt lat="45.99805" lon="3.56601">
        <ele>572.56</ele>
        <time>2016-07-16T12:21:25Z</time>
      </trkpt>
      <trkpt lat="45.9982" lon="3.56586">
        <ele>572.55</ele>
        <time>2016-07-16T12:21:30Z</time>
      </trkpt>
      <trkpt lat="45.99833" lon="3.56565">
        <ele>574.51</ele>
        <time>2016-07-16T12:21:38Z</time>
      </trkpt>
      <trkpt lat="45.99849" lon="3.56549">
        <ele>577.51</ele>
        <time>2016-07-16T12:21:49Z</time>
      </trkpt>
      <trkpt lat="45.99865" lon="3.56537">
        <ele>575.56</ele>
        <time>2016-07-16T12:21:56Z</time>
      </trkpt>
      <trkpt lat="45.99883" lon="3.56522">
        <ele>571.76</ele>
        <time>2016-07-16T12:22:01Z</time>
      </trkpt>
      <trkpt lat="45.999" lon="3.56512">
        <ele>570.75</ele>
        <time>2016-07-16T12:22:05Z</time>
      </trkpt>
      <trkpt lat="45.99918" lon="3.56503">
        <ele>570.55</ele>
        <time>2016-07-16T12:22:10Z</time>
      </trkpt>
      <trkpt lat="45.99938" lon="3.56494">
        <ele>569.59</ele>
        <time>2016-07-16T12:22:16Z</time>
      </trkpt>
      <trkpt lat="45.99953" lon="3.56473">
        <ele>569.55</ele>
        <time>2016-07-16T12:22:21Z</time>
      </trkpt>
      <trkpt lat="45.99964" lon="3.5645">
        <ele>568.4</ele>
        <time>2016-07-16T12:22:26Z</time>
      </trkpt>
      <trkpt lat="45.99951" lon="3.56425">
        <ele>564.84</ele>
        <time>2016-07-16T12:22:30Z</time>
      </trkpt>
      <trkpt lat="45.99936" lon="3.56397">
        <ele>562.76</ele>
        <time>2016-07-16T12:22:33Z</time>
      </trkpt>
      <trkpt lat="45.99926" lon="3.56362">
        <ele>561.56</ele>
        <time>2016-07-16T12:22:36Z</time>
      </trkpt>
      <trkpt lat="45.99918" lon="3.56328">
        <ele>560.59</ele>
        <time>2016-07-16T12:22:39Z</time>
      </trkpt>
      <trkpt lat="45.99908" lon="3.56305">
        <ele>560.39</ele>
        <time>2016-07-16T12:22:41Z</time>
      </trkpt>
      <trkpt lat="45.99893" lon="3.56287">
        <ele>558.79</ele>
        <time>2016-07-16T12:22:43Z</time>
      </trkpt>
      <trkpt lat="45.99877" lon="3.56269">
        <ele>558.72</ele>
        <time>2016-07-16T12:22:45Z</time>
      </trkpt>
      <trkpt lat="45.99862" lon="3.56247">
        <ele>555.84</ele>
        <time>2016-07-16T12:22:47Z</time>
      </trkpt>
      <trkpt lat="45.99846" lon="3.56222">
        <ele>552.04</ele>
        <time>2016-07-16T12:22:49Z</time>
      </trkpt>
      <trkpt lat="45.9983" lon="3.56194">
        <ele>549.01</ele>
        <time>2016-07-16T12:22:51Z</time>
      </trkpt>
      <trkpt lat="45.99815" lon="3.56164">
        <ele>544.25</ele>
        <time>2016-07-16T12:22:53Z</time>
      </trkpt>
      <trkpt lat="45.99802" lon="3.5613">
        <ele>540.86</ele>
        <time>2016-07-16T12:22:55Z</time>
      </trkpt>
      <trkpt lat="45.99789" lon="3.56094">
        <ele>536.89</ele>
        <time>2016-07-16T12:22:57Z</time>
      </trkpt>
      <trkpt lat="45.99778" lon="3.56059">
        <ele>534.81</ele>
        <time>2016-07-16T12:22:59Z</time>
      </trkpt>
      <trkpt lat="45.99766" lon="3.56028">
        <ele>533.76</ele>
        <time>2016-07-16T12:23:01Z</time>
      </trkpt>
      <trkpt lat="45.99759" lon="3.55999">
        <ele>533.56</ele>
        <time>2016-07-16T12:23:03Z</time>
      </trkpt>
      <trkpt lat="45.99754" lon="3.55972">
        <ele>533.71</ele>
        <time>2016-07-16T12:23:05Z</time>
      </trkpt>
      <trkpt lat="45.99751" lon="3.55946">
        <ele>532.76</ele>
        <time>2016-07-16T12:23:07Z</time>
      </trkpt>
      <trkpt lat="45.99742" lon="3.55912">
        <ele>530.95</ele>
        <time>2016-07-16T12:23:10Z</time>
      </trkpt>
      <trkpt lat="45.99731" lon="3.55881">
        <ele>529.56</ele>
        <time>2016-07-16T12:23:13Z</time>
      </trkpt>
      <trkpt lat="45.9972" lon="3.55857">
        <ele>530.35</ele>
        <time>2016-07-16T12:23:16Z</time>
      </trkpt>
      <trkpt lat="45.99702" lon="3.55834">
        <ele>532.15</ele>
        <time>2016-07-16T12:23:20Z</time>
      </trkpt>
      <trkpt lat="45.99689" lon="3.55813">
        <ele>533.55</ele>
        <time>2016-07-16T12:23:25Z</time>
      </trkpt>
      <trkpt lat="45.99679" lon="3.55791">
        <ele>536.55</ele>
        <time>2016-07-16T12:23:31Z</time>
      </trkpt>
      <trkpt lat="45.99675" lon="3.55766">
        <ele>537.54</ele>
        <time>2016-07-16T12:23:36Z</time>
      </trkpt>
      <trkpt lat="45.99669" lon="3.55739">
        <ele>537.59</ele>
        <time>2016-07-16T12:23:41Z</time>
      </trkpt>
      <trkpt lat="45.99661" lon="3.55714">
        <ele>543.26</ele>
        <time>2016-07-16T12:23:46Z</time>
      </trkpt>
      <trkpt lat="45.9965" lon="3.5569">
        <ele>548.71</ele>
        <time>2016-07-16T12:23:53Z</time>
      </trkpt>
      <trkpt lat="45.9964" lon="3.55666">
        <ele>551.23</ele>
        <time>2016-07-16T12:24:00Z</time>
      </trkpt>
      <trkpt lat="45.99626" lon="3.55643">
        <ele>556.54</ele>
        <time>2016-07-16T12:24:07Z</time>
      </trkpt>
      <trkpt lat="45.99607" lon="3.5563">
        <ele>557.92</ele>
        <time>2016-07-16T12:24:13Z</time>
      </trkpt>
      <trkpt lat="45.99588" lon="3.55638">
        <ele>549.85</ele>
        <time>2016-07-16T12:24:18Z</time>
      </trkpt>
      <trkpt lat="45.9957" lon="3.55643">
        <ele>547.6</ele>
        <time>2016-07-16T12:24:21Z</time>
      </trkpt>
      <trkpt lat="45.99548" lon="3.55636">
        <ele>544</ele>
        <time>2016-07-16T12:24:24Z</time>
      </trkpt>
      <trkpt lat="45.99525" lon="3.55622">
        <ele>540.8</ele>
        <time>2016-07-16T12:24:27Z</time>
      </trkpt>
      <trkpt lat="45.99503" lon="3.55606">
        <ele>537.2</ele>
        <time>2016-07-16T12:24:30Z</time>
      </trkpt>
      <trkpt lat="45.99481" lon="3.55588">
        <ele>531.05</ele>
        <time>2016-07-16T12:24:33Z</time>
      </trkpt>
      <trkpt lat="45.99465" lon="3.55574">
        <ele>526.89</ele>
        <time>2016-07-16T12:24:35Z</time>
      </trkpt>
      <trkpt lat="45.99448" lon="3.55561">
        <ele>523.85</ele>
        <time>2016-07-16T12:24:37Z</time>
      </trkpt>
      <trkpt lat="45.99432" lon="3.55546">
        <ele>520.84</ele>
        <time>2016-07-16T12:24:39Z</time>
      </trkpt>
      <trkpt lat="45.99414" lon="3.55531">
        <ele>518.8</ele>
        <time>2016-07-16T12:24:41Z</time>
      </trkpt>
      <trkpt lat="45.99396" lon="3.55516">
        <ele>516.8</ele>
        <time>2016-07-16T12:24:43Z</time>
      </trkpt>
      <trkpt lat="45.99378" lon="3.55501">
        <ele>514.8</ele>
        <time>2016-07-16T12:24:45Z</time>
      </trkpt>
      <trkpt lat="45.99362" lon="3.55483">
        <ele>513.76</ele>
        <time>2016-07-16T12:24:47Z</time>
      </trkpt>
      <trkpt lat="45.99346" lon="3.55464">
        <ele>511.96</ele>
        <time>2016-07-16T12:24:49Z</time>
      </trkpt>
      <trkpt lat="45.9933" lon="3.55448">
        <ele>510.61</ele>
        <time>2016-07-16T12:24:51Z</time>
      </trkpt>
      <trkpt lat="45.99313" lon="3.55437">
        <ele>512.32</ele>
        <time>2016-07-16T12:24:53Z</time>
      </trkpt>
      <trkpt lat="45.99291" lon="3.55425">
        <ele>511.75</ele>
        <time>2016-07-16T12:24:56Z</time>
      </trkpt>
      <trkpt lat="45.99273" lon="3.5541">
        <ele>513.54</ele>
        <time>2016-07-16T12:24:59Z</time>
      </trkpt>
      <trkpt lat="45.99254" lon="3.55397">
        <ele>512.37</ele>
        <time>2016-07-16T12:25:02Z</time>
      </trkpt>
      <trkpt lat="45.99236" lon="3.55393">
        <ele>528.01</ele>
        <time>2016-07-16T12:25:05Z</time>
      </trkpt>
      <trkpt lat="45.99212" lon="3.55387">
        <ele>519.43</ele>
        <time>2016-07-16T12:25:09Z</time>
      </trkpt>
      <trkpt lat="45.99193" lon="3.55384">
        <ele>518.56</ele>
        <time>2016-07-16T12:25:12Z</time>
      </trkpt>
      <trkpt lat="45.99171" lon="3.55375">
        <ele>519.51</ele>
        <time>2016-07-16T12:25:16Z</time>
      </trkpt>
      <trkpt lat="45.9915" lon="3.5537">
        <ele>520.7</ele>
        <time>2016-07-16T12:25:20Z</time>
      </trkpt>
      <trkpt lat="45.9913" lon="3.55367">
        <ele>521.55</ele>
        <time>2016-07-16T12:25:24Z</time>
      </trkpt>
      <trkpt lat="45.99111" lon="3.55367">
        <ele>525.39</ele>
        <time>2016-07-16T12:25:28Z</time>
      </trkpt>
      <trkpt lat="45.9909" lon="3.55367">
        <ele>526.52</ele>
        <time>2016-07-16T12:25:32Z</time>
      </trkpt>
      <trkpt lat="45.99072" lon="3.55366">
        <ele>527.35</ele>
        <time>2016-07-16T12:25:36Z</time>
      </trkpt>
      <trkpt lat="45.99053" lon="3.55372">
        <ele>523.95</ele>
        <time>2016-07-16T12:25:41Z</time>
      </trkpt>
      <trkpt lat="45.99033" lon="3.55377">
        <ele>524.71</ele>
        <time>2016-07-16T12:25:47Z</time>
      </trkpt>
      <trkpt lat="45.99015" lon="3.55382">
        <ele>524.35</ele>
        <time>2016-07-16T12:25:55Z</time>
      </trkpt>
      <trkpt lat="45.98996" lon="3.55381">
        <ele>525.78</ele>
        <time>2016-07-16T12:26:03Z</time>
      </trkpt>
      <trkpt lat="45.98977" lon="3.55386">
        <ele>525.35</ele>
        <time>2016-07-16T12:26:12Z</time>
      </trkpt>
      <trkpt lat="45.98957" lon="3.55382">
        <ele>524.55</ele>
        <time>2016-07-16T12:26:21Z</time>
      </trkpt>
      <trkpt lat="45.98935" lon="3.55377">
        <ele>523.55</ele>
        <time>2016-07-16T12:26:27Z</time>
      </trkpt>
      <trkpt lat="45.98919" lon="3.55357">
        <ele>519.8</ele>
        <time>2016-07-16T12:26:32Z</time>
      </trkpt>
      <trkpt lat="45.98904" lon="3.55337">
        <ele>517.6</ele>
        <time>2016-07-16T12:26:36Z</time>
      </trkpt>
      <trkpt lat="45.9889" lon="3.55317">
        <ele>516.59</ele>
        <time>2016-07-16T12:26:40Z</time>
      </trkpt>
      <trkpt lat="45.98874" lon="3.55297">
        <ele>515.55</ele>
        <time>2016-07-16T12:26:45Z</time>
      </trkpt>
      <trkpt lat="45.98889" lon="3.55273">
        <ele>518.97</ele>
        <time>2016-07-16T12:26:51Z</time>
      </trkpt>
      <trkpt lat="45.98902" lon="3.55253">
        <ele>518.55</ele>
        <time>2016-07-16T12:26:55Z</time>
      </trkpt>
      <trkpt lat="45.98916" lon="3.55233">
        <ele>518.4</ele>
        <time>2016-07-16T12:26:59Z</time>
      </trkpt>
      <trkpt lat="45.98932" lon="3.55209">
        <ele>515.92</ele>
        <time>2016-07-16T12:27:03Z</time>
      </trkpt>
      <trkpt lat="45.98947" lon="3.55187">
        <ele>510.84</ele>
        <time>2016-07-16T12:27:07Z</time>
      </trkpt>
      <trkpt lat="45.9896" lon="3.55164">
        <ele>509.56</ele>
        <time>2016-07-16T12:27:11Z</time>
      </trkpt>
      <trkpt lat="45.98972" lon="3.55143">
        <ele>507.75</ele>
        <time>2016-07-16T12:27:15Z</time>
      </trkpt>
      <trkpt lat="45.98986" lon="3.55123">
        <ele>506.59</ele>
        <time>2016-07-16T12:27:20Z</time>
      </trkpt>
      <trkpt lat="45.99" lon="3.55105">
        <ele>507.77</ele>
        <time>2016-07-16T12:27:42Z</time>
      </trkpt>
      <trkpt lat="45.99012" lon="3.55085">
        <ele>507.55</ele>
        <time>2016-07-16T12:27:52Z</time>
      </trkpt>
      <trkpt lat="45.99024" lon="3.55063">
        <ele>507.55</ele>
        <time>2016-07-16T12:28:01Z</time>
      </trkpt>
      <trkpt lat="45.9904" lon="3.55044">
        <ele>508.55</ele>
        <time>2016-07-16T12:28:10Z</time>
      </trkpt>
      <trkpt lat="45.99047" lon="3.5502">
        <ele>511.15</ele>
        <time>2016-07-16T12:28:19Z</time>
      </trkpt>
      <trkpt lat="45.9905" lon="3.54994">
        <ele>514.34</ele>
        <time>2016-07-16T12:28:26Z</time>
      </trkpt>
      <trkpt lat="45.99048" lon="3.54966">
        <ele>515.54</ele>
        <time>2016-07-16T12:28:31Z</time>
      </trkpt>
      <trkpt lat="45.99047" lon="3.54939">
        <ele>517.54</ele>
        <time>2016-07-16T12:28:38Z</time>
      </trkpt>
      <trkpt lat="45.9904" lon="3.54913">
        <ele>518.34</ele>
        <time>2016-07-16T12:28:46Z</time>
      </trkpt>
      <trkpt lat="45.99034" lon="3.54888">
        <ele>520.54</ele>
        <time>2016-07-16T12:28:51Z</time>
      </trkpt>
      <trkpt lat="45.99033" lon="3.54853">
        <ele>514.97</ele>
        <time>2016-07-16T12:28:55Z</time>
      </trkpt>
      <trkpt lat="45.99034" lon="3.54824">
        <ele>511.77</ele>
        <time>2016-07-16T12:28:58Z</time>
      </trkpt>
      <trkpt lat="45.99042" lon="3.54791">
        <ele>506.72</ele>
        <time>2016-07-16T12:29:02Z</time>
      </trkpt>
      <trkpt lat="45.99047" lon="3.5476">
        <ele>502.8</ele>
        <time>2016-07-16T12:29:06Z</time>
      </trkpt>
      <trkpt lat="45.99049" lon="3.54731">
        <ele>499.61</ele>
        <time>2016-07-16T12:29:09Z</time>
      </trkpt>
      <trkpt lat="45.99045" lon="3.547">
        <ele>497.76</ele>
        <time>2016-07-16T12:29:12Z</time>
      </trkpt>
      <trkpt lat="45.99059" lon="3.54671">
        <ele>493.77</ele>
        <time>2016-07-16T12:29:16Z</time>
      </trkpt>
      <trkpt lat="45.99076" lon="3.54663">
        <ele>492.56</ele>
        <time>2016-07-16T12:29:19Z</time>
      </trkpt>
      <trkpt lat="45.99097" lon="3.5466">
        <ele>491.79</ele>
        <time>2016-07-16T12:29:23Z</time>
      </trkpt>
      <trkpt lat="45.99085" lon="3.54628">
        <ele>487.57</ele>
        <time>2016-07-16T12:29:27Z</time>
      </trkpt>
      <trkpt lat="45.99075" lon="3.54602">
        <ele>485.6</ele>
        <time>2016-07-16T12:29:31Z</time>
      </trkpt>
      <trkpt lat="45.99066" lon="3.54579">
        <ele>481.01</ele>
        <time>2016-07-16T12:29:35Z</time>
      </trkpt>
      <trkpt lat="45.99081" lon="3.54551">
        <ele>475.76</ele>
        <time>2016-07-16T12:29:40Z</time>
      </trkpt>
      <trkpt lat="45.991" lon="3.54548">
        <ele>473</ele>
        <time>2016-07-16T12:29:42Z</time>
      </trkpt>
      <trkpt lat="45.9912" lon="3.54553">
        <ele>467.85</ele>
        <time>2016-07-16T12:29:45Z</time>
      </trkpt>
      <trkpt lat="45.9914" lon="3.54562">
        <ele>462.6</ele>
        <time>2016-07-16T12:29:50Z</time>
      </trkpt>
      <trkpt lat="45.9916" lon="3.5455">
        <ele>458</ele>
        <time>2016-07-16T12:29:54Z</time>
      </trkpt>
      <trkpt lat="45.99173" lon="3.54532">
        <ele>459.88</ele>
        <time>2016-07-16T12:29:58Z</time>
      </trkpt>
      <trkpt lat="45.99167" lon="3.54503">
        <ele>452.62</ele>
        <time>2016-07-16T12:30:02Z</time>
      </trkpt>
      <trkpt lat="45.99152" lon="3.54483">
        <ele>448.01</ele>
        <time>2016-07-16T12:30:05Z</time>
      </trkpt>
      <trkpt lat="45.9914" lon="3.54462">
        <ele>436.85</ele>
        <time>2016-07-16T12:30:11Z</time>
      </trkpt>
      <trkpt lat="45.99128" lon="3.54438">
        <ele>434.95</ele>
        <time>2016-07-16T12:30:16Z</time>
      </trkpt>
      <trkpt lat="45.99116" lon="3.54413">
        <ele>434.45</ele>
        <time>2016-07-16T12:30:20Z</time>
      </trkpt>
      <trkpt lat="45.99104" lon="3.54387">
        <ele>423.86</ele>
        <time>2016-07-16T12:30:25Z</time>
      </trkpt>
      <trkpt lat="45.99091" lon="3.54368">
        <ele>417.61</ele>
        <time>2016-07-16T12:30:30Z</time>
      </trkpt>
      <trkpt lat="45.99075" lon="3.54352">
        <ele>414.79</ele>
        <time>2016-07-16T12:30:34Z</time>
      </trkpt>
      <trkpt lat="45.99073" lon="3.54322">
        <ele>410.8</ele>
        <time>2016-07-16T12:30:38Z</time>
      </trkpt>
      <trkpt lat="45.99056" lon="3.54296">
        <ele>407.76</ele>
        <time>2016-07-16T12:30:42Z</time>
      </trkpt>
      <trkpt lat="45.99039" lon="3.54273">
        <ele>405.6</ele>
        <time>2016-07-16T12:30:45Z</time>
      </trkpt>
      <trkpt lat="45.99028" lon="3.54251">
        <ele>401.2</ele>
        <time>2016-07-16T12:30:48Z</time>
      </trkpt>
      <trkpt lat="45.9902" lon="3.54222">
        <ele>396</ele>
        <time>2016-07-16T12:30:53Z</time>
      </trkpt>
      <trkpt lat="45.99011" lon="3.54197">
        <ele>391.8</ele>
        <time>2016-07-16T12:30:58Z</time>
      </trkpt>
      <trkpt lat="45.99005" lon="3.54169">
        <ele>385.84</ele>
        <time>2016-07-16T12:31:03Z</time>
      </trkpt>
      <trkpt lat="45.98998" lon="3.54141">
        <ele>382</ele>
        <time>2016-07-16T12:31:07Z</time>
      </trkpt>
      <trkpt lat="45.98993" lon="3.54111">
        <ele>380.75</ele>
        <time>2016-07-16T12:31:11Z</time>
      </trkpt>
      <trkpt lat="45.98994" lon="3.54081">
        <ele>376.84</ele>
        <time>2016-07-16T12:31:14Z</time>
      </trkpt>
      <trkpt lat="45.98991" lon="3.54047">
        <ele>372.84</ele>
        <time>2016-07-16T12:31:17Z</time>
      </trkpt>
      <trkpt lat="45.98988" lon="3.54014">
        <ele>368.84</ele>
        <time>2016-07-16T12:31:20Z</time>
      </trkpt>
      <trkpt lat="45.98982" lon="3.53988">
        <ele>366.76</ele>
        <time>2016-07-16T12:31:23Z</time>
      </trkpt>
      <trkpt lat="45.98971" lon="3.53964">
        <ele>364.75</ele>
        <time>2016-07-16T12:31:27Z</time>
      </trkpt>
      <trkpt lat="45.98981" lon="3.53935">
        <ele>364.51</ele>
        <time>2016-07-16T12:31:33Z</time>
      </trkpt>
      <trkpt lat="45.98989" lon="3.53911">
        <ele>362.75</ele>
        <time>2016-07-16T12:31:37Z</time>
      </trkpt>
      <trkpt lat="45.98996" lon="3.53887">
        <ele>361.75</ele>
        <time>2016-07-16T12:31:41Z</time>
      </trkpt>
      <trkpt lat="45.98997" lon="3.5386">
        <ele>360.75</ele>
        <time>2016-07-16T12:31:45Z</time>
      </trkpt>
      <trkpt lat="45.98999" lon="3.53829">
        <ele>360.55</ele>
        <time>2016-07-16T12:31:50Z</time>
      </trkpt>
      <trkpt lat="45.98997" lon="3.53799">
        <ele>360.58</ele>
        <time>2016-07-16T12:31:55Z</time>
      </trkpt>
      <trkpt lat="45.98992" lon="3.53772">
        <ele>360.55</ele>
        <time>2016-07-16T12:31:59Z</time>
      </trkpt>
      <trkpt lat="45.9898" lon="3.53749">
        <ele>358.76</ele>
        <time>2016-07-16T12:32:03Z</time>
      </trkpt>
      <trkpt lat="45.9896" lon="3.53732">
        <ele>357.75</ele>
        <time>2016-07-16T12:32:07Z</time>
      </trkpt>
      <trkpt lat="45.98941" lon="3.5372">
        <ele>357.39</ele>
        <time>2016-07-16T12:32:10Z</time>
      </trkpt>
      <trkpt lat="45.9892" lon="3.53709">
        <ele>356.56</ele>
        <time>2016-07-16T12:32:13Z</time>
      </trkpt>
      <trkpt lat="45.98902" lon="3.53693">
        <ele>355.75</ele>
        <time>2016-07-16T12:32:16Z</time>
      </trkpt>
      <trkpt lat="45.98892" lon="3.53665">
        <ele>352.61</ele>
        <time>2016-07-16T12:32:19Z</time>
      </trkpt>
      <trkpt lat="45.98887" lon="3.53635">
        <ele>351.56</ele>
        <time>2016-07-16T12:32:22Z</time>
      </trkpt>
      <trkpt lat="45.98883" lon="3.53606">
        <ele>350.75</ele>
        <time>2016-07-16T12:32:25Z</time>
      </trkpt>
      <trkpt lat="45.9888" lon="3.53579">
        <ele>351.39</ele>
        <time>2016-07-16T12:32:28Z</time>
      </trkpt>
      <trkpt lat="45.98873" lon="3.53554">
        <ele>351.52</ele>
        <time>2016-07-16T12:32:31Z</time>
      </trkpt>
      <trkpt lat="45.98864" lon="3.5353">
        <ele>363.9</ele>
        <time>2016-07-16T12:32:34Z</time>
      </trkpt>
      <trkpt lat="45.98857" lon="3.53504">
        <ele>356.9</ele>
        <time>2016-07-16T12:32:37Z</time>
      </trkpt>
      <trkpt lat="45.98866" lon="3.53481">
        <ele>356.28</ele>
        <time>2016-07-16T12:32:46Z</time>
      </trkpt>
      <trkpt lat="45.98884" lon="3.53471">
        <ele>366.46</ele>
        <time>2016-07-16T12:32:58Z</time>
      </trkpt>
      <trkpt lat="45.989" lon="3.53457">
        <ele>368.5</ele>
        <time>2016-07-16T12:33:08Z</time>
      </trkpt>
      <trkpt lat="45.98917" lon="3.53444">
        <ele>369.75</ele>
        <time>2016-07-16T12:33:20Z</time>
      </trkpt>
      <trkpt lat="45.98934" lon="3.53436">
        <ele>373.34</ele>
        <time>2016-07-16T12:33:33Z</time>
      </trkpt>
      <trkpt lat="45.98952" lon="3.53423">
        <ele>372.75</ele>
        <time>2016-07-16T12:33:45Z</time>
      </trkpt>
      <trkpt lat="45.98969" lon="3.5341">
        <ele>374.55</ele>
        <time>2016-07-16T12:33:54Z</time>
      </trkpt>
      <trkpt lat="45.98985" lon="3.53398">
        <ele>372.59</ele>
        <time>2016-07-16T12:34:04Z</time>
      </trkpt>
      <trkpt lat="45.99" lon="3.53383">
        <ele>372.58</ele>
        <time>2016-07-16T12:34:14Z</time>
      </trkpt>
      <trkpt lat="45.99016" lon="3.5337">
        <ele>370.71</ele>
        <time>2016-07-16T12:34:24Z</time>
      </trkpt>
      <trkpt lat="45.99034" lon="3.53359">
        <ele>372.52</ele>
        <time>2016-07-16T12:34:38Z</time>
      </trkpt>
      <trkpt lat="45.99051" lon="3.53346">
        <ele>376.35</ele>
        <time>2016-07-16T12:34:53Z</time>
      </trkpt>
      <trkpt lat="45.99068" lon="3.53335">
        <ele>378.51</ele>
        <time>2016-07-16T12:35:04Z</time>
      </trkpt>
      <trkpt lat="45.99084" lon="3.53323">
        <ele>378.59</ele>
        <time>2016-07-16T12:35:17Z</time>
      </trkpt>
      <trkpt lat="45.99103" lon="3.53316">
        <ele>380.35</ele>
        <time>2016-07-16T12:35:30Z</time>
      </trkpt>
      <trkpt lat="45.99121" lon="3.53313">
        <ele>381.38</ele>
        <time>2016-07-16T12:35:42Z</time>
      </trkpt>
      <trkpt lat="45.9914" lon="3.53307">
        <ele>379.59</ele>
        <time>2016-07-16T12:35:51Z</time>
      </trkpt>
      <trkpt lat="45.99159" lon="3.53304">
        <ele>378.55</ele>
        <time>2016-07-16T12:36:01Z</time>
      </trkpt>
      <trkpt lat="45.99178" lon="3.53308">
        <ele>381.74</ele>
        <time>2016-07-16T12:36:12Z</time>
      </trkpt>
      <trkpt lat="45.99197" lon="3.53308">
        <ele>387.32</ele>
        <time>2016-07-16T12:36:23Z</time>
      </trkpt>
      <trkpt lat="45.99217" lon="3.53314">
        <ele>387.78</ele>
        <time>2016-07-16T12:36:34Z</time>
      </trkpt>
      <trkpt lat="45.99233" lon="3.53327">
        <ele>385.71</ele>
        <time>2016-07-16T12:36:45Z</time>
      </trkpt>
      <trkpt lat="45.9925" lon="3.53335">
        <ele>383.36</ele>
        <time>2016-07-16T12:36:55Z</time>
      </trkpt>
      <trkpt lat="45.99269" lon="3.5334">
        <ele>386.56</ele>
        <time>2016-07-16T12:37:07Z</time>
      </trkpt>
      <trkpt lat="45.99285" lon="3.53352">
        <ele>389.35</ele>
        <time>2016-07-16T12:37:19Z</time>
      </trkpt>
      <trkpt lat="45.99302" lon="3.53365">
        <ele>392.35</ele>
        <time>2016-07-16T12:37:29Z</time>
      </trkpt>
      <trkpt lat="45.99318" lon="3.53378">
        <ele>397.67</ele>
        <time>2016-07-16T12:37:42Z</time>
      </trkpt>
      <trkpt lat="45.99337" lon="3.53385">
        <ele>399.51</ele>
        <time>2016-07-16T12:37:53Z</time>
      </trkpt>
      <trkpt lat="45.99353" lon="3.53397">
        <ele>406.54</ele>
        <time>2016-07-16T12:38:07Z</time>
      </trkpt>
      <trkpt lat="45.99365" lon="3.53418">
        <ele>407.59</ele>
        <time>2016-07-16T12:38:18Z</time>
      </trkpt>
      <trkpt lat="45.99376" lon="3.53442">
        <ele>410.59</ele>
        <time>2016-07-16T12:38:30Z</time>
      </trkpt>
      <trkpt lat="45.99387" lon="3.53465">
        <ele>410.51</ele>
        <time>2016-07-16T12:38:41Z</time>
      </trkpt>
      <trkpt lat="45.99398" lon="3.53487">
        <ele>413.55</ele>
        <time>2016-07-16T12:38:54Z</time>
      </trkpt>
      <trkpt lat="45.9941" lon="3.53508">
        <ele>418.35</ele>
        <time>2016-07-16T12:39:06Z</time>
      </trkpt>
      <trkpt lat="45.9942" lon="3.53531">
        <ele>420.55</ele>
        <time>2016-07-16T12:39:18Z</time>
      </trkpt>
      <trkpt lat="45.99429" lon="3.53554">
        <ele>427.55</ele>
        <time>2016-07-16T12:39:29Z</time>
      </trkpt>
      <trkpt lat="45.99445" lon="3.53567">
        <ele>426.35</ele>
        <time>2016-07-16T12:39:40Z</time>
      </trkpt>
      <trkpt lat="45.99461" lon="3.53579">
        <ele>425.35</ele>
        <time>2016-07-16T12:39:50Z</time>
      </trkpt>
      <trkpt lat="45.99477" lon="3.53591">
        <ele>428.5</ele>
        <time>2016-07-16T12:40:01Z</time>
      </trkpt>
      <trkpt lat="45.99492" lon="3.53607">
        <ele>425.56</ele>
        <time>2016-07-16T12:40:10Z</time>
      </trkpt>
      <trkpt lat="45.99505" lon="3.53627">
        <ele>424.55</ele>
        <time>2016-07-16T12:40:22Z</time>
      </trkpt>
      <trkpt lat="45.99522" lon="3.53639">
        <ele>427.83</ele>
        <time>2016-07-16T12:40:33Z</time>
      </trkpt>
      <trkpt lat="45.99537" lon="3.53653">
        <ele>431.54</ele>
        <time>2016-07-16T12:40:44Z</time>
      </trkpt>
      <trkpt lat="45.99553" lon="3.53666">
        <ele>427.59</ele>
        <time>2016-07-16T12:40:53Z</time>
      </trkpt>
      <trkpt lat="45.9957" lon="3.53678">
        <ele>427.32</ele>
        <time>2016-07-16T12:41:04Z</time>
      </trkpt>
      <trkpt lat="45.99586" lon="3.53691">
        <ele>432.34</ele>
        <time>2016-07-16T12:41:17Z</time>
      </trkpt>
      <trkpt lat="45.99604" lon="3.53705">
        <ele>436.35</ele>
        <time>2016-07-16T12:41:29Z</time>
      </trkpt>
      <trkpt lat="45.9962" lon="3.53718">
        <ele>444.9</ele>
        <time>2016-07-16T12:41:42Z</time>
      </trkpt>
      <trkpt lat="45.99637" lon="3.53729">
        <ele>443.31</ele>
        <time>2016-07-16T12:41:54Z</time>
      </trkpt>
      <trkpt lat="45.99655" lon="3.5374">
        <ele>446.35</ele>
        <time>2016-07-16T12:42:07Z</time>
      </trkpt>
      <trkpt lat="45.99672" lon="3.53747">
        <ele>443.75</ele>
        <time>2016-07-16T12:42:19Z</time>
      </trkpt>
      <trkpt lat="45.99692" lon="3.53748">
        <ele>443.58</ele>
        <time>2016-07-16T12:42:31Z</time>
      </trkpt>
      <trkpt lat="45.99711" lon="3.53749">
        <ele>444.51</ele>
        <time>2016-07-16T12:42:42Z</time>
      </trkpt>
      <trkpt lat="45.9973" lon="3.53748">
        <ele>443.51</ele>
        <time>2016-07-16T12:42:52Z</time>
      </trkpt>
      <trkpt lat="45.99749" lon="3.53752">
        <ele>449.32</ele>
        <time>2016-07-16T12:43:05Z</time>
      </trkpt>
      <trkpt lat="45.99768" lon="3.53754">
        <ele>452.59</ele>
        <time>2016-07-16T12:43:18Z</time>
      </trkpt>
      <trkpt lat="45.99787" lon="3.53756">
        <ele>450.59</ele>
        <time>2016-07-16T12:43:29Z</time>
      </trkpt>
      <trkpt lat="45.99805" lon="3.53749">
        <ele>449.51</ele>
        <time>2016-07-16T12:43:42Z</time>
      </trkpt>
      <trkpt lat="45.99822" lon="3.53737">
        <ele>451.5</ele>
        <time>2016-07-16T12:43:52Z</time>
      </trkpt>
      <trkpt lat="45.9984" lon="3.53733">
        <ele>455.5</ele>
        <time>2016-07-16T12:44:03Z</time>
      </trkpt>
      <trkpt lat="45.99859" lon="3.5373">
        <ele>458.5</ele>
        <time>2016-07-16T12:44:13Z</time>
      </trkpt>
      <trkpt lat="45.99877" lon="3.53718">
        <ele>459.36</ele>
        <time>2016-07-16T12:44:22Z</time>
      </trkpt>
      <trkpt lat="45.99893" lon="3.53706">
        <ele>458.6</ele>
        <time>2016-07-16T12:44:30Z</time>
      </trkpt>
      <trkpt lat="45.9991" lon="3.53696">
        <ele>456.71</ele>
        <time>2016-07-16T12:44:38Z</time>
      </trkpt>
      <trkpt lat="45.99929" lon="3.53685">
        <ele>457.55</ele>
        <time>2016-07-16T12:44:48Z</time>
      </trkpt>
      <trkpt lat="45.99947" lon="3.53672">
        <ele>457.75</ele>
        <time>2016-07-16T12:44:56Z</time>
      </trkpt>
      <trkpt lat="45.99965" lon="3.53664">
        <ele>459.35</ele>
        <time>2016-07-16T12:45:04Z</time>
      </trkpt>
      <trkpt lat="45.99983" lon="3.53659">
        <ele>459.4</ele>
        <time>2016-07-16T12:45:11Z</time>
      </trkpt>
      <trkpt lat="46.00001" lon="3.53648">
        <ele>464.31</ele>
        <time>2016-07-16T12:45:21Z</time>
      </trkpt>
      <trkpt lat="46.00018" lon="3.5364">
        <ele>469.5</ele>
        <time>2016-07-16T12:45:29Z</time>
      </trkpt>
      <trkpt lat="46.00036" lon="3.5363">
        <ele>469.56</ele>
        <time>2016-07-16T12:45:37Z</time>
      </trkpt>
      <trkpt lat="46.00054" lon="3.5362">
        <ele>468.56</ele>
        <time>2016-07-16T12:45:46Z</time>
      </trkpt>
      <trkpt lat="46.00072" lon="3.53615">
        <ele>472.59</ele>
        <time>2016-07-16T12:45:56Z</time>
      </trkpt>
      <trkpt lat="46.00092" lon="3.53617">
        <ele>474.55</ele>
        <time>2016-07-16T12:46:06Z</time>
      </trkpt>
      <trkpt lat="46.00111" lon="3.53617">
        <ele>472.6</ele>
        <time>2016-07-16T12:46:16Z</time>
      </trkpt>
      <trkpt lat="46.00129" lon="3.53612">
        <ele>473.55</ele>
        <time>2016-07-16T12:46:26Z</time>
      </trkpt>
      <trkpt lat="46.00147" lon="3.53605">
        <ele>477.3</ele>
        <time>2016-07-16T12:46:50Z</time>
      </trkpt>
      <trkpt lat="46.00165" lon="3.53601">
        <ele>469.35</ele>
        <time>2016-07-16T12:47:20Z</time>
      </trkpt>
      <trkpt lat="46.00183" lon="3.53591">
        <ele>469.51</ele>
        <time>2016-07-16T12:47:32Z</time>
      </trkpt>
      <trkpt lat="46.00198" lon="3.53575">
        <ele>467.72</ele>
        <time>2016-07-16T12:47:41Z</time>
      </trkpt>
      <trkpt lat="46.00215" lon="3.53565">
        <ele>470.51</ele>
        <time>2016-07-16T12:47:51Z</time>
      </trkpt>
      <trkpt lat="46.00232" lon="3.53554">
        <ele>476.34</ele>
        <time>2016-07-16T12:48:01Z</time>
      </trkpt>
      <trkpt lat="46.00248" lon="3.53541">
        <ele>478.39</ele>
        <time>2016-07-16T12:48:10Z</time>
      </trkpt>
      <trkpt lat="46.00266" lon="3.53529">
        <ele>475.75</ele>
        <time>2016-07-16T12:48:19Z</time>
      </trkpt>
      <trkpt lat="46.00284" lon="3.53523">
        <ele>475.55</ele>
        <time>2016-07-16T12:48:28Z</time>
      </trkpt>
      <trkpt lat="46.00303" lon="3.53516">
        <ele>475.55</ele>
        <time>2016-07-16T12:48:37Z</time>
      </trkpt>
      <trkpt lat="46.00321" lon="3.53508">
        <ele>474.55</ele>
        <time>2016-07-16T12:48:47Z</time>
      </trkpt>
      <trkpt lat="46.00339" lon="3.53508">
        <ele>476.35</ele>
        <time>2016-07-16T12:49:00Z</time>
      </trkpt>
      <trkpt lat="46.00357" lon="3.53498">
        <ele>479.35</ele>
        <time>2016-07-16T12:49:11Z</time>
      </trkpt>
      <trkpt lat="46.00376" lon="3.535">
        <ele>481.35</ele>
        <time>2016-07-16T12:49:22Z</time>
      </trkpt>
      <trkpt lat="46.00389" lon="3.53521">
        <ele>482.58</ele>
        <time>2016-07-16T12:49:33Z</time>
      </trkpt>
      <trkpt lat="46.00407" lon="3.5353">
        <ele>482.55</ele>
        <time>2016-07-16T12:49:44Z</time>
      </trkpt>
      <trkpt lat="46.00427" lon="3.53526">
        <ele>484.55</ele>
        <time>2016-07-16T12:49:55Z</time>
      </trkpt>
      <trkpt lat="46.00443" lon="3.5351">
        <ele>492.3</ele>
        <time>2016-07-16T12:50:08Z</time>
      </trkpt>
      <trkpt lat="46.00459" lon="3.53499">
        <ele>490.55</ele>
        <time>2016-07-16T12:50:17Z</time>
      </trkpt>
      <trkpt lat="46.00457" lon="3.53473">
        <ele>495.55</ele>
        <time>2016-07-16T12:50:32Z</time>
      </trkpt>
      <trkpt lat="46.00441" lon="3.53459">
        <ele>500.54</ele>
        <time>2016-07-16T12:50:49Z</time>
      </trkpt>
      <trkpt lat="46.00427" lon="3.53442">
        <ele>505.55</ele>
        <time>2016-07-16T12:51:01Z</time>
      </trkpt>
      <trkpt lat="46.0041" lon="3.53428">
        <ele>507.35</ele>
        <time>2016-07-16T12:51:13Z</time>
      </trkpt>
      <trkpt lat="46.00394" lon="3.53413">
        <ele>510.51</ele>
        <time>2016-07-16T12:51:27Z</time>
      </trkpt>
      <trkpt lat="46.00377" lon="3.53402">
        <ele>514.55</ele>
        <time>2016-07-16T12:51:39Z</time>
      </trkpt>
      <trkpt lat="46.00361" lon="3.53387">
        <ele>514.55</ele>
        <time>2016-07-16T12:51:51Z</time>
      </trkpt>
      <trkpt lat="46.00353" lon="3.53363">
        <ele>514.35</ele>
        <time>2016-07-16T12:52:02Z</time>
      </trkpt>
      <trkpt lat="46.00341" lon="3.53343">
        <ele>516.52</ele>
        <time>2016-07-16T12:52:15Z</time>
      </trkpt>
      <trkpt lat="46.00326" lon="3.53326">
        <ele>517.75</ele>
        <time>2016-07-16T12:52:26Z</time>
      </trkpt>
      <trkpt lat="46.00317" lon="3.53303">
        <ele>519.31</ele>
        <time>2016-07-16T12:52:37Z</time>
      </trkpt>
      <trkpt lat="46.0031" lon="3.53278">
        <ele>528.31</ele>
        <time>2016-07-16T12:52:52Z</time>
      </trkpt>
      <trkpt lat="46.00304" lon="3.53252">
        <ele>529.79</ele>
        <time>2016-07-16T12:53:07Z</time>
      </trkpt>
      <trkpt lat="46.00316" lon="3.53233">
        <ele>529.55</ele>
        <time>2016-07-16T12:53:25Z</time>
      </trkpt>
      <trkpt lat="46.00334" lon="3.53225">
        <ele>534.71</ele>
        <time>2016-07-16T12:53:40Z</time>
      </trkpt>
      <trkpt lat="46.00352" lon="3.53219">
        <ele>537.55</ele>
        <time>2016-07-16T12:53:56Z</time>
      </trkpt>
      <trkpt lat="46.00369" lon="3.53209">
        <ele>540.54</ele>
        <time>2016-07-16T12:54:11Z</time>
      </trkpt>
      <trkpt lat="46.00378" lon="3.53186">
        <ele>547.38</ele>
        <time>2016-07-16T12:54:29Z</time>
      </trkpt>
      <trkpt lat="46.00368" lon="3.53164">
        <ele>552.59</ele>
        <time>2016-07-16T12:54:48Z</time>
      </trkpt>
      <trkpt lat="46.00354" lon="3.53146">
        <ele>550.52</ele>
        <time>2016-07-16T12:54:59Z</time>
      </trkpt>
      <trkpt lat="46.00338" lon="3.53132">
        <ele>554.35</ele>
        <time>2016-07-16T12:55:12Z</time>
      </trkpt>
      <trkpt lat="46.00325" lon="3.53113">
        <ele>557.71</ele>
        <time>2016-07-16T12:55:28Z</time>
      </trkpt>
      <trkpt lat="46.00308" lon="3.53106">
        <ele>555.59</ele>
        <time>2016-07-16T12:55:36Z</time>
      </trkpt>
      <trkpt lat="46.00288" lon="3.53102">
        <ele>556.47</ele>
        <time>2016-07-16T12:55:46Z</time>
      </trkpt>
      <trkpt lat="46.00272" lon="3.53115">
        <ele>557.76</ele>
        <time>2016-07-16T12:55:55Z</time>
      </trkpt>
      <trkpt lat="46.00258" lon="3.53134">
        <ele>560.35</ele>
        <time>2016-07-16T12:56:05Z</time>
      </trkpt>
      <trkpt lat="46.00249" lon="3.53157">
        <ele>564.7</ele>
        <time>2016-07-16T12:56:15Z</time>
      </trkpt>
      <trkpt lat="46.00233" lon="3.53172">
        <ele>566.55</ele>
        <time>2016-07-16T12:56:23Z</time>
      </trkpt>
      <trkpt lat="46.0022" lon="3.5319">
        <ele>565.8</ele>
        <time>2016-07-16T12:56:34Z</time>
      </trkpt>
      <trkpt lat="46.00208" lon="3.53211">
        <ele>564.55</ele>
        <time>2016-07-16T12:56:40Z</time>
      </trkpt>
      <trkpt lat="46.00201" lon="3.53236">
        <ele>564.68</ele>
        <time>2016-07-16T12:56:43Z</time>
      </trkpt>
      <trkpt lat="46.00192" lon="3.53259">
        <ele>561.79</ele>
        <time>2016-07-16T12:56:47Z</time>
      </trkpt>
      <trkpt lat="46.00177" lon="3.53283">
        <ele>557.2</ele>
        <time>2016-07-16T12:56:51Z</time>
      </trkpt>
      <trkpt lat="46.00157" lon="3.53282">
        <ele>554.55</ele>
        <time>2016-07-16T12:57:00Z</time>
      </trkpt>
      <trkpt lat="46.00144" lon="3.53261">
        <ele>554.95</ele>
        <time>2016-07-16T12:57:07Z</time>
      </trkpt>
      <trkpt lat="46.00129" lon="3.53247">
        <ele>558.34</ele>
        <time>2016-07-16T12:57:15Z</time>
      </trkpt>
      <trkpt lat="46.00115" lon="3.53229">
        <ele>565.26</ele>
        <time>2016-07-16T12:57:30Z</time>
      </trkpt>
      <trkpt lat="46.00115" lon="3.53202">
        <ele>566.73</ele>
        <time>2016-07-16T12:57:40Z</time>
      </trkpt>
      <trkpt lat="46.00121" lon="3.53176">
        <ele>569.31</ele>
        <time>2016-07-16T12:57:49Z</time>
      </trkpt>
      <trkpt lat="46.00129" lon="3.53153">
        <ele>570.55</ele>
        <time>2016-07-16T12:57:55Z</time>
      </trkpt>
      <trkpt lat="46.00133" lon="3.53123">
        <ele>568.56</ele>
        <time>2016-07-16T12:57:59Z</time>
      </trkpt>
      <trkpt lat="46.0014" lon="3.53093">
        <ele>568.55</ele>
        <time>2016-07-16T12:58:02Z</time>
      </trkpt>
      <trkpt lat="46.00145" lon="3.53068">
        <ele>567.75</ele>
        <time>2016-07-16T12:58:04Z</time>
      </trkpt>
      <trkpt lat="46.00149" lon="3.53034">
        <ele>565.63</ele>
        <time>2016-07-16T12:58:07Z</time>
      </trkpt>
      <trkpt lat="46.00156" lon="3.53009">
        <ele>563.56</ele>
        <time>2016-07-16T12:58:11Z</time>
      </trkpt>
      <trkpt lat="46.00141" lon="3.52993">
        <ele>558.76</ele>
        <time>2016-07-16T12:58:17Z</time>
      </trkpt>
      <trkpt lat="46.00124" lon="3.52983">
        <ele>556.63</ele>
        <time>2016-07-16T12:58:21Z</time>
      </trkpt>
      <trkpt lat="46.00102" lon="3.5298">
        <ele>558.35</ele>
        <time>2016-07-16T12:58:25Z</time>
      </trkpt>
      <trkpt lat="46.00082" lon="3.52975">
        <ele>557.59</ele>
        <time>2016-07-16T12:58:28Z</time>
      </trkpt>
      <trkpt lat="46.00056" lon="3.52962">
        <ele>556.91</ele>
        <time>2016-07-16T12:58:31Z</time>
      </trkpt>
      <trkpt lat="46.00032" lon="3.5295">
        <ele>556.56</ele>
        <time>2016-07-16T12:58:34Z</time>
      </trkpt>
      <trkpt lat="46.00009" lon="3.52948">
        <ele>551.98</ele>
        <time>2016-07-16T12:58:37Z</time>
      </trkpt>
      <trkpt lat="45.9999" lon="3.52949">
        <ele>550.61</ele>
        <time>2016-07-16T12:58:39Z</time>
      </trkpt>
      <trkpt lat="45.99971" lon="3.52964">
        <ele>550.81</ele>
        <time>2016-07-16T12:58:42Z</time>
      </trkpt>
      <trkpt lat="45.99955" lon="3.5298">
        <ele>542.91</ele>
        <time>2016-07-16T12:58:45Z</time>
      </trkpt>
      <trkpt lat="45.99937" lon="3.52994">
        <ele>544.35</ele>
        <time>2016-07-16T12:58:53Z</time>
      </trkpt>
      <trkpt lat="45.99917" lon="3.52993">
        <ele>546.51</ele>
        <time>2016-07-16T12:58:58Z</time>
      </trkpt>
      <trkpt lat="45.99898" lon="3.52992">
        <ele>545.35</ele>
        <time>2016-07-16T12:59:04Z</time>
      </trkpt>
      <trkpt lat="45.99879" lon="3.52982">
        <ele>544.55</ele>
        <time>2016-07-16T12:59:09Z</time>
      </trkpt>
      <trkpt lat="45.9986" lon="3.52973">
        <ele>545.55</ele>
        <time>2016-07-16T12:59:15Z</time>
      </trkpt>
      <trkpt lat="45.99842" lon="3.52962">
        <ele>547.38</ele>
        <time>2016-07-16T12:59:20Z</time>
      </trkpt>
      <trkpt lat="45.99823" lon="3.5295">
        <ele>551.46</ele>
        <time>2016-07-16T12:59:27Z</time>
      </trkpt>
      <trkpt lat="45.99806" lon="3.52937">
        <ele>548.72</ele>
        <time>2016-07-16T12:59:33Z</time>
      </trkpt>
      <trkpt lat="45.99791" lon="3.52917">
        <ele>543.77</ele>
        <time>2016-07-16T12:59:40Z</time>
      </trkpt>
      <trkpt lat="45.99779" lon="3.52895">
        <ele>542.55</ele>
        <time>2016-07-16T12:59:48Z</time>
      </trkpt>
      <trkpt lat="45.99768" lon="3.52874">
        <ele>543.55</ele>
        <time>2016-07-16T12:59:56Z</time>
      </trkpt>
      <trkpt lat="45.99752" lon="3.52859">
        <ele>546</ele>
        <time>2016-07-16T13:00:03Z</time>
      </trkpt>
      <trkpt lat="45.99734" lon="3.52851">
        <ele>548.35</ele>
        <time>2016-07-16T13:00:12Z</time>
      </trkpt>
      <trkpt lat="45.99716" lon="3.52844">
        <ele>552.35</ele>
        <time>2016-07-16T13:00:21Z</time>
      </trkpt>
      <trkpt lat="45.99709" lon="3.52819">
        <ele>549.55</ele>
        <time>2016-07-16T13:00:35Z</time>
      </trkpt>
      <trkpt lat="45.99711" lon="3.52793">
        <ele>546.59</ele>
        <time>2016-07-16T13:00:41Z</time>
      </trkpt>
      <trkpt lat="45.99717" lon="3.52768">
        <ele>545.75</ele>
        <time>2016-07-16T13:00:44Z</time>
      </trkpt>
      <trkpt lat="45.99728" lon="3.52736">
        <ele>545.59</ele>
        <time>2016-07-16T13:00:47Z</time>
      </trkpt>
      <trkpt lat="45.99739" lon="3.52714">
        <ele>542.03</ele>
        <time>2016-07-16T13:00:49Z</time>
      </trkpt>
      <trkpt lat="45.99752" lon="3.52695">
        <ele>541.41</ele>
        <time>2016-07-16T13:00:51Z</time>
      </trkpt>
      <trkpt lat="45.99765" lon="3.52677">
        <ele>540.59</ele>
        <time>2016-07-16T13:00:53Z</time>
      </trkpt>
      <trkpt lat="45.99781" lon="3.52661">
        <ele>540.55</ele>
        <time>2016-07-16T13:00:55Z</time>
      </trkpt>
      <trkpt lat="45.99798" lon="3.52646">
        <ele>540.55</ele>
        <time>2016-07-16T13:00:57Z</time>
      </trkpt>
      <trkpt lat="45.99816" lon="3.52622">
        <ele>540.74</ele>
        <time>2016-07-16T13:01:00Z</time>
      </trkpt>
      <trkpt lat="45.99827" lon="3.526">
        <ele>537.19</ele>
        <time>2016-07-16T13:01:03Z</time>
      </trkpt>
      <trkpt lat="45.99841" lon="3.52572">
        <ele>532.85</ele>
        <time>2016-07-16T13:01:06Z</time>
      </trkpt>
      <trkpt lat="45.99854" lon="3.52544">
        <ele>531.63</ele>
        <time>2016-07-16T13:01:09Z</time>
      </trkpt>
      <trkpt lat="45.99865" lon="3.52511">
        <ele>529.57</ele>
        <time>2016-07-16T13:01:12Z</time>
      </trkpt>
      <trkpt lat="45.99873" lon="3.52484">
        <ele>526.16</ele>
        <time>2016-07-16T13:01:15Z</time>
      </trkpt>
      <trkpt lat="45.99888" lon="3.52462">
        <ele>525.75</ele>
        <time>2016-07-16T13:01:18Z</time>
      </trkpt>
      <trkpt lat="45.99907" lon="3.52443">
        <ele>521.88</ele>
        <time>2016-07-16T13:01:22Z</time>
      </trkpt>
      <trkpt lat="45.99928" lon="3.52435">
        <ele>516.65</ele>
        <time>2016-07-16T13:01:26Z</time>
      </trkpt>
      <trkpt lat="45.99946" lon="3.52444">
        <ele>517.42</ele>
        <time>2016-07-16T13:01:34Z</time>
      </trkpt>
      <trkpt lat="45.99962" lon="3.52458">
        <ele>521.34</ele>
        <time>2016-07-16T13:01:44Z</time>
      </trkpt>
      <trkpt lat="45.99984" lon="3.52469">
        <ele>521.79</ele>
        <time>2016-07-16T13:01:52Z</time>
      </trkpt>
      <trkpt lat="45.99999" lon="3.52486">
        <ele>515.86</ele>
        <time>2016-07-16T13:01:55Z</time>
      </trkpt>
      <trkpt lat="46.00019" lon="3.52482">
        <ele>513.57</ele>
        <time>2016-07-16T13:01:58Z</time>
      </trkpt>
      <trkpt lat="46.00041" lon="3.52483">
        <ele>511.76</ele>
        <time>2016-07-16T13:02:01Z</time>
      </trkpt>
      <trkpt lat="46.00067" lon="3.52483">
        <ele>509.79</ele>
        <time>2016-07-16T13:02:04Z</time>
      </trkpt>
      <trkpt lat="46.00086" lon="3.52485">
        <ele>509.4</ele>
        <time>2016-07-16T13:02:06Z</time>
      </trkpt>
      <trkpt lat="46.00107" lon="3.52495">
        <ele>507.79</ele>
        <time>2016-07-16T13:02:09Z</time>
      </trkpt>
      <trkpt lat="46.00125" lon="3.52511">
        <ele>505.83</ele>
        <time>2016-07-16T13:02:13Z</time>
      </trkpt>
      <trkpt lat="46.0014" lon="3.52526">
        <ele>504.4</ele>
        <time>2016-07-16T13:02:18Z</time>
      </trkpt>
      <trkpt lat="46.00148" lon="3.52549">
        <ele>502.75</ele>
        <time>2016-07-16T13:02:24Z</time>
      </trkpt>
      <trkpt lat="46.00153" lon="3.52577">
        <ele>499.75</ele>
        <time>2016-07-16T13:02:30Z</time>
      </trkpt>
      <trkpt lat="46.00158" lon="3.52604">
        <ele>497.59</ele>
        <time>2016-07-16T13:02:35Z</time>
      </trkpt>
      <trkpt lat="46.00167" lon="3.52628">
        <ele>498.48</ele>
        <time>2016-07-16T13:02:41Z</time>
      </trkpt>
      <trkpt lat="46.00184" lon="3.52621">
        <ele>502.5</ele>
        <time>2016-07-16T13:02:47Z</time>
      </trkpt>
      <trkpt lat="46.00198" lon="3.52601">
        <ele>502.55</ele>
        <time>2016-07-16T13:02:54Z</time>
      </trkpt>
      <trkpt lat="46.00211" lon="3.52577">
        <ele>508.35</ele>
        <time>2016-07-16T13:03:02Z</time>
      </trkpt>
      <trkpt lat="46.00214" lon="3.52549">
        <ele>508.76</ele>
        <time>2016-07-16T13:03:08Z</time>
      </trkpt>
      <trkpt lat="46.00216" lon="3.52523">
        <ele>505.71</ele>
        <time>2016-07-16T13:03:16Z</time>
      </trkpt>
      <trkpt lat="46.00206" lon="3.52501">
        <ele>509.5</ele>
        <time>2016-07-16T13:03:24Z</time>
      </trkpt>
      <trkpt lat="46.00196" lon="3.52478">
        <ele>512.55</ele>
        <time>2016-07-16T13:03:33Z</time>
      </trkpt>
      <trkpt lat="46.00178" lon="3.52464">
        <ele>513.6</ele>
        <time>2016-07-16T13:03:41Z</time>
      </trkpt>
      <trkpt lat="46.00165" lon="3.52442">
        <ele>520.51</ele>
        <time>2016-07-16T13:03:49Z</time>
      </trkpt>
      <trkpt lat="46.00149" lon="3.52422">
        <ele>518.59</ele>
        <time>2016-07-16T13:03:55Z</time>
      </trkpt>
      <trkpt lat="46.00131" lon="3.52406">
        <ele>518.71</ele>
        <time>2016-07-16T13:04:01Z</time>
      </trkpt>
      <trkpt lat="46.00113" lon="3.5239">
        <ele>519.51</ele>
        <time>2016-07-16T13:04:08Z</time>
      </trkpt>
      <trkpt lat="46.00099" lon="3.52372">
        <ele>522.31</ele>
        <time>2016-07-16T13:04:15Z</time>
      </trkpt>
      <trkpt lat="46.00088" lon="3.5235">
        <ele>520.56</ele>
        <time>2016-07-16T13:04:20Z</time>
      </trkpt>
      <trkpt lat="46.00085" lon="3.52319">
        <ele>519.75</ele>
        <time>2016-07-16T13:04:27Z</time>
      </trkpt>
      <trkpt lat="46.00087" lon="3.52291">
        <ele>519.55</ele>
        <time>2016-07-16T13:04:34Z</time>
      </trkpt>
      <trkpt lat="46.00097" lon="3.52268">
        <ele>518.59</ele>
        <time>2016-07-16T13:04:40Z</time>
      </trkpt>
      <trkpt lat="46.00106" lon="3.52245">
        <ele>517.55</ele>
        <time>2016-07-16T13:04:45Z</time>
      </trkpt>
      <trkpt lat="46.00106" lon="3.52218">
        <ele>518.59</ele>
        <time>2016-07-16T13:04:51Z</time>
      </trkpt>
      <trkpt lat="46.00107" lon="3.52191">
        <ele>518.55</ele>
        <time>2016-07-16T13:04:57Z</time>
      </trkpt>
      <trkpt lat="46.00101" lon="3.52165">
        <ele>515.76</ele>
        <time>2016-07-16T13:05:03Z</time>
      </trkpt>
      <trkpt lat="46.00097" lon="3.52137">
        <ele>517.54</ele>
        <time>2016-07-16T13:05:10Z</time>
      </trkpt>
      <trkpt lat="46.00098" lon="3.52108">
        <ele>516.59</ele>
        <time>2016-07-16T13:05:17Z</time>
      </trkpt>
      <trkpt lat="46.001" lon="3.52082">
        <ele>513.76</ele>
        <time>2016-07-16T13:05:23Z</time>
      </trkpt>
      <trkpt lat="46.00113" lon="3.52058">
        <ele>511.59</ele>
        <time>2016-07-16T13:05:28Z</time>
      </trkpt>
      <trkpt lat="46.00131" lon="3.52038">
        <ele>509.75</ele>
        <time>2016-07-16T13:05:32Z</time>
      </trkpt>
      <trkpt lat="46.00146" lon="3.52023">
        <ele>507.6</ele>
        <time>2016-07-16T13:05:35Z</time>
      </trkpt>
      <trkpt lat="46.00162" lon="3.52007">
        <ele>506.56</ele>
        <time>2016-07-16T13:05:38Z</time>
      </trkpt>
      <trkpt lat="46.00178" lon="3.51992">
        <ele>504.76</ele>
        <time>2016-07-16T13:05:41Z</time>
      </trkpt>
      <trkpt lat="46.00194" lon="3.51977">
        <ele>504.55</ele>
        <time>2016-07-16T13:05:44Z</time>
      </trkpt>
      <trkpt lat="46.00209" lon="3.51963">
        <ele>504.36</ele>
        <time>2016-07-16T13:05:47Z</time>
      </trkpt>
      <trkpt lat="46.00223" lon="3.51942">
        <ele>506.31</ele>
        <time>2016-07-16T13:05:50Z</time>
      </trkpt>
      <trkpt lat="46.0024" lon="3.5192">
        <ele>506.55</ele>
        <time>2016-07-16T13:05:53Z</time>
      </trkpt>
      <trkpt lat="46.00257" lon="3.51894">
        <ele>504.6</ele>
        <time>2016-07-16T13:05:56Z</time>
      </trkpt>
      <trkpt lat="46.00268" lon="3.5186">
        <ele>504.71</ele>
        <time>2016-07-16T13:05:59Z</time>
      </trkpt>
      <trkpt lat="46.00283" lon="3.5183">
        <ele>502.79</ele>
        <time>2016-07-16T13:06:02Z</time>
      </trkpt>
      <trkpt lat="46.00306" lon="3.51809">
        <ele>501.75</ele>
        <time>2016-07-16T13:06:05Z</time>
      </trkpt>
      <trkpt lat="46.00329" lon="3.51792">
        <ele>499.76</ele>
        <time>2016-07-16T13:06:08Z</time>
      </trkpt>
      <trkpt lat="46.00349" lon="3.51771">
        <ele>498.59</ele>
        <time>2016-07-16T13:06:11Z</time>
      </trkpt>
      <trkpt lat="46.00363" lon="3.51745">
        <ele>495.61</ele>
        <time>2016-07-16T13:06:14Z</time>
      </trkpt>
      <trkpt lat="46.00376" lon="3.51721">
        <ele>493.76</ele>
        <time>2016-07-16T13:06:17Z</time>
      </trkpt>
      <trkpt lat="46.00389" lon="3.51697">
        <ele>492.75</ele>
        <time>2016-07-16T13:06:20Z</time>
      </trkpt>
      <trkpt lat="46.00393" lon="3.51669">
        <ele>493.51</ele>
        <time>2016-07-16T13:06:23Z</time>
      </trkpt>
      <trkpt lat="46.00397" lon="3.51641">
        <ele>493.55</ele>
        <time>2016-07-16T13:06:26Z</time>
      </trkpt>
      <trkpt lat="46.00407" lon="3.5161">
        <ele>493.56</ele>
        <time>2016-07-16T13:06:30Z</time>
      </trkpt>
      <trkpt lat="46.00419" lon="3.51588">
        <ele>493.59</ele>
        <time>2016-07-16T13:06:33Z</time>
      </trkpt>
      <trkpt lat="46.00433" lon="3.5156">
        <ele>495.67</ele>
        <time>2016-07-16T13:06:37Z</time>
      </trkpt>
      <trkpt lat="46.00447" lon="3.51534">
        <ele>492.79</ele>
        <time>2016-07-16T13:06:41Z</time>
      </trkpt>
      <trkpt lat="46.00464" lon="3.51509">
        <ele>488.8</ele>
        <time>2016-07-16T13:06:45Z</time>
      </trkpt>
      <trkpt lat="46.00482" lon="3.51495">
        <ele>486.6</ele>
        <time>2016-07-16T13:06:48Z</time>
      </trkpt>
      <trkpt lat="46.00502" lon="3.51485">
        <ele>486.55</ele>
        <time>2016-07-16T13:06:51Z</time>
      </trkpt>
      <trkpt lat="46.00523" lon="3.51473">
        <ele>485.56</ele>
        <time>2016-07-16T13:06:54Z</time>
      </trkpt>
      <trkpt lat="46.00544" lon="3.51463">
        <ele>484.72</ele>
        <time>2016-07-16T13:06:57Z</time>
      </trkpt>
      <trkpt lat="46.00567" lon="3.51455">
        <ele>482.6</ele>
        <time>2016-07-16T13:07:00Z</time>
      </trkpt>
      <trkpt lat="46.00593" lon="3.51449">
        <ele>478.84</ele>
        <time>2016-07-16T13:07:03Z</time>
      </trkpt>
      <trkpt lat="46.0062" lon="3.51445">
        <ele>477.6</ele>
        <time>2016-07-16T13:07:06Z</time>
      </trkpt>
      <trkpt lat="46.00646" lon="3.51438">
        <ele>475.6</ele>
        <time>2016-07-16T13:07:09Z</time>
      </trkpt>
      <trkpt lat="46.00664" lon="3.51427">
        <ele>474.75</ele>
        <time>2016-07-16T13:07:11Z</time>
      </trkpt>
      <trkpt lat="46.00683" lon="3.51412">
        <ele>474.56</ele>
        <time>2016-07-16T13:07:13Z</time>
      </trkpt>
      <trkpt lat="46.00696" lon="3.51393">
        <ele>475.51</ele>
        <time>2016-07-16T13:07:15Z</time>
      </trkpt>
      <trkpt lat="46.00707" lon="3.51371">
        <ele>473.79</ele>
        <time>2016-07-16T13:07:17Z</time>
      </trkpt>
      <trkpt lat="46.00728" lon="3.51351">
        <ele>470.8</ele>
        <time>2016-07-16T13:07:20Z</time>
      </trkpt>
      <trkpt lat="46.00744" lon="3.5133">
        <ele>465.02</ele>
        <time>2016-07-16T13:07:23Z</time>
      </trkpt>
      <trkpt lat="46.00759" lon="3.51303">
        <ele>460.81</ele>
        <time>2016-07-16T13:07:26Z</time>
      </trkpt>
      <trkpt lat="46.00771" lon="3.51272">
        <ele>457.77</ele>
        <time>2016-07-16T13:07:29Z</time>
      </trkpt>
      <trkpt lat="46.00783" lon="3.51253">
        <ele>456.4</ele>
        <time>2016-07-16T13:07:32Z</time>
      </trkpt>
      <trkpt lat="46.00793" lon="3.51228">
        <ele>454.56</ele>
        <time>2016-07-16T13:07:36Z</time>
      </trkpt>
      <trkpt lat="46.00776" lon="3.51206">
        <ele>452.63</ele>
        <time>2016-07-16T13:07:41Z</time>
      </trkpt>
      <trkpt lat="46.00758" lon="3.51196">
        <ele>450.6</ele>
        <time>2016-07-16T13:07:44Z</time>
      </trkpt>
      <trkpt lat="46.00737" lon="3.51196">
        <ele>449.56</ele>
        <time>2016-07-16T13:07:47Z</time>
      </trkpt>
      <trkpt lat="46.00718" lon="3.51193">
        <ele>447.4</ele>
        <time>2016-07-16T13:07:51Z</time>
      </trkpt>
      <trkpt lat="46.00725" lon="3.51164">
        <ele>446.76</ele>
        <time>2016-07-16T13:07:56Z</time>
      </trkpt>
      <trkpt lat="46.0074" lon="3.51148">
        <ele>444.76</ele>
        <time>2016-07-16T13:08:00Z</time>
      </trkpt>
      <trkpt lat="46.00751" lon="3.51126">
        <ele>442.76</ele>
        <time>2016-07-16T13:08:03Z</time>
      </trkpt>
      <trkpt lat="46.0076" lon="3.51099">
        <ele>439.99</ele>
        <time>2016-07-16T13:08:06Z</time>
      </trkpt>
      <trkpt lat="46.00769" lon="3.51075">
        <ele>435.24</ele>
        <time>2016-07-16T13:08:09Z</time>
      </trkpt>
      <trkpt lat="46.00781" lon="3.51051">
        <ele>430.01</ele>
        <time>2016-07-16T13:08:12Z</time>
      </trkpt>
      <trkpt lat="46.00791" lon="3.51029">
        <ele>426.64</ele>
        <time>2016-07-16T13:08:15Z</time>
      </trkpt>
      <trkpt lat="46.00804" lon="3.5101">
        <ele>423.8</ele>
        <time>2016-07-16T13:08:18Z</time>
      </trkpt>
      <trkpt lat="46.00821" lon="3.50992">
        <ele>420.8</ele>
        <time>2016-07-16T13:08:21Z</time>
      </trkpt>
      <trkpt lat="46.00843" lon="3.50984">
        <ele>419.56</ele>
        <time>2016-07-16T13:08:24Z</time>
      </trkpt>
      <trkpt lat="46.00863" lon="3.50975">
        <ele>417.76</ele>
        <time>2016-07-16T13:08:27Z</time>
      </trkpt>
      <trkpt lat="46.00887" lon="3.50977">
        <ele>416.59</ele>
        <time>2016-07-16T13:08:30Z</time>
      </trkpt>
      <trkpt lat="46.00908" lon="3.50977">
        <ele>413.77</ele>
        <time>2016-07-16T13:08:33Z</time>
      </trkpt>
      <trkpt lat="46.00921" lon="3.50957">
        <ele>411.57</ele>
        <time>2016-07-16T13:08:36Z</time>
      </trkpt>
      <trkpt lat="46.00914" lon="3.50931">
        <ele>409.6</ele>
        <time>2016-07-16T13:08:39Z</time>
      </trkpt>
      <trkpt lat="46.00895" lon="3.50916">
        <ele>407.57</ele>
        <time>2016-07-16T13:08:42Z</time>
      </trkpt>
      <trkpt lat="46.00877" lon="3.50908">
        <ele>405.6</ele>
        <time>2016-07-16T13:08:45Z</time>
      </trkpt>
      <trkpt lat="46.00895" lon="3.50892">
        <ele>404.55</ele>
        <time>2016-07-16T13:09:02Z</time>
      </trkpt>
      <trkpt lat="46.00913" lon="3.50889">
        <ele>403.55</ele>
        <time>2016-07-16T13:09:08Z</time>
      </trkpt>
      <trkpt lat="46.00932" lon="3.50888">
        <ele>402.71</ele>
        <time>2016-07-16T13:09:14Z</time>
      </trkpt>
      <trkpt lat="46.00952" lon="3.50894">
        <ele>403.35</ele>
        <time>2016-07-16T13:09:21Z</time>
      </trkpt>
      <trkpt lat="46.0095" lon="3.50921">
        <ele>407.51</ele>
        <time>2016-07-16T13:09:29Z</time>
      </trkpt>
      <trkpt lat="46.00954" lon="3.5095">
        <ele>406.59</ele>
        <time>2016-07-16T13:09:36Z</time>
      </trkpt>
      <trkpt lat="46.00968" lon="3.50968">
        <ele>407.56</ele>
        <time>2016-07-16T13:09:43Z</time>
      </trkpt>
      <trkpt lat="46.00986" lon="3.50979">
        <ele>407.55</ele>
        <time>2016-07-16T13:09:51Z</time>
      </trkpt>
      <trkpt lat="46.01003" lon="3.50987">
        <ele>409.36</ele>
        <time>2016-07-16T13:10:00Z</time>
      </trkpt>
      <trkpt lat="46.01021" lon="3.50992">
        <ele>408.55</ele>
        <time>2016-07-16T13:10:08Z</time>
      </trkpt>
      <trkpt lat="46.0104" lon="3.50991">
        <ele>408.55</ele>
        <time>2016-07-16T13:10:17Z</time>
      </trkpt>
      <trkpt lat="46.01058" lon="3.50986">
        <ele>412.51</ele>
        <time>2016-07-16T13:10:27Z</time>
      </trkpt>
      <trkpt lat="46.01077" lon="3.50983">
        <ele>412.55</ele>
        <time>2016-07-16T13:10:36Z</time>
      </trkpt>
      <trkpt lat="46.01096" lon="3.50976">
        <ele>411.55</ele>
        <time>2016-07-16T13:10:45Z</time>
      </trkpt>
      <trkpt lat="46.01114" lon="3.50973">
        <ele>411.55</ele>
        <time>2016-07-16T13:10:53Z</time>
      </trkpt>
      <trkpt lat="46.01134" lon="3.50968">
        <ele>407.79</ele>
        <time>2016-07-16T13:11:02Z</time>
      </trkpt>
      <trkpt lat="46.01152" lon="3.5096">
        <ele>408.55</ele>
        <time>2016-07-16T13:11:10Z</time>
      </trkpt>
      <trkpt lat="46.01172" lon="3.50956">
        <ele>407.39</ele>
        <time>2016-07-16T13:11:20Z</time>
      </trkpt>
      <trkpt lat="46.01188" lon="3.50934">
        <ele>404.8</ele>
        <time>2016-07-16T13:11:26Z</time>
      </trkpt>
      <trkpt lat="46.01192" lon="3.50908">
        <ele>405.71</ele>
        <time>2016-07-16T13:11:31Z</time>
      </trkpt>
      <trkpt lat="46.01202" lon="3.50932">
        <ele>400.76</ele>
        <time>2016-07-16T13:11:41Z</time>
      </trkpt>
      <trkpt lat="46.01202" lon="3.50963">
        <ele>401.55</ele>
        <time>2016-07-16T13:11:45Z</time>
      </trkpt>
      <trkpt lat="46.01202" lon="3.50998">
        <ele>400.59</ele>
        <time>2016-07-16T13:11:49Z</time>
      </trkpt>
      <trkpt lat="46.01202" lon="3.51025">
        <ele>401.35</ele>
        <time>2016-07-16T13:11:52Z</time>
      </trkpt>
      <trkpt lat="46.01205" lon="3.51051">
        <ele>401.74</ele>
        <time>2016-07-16T13:11:55Z</time>
      </trkpt>
      <trkpt lat="46.01208" lon="3.51078">
        <ele>401.75</ele>
        <time>2016-07-16T13:11:58Z</time>
      </trkpt>
      <trkpt lat="46.01205" lon="3.51106">
        <ele>398.8</ele>
        <time>2016-07-16T13:12:01Z</time>
      </trkpt>
      <trkpt lat="46.01203" lon="3.51132">
        <ele>398.36</ele>
        <time>2016-07-16T13:12:04Z</time>
      </trkpt>
      <trkpt lat="46.01202" lon="3.51161">
        <ele>397.78</ele>
        <time>2016-07-16T13:12:07Z</time>
      </trkpt>
      <trkpt lat="46.01199" lon="3.51196">
        <ele>396.72</ele>
        <time>2016-07-16T13:12:10Z</time>
      </trkpt>
      <trkpt lat="46.01193" lon="3.51227">
        <ele>395.59</ele>
        <time>2016-07-16T13:12:13Z</time>
      </trkpt>
      <trkpt lat="46.01206" lon="3.51205">
        <ele>397.59</ele>
        <time>2016-07-16T13:12:32Z</time>
      </trkpt>
      <trkpt lat="46.01209" lon="3.51176">
        <ele>396.75</ele>
        <time>2016-07-16T13:12:41Z</time>
      </trkpt>
      <trkpt lat="46.01216" lon="3.51151">
        <ele>401.51</ele>
        <time>2016-07-16T13:12:49Z</time>
      </trkpt>
      <trkpt lat="46.01228" lon="3.51128">
        <ele>405.55</ele>
        <time>2016-07-16T13:12:58Z</time>
      </trkpt>
      <trkpt lat="46.01227" lon="3.51097">
        <ele>401.76</ele>
        <time>2016-07-16T13:13:04Z</time>
      </trkpt>
      <trkpt lat="46.01226" lon="3.51069">
        <ele>396.01</ele>
        <time>2016-07-16T13:13:08Z</time>
      </trkpt>
      <trkpt lat="46.01227" lon="3.51037">
        <ele>390.81</ele>
        <time>2016-07-16T13:13:12Z</time>
      </trkpt>
      <trkpt lat="46.0123" lon="3.51009">
        <ele>388.8</ele>
        <time>2016-07-16T13:13:15Z</time>
      </trkpt>
      <trkpt lat="46.01237" lon="3.50976">
        <ele>386.76</ele>
        <time>2016-07-16T13:13:18Z</time>
      </trkpt>
      <trkpt lat="46.01244" lon="3.5094">
        <ele>382.65</ele>
        <time>2016-07-16T13:13:21Z</time>
      </trkpt>
      <trkpt lat="46.01251" lon="3.50906">
        <ele>379.8</ele>
        <time>2016-07-16T13:13:24Z</time>
      </trkpt>
      <trkpt lat="46.01263" lon="3.50875">
        <ele>377.57</ele>
        <time>2016-07-16T13:13:27Z</time>
      </trkpt>
      <trkpt lat="46.01266" lon="3.5084">
        <ele>373.04</ele>
        <time>2016-07-16T13:13:30Z</time>
      </trkpt>
      <trkpt lat="46.01268" lon="3.50808">
        <ele>373.32</ele>
        <time>2016-07-16T13:13:33Z</time>
      </trkpt>
      <trkpt lat="46.01273" lon="3.50779">
        <ele>373.71</ele>
        <time>2016-07-16T13:13:36Z</time>
      </trkpt>
      <trkpt lat="46.01276" lon="3.50746">
        <ele>372.56</ele>
        <time>2016-07-16T13:13:39Z</time>
      </trkpt>
      <trkpt lat="46.01274" lon="3.50713">
        <ele>369.64</ele>
        <time>2016-07-16T13:13:42Z</time>
      </trkpt>
      <trkpt lat="46.01277" lon="3.50684">
        <ele>367.6</ele>
        <time>2016-07-16T13:13:45Z</time>
      </trkpt>
      <trkpt lat="46.01278" lon="3.50652">
        <ele>366.59</ele>
        <time>2016-07-16T13:13:49Z</time>
      </trkpt>
      <trkpt lat="46.01275" lon="3.5062">
        <ele>364.59</ele>
        <time>2016-07-16T13:13:53Z</time>
      </trkpt>
      <trkpt lat="46.01275" lon="3.50593">
        <ele>361.8</ele>
        <time>2016-07-16T13:13:56Z</time>
      </trkpt>
      <trkpt lat="46.01294" lon="3.50595">
        <ele>354.59</ele>
        <time>2016-07-16T13:14:07Z</time>
      </trkpt>
      <trkpt lat="46.01303" lon="3.50619">
        <ele>352.8</ele>
        <time>2016-07-16T13:14:12Z</time>
      </trkpt>
      <trkpt lat="46.01308" lon="3.50645">
        <ele>349.76</ele>
        <time>2016-07-16T13:14:16Z</time>
      </trkpt>
      <trkpt lat="46.01319" lon="3.50672">
        <ele>346.67</ele>
        <time>2016-07-16T13:14:20Z</time>
      </trkpt>
      <trkpt lat="46.01329" lon="3.50697">
        <ele>344.59</ele>
        <time>2016-07-16T13:14:25Z</time>
      </trkpt>
      <trkpt lat="46.01347" lon="3.50699">
        <ele>354.3</ele>
        <time>2016-07-16T13:14:38Z</time>
      </trkpt>
      <trkpt lat="46.0136" lon="3.5068">
        <ele>357.55</ele>
        <time>2016-07-16T13:14:47Z</time>
      </trkpt>
      <trkpt lat="46.01372" lon="3.5066">
        <ele>360.54</ele>
        <time>2016-07-16T13:14:57Z</time>
      </trkpt>
      <trkpt lat="46.01378" lon="3.50631">
        <ele>362.75</ele>
        <time>2016-07-16T13:15:07Z</time>
      </trkpt>
      <trkpt lat="46.01384" lon="3.506">
        <ele>360.8</ele>
        <time>2016-07-16T13:15:12Z</time>
      </trkpt>
      <trkpt lat="46.01388" lon="3.50574">
        <ele>355.84</ele>
        <time>2016-07-16T13:15:16Z</time>
      </trkpt>
      <trkpt lat="46.01393" lon="3.50542">
        <ele>349.21</ele>
        <time>2016-07-16T13:15:20Z</time>
      </trkpt>
      <trkpt lat="46.01394" lon="3.50512">
        <ele>344.8</ele>
        <time>2016-07-16T13:15:24Z</time>
      </trkpt>
      <trkpt lat="46.0139" lon="3.50483">
        <ele>342.55</ele>
        <time>2016-07-16T13:15:30Z</time>
      </trkpt>
      <trkpt lat="46.0139" lon="3.50455">
        <ele>341.55</ele>
        <time>2016-07-16T13:15:36Z</time>
      </trkpt>
      <trkpt lat="46.01409" lon="3.50448">
        <ele>339.55</ele>
        <time>2016-07-16T13:15:46Z</time>
      </trkpt>
      <trkpt lat="46.01428" lon="3.5045">
        <ele>344.51</ele>
        <time>2016-07-16T13:15:58Z</time>
      </trkpt>
      <trkpt lat="46.01446" lon="3.5044">
        <ele>344.55</ele>
        <time>2016-07-16T13:16:09Z</time>
      </trkpt>
      <trkpt lat="46.01464" lon="3.5043">
        <ele>345.39</ele>
        <time>2016-07-16T13:16:20Z</time>
      </trkpt>
      <trkpt lat="46.01483" lon="3.50432">
        <ele>346.51</ele>
        <time>2016-07-16T13:16:30Z</time>
      </trkpt>
      <trkpt lat="46.01501" lon="3.50434">
        <ele>350.51</ele>
        <time>2016-07-16T13:16:42Z</time>
      </trkpt>
      <trkpt lat="46.0152" lon="3.50434">
        <ele>350.72</ele>
        <time>2016-07-16T13:16:54Z</time>
      </trkpt>
      <trkpt lat="46.01539" lon="3.50439">
        <ele>352.73</ele>
        <time>2016-07-16T13:17:06Z</time>
      </trkpt>
      <trkpt lat="46.01558" lon="3.50445">
        <ele>354.35</ele>
        <time>2016-07-16T13:17:17Z</time>
      </trkpt>
      <trkpt lat="46.01577" lon="3.50449">
        <ele>356.35</ele>
        <time>2016-07-16T13:17:29Z</time>
      </trkpt>
      <trkpt lat="46.01594" lon="3.5044">
        <ele>360.51</ele>
        <time>2016-07-16T13:17:40Z</time>
      </trkpt>
      <trkpt lat="46.01613" lon="3.50434">
        <ele>360.55</ele>
        <time>2016-07-16T13:17:50Z</time>
      </trkpt>
      <trkpt lat="46.01633" lon="3.50427">
        <ele>361.54</ele>
        <time>2016-07-16T13:17:58Z</time>
      </trkpt>
      <trkpt lat="46.01653" lon="3.50419">
        <ele>361.75</ele>
        <time>2016-07-16T13:18:05Z</time>
      </trkpt>
      <trkpt lat="46.01672" lon="3.50408">
        <ele>360.63</ele>
        <time>2016-07-16T13:18:11Z</time>
      </trkpt>
      <trkpt lat="46.01691" lon="3.50397">
        <ele>361.36</ele>
        <time>2016-07-16T13:18:19Z</time>
      </trkpt>
      <trkpt lat="46.0171" lon="3.50394">
        <ele>358.72</ele>
        <time>2016-07-16T13:18:26Z</time>
      </trkpt>
      <trkpt lat="46.0173" lon="3.50385">
        <ele>359.51</ele>
        <time>2016-07-16T13:18:33Z</time>
      </trkpt>
      <trkpt lat="46.01748" lon="3.50378">
        <ele>357.56</ele>
        <time>2016-07-16T13:18:40Z</time>
      </trkpt>
      <trkpt lat="46.01768" lon="3.50368">
        <ele>358.55</ele>
        <time>2016-07-16T13:18:46Z</time>
      </trkpt>
      <trkpt lat="46.01787" lon="3.50362">
        <ele>354.84</ele>
        <time>2016-07-16T13:18:51Z</time>
      </trkpt>
      <trkpt lat="46.01805" lon="3.5036">
        <ele>352.72</ele>
        <time>2016-07-16T13:18:56Z</time>
      </trkpt>
      <trkpt lat="46.01822" lon="3.50344">
        <ele>353.39</ele>
        <time>2016-07-16T13:19:02Z</time>
      </trkpt>
      <trkpt lat="46.01844" lon="3.50339">
        <ele>353.35</ele>
        <time>2016-07-16T13:19:06Z</time>
      </trkpt>
      <trkpt lat="46.01863" lon="3.50339">
        <ele>350.83</ele>
        <time>2016-07-16T13:19:09Z</time>
      </trkpt>
      <trkpt lat="46.01881" lon="3.5034">
        <ele>347.8</ele>
        <time>2016-07-16T13:19:12Z</time>
      </trkpt>
      <trkpt lat="46.01902" lon="3.50344">
        <ele>343.61</ele>
        <time>2016-07-16T13:19:16Z</time>
      </trkpt>
      <trkpt lat="46.01919" lon="3.50354">
        <ele>341.71</ele>
        <time>2016-07-16T13:19:21Z</time>
      </trkpt>
      <trkpt lat="46.01938" lon="3.50369">
        <ele>336.84</ele>
        <time>2016-07-16T13:19:25Z</time>
      </trkpt>
      <trkpt lat="46.01956" lon="3.50361">
        <ele>331.65</ele>
        <time>2016-07-16T13:19:31Z</time>
      </trkpt>
      <trkpt lat="46.01974" lon="3.50371">
        <ele>323.6</ele>
        <time>2016-07-16T13:19:42Z</time>
      </trkpt>
      <trkpt lat="46.01989" lon="3.50394">
        <ele>320.79</ele>
        <time>2016-07-16T13:19:46Z</time>
      </trkpt>
      <trkpt lat="46.02003" lon="3.50411">
        <ele>319.75</ele>
        <time>2016-07-16T13:19:49Z</time>
      </trkpt>
      <trkpt lat="46.02021" lon="3.50418">
        <ele>319.55</ele>
        <time>2016-07-16T13:19:52Z</time>
      </trkpt>
      <trkpt lat="46.02038" lon="3.50429">
        <ele>320.35</ele>
        <time>2016-07-16T13:19:55Z</time>
      </trkpt>
      <trkpt lat="46.02056" lon="3.5042">
        <ele>320.55</ele>
        <time>2016-07-16T13:19:59Z</time>
      </trkpt>
      <trkpt lat="46.02067" lon="3.50443">
        <ele>327.58</ele>
        <time>2016-07-16T13:20:19Z</time>
      </trkpt>
      <trkpt lat="46.02076" lon="3.50468">
        <ele>326.55</ele>
        <time>2016-07-16T13:20:27Z</time>
      </trkpt>
      <trkpt lat="46.02085" lon="3.50491">
        <ele>326.75</ele>
        <time>2016-07-16T13:20:37Z</time>
      </trkpt>
      <trkpt lat="46.02097" lon="3.5051">
        <ele>327.51</ele>
        <time>2016-07-16T13:20:47Z</time>
      </trkpt>
      <trkpt lat="46.02113" lon="3.50526">
        <ele>336.47</ele>
        <time>2016-07-16T13:20:58Z</time>
      </trkpt>
      <trkpt lat="46.02129" lon="3.5054">
        <ele>341.52</ele>
        <time>2016-07-16T13:21:08Z</time>
      </trkpt>
      <trkpt lat="46.02146" lon="3.50554">
        <ele>349.38</ele>
        <time>2016-07-16T13:21:19Z</time>
      </trkpt>
      <trkpt lat="46.02162" lon="3.50567">
        <ele>352.39</ele>
        <time>2016-07-16T13:21:29Z</time>
      </trkpt>
      <trkpt lat="46.02179" lon="3.50579">
        <ele>349.75</ele>
        <time>2016-07-16T13:21:38Z</time>
      </trkpt>
      <trkpt lat="46.02197" lon="3.50592">
        <ele>347.55</ele>
        <time>2016-07-16T13:21:47Z</time>
      </trkpt>
      <trkpt lat="46.02216" lon="3.50598">
        <ele>346.55</ele>
        <time>2016-07-16T13:21:57Z</time>
      </trkpt>
      <trkpt lat="46.02236" lon="3.50604">
        <ele>342.79</ele>
        <time>2016-07-16T13:22:07Z</time>
      </trkpt>
      <trkpt lat="46.02246" lon="3.50626">
        <ele>346.51</ele>
        <time>2016-07-16T13:22:19Z</time>
      </trkpt>
      <trkpt lat="46.02249" lon="3.50653">
        <ele>345.51</ele>
        <time>2016-07-16T13:22:29Z</time>
      </trkpt>
      <trkpt lat="46.02253" lon="3.5068">
        <ele>347.75</ele>
        <time>2016-07-16T13:22:40Z</time>
      </trkpt>
      <trkpt lat="46.02258" lon="3.50707">
        <ele>347.51</ele>
        <time>2016-07-16T13:22:50Z</time>
      </trkpt>
      <trkpt lat="46.0226" lon="3.50735">
        <ele>349.75</ele>
        <time>2016-07-16T13:23:00Z</time>
      </trkpt>
      <trkpt lat="46.02261" lon="3.50761">
        <ele>349.55</ele>
        <time>2016-07-16T13:23:09Z</time>
      </trkpt>
      <trkpt lat="46.02262" lon="3.50789">
        <ele>347.6</ele>
        <time>2016-07-16T13:23:19Z</time>
      </trkpt>
      <trkpt lat="46.02267" lon="3.50816">
        <ele>346.58</ele>
        <time>2016-07-16T13:23:29Z</time>
      </trkpt>
      <trkpt lat="46.02266" lon="3.50843">
        <ele>344.59</ele>
        <time>2016-07-16T13:23:39Z</time>
      </trkpt>
      <trkpt lat="46.02267" lon="3.5087">
        <ele>347.54</ele>
        <time>2016-07-16T13:23:49Z</time>
      </trkpt>
      <trkpt lat="46.02274" lon="3.50895">
        <ele>355.54</ele>
        <time>2016-07-16T13:24:01Z</time>
      </trkpt>
      <trkpt lat="46.02279" lon="3.50921">
        <ele>356.55</ele>
        <time>2016-07-16T13:24:11Z</time>
      </trkpt>
      <trkpt lat="46.02283" lon="3.50947">
        <ele>360.74</ele>
        <time>2016-07-16T13:24:24Z</time>
      </trkpt>
      <trkpt lat="46.02283" lon="3.50975">
        <ele>358.92</ele>
        <time>2016-07-16T13:24:34Z</time>
      </trkpt>
      <trkpt lat="46.02279" lon="3.51003">
        <ele>359.52</ele>
        <time>2016-07-16T13:24:43Z</time>
      </trkpt>
      <trkpt lat="46.02279" lon="3.5103">
        <ele>362.31</ele>
        <time>2016-07-16T13:24:54Z</time>
      </trkpt>
      <trkpt lat="46.02287" lon="3.51056">
        <ele>366.51</ele>
        <time>2016-07-16T13:25:06Z</time>
      </trkpt>
      <trkpt lat="46.02303" lon="3.5107">
        <ele>374.54</ele>
        <time>2016-07-16T13:25:20Z</time>
      </trkpt>
      <trkpt lat="46.02319" lon="3.51083">
        <ele>377.59</ele>
        <time>2016-07-16T13:25:31Z</time>
      </trkpt>
      <trkpt lat="46.02336" lon="3.51094">
        <ele>379.36</ele>
        <time>2016-07-16T13:25:42Z</time>
      </trkpt>
      <trkpt lat="46.02353" lon="3.51106">
        <ele>379.59</ele>
        <time>2016-07-16T13:25:52Z</time>
      </trkpt>
      <trkpt lat="46.02367" lon="3.51126">
        <ele>382.51</ele>
        <time>2016-07-16T13:26:03Z</time>
      </trkpt>
      <trkpt lat="46.02381" lon="3.51145">
        <ele>380.59</ele>
        <time>2016-07-16T13:26:14Z</time>
      </trkpt>
      <trkpt lat="46.02393" lon="3.51165">
        <ele>379.55</ele>
        <time>2016-07-16T13:26:24Z</time>
      </trkpt>
      <trkpt lat="46.02407" lon="3.51187">
        <ele>383.58</ele>
        <time>2016-07-16T13:26:36Z</time>
      </trkpt>
      <trkpt lat="46.02415" lon="3.51211">
        <ele>385.55</ele>
        <time>2016-07-16T13:26:47Z</time>
      </trkpt>
      <trkpt lat="46.02427" lon="3.5123">
        <ele>387.54</ele>
        <time>2016-07-16T13:26:59Z</time>
      </trkpt>
      <trkpt lat="46.02437" lon="3.51255">
        <ele>391.77</ele>
        <time>2016-07-16T13:27:11Z</time>
      </trkpt>
      <trkpt lat="46.0245" lon="3.51276">
        <ele>390.75</ele>
        <time>2016-07-16T13:27:22Z</time>
      </trkpt>
      <trkpt lat="46.02464" lon="3.51292">
        <ele>385.79</ele>
        <time>2016-07-16T13:27:32Z</time>
      </trkpt>
      <trkpt lat="46.02483" lon="3.51293">
        <ele>383.75</ele>
        <time>2016-07-16T13:27:46Z</time>
      </trkpt>
      <trkpt lat="46.02502" lon="3.51294">
        <ele>385.3</ele>
        <time>2016-07-16T13:28:01Z</time>
      </trkpt>
      <trkpt lat="46.0252" lon="3.51299">
        <ele>388.55</ele>
        <time>2016-07-16T13:28:21Z</time>
      </trkpt>
      <trkpt lat="46.02527" lon="3.51324">
        <ele>394.55</ele>
        <time>2016-07-16T13:29:12Z</time>
      </trkpt>
      <trkpt lat="46.02533" lon="3.51349">
        <ele>400.55</ele>
        <time>2016-07-16T13:29:44Z</time>
      </trkpt>
      <trkpt lat="46.02536" lon="3.51375">
        <ele>400.56</ele>
        <time>2016-07-16T13:29:58Z</time>
      </trkpt>
      <trkpt lat="46.02546" lon="3.51398">
        <ele>399.51</ele>
        <time>2016-07-16T13:30:10Z</time>
      </trkpt>
      <trkpt lat="46.02561" lon="3.51414">
        <ele>403.4</ele>
        <time>2016-07-16T13:30:27Z</time>
      </trkpt>
      <trkpt lat="46.02579" lon="3.5142">
        <ele>412.3</ele>
        <time>2016-07-16T13:30:43Z</time>
      </trkpt>
      <trkpt lat="46.02594" lon="3.51434">
        <ele>422.5</ele>
        <time>2016-07-16T13:31:00Z</time>
      </trkpt>
      <trkpt lat="46.02599" lon="3.51461">
        <ele>426.55</ele>
        <time>2016-07-16T13:31:12Z</time>
      </trkpt>
      <trkpt lat="46.02601" lon="3.51486">
        <ele>423.79</ele>
        <time>2016-07-16T13:31:24Z</time>
      </trkpt>
      <trkpt lat="46.02604" lon="3.51513">
        <ele>411.02</ele>
        <time>2016-07-16T13:31:35Z</time>
      </trkpt>
      <trkpt lat="46.026" lon="3.51538">
        <ele>412.51</ele>
        <time>2016-07-16T13:31:48Z</time>
      </trkpt>
      <trkpt lat="46.0261" lon="3.5156">
        <ele>412.57</ele>
        <time>2016-07-16T13:31:57Z</time>
      </trkpt>
      <trkpt lat="46.02613" lon="3.51586">
        <ele>415.55</ele>
        <time>2016-07-16T13:32:11Z</time>
      </trkpt>
      <trkpt lat="46.02622" lon="3.5161">
        <ele>415.6</ele>
        <time>2016-07-16T13:32:20Z</time>
      </trkpt>
      <trkpt lat="46.02627" lon="3.51635">
        <ele>422.3</ele>
        <time>2016-07-16T13:32:33Z</time>
      </trkpt>
      <trkpt lat="46.02639" lon="3.51657">
        <ele>426.54</ele>
        <time>2016-07-16T13:32:43Z</time>
      </trkpt>
      <trkpt lat="46.0265" lon="3.51678">
        <ele>433.3</ele>
        <time>2016-07-16T13:32:53Z</time>
      </trkpt>
      <trkpt lat="46.02658" lon="3.51703">
        <ele>431.55</ele>
        <time>2016-07-16T13:33:02Z</time>
      </trkpt>
      <trkpt lat="46.02671" lon="3.51724">
        <ele>436.54</ele>
        <time>2016-07-16T13:33:13Z</time>
      </trkpt>
      <trkpt lat="46.02683" lon="3.51745">
        <ele>432.55</ele>
        <time>2016-07-16T13:33:23Z</time>
      </trkpt>
      <trkpt lat="46.02694" lon="3.51766">
        <ele>437.55</ele>
        <time>2016-07-16T13:33:38Z</time>
      </trkpt>
      <trkpt lat="46.02707" lon="3.51784">
        <ele>446.58</ele>
        <time>2016-07-16T13:33:59Z</time>
      </trkpt>
      <trkpt lat="46.02726" lon="3.51794">
        <ele>448.78</ele>
        <time>2016-07-16T13:34:14Z</time>
      </trkpt>
      <trkpt lat="46.02743" lon="3.51801">
        <ele>451.55</ele>
        <time>2016-07-16T13:34:27Z</time>
      </trkpt>
      <trkpt lat="46.02753" lon="3.51823">
        <ele>458.62</ele>
        <time>2016-07-16T13:34:43Z</time>
      </trkpt>
      <trkpt lat="46.02756" lon="3.51849">
        <ele>453.79</ele>
        <time>2016-07-16T13:34:56Z</time>
      </trkpt>
      <trkpt lat="46.02759" lon="3.51875">
        <ele>448.99</ele>
        <time>2016-07-16T13:35:10Z</time>
      </trkpt>
      <trkpt lat="46.02765" lon="3.51901">
        <ele>449.71</ele>
        <time>2016-07-16T13:35:26Z</time>
      </trkpt>
      <trkpt lat="46.02771" lon="3.51926">
        <ele>455.51</ele>
        <time>2016-07-16T13:35:42Z</time>
      </trkpt>
      <trkpt lat="46.02773" lon="3.51952">
        <ele>463.46</ele>
        <time>2016-07-16T13:35:58Z</time>
      </trkpt>
      <trkpt lat="46.02778" lon="3.51978">
        <ele>461.71</ele>
        <time>2016-07-16T13:36:12Z</time>
      </trkpt>
      <trkpt lat="46.02784" lon="3.52004">
        <ele>466.58</ele>
        <time>2016-07-16T13:36:26Z</time>
      </trkpt>
      <trkpt lat="46.02791" lon="3.52029">
        <ele>467.55</ele>
        <time>2016-07-16T13:36:38Z</time>
      </trkpt>
      <trkpt lat="46.02797" lon="3.52057">
        <ele>462.52</ele>
        <time>2016-07-16T13:37:46Z</time>
      </trkpt>
      <trkpt lat="46.02807" lon="3.5208">
        <ele>470.35</ele>
        <time>2016-07-16T13:37:59Z</time>
      </trkpt>
      <trkpt lat="46.02823" lon="3.52095">
        <ele>470.52</ele>
        <time>2016-07-16T13:38:10Z</time>
      </trkpt>
      <trkpt lat="46.02842" lon="3.52095">
        <ele>475.55</ele>
        <time>2016-07-16T13:38:24Z</time>
      </trkpt>
      <trkpt lat="46.02861" lon="3.52094">
        <ele>478.16</ele>
        <time>2016-07-16T13:38:35Z</time>
      </trkpt>
      <trkpt lat="46.02879" lon="3.52085">
        <ele>479.55</ele>
        <time>2016-07-16T13:38:47Z</time>
      </trkpt>
      <trkpt lat="46.02895" lon="3.52074">
        <ele>481.54</ele>
        <time>2016-07-16T13:38:57Z</time>
      </trkpt>
      <trkpt lat="46.02913" lon="3.52068">
        <ele>485.31</ele>
        <time>2016-07-16T13:39:08Z</time>
      </trkpt>
      <trkpt lat="46.02931" lon="3.52078">
        <ele>489.54</ele>
        <time>2016-07-16T13:39:18Z</time>
      </trkpt>
      <trkpt lat="46.02928" lon="3.52105">
        <ele>490.55</ele>
        <time>2016-07-16T13:39:34Z</time>
      </trkpt>
      <trkpt lat="46.0292" lon="3.52129">
        <ele>489.79</ele>
        <time>2016-07-16T13:39:45Z</time>
      </trkpt>
      <trkpt lat="46.02913" lon="3.52154">
        <ele>487.44</ele>
        <time>2016-07-16T13:39:55Z</time>
      </trkpt>
      <trkpt lat="46.02906" lon="3.52179">
        <ele>486.55</ele>
        <time>2016-07-16T13:40:06Z</time>
      </trkpt>
      <trkpt lat="46.02913" lon="3.52205">
        <ele>487.74</ele>
        <time>2016-07-16T13:40:21Z</time>
      </trkpt>
      <trkpt lat="46.02928" lon="3.52224">
        <ele>498.7</ele>
        <time>2016-07-16T13:40:34Z</time>
      </trkpt>
      <trkpt lat="46.02944" lon="3.52236">
        <ele>498.31</ele>
        <time>2016-07-16T13:40:43Z</time>
      </trkpt>
      <trkpt lat="46.0296" lon="3.52249">
        <ele>501.51</ele>
        <time>2016-07-16T13:40:51Z</time>
      </trkpt>
      <trkpt lat="46.02977" lon="3.52263">
        <ele>505.59</ele>
        <time>2016-07-16T13:41:01Z</time>
      </trkpt>
      <trkpt lat="46.0299" lon="3.52281">
        <ele>508.35</ele>
        <time>2016-07-16T13:41:09Z</time>
      </trkpt>
      <trkpt lat="46.03004" lon="3.523">
        <ele>506.79</ele>
        <time>2016-07-16T13:41:18Z</time>
      </trkpt>
      <trkpt lat="46.03017" lon="3.52319">
        <ele>504.56</ele>
        <time>2016-07-16T13:41:26Z</time>
      </trkpt>
      <trkpt lat="46.03026" lon="3.52343">
        <ele>504.59</ele>
        <time>2016-07-16T13:41:36Z</time>
      </trkpt>
      <trkpt lat="46.0303" lon="3.5237">
        <ele>501.79</ele>
        <time>2016-07-16T13:41:44Z</time>
      </trkpt>
      <trkpt lat="46.03037" lon="3.52396">
        <ele>502.55</ele>
        <time>2016-07-16T13:41:54Z</time>
      </trkpt>
      <trkpt lat="46.03051" lon="3.52415">
        <ele>504.55</ele>
        <time>2016-07-16T13:42:04Z</time>
      </trkpt>
      <trkpt lat="46.03067" lon="3.52429">
        <ele>503.51</ele>
        <time>2016-07-16T13:42:13Z</time>
      </trkpt>
      <trkpt lat="46.03085" lon="3.52434">
        <ele>511.52</ele>
        <time>2016-07-16T13:42:25Z</time>
      </trkpt>
      <trkpt lat="46.03103" lon="3.52444">
        <ele>511.71</ele>
        <time>2016-07-16T13:42:38Z</time>
      </trkpt>
      <trkpt lat="46.0312" lon="3.52453">
        <ele>514.76</ele>
        <time>2016-07-16T13:42:47Z</time>
      </trkpt>
      <trkpt lat="46.03138" lon="3.52457">
        <ele>517.7</ele>
        <time>2016-07-16T13:42:56Z</time>
      </trkpt>
      <trkpt lat="46.03157" lon="3.52464">
        <ele>519.5</ele>
        <time>2016-07-16T13:43:06Z</time>
      </trkpt>
      <trkpt lat="46.03177" lon="3.52469">
        <ele>524.55</ele>
        <time>2016-07-16T13:43:16Z</time>
      </trkpt>
      <trkpt lat="46.03196" lon="3.52472">
        <ele>522.79</ele>
        <time>2016-07-16T13:43:23Z</time>
      </trkpt>
      <trkpt lat="46.03215" lon="3.52478">
        <ele>522.35</ele>
        <time>2016-07-16T13:43:31Z</time>
      </trkpt>
      <trkpt lat="46.03235" lon="3.52475">
        <ele>525.54</ele>
        <time>2016-07-16T13:43:41Z</time>
      </trkpt>
      <trkpt lat="46.03252" lon="3.52471">
        <ele>528.54</ele>
        <time>2016-07-16T13:43:50Z</time>
      </trkpt>
      <trkpt lat="46.03271" lon="3.52476">
        <ele>527.52</ele>
        <time>2016-07-16T13:43:59Z</time>
      </trkpt>
      <trkpt lat="46.03289" lon="3.52484">
        <ele>527.39</ele>
        <time>2016-07-16T13:44:07Z</time>
      </trkpt>
      <trkpt lat="46.03306" lon="3.52491">
        <ele>527.58</ele>
        <time>2016-07-16T13:44:17Z</time>
      </trkpt>
      <trkpt lat="46.03325" lon="3.52495">
        <ele>529.71</ele>
        <time>2016-07-16T13:44:27Z</time>
      </trkpt>
      <trkpt lat="46.03343" lon="3.52495">
        <ele>527.76</ele>
        <time>2016-07-16T13:44:34Z</time>
      </trkpt>
      <trkpt lat="46.03363" lon="3.52498">
        <ele>531.54</ele>
        <time>2016-07-16T13:44:44Z</time>
      </trkpt>
      <trkpt lat="46.03381" lon="3.52511">
        <ele>534.35</ele>
        <time>2016-07-16T13:44:53Z</time>
      </trkpt>
      <trkpt lat="46.0339" lon="3.52534">
        <ele>525.2</ele>
        <time>2016-07-16T13:45:00Z</time>
      </trkpt>
      <trkpt lat="46.03374" lon="3.52544">
        <ele>522.59</ele>
        <time>2016-07-16T13:45:10Z</time>
      </trkpt>
      <trkpt lat="46.03355" lon="3.52551">
        <ele>523.54</ele>
        <time>2016-07-16T13:45:21Z</time>
      </trkpt>
      <trkpt lat="46.03338" lon="3.52561">
        <ele>522.32</ele>
        <time>2016-07-16T13:45:29Z</time>
      </trkpt>
      <trkpt lat="46.03323" lon="3.52578">
        <ele>522.72</ele>
        <time>2016-07-16T13:45:37Z</time>
      </trkpt>
      <trkpt lat="46.03307" lon="3.52593">
        <ele>526.32</ele>
        <time>2016-07-16T13:45:45Z</time>
      </trkpt>
      <trkpt lat="46.03292" lon="3.52612">
        <ele>524.59</ele>
        <time>2016-07-16T13:45:53Z</time>
      </trkpt>
      <trkpt lat="46.03278" lon="3.52629">
        <ele>526.51</ele>
        <time>2016-07-16T13:46:02Z</time>
      </trkpt>
      <trkpt lat="46.03274" lon="3.52657">
        <ele>529.34</ele>
        <time>2016-07-16T13:46:12Z</time>
      </trkpt>
      <trkpt lat="46.03277" lon="3.52683">
        <ele>530.72</ele>
        <time>2016-07-16T13:46:21Z</time>
      </trkpt>
      <trkpt lat="46.03283" lon="3.52709">
        <ele>530.55</ele>
        <time>2016-07-16T13:46:30Z</time>
      </trkpt>
      <trkpt lat="46.03299" lon="3.52723">
        <ele>528.56</ele>
        <time>2016-07-16T13:46:40Z</time>
      </trkpt>
      <trkpt lat="46.03318" lon="3.52719">
        <ele>530.35</ele>
        <time>2016-07-16T13:46:51Z</time>
      </trkpt>
      <trkpt lat="46.03334" lon="3.52706">
        <ele>534.54</ele>
        <time>2016-07-16T13:47:02Z</time>
      </trkpt>
      <trkpt lat="46.03351" lon="3.52693">
        <ele>535.55</ele>
        <time>2016-07-16T13:47:13Z</time>
      </trkpt>
      <trkpt lat="46.03369" lon="3.52683">
        <ele>535.55</ele>
        <time>2016-07-16T13:47:23Z</time>
      </trkpt>
      <trkpt lat="46.03389" lon="3.52683">
        <ele>536.59</ele>
        <time>2016-07-16T13:47:31Z</time>
      </trkpt>
      <trkpt lat="46.03408" lon="3.52686">
        <ele>541.35</ele>
        <time>2016-07-16T13:47:40Z</time>
      </trkpt>
      <trkpt lat="46.03426" lon="3.52678">
        <ele>537.76</ele>
        <time>2016-07-16T13:47:50Z</time>
      </trkpt>
      <trkpt lat="46.03444" lon="3.52669">
        <ele>537.52</ele>
        <time>2016-07-16T13:48:02Z</time>
      </trkpt>
      <trkpt lat="46.03461" lon="3.52658">
        <ele>537.56</ele>
        <time>2016-07-16T13:48:11Z</time>
      </trkpt>
      <trkpt lat="46.03479" lon="3.52647">
        <ele>538.58</ele>
        <time>2016-07-16T13:48:20Z</time>
      </trkpt>
      <trkpt lat="46.03497" lon="3.52638">
        <ele>539.55</ele>
        <time>2016-07-16T13:48:29Z</time>
      </trkpt>
      <trkpt lat="46.03515" lon="3.52631">
        <ele>540.55</ele>
        <time>2016-07-16T13:48:37Z</time>
      </trkpt>
      <trkpt lat="46.03535" lon="3.52626">
        <ele>542.51</ele>
        <time>2016-07-16T13:48:46Z</time>
      </trkpt>
      <trkpt lat="46.03553" lon="3.52621">
        <ele>539.52</ele>
        <time>2016-07-16T13:48:56Z</time>
      </trkpt>
      <trkpt lat="46.03572" lon="3.52616">
        <ele>538.59</ele>
        <time>2016-07-16T13:49:06Z</time>
      </trkpt>
      <trkpt lat="46.03591" lon="3.52613">
        <ele>538.54</ele>
        <time>2016-07-16T13:49:15Z</time>
      </trkpt>
      <trkpt lat="46.0361" lon="3.5261">
        <ele>542.35</ele>
        <time>2016-07-16T13:49:25Z</time>
      </trkpt>
      <trkpt lat="46.03629" lon="3.5261">
        <ele>542.55</ele>
        <time>2016-07-16T13:49:36Z</time>
      </trkpt>
      <trkpt lat="46.03648" lon="3.52621">
        <ele>546.55</ele>
        <time>2016-07-16T13:49:47Z</time>
      </trkpt>
      <trkpt lat="46.03664" lon="3.52634">
        <ele>546.55</ele>
        <time>2016-07-16T13:49:57Z</time>
      </trkpt>
      <trkpt lat="46.03679" lon="3.52653">
        <ele>543.76</ele>
        <time>2016-07-16T13:50:04Z</time>
      </trkpt>
      <trkpt lat="46.03688" lon="3.52678">
        <ele>540.76</ele>
        <time>2016-07-16T13:50:09Z</time>
      </trkpt>
      <trkpt lat="46.03695" lon="3.52708">
        <ele>539.75</ele>
        <time>2016-07-16T13:50:13Z</time>
      </trkpt>
      <trkpt lat="46.03699" lon="3.52733">
        <ele>538.75</ele>
        <time>2016-07-16T13:50:16Z</time>
      </trkpt>
      <trkpt lat="46.03702" lon="3.52762">
        <ele>536.79</ele>
        <time>2016-07-16T13:50:19Z</time>
      </trkpt>
      <trkpt lat="46.03702" lon="3.52793">
        <ele>536.55</ele>
        <time>2016-07-16T13:50:22Z</time>
      </trkpt>
      <trkpt lat="46.03705" lon="3.52823">
        <ele>535.59</ele>
        <time>2016-07-16T13:50:25Z</time>
      </trkpt>
      <trkpt lat="46.03713" lon="3.52849">
        <ele>535.55</ele>
        <time>2016-07-16T13:50:28Z</time>
      </trkpt>
      <trkpt lat="46.03725" lon="3.52872">
        <ele>535.56</ele>
        <time>2016-07-16T13:50:32Z</time>
      </trkpt>
      <trkpt lat="46.03739" lon="3.52892">
        <ele>538.35</ele>
        <time>2016-07-16T13:50:38Z</time>
      </trkpt>
      <trkpt lat="46.03753" lon="3.52912">
        <ele>539.55</ele>
        <time>2016-07-16T13:50:45Z</time>
      </trkpt>
      <trkpt lat="46.03768" lon="3.52933">
        <ele>540.55</ele>
        <time>2016-07-16T13:50:52Z</time>
      </trkpt>
      <trkpt lat="46.03782" lon="3.52951">
        <ele>539.39</ele>
        <time>2016-07-16T13:50:57Z</time>
      </trkpt>
      <trkpt lat="46.03797" lon="3.52968">
        <ele>538.75</ele>
        <time>2016-07-16T13:51:02Z</time>
      </trkpt>
      <trkpt lat="46.03816" lon="3.52979">
        <ele>536.55</ele>
        <time>2016-07-16T13:51:07Z</time>
      </trkpt>
      <trkpt lat="46.03836" lon="3.52978">
        <ele>536.56</ele>
        <time>2016-07-16T13:51:13Z</time>
      </trkpt>
      <trkpt lat="46.03853" lon="3.52968">
        <ele>536.52</ele>
        <time>2016-07-16T13:51:19Z</time>
      </trkpt>
      <trkpt lat="46.0387" lon="3.52958">
        <ele>537.36</ele>
        <time>2016-07-16T13:51:25Z</time>
      </trkpt>
      <trkpt lat="46.03889" lon="3.52949">
        <ele>537.56</ele>
        <time>2016-07-16T13:51:31Z</time>
      </trkpt>
      <trkpt lat="46.03907" lon="3.52941">
        <ele>537.56</ele>
        <time>2016-07-16T13:51:37Z</time>
      </trkpt>
      <trkpt lat="46.03927" lon="3.52935">
        <ele>537.56</ele>
        <time>2016-07-16T13:51:43Z</time>
      </trkpt>
      <trkpt lat="46.03948" lon="3.52935">
        <ele>537.55</ele>
        <time>2016-07-16T13:51:49Z</time>
      </trkpt>
      <trkpt lat="46.03966" lon="3.52939">
        <ele>536.56</ele>
        <time>2016-07-16T13:51:54Z</time>
      </trkpt>
      <trkpt lat="46.03984" lon="3.52941">
        <ele>536.55</ele>
        <time>2016-07-16T13:51:58Z</time>
      </trkpt>
      <trkpt lat="46.04007" lon="3.52944">
        <ele>536.55</ele>
        <time>2016-07-16T13:52:02Z</time>
      </trkpt>
      <trkpt lat="46.04011" lon="3.5297">
        <ele>535.55</ele>
        <time>2016-07-16T13:52:07Z</time>
      </trkpt>
      <trkpt lat="46.04007" lon="3.53">
        <ele>537.51</ele>
        <time>2016-07-16T13:52:14Z</time>
      </trkpt>
      <trkpt lat="46.04007" lon="3.5303">
        <ele>538.51</ele>
        <time>2016-07-16T13:52:21Z</time>
      </trkpt>
      <trkpt lat="46.04004" lon="3.53056">
        <ele>539.51</ele>
        <time>2016-07-16T13:52:26Z</time>
      </trkpt>
      <trkpt lat="46.03998" lon="3.53082">
        <ele>539.56</ele>
        <time>2016-07-16T13:52:31Z</time>
      </trkpt>
      <trkpt lat="46.03988" lon="3.53105">
        <ele>538.55</ele>
        <time>2016-07-16T13:52:36Z</time>
      </trkpt>
      <trkpt lat="46.03975" lon="3.53126">
        <ele>539.35</ele>
        <time>2016-07-16T13:52:41Z</time>
      </trkpt>
      <trkpt lat="46.03959" lon="3.53148">
        <ele>538.39</ele>
        <time>2016-07-16T13:52:46Z</time>
      </trkpt>
      <trkpt lat="46.03949" lon="3.53177">
        <ele>537.75</ele>
        <time>2016-07-16T13:52:51Z</time>
      </trkpt>
      <trkpt lat="46.03949" lon="3.53206">
        <ele>537.56</ele>
        <time>2016-07-16T13:52:56Z</time>
      </trkpt>
      <trkpt lat="46.03952" lon="3.53234">
        <ele>538.51</ele>
        <time>2016-07-16T13:53:01Z</time>
      </trkpt>
      <trkpt lat="46.03954" lon="3.5326">
        <ele>539.51</ele>
        <time>2016-07-16T13:53:06Z</time>
      </trkpt>
      <trkpt lat="46.03955" lon="3.53287">
        <ele>541.35</ele>
        <time>2016-07-16T13:53:11Z</time>
      </trkpt>
      <trkpt lat="46.03953" lon="3.53316">
        <ele>542.39</ele>
        <time>2016-07-16T13:53:16Z</time>
      </trkpt>
      <trkpt lat="46.03948" lon="3.53346">
        <ele>541.75</ele>
        <time>2016-07-16T13:53:21Z</time>
      </trkpt>
      <trkpt lat="46.03942" lon="3.53375">
        <ele>539.75</ele>
        <time>2016-07-16T13:53:26Z</time>
      </trkpt>
      <trkpt lat="46.03935" lon="3.53404">
        <ele>542.54</ele>
        <time>2016-07-16T13:53:31Z</time>
      </trkpt>
      <trkpt lat="46.03928" lon="3.53429">
        <ele>542.39</ele>
        <time>2016-07-16T13:53:35Z</time>
      </trkpt>
      <trkpt lat="46.03923" lon="3.5346">
        <ele>543.54</ele>
        <time>2016-07-16T13:53:40Z</time>
      </trkpt>
      <trkpt lat="46.03918" lon="3.53491">
        <ele>545.54</ele>
        <time>2016-07-16T13:53:45Z</time>
      </trkpt>
      <trkpt lat="46.03911" lon="3.53521">
        <ele>546.58</ele>
        <time>2016-07-16T13:53:50Z</time>
      </trkpt>
      <trkpt lat="46.03905" lon="3.53548">
        <ele>545.72</ele>
        <time>2016-07-16T13:53:54Z</time>
      </trkpt>
      <trkpt lat="46.03899" lon="3.53576">
        <ele>543.6</ele>
        <time>2016-07-16T13:53:58Z</time>
      </trkpt>
      <trkpt lat="46.03891" lon="3.53599">
        <ele>542.53</ele>
        <time>2016-07-16T13:54:02Z</time>
      </trkpt>
      <trkpt lat="46.03888" lon="3.53628">
        <ele>545.54</ele>
        <time>2016-07-16T13:54:07Z</time>
      </trkpt>
      <trkpt lat="46.03904" lon="3.53644">
        <ele>546.59</ele>
        <time>2016-07-16T13:54:13Z</time>
      </trkpt>
      <trkpt lat="46.03926" lon="3.53649">
        <ele>545.56</ele>
        <time>2016-07-16T13:54:18Z</time>
      </trkpt>
      <trkpt lat="46.03949" lon="3.53656">
        <ele>545.59</ele>
        <time>2016-07-16T13:54:22Z</time>
      </trkpt>
      <trkpt lat="46.03968" lon="3.53661">
        <ele>544.59</ele>
        <time>2016-07-16T13:54:25Z</time>
      </trkpt>
      <trkpt lat="46.0399" lon="3.53671">
        <ele>543.56</ele>
        <time>2016-07-16T13:54:28Z</time>
      </trkpt>
      <trkpt lat="46.04016" lon="3.53676">
        <ele>540.83</ele>
        <time>2016-07-16T13:54:31Z</time>
      </trkpt>
      <trkpt lat="46.0404" lon="3.53677">
        <ele>540.56</ele>
        <time>2016-07-16T13:54:35Z</time>
      </trkpt>
      <trkpt lat="46.04058" lon="3.53678">
        <ele>540.55</ele>
        <time>2016-07-16T13:54:38Z</time>
      </trkpt>
      <trkpt lat="46.04076" lon="3.53669">
        <ele>539.75</ele>
        <time>2016-07-16T13:54:41Z</time>
      </trkpt>
      <trkpt lat="46.04093" lon="3.53657">
        <ele>539.59</ele>
        <time>2016-07-16T13:54:44Z</time>
      </trkpt>
      <trkpt lat="46.04115" lon="3.53643">
        <ele>539.55</ele>
        <time>2016-07-16T13:54:48Z</time>
      </trkpt>
      <trkpt lat="46.04131" lon="3.53618">
        <ele>538.59</ele>
        <time>2016-07-16T13:54:52Z</time>
      </trkpt>
      <trkpt lat="46.04143" lon="3.53595">
        <ele>535.77</ele>
        <time>2016-07-16T13:54:55Z</time>
      </trkpt>
      <trkpt lat="46.04159" lon="3.5357">
        <ele>532.99</ele>
        <time>2016-07-16T13:54:58Z</time>
      </trkpt>
      <trkpt lat="46.04176" lon="3.53545">
        <ele>531.72</ele>
        <time>2016-07-16T13:55:01Z</time>
      </trkpt>
      <trkpt lat="46.0419" lon="3.53528">
        <ele>528.04</ele>
        <time>2016-07-16T13:55:03Z</time>
      </trkpt>
      <trkpt lat="46.0421" lon="3.53521">
        <ele>525.81</ele>
        <time>2016-07-16T13:55:05Z</time>
      </trkpt>
      <trkpt lat="46.04233" lon="3.53519">
        <ele>524.6</ele>
        <time>2016-07-16T13:55:07Z</time>
      </trkpt>
      <trkpt lat="46.04253" lon="3.53509">
        <ele>523.6</ele>
        <time>2016-07-16T13:55:09Z</time>
      </trkpt>
      <trkpt lat="46.04277" lon="3.53502">
        <ele>526.31</ele>
        <time>2016-07-16T13:55:12Z</time>
      </trkpt>
      <trkpt lat="46.04296" lon="3.5351">
        <ele>529.35</ele>
        <time>2016-07-16T13:55:17Z</time>
      </trkpt>
      <trkpt lat="46.04315" lon="3.53523">
        <ele>531.35</ele>
        <time>2016-07-16T13:55:24Z</time>
      </trkpt>
      <trkpt lat="46.04333" lon="3.53533">
        <ele>531.55</ele>
        <time>2016-07-16T13:55:30Z</time>
      </trkpt>
      <trkpt lat="46.04352" lon="3.53542">
        <ele>534.34</ele>
        <time>2016-07-16T13:55:36Z</time>
      </trkpt>
      <trkpt lat="46.0437" lon="3.53553">
        <ele>532.56</ele>
        <time>2016-07-16T13:55:42Z</time>
      </trkpt>
      <trkpt lat="46.04388" lon="3.53568">
        <ele>533.55</ele>
        <time>2016-07-16T13:55:49Z</time>
      </trkpt>
      <trkpt lat="46.04404" lon="3.53582">
        <ele>534.57</ele>
        <time>2016-07-16T13:55:55Z</time>
      </trkpt>
      <trkpt lat="46.04418" lon="3.53598">
        <ele>538.3</ele>
        <time>2016-07-16T13:56:02Z</time>
      </trkpt>
      <trkpt lat="46.04434" lon="3.53614">
        <ele>539.55</ele>
        <time>2016-07-16T13:56:11Z</time>
      </trkpt>
      <trkpt lat="46.0445" lon="3.53629">
        <ele>542.35</ele>
        <time>2016-07-16T13:56:20Z</time>
      </trkpt>
      <trkpt lat="46.04465" lon="3.53647">
        <ele>542.55</ele>
        <time>2016-07-16T13:56:30Z</time>
      </trkpt>
      <trkpt lat="46.04479" lon="3.53665">
        <ele>545.35</ele>
        <time>2016-07-16T13:56:39Z</time>
      </trkpt>
      <trkpt lat="46.04493" lon="3.53683">
        <ele>547.55</ele>
        <time>2016-07-16T13:56:48Z</time>
      </trkpt>
      <trkpt lat="46.04508" lon="3.53699">
        <ele>548.52</ele>
        <time>2016-07-16T13:56:56Z</time>
      </trkpt>
      <trkpt lat="46.04523" lon="3.53714">
        <ele>550.31</ele>
        <time>2016-07-16T13:57:04Z</time>
      </trkpt>
      <trkpt lat="46.04538" lon="3.53731">
        <ele>549.59</ele>
        <time>2016-07-16T13:57:11Z</time>
      </trkpt>
      <trkpt lat="46.04554" lon="3.53748">
        <ele>550.54</ele>
        <time>2016-07-16T13:57:18Z</time>
      </trkpt>
      <trkpt lat="46.04571" lon="3.53765">
        <ele>551.59</ele>
        <time>2016-07-16T13:57:25Z</time>
      </trkpt>
      <trkpt lat="46.04583" lon="3.53785">
        <ele>551.55</ele>
        <time>2016-07-16T13:57:31Z</time>
      </trkpt>
      <trkpt lat="46.04595" lon="3.53809">
        <ele>551.56</ele>
        <time>2016-07-16T13:57:38Z</time>
      </trkpt>
      <trkpt lat="46.04608" lon="3.53832">
        <ele>551.56</ele>
        <time>2016-07-16T13:57:45Z</time>
      </trkpt>
      <trkpt lat="46.0462" lon="3.53852">
        <ele>552.55</ele>
        <time>2016-07-16T13:57:51Z</time>
      </trkpt>
      <trkpt lat="46.04634" lon="3.53871">
        <ele>550.75</ele>
        <time>2016-07-16T13:57:58Z</time>
      </trkpt>
      <trkpt lat="46.04649" lon="3.53892">
        <ele>549.95</ele>
        <time>2016-07-16T13:58:05Z</time>
      </trkpt>
      <trkpt lat="46.04661" lon="3.53915">
        <ele>550.58</ele>
        <time>2016-07-16T13:58:12Z</time>
      </trkpt>
      <trkpt lat="46.0467" lon="3.53939">
        <ele>551.55</ele>
        <time>2016-07-16T13:58:19Z</time>
      </trkpt>
      <trkpt lat="46.04679" lon="3.53965">
        <ele>552.55</ele>
        <time>2016-07-16T13:58:26Z</time>
      </trkpt>
      <trkpt lat="46.04689" lon="3.53991">
        <ele>557.51</ele>
        <time>2016-07-16T13:58:34Z</time>
      </trkpt>
      <trkpt lat="46.04701" lon="3.54014">
        <ele>558.54</ele>
        <time>2016-07-16T13:58:41Z</time>
      </trkpt>
      <trkpt lat="46.04712" lon="3.54037">
        <ele>559.55</ele>
        <time>2016-07-16T13:58:48Z</time>
      </trkpt>
      <trkpt lat="46.04722" lon="3.54064">
        <ele>559.35</ele>
        <time>2016-07-16T13:58:55Z</time>
      </trkpt>
      <trkpt lat="46.04728" lon="3.54091">
        <ele>560.39</ele>
        <time>2016-07-16T13:59:02Z</time>
      </trkpt>
      <trkpt lat="46.04733" lon="3.54119">
        <ele>560.55</ele>
        <time>2016-07-16T13:59:09Z</time>
      </trkpt>
      <trkpt lat="46.04734" lon="3.54147">
        <ele>565.5</ele>
        <time>2016-07-16T13:59:17Z</time>
      </trkpt>
      <trkpt lat="46.04739" lon="3.54173">
        <ele>565.39</ele>
        <time>2016-07-16T13:59:24Z</time>
      </trkpt>
      <trkpt lat="46.04743" lon="3.542">
        <ele>573.34</ele>
        <time>2016-07-16T13:59:33Z</time>
      </trkpt>
      <trkpt lat="46.04749" lon="3.54227">
        <ele>570.56</ele>
        <time>2016-07-16T13:59:41Z</time>
      </trkpt>
      <trkpt lat="46.04755" lon="3.54251">
        <ele>572.74</ele>
        <time>2016-07-16T13:59:47Z</time>
      </trkpt>
      <trkpt lat="46.04761" lon="3.5428">
        <ele>569.6</ele>
        <time>2016-07-16T13:59:53Z</time>
      </trkpt>
      <trkpt lat="46.04763" lon="3.54306">
        <ele>569.59</ele>
        <time>2016-07-16T13:59:59Z</time>
      </trkpt>
      <trkpt lat="46.0477" lon="3.54335">
        <ele>569.71</ele>
        <time>2016-07-16T14:00:05Z</time>
      </trkpt>
      <trkpt lat="46.04783" lon="3.54358">
        <ele>570.55</ele>
        <time>2016-07-16T14:00:11Z</time>
      </trkpt>
      <trkpt lat="46.04798" lon="3.54378">
        <ele>570.36</ele>
        <time>2016-07-16T14:00:17Z</time>
      </trkpt>
      <trkpt lat="46.04812" lon="3.54398">
        <ele>572.51</ele>
        <time>2016-07-16T14:00:23Z</time>
      </trkpt>
      <trkpt lat="46.04825" lon="3.54421">
        <ele>572.55</ele>
        <time>2016-07-16T14:00:29Z</time>
      </trkpt>
      <trkpt lat="46.0484" lon="3.54439">
        <ele>571.55</ele>
        <time>2016-07-16T14:00:34Z</time>
      </trkpt>
      <trkpt lat="46.04857" lon="3.54458">
        <ele>570.75</ele>
        <time>2016-07-16T14:00:40Z</time>
      </trkpt>
      <trkpt lat="46.04872" lon="3.54476">
        <ele>569.55</ele>
        <time>2016-07-16T14:00:45Z</time>
      </trkpt>
      <trkpt lat="46.04887" lon="3.54498">
        <ele>569.55</ele>
        <time>2016-07-16T14:00:50Z</time>
      </trkpt>
      <trkpt lat="46.04903" lon="3.54518">
        <ele>568.75</ele>
        <time>2016-07-16T14:00:54Z</time>
      </trkpt>
      <trkpt lat="46.04915" lon="3.54538">
        <ele>568.55</ele>
        <time>2016-07-16T14:00:58Z</time>
      </trkpt>
      <trkpt lat="46.04931" lon="3.54555">
        <ele>567.75</ele>
        <time>2016-07-16T14:01:02Z</time>
      </trkpt>
      <trkpt lat="46.04948" lon="3.5457">
        <ele>568.55</ele>
        <time>2016-07-16T14:01:06Z</time>
      </trkpt>
      <trkpt lat="46.04965" lon="3.54589">
        <ele>568.55</ele>
        <time>2016-07-16T14:01:11Z</time>
      </trkpt>
      <trkpt lat="46.04979" lon="3.54605">
        <ele>572.35</ele>
        <time>2016-07-16T14:10:34Z</time>
      </trkpt>
      <trkpt lat="46.04998" lon="3.5461">
        <ele>569.79</ele>
        <time>2016-07-16T14:10:41Z</time>
      </trkpt>
      <trkpt lat="46.05018" lon="3.54617">
        <ele>569.71</ele>
        <time>2016-07-16T14:10:46Z</time>
      </trkpt>
      <trkpt lat="46.05038" lon="3.5462">
        <ele>570.71</ele>
        <time>2016-07-16T14:10:51Z</time>
      </trkpt>
      <trkpt lat="46.05057" lon="3.54624">
        <ele>570.75</ele>
        <time>2016-07-16T14:10:56Z</time>
      </trkpt>
      <trkpt lat="46.05077" lon="3.54629">
        <ele>566.8</ele>
        <time>2016-07-16T14:11:00Z</time>
      </trkpt>
      <trkpt lat="46.05099" lon="3.54634">
        <ele>564.6</ele>
        <time>2016-07-16T14:11:04Z</time>
      </trkpt>
      <trkpt lat="46.05118" lon="3.54644">
        <ele>565.51</ele>
        <time>2016-07-16T14:11:08Z</time>
      </trkpt>
      <trkpt lat="46.05136" lon="3.54655">
        <ele>565.58</ele>
        <time>2016-07-16T14:11:12Z</time>
      </trkpt>
      <trkpt lat="46.05156" lon="3.54666">
        <ele>564.56</ele>
        <time>2016-07-16T14:11:16Z</time>
      </trkpt>
      <trkpt lat="46.05173" lon="3.5468">
        <ele>562.56</ele>
        <time>2016-07-16T14:11:20Z</time>
      </trkpt>
      <trkpt lat="46.05192" lon="3.54696">
        <ele>560.56</ele>
        <time>2016-07-16T14:11:25Z</time>
      </trkpt>
      <trkpt lat="46.05213" lon="3.54707">
        <ele>559.55</ele>
        <time>2016-07-16T14:11:30Z</time>
      </trkpt>
      <trkpt lat="46.05234" lon="3.54713">
        <ele>556.8</ele>
        <time>2016-07-16T14:11:34Z</time>
      </trkpt>
      <trkpt lat="46.05258" lon="3.54717">
        <ele>554.76</ele>
        <time>2016-07-16T14:11:38Z</time>
      </trkpt>
      <trkpt lat="46.05275" lon="3.54721">
        <ele>553.59</ele>
        <time>2016-07-16T14:11:41Z</time>
      </trkpt>
      <trkpt lat="46.05295" lon="3.54725">
        <ele>551.63</ele>
        <time>2016-07-16T14:11:44Z</time>
      </trkpt>
      <trkpt lat="46.05317" lon="3.54732">
        <ele>549.6</ele>
        <time>2016-07-16T14:11:48Z</time>
      </trkpt>
      <trkpt lat="46.05335" lon="3.54741">
        <ele>547.92</ele>
        <time>2016-07-16T14:11:51Z</time>
      </trkpt>
      <trkpt lat="46.05353" lon="3.54749">
        <ele>546.6</ele>
        <time>2016-07-16T14:11:54Z</time>
      </trkpt>
      <trkpt lat="46.05371" lon="3.54757">
        <ele>545.59</ele>
        <time>2016-07-16T14:11:57Z</time>
      </trkpt>
      <trkpt lat="46.05394" lon="3.54761">
        <ele>543.79</ele>
        <time>2016-07-16T14:12:01Z</time>
      </trkpt>
      <trkpt lat="46.05416" lon="3.54769">
        <ele>539.83</ele>
        <time>2016-07-16T14:12:05Z</time>
      </trkpt>
      <trkpt lat="46.05437" lon="3.54774">
        <ele>537.76</ele>
        <time>2016-07-16T14:12:09Z</time>
      </trkpt>
      <trkpt lat="46.05457" lon="3.54767">
        <ele>534.03</ele>
        <time>2016-07-16T14:12:13Z</time>
      </trkpt>
      <trkpt lat="46.05477" lon="3.54765">
        <ele>531.96</ele>
        <time>2016-07-16T14:12:16Z</time>
      </trkpt>
      <trkpt lat="46.05498" lon="3.54767">
        <ele>527.81</ele>
        <time>2016-07-16T14:12:19Z</time>
      </trkpt>
      <trkpt lat="46.05518" lon="3.54768">
        <ele>525.76</ele>
        <time>2016-07-16T14:12:22Z</time>
      </trkpt>
      <trkpt lat="46.0554" lon="3.54771">
        <ele>523.6</ele>
        <time>2016-07-16T14:12:25Z</time>
      </trkpt>
      <trkpt lat="46.0556" lon="3.54773">
        <ele>519.2</ele>
        <time>2016-07-16T14:12:28Z</time>
      </trkpt>
      <trkpt lat="46.05583" lon="3.54777">
        <ele>515.65</ele>
        <time>2016-07-16T14:12:31Z</time>
      </trkpt>
      <trkpt lat="46.05607" lon="3.5478">
        <ele>512.8</ele>
        <time>2016-07-16T14:12:34Z</time>
      </trkpt>
      <trkpt lat="46.05632" lon="3.54782">
        <ele>511.6</ele>
        <time>2016-07-16T14:12:37Z</time>
      </trkpt>
      <trkpt lat="46.05654" lon="3.54782">
        <ele>510.59</ele>
        <time>2016-07-16T14:12:40Z</time>
      </trkpt>
      <trkpt lat="46.05675" lon="3.5478">
        <ele>507.99</ele>
        <time>2016-07-16T14:12:43Z</time>
      </trkpt>
      <trkpt lat="46.057" lon="3.54775">
        <ele>504.8</ele>
        <time>2016-07-16T14:12:47Z</time>
      </trkpt>
      <trkpt lat="46.0572" lon="3.54776">
        <ele>502.63</ele>
        <time>2016-07-16T14:12:50Z</time>
      </trkpt>
      <trkpt lat="46.05738" lon="3.54776">
        <ele>502.14</ele>
        <time>2016-07-16T14:12:53Z</time>
      </trkpt>
      <trkpt lat="46.05758" lon="3.54774">
        <ele>499.76</ele>
        <time>2016-07-16T14:12:57Z</time>
      </trkpt>
      <trkpt lat="46.05777" lon="3.54762">
        <ele>497.59</ele>
        <time>2016-07-16T14:13:01Z</time>
      </trkpt>
      <trkpt lat="46.05788" lon="3.54737">
        <ele>493.81</ele>
        <time>2016-07-16T14:13:05Z</time>
      </trkpt>
      <trkpt lat="46.0578" lon="3.54713">
        <ele>491.8</ele>
        <time>2016-07-16T14:13:08Z</time>
      </trkpt>
      <trkpt lat="46.05768" lon="3.54688">
        <ele>491.52</ele>
        <time>2016-07-16T14:13:11Z</time>
      </trkpt>
      <trkpt lat="46.0576" lon="3.54656">
        <ele>490.55</ele>
        <time>2016-07-16T14:13:15Z</time>
      </trkpt>
      <trkpt lat="46.05756" lon="3.54628">
        <ele>494.35</ele>
        <time>2016-07-16T14:13:22Z</time>
      </trkpt>
      <trkpt lat="46.05757" lon="3.54601">
        <ele>496.75</ele>
        <time>2016-07-16T14:13:29Z</time>
      </trkpt>
      <trkpt lat="46.05762" lon="3.54575">
        <ele>498.72</ele>
        <time>2016-07-16T14:13:36Z</time>
      </trkpt>
      <trkpt lat="46.05772" lon="3.54549">
        <ele>498.79</ele>
        <time>2016-07-16T14:13:42Z</time>
      </trkpt>
      <trkpt lat="46.05782" lon="3.54527">
        <ele>496.6</ele>
        <time>2016-07-16T14:13:46Z</time>
      </trkpt>
      <trkpt lat="46.05788" lon="3.54494">
        <ele>496.55</ele>
        <time>2016-07-16T14:13:50Z</time>
      </trkpt>
      <trkpt lat="46.05784" lon="3.54462">
        <ele>493.96</ele>
        <time>2016-07-16T14:13:53Z</time>
      </trkpt>
      <trkpt lat="46.05774" lon="3.54429">
        <ele>491.6</ele>
        <time>2016-07-16T14:13:56Z</time>
      </trkpt>
      <trkpt lat="46.05768" lon="3.54394">
        <ele>488.8</ele>
        <time>2016-07-16T14:13:59Z</time>
      </trkpt>
      <trkpt lat="46.05767" lon="3.54357">
        <ele>486.76</ele>
        <time>2016-07-16T14:14:02Z</time>
      </trkpt>
      <trkpt lat="46.05767" lon="3.54319">
        <ele>485.59</ele>
        <time>2016-07-16T14:14:05Z</time>
      </trkpt>
      <trkpt lat="46.05763" lon="3.54283">
        <ele>486.16</ele>
        <time>2016-07-16T14:14:08Z</time>
      </trkpt>
      <trkpt lat="46.0576" lon="3.5425">
        <ele>483.83</ele>
        <time>2016-07-16T14:14:11Z</time>
      </trkpt>
      <trkpt lat="46.05761" lon="3.54219">
        <ele>482.72</ele>
        <time>2016-07-16T14:14:14Z</time>
      </trkpt>
      <trkpt lat="46.05765" lon="3.54186">
        <ele>480.63</ele>
        <time>2016-07-16T14:14:18Z</time>
      </trkpt>
      <trkpt lat="46.05774" lon="3.54157">
        <ele>477.83</ele>
        <time>2016-07-16T14:14:22Z</time>
      </trkpt>
      <trkpt lat="46.05789" lon="3.5413">
        <ele>471.65</ele>
        <time>2016-07-16T14:14:26Z</time>
      </trkpt>
      <trkpt lat="46.05804" lon="3.54105">
        <ele>470.95</ele>
        <time>2016-07-16T14:14:30Z</time>
      </trkpt>
      <trkpt lat="46.05815" lon="3.54084">
        <ele>469.75</ele>
        <time>2016-07-16T14:14:37Z</time>
      </trkpt>
      <trkpt lat="46.05827" lon="3.54063">
        <ele>474.12</ele>
        <time>2016-07-16T14:14:50Z</time>
      </trkpt>
      <trkpt lat="46.05827" lon="3.54037">
        <ele>469.43</ele>
        <time>2016-07-16T14:15:05Z</time>
      </trkpt>
      <trkpt lat="46.05822" lon="3.54011">
        <ele>470.36</ele>
        <time>2016-07-16T14:15:20Z</time>
      </trkpt>
      <trkpt lat="46.05826" lon="3.53985">
        <ele>479.54</ele>
        <time>2016-07-16T14:15:41Z</time>
      </trkpt>
      <trkpt lat="46.05835" lon="3.53962">
        <ele>488.34</ele>
        <time>2016-07-16T14:15:55Z</time>
      </trkpt>
      <trkpt lat="46.05842" lon="3.53938">
        <ele>485.56</ele>
        <time>2016-07-16T14:16:08Z</time>
      </trkpt>
      <trkpt lat="46.05851" lon="3.53913">
        <ele>481.59</ele>
        <time>2016-07-16T14:16:20Z</time>
      </trkpt>
      <trkpt lat="46.05849" lon="3.53886">
        <ele>480.55</ele>
        <time>2016-07-16T14:16:32Z</time>
      </trkpt>
      <trkpt lat="46.05844" lon="3.53861">
        <ele>482.35</ele>
        <time>2016-07-16T14:16:44Z</time>
      </trkpt>
      <trkpt lat="46.05834" lon="3.53839">
        <ele>481.55</ele>
        <time>2016-07-16T14:16:58Z</time>
      </trkpt>
      <trkpt lat="46.05825" lon="3.53816">
        <ele>479.59</ele>
        <time>2016-07-16T14:17:11Z</time>
      </trkpt>
      <trkpt lat="46.05816" lon="3.53793">
        <ele>483.5</ele>
        <time>2016-07-16T14:17:27Z</time>
      </trkpt>
      <trkpt lat="46.05808" lon="3.53768">
        <ele>484.35</ele>
        <time>2016-07-16T14:17:41Z</time>
      </trkpt>
      <trkpt lat="46.05801" lon="3.53743">
        <ele>487.55</ele>
        <time>2016-07-16T14:17:57Z</time>
      </trkpt>
      <trkpt lat="46.05796" lon="3.53718">
        <ele>486.56</ele>
        <time>2016-07-16T14:18:12Z</time>
      </trkpt>
      <trkpt lat="46.05792" lon="3.53691">
        <ele>488.55</ele>
        <time>2016-07-16T14:18:28Z</time>
      </trkpt>
      <trkpt lat="46.05786" lon="3.53666">
        <ele>491.55</ele>
        <time>2016-07-16T14:18:41Z</time>
      </trkpt>
      <trkpt lat="46.0578" lon="3.5364">
        <ele>501.5</ele>
        <time>2016-07-16T14:19:14Z</time>
      </trkpt>
      <trkpt lat="46.05773" lon="3.53616">
        <ele>502.51</ele>
        <time>2016-07-16T14:19:28Z</time>
      </trkpt>
      <trkpt lat="46.05773" lon="3.5359">
        <ele>499.57</ele>
        <time>2016-07-16T14:19:42Z</time>
      </trkpt>
      <trkpt lat="46.05776" lon="3.53563">
        <ele>504.51</ele>
        <time>2016-07-16T14:20:00Z</time>
      </trkpt>
      <trkpt lat="46.05773" lon="3.53535">
        <ele>516.31</ele>
        <time>2016-07-16T14:20:19Z</time>
      </trkpt>
      <trkpt lat="46.0577" lon="3.53508">
        <ele>517.52</ele>
        <time>2016-07-16T14:20:31Z</time>
      </trkpt>
      <trkpt lat="46.05769" lon="3.53481">
        <ele>514.55</ele>
        <time>2016-07-16T14:20:41Z</time>
      </trkpt>
      <trkpt lat="46.05773" lon="3.53452">
        <ele>511.51</ele>
        <time>2016-07-16T14:20:52Z</time>
      </trkpt>
      <trkpt lat="46.05777" lon="3.53426">
        <ele>516.11</ele>
        <time>2016-07-16T14:21:03Z</time>
      </trkpt>
      <trkpt lat="46.05787" lon="3.534">
        <ele>514.62</ele>
        <time>2016-07-16T14:21:10Z</time>
      </trkpt>
      <trkpt lat="46.05796" lon="3.53373">
        <ele>511.83</ele>
        <time>2016-07-16T14:21:15Z</time>
      </trkpt>
      <trkpt lat="46.05805" lon="3.53349">
        <ele>513.75</ele>
        <time>2016-07-16T14:21:19Z</time>
      </trkpt>
      <trkpt lat="46.05813" lon="3.53321">
        <ele>514.55</ele>
        <time>2016-07-16T14:21:24Z</time>
      </trkpt>
      <trkpt lat="46.05824" lon="3.533">
        <ele>515.16</ele>
        <time>2016-07-16T14:21:31Z</time>
      </trkpt>
      <trkpt lat="46.05835" lon="3.53278">
        <ele>513.72</ele>
        <time>2016-07-16T14:21:36Z</time>
      </trkpt>
      <trkpt lat="46.05847" lon="3.53259">
        <ele>515.35</ele>
        <time>2016-07-16T14:21:41Z</time>
      </trkpt>
      <trkpt lat="46.05862" lon="3.53235">
        <ele>515.75</ele>
        <time>2016-07-16T14:21:47Z</time>
      </trkpt>
      <trkpt lat="46.05873" lon="3.5321">
        <ele>514.59</ele>
        <time>2016-07-16T14:21:52Z</time>
      </trkpt>
      <trkpt lat="46.0588" lon="3.53181">
        <ele>517.3</ele>
        <time>2016-07-16T14:21:57Z</time>
      </trkpt>
      <trkpt lat="46.05888" lon="3.53153">
        <ele>517.54</ele>
        <time>2016-07-16T14:22:02Z</time>
      </trkpt>
      <trkpt lat="46.059" lon="3.53132">
        <ele>518.71</ele>
        <time>2016-07-16T14:22:07Z</time>
      </trkpt>
      <trkpt lat="46.05914" lon="3.53112">
        <ele>518.56</ele>
        <time>2016-07-16T14:22:12Z</time>
      </trkpt>
      <trkpt lat="46.05932" lon="3.53096">
        <ele>517.75</ele>
        <time>2016-07-16T14:22:17Z</time>
      </trkpt>
      <trkpt lat="46.0595" lon="3.53092">
        <ele>516.79</ele>
        <time>2016-07-16T14:22:21Z</time>
      </trkpt>
      <trkpt lat="46.05968" lon="3.53091">
        <ele>517.55</ele>
        <time>2016-07-16T14:22:25Z</time>
      </trkpt>
      <trkpt lat="46.0599" lon="3.53086">
        <ele>516.76</ele>
        <time>2016-07-16T14:22:30Z</time>
      </trkpt>
      <trkpt lat="46.06008" lon="3.53073">
        <ele>519.7</ele>
        <time>2016-07-16T14:22:35Z</time>
      </trkpt>
      <trkpt lat="46.06022" lon="3.53047">
        <ele>519.55</ele>
        <time>2016-07-16T14:22:40Z</time>
      </trkpt>
      <trkpt lat="46.0604" lon="3.53027">
        <ele>519.74</ele>
        <time>2016-07-16T14:22:45Z</time>
      </trkpt>
      <trkpt lat="46.06056" lon="3.53011">
        <ele>519.55</ele>
        <time>2016-07-16T14:22:49Z</time>
      </trkpt>
      <trkpt lat="46.06074" lon="3.53">
        <ele>518.16</ele>
        <time>2016-07-16T14:22:54Z</time>
      </trkpt>
      <trkpt lat="46.06092" lon="3.52991">
        <ele>522.31</ele>
        <time>2016-07-16T14:22:59Z</time>
      </trkpt>
      <trkpt lat="46.06111" lon="3.52982">
        <ele>520.8</ele>
        <time>2016-07-16T14:23:04Z</time>
      </trkpt>
      <trkpt lat="46.06128" lon="3.52971">
        <ele>523.47</ele>
        <time>2016-07-16T14:23:09Z</time>
      </trkpt>
      <trkpt lat="46.06149" lon="3.52961">
        <ele>523.55</ele>
        <time>2016-07-16T14:23:14Z</time>
      </trkpt>
      <trkpt lat="46.06167" lon="3.52961">
        <ele>521.76</ele>
        <time>2016-07-16T14:23:17Z</time>
      </trkpt>
      <trkpt lat="46.06185" lon="3.52963">
        <ele>520.56</ele>
        <time>2016-07-16T14:23:20Z</time>
      </trkpt>
      <trkpt lat="46.06208" lon="3.52967">
        <ele>521.35</ele>
        <time>2016-07-16T14:23:24Z</time>
      </trkpt>
      <trkpt lat="46.06231" lon="3.52976">
        <ele>521.35</ele>
        <time>2016-07-16T14:23:28Z</time>
      </trkpt>
      <trkpt lat="46.06252" lon="3.52985">
        <ele>520.4</ele>
        <time>2016-07-16T14:23:32Z</time>
      </trkpt>
      <trkpt lat="46.06272" lon="3.52992">
        <ele>519.55</ele>
        <time>2016-07-16T14:23:36Z</time>
      </trkpt>
      <trkpt lat="46.0629" lon="3.53002">
        <ele>519.55</ele>
        <time>2016-07-16T14:23:40Z</time>
      </trkpt>
      <trkpt lat="46.0631" lon="3.53011">
        <ele>518.71</ele>
        <time>2016-07-16T14:23:44Z</time>
      </trkpt>
      <trkpt lat="46.0633" lon="3.53015">
        <ele>517.75</ele>
        <time>2016-07-16T14:23:49Z</time>
      </trkpt>
      <trkpt lat="46.06349" lon="3.53016">
        <ele>521.73</ele>
        <time>2016-07-16T14:23:54Z</time>
      </trkpt>
      <trkpt lat="46.06368" lon="3.53021">
        <ele>520.75</ele>
        <time>2016-07-16T14:23:59Z</time>
      </trkpt>
      <trkpt lat="46.06387" lon="3.53021">
        <ele>523.5</ele>
        <time>2016-07-16T14:24:03Z</time>
      </trkpt>
      <trkpt lat="46.06407" lon="3.53023">
        <ele>590.4</ele>
        <time>2016-07-16T14:24:07Z</time>
      </trkpt>
      <trkpt lat="46.06425" lon="3.53019">
        <ele>546.73</ele>
        <time>2016-07-16T14:24:11Z</time>
      </trkpt>
      <trkpt lat="46.0644" lon="3.53002">
        <ele>529.11</ele>
        <time>2016-07-16T14:24:15Z</time>
      </trkpt>
      <trkpt lat="46.06449" lon="3.52977">
        <ele>524.8</ele>
        <time>2016-07-16T14:24:19Z</time>
      </trkpt>
      <trkpt lat="46.0646" lon="3.52956">
        <ele>524.75</ele>
        <time>2016-07-16T14:24:23Z</time>
      </trkpt>
      <trkpt lat="46.06476" lon="3.52938">
        <ele>521.63</ele>
        <time>2016-07-16T14:24:28Z</time>
      </trkpt>
      <trkpt lat="46.06495" lon="3.52926">
        <ele>520.51</ele>
        <time>2016-07-16T14:24:33Z</time>
      </trkpt>
      <trkpt lat="46.06507" lon="3.52902">
        <ele>520.39</ele>
        <time>2016-07-16T14:24:38Z</time>
      </trkpt>
      <trkpt lat="46.06503" lon="3.5287">
        <ele>523.54</ele>
        <time>2016-07-16T14:24:43Z</time>
      </trkpt>
      <trkpt lat="46.065" lon="3.52844">
        <ele>522.55</ele>
        <time>2016-07-16T14:24:47Z</time>
      </trkpt>
      <trkpt lat="46.06494" lon="3.52816">
        <ele>522.52</ele>
        <time>2016-07-16T14:24:52Z</time>
      </trkpt>
      <trkpt lat="46.06486" lon="3.52788">
        <ele>523.55</ele>
        <time>2016-07-16T14:24:57Z</time>
      </trkpt>
      <trkpt lat="46.06478" lon="3.52762">
        <ele>525.34</ele>
        <time>2016-07-16T14:25:02Z</time>
      </trkpt>
      <trkpt lat="46.06469" lon="3.52737">
        <ele>524.63</ele>
        <time>2016-07-16T14:25:07Z</time>
      </trkpt>
      <trkpt lat="46.06458" lon="3.52715">
        <ele>523.59</ele>
        <time>2016-07-16T14:25:11Z</time>
      </trkpt>
      <trkpt lat="46.06439" lon="3.52702">
        <ele>525.36</ele>
        <time>2016-07-16T14:25:15Z</time>
      </trkpt>
      <trkpt lat="46.06429" lon="3.52675">
        <ele>525.36</ele>
        <time>2016-07-16T14:25:19Z</time>
      </trkpt>
      <trkpt lat="46.06421" lon="3.52644">
        <ele>527.48</ele>
        <time>2016-07-16T14:25:25Z</time>
      </trkpt>
      <trkpt lat="46.06416" lon="3.52614">
        <ele>526.55</ele>
        <time>2016-07-16T14:25:29Z</time>
      </trkpt>
      <trkpt lat="46.06414" lon="3.52582">
        <ele>521.85</ele>
        <time>2016-07-16T14:25:32Z</time>
      </trkpt>
      <trkpt lat="46.0641" lon="3.52547">
        <ele>520.79</ele>
        <time>2016-07-16T14:25:35Z</time>
      </trkpt>
      <trkpt lat="46.06403" lon="3.52522">
        <ele>518.8</ele>
        <time>2016-07-16T14:25:37Z</time>
      </trkpt>
      <trkpt lat="46.06393" lon="3.52498">
        <ele>517.6</ele>
        <time>2016-07-16T14:25:39Z</time>
      </trkpt>
      <trkpt lat="46.06384" lon="3.52471">
        <ele>515.79</ele>
        <time>2016-07-16T14:25:41Z</time>
      </trkpt>
      <trkpt lat="46.06375" lon="3.52447">
        <ele>514.76</ele>
        <time>2016-07-16T14:25:43Z</time>
      </trkpt>
      <trkpt lat="46.06363" lon="3.52424">
        <ele>512.8</ele>
        <time>2016-07-16T14:25:45Z</time>
      </trkpt>
      <trkpt lat="46.06351" lon="3.52403">
        <ele>512.56</ele>
        <time>2016-07-16T14:25:47Z</time>
      </trkpt>
      <trkpt lat="46.06341" lon="3.52378">
        <ele>511.59</ele>
        <time>2016-07-16T14:25:49Z</time>
      </trkpt>
      <trkpt lat="46.0633" lon="3.52353">
        <ele>508.99</ele>
        <time>2016-07-16T14:25:51Z</time>
      </trkpt>
      <trkpt lat="46.06317" lon="3.52322">
        <ele>505.05</ele>
        <time>2016-07-16T14:25:53Z</time>
      </trkpt>
      <trkpt lat="46.06307" lon="3.52292">
        <ele>502.17</ele>
        <time>2016-07-16T14:25:55Z</time>
      </trkpt>
      <trkpt lat="46.06294" lon="3.5226">
        <ele>497.9</ele>
        <time>2016-07-16T14:25:57Z</time>
      </trkpt>
      <trkpt lat="46.0628" lon="3.52229">
        <ele>497.73</ele>
        <time>2016-07-16T14:25:59Z</time>
      </trkpt>
      <trkpt lat="46.06268" lon="3.52197">
        <ele>496.76</ele>
        <time>2016-07-16T14:26:01Z</time>
      </trkpt>
      <trkpt lat="46.06257" lon="3.52161">
        <ele>494.64</ele>
        <time>2016-07-16T14:26:03Z</time>
      </trkpt>
      <trkpt lat="46.06251" lon="3.52124">
        <ele>494.56</ele>
        <time>2016-07-16T14:26:05Z</time>
      </trkpt>
      <trkpt lat="46.06251" lon="3.52084">
        <ele>490.07</ele>
        <time>2016-07-16T14:26:07Z</time>
      </trkpt>
      <trkpt lat="46.06252" lon="3.52047">
        <ele>488.61</ele>
        <time>2016-07-16T14:26:09Z</time>
      </trkpt>
      <trkpt lat="46.06253" lon="3.52007">
        <ele>486</ele>
        <time>2016-07-16T14:26:11Z</time>
      </trkpt>
      <trkpt lat="46.06254" lon="3.51968">
        <ele>483.81</ele>
        <time>2016-07-16T14:26:13Z</time>
      </trkpt>
      <trkpt lat="46.06256" lon="3.51928">
        <ele>478.44</ele>
        <time>2016-07-16T14:26:15Z</time>
      </trkpt>
      <trkpt lat="46.06258" lon="3.51897">
        <ele>474.87</ele>
        <time>2016-07-16T14:26:17Z</time>
      </trkpt>
      <trkpt lat="46.0626" lon="3.51863">
        <ele>471.77</ele>
        <time>2016-07-16T14:26:20Z</time>
      </trkpt>
      <trkpt lat="46.06276" lon="3.51844">
        <ele>470.79</ele>
        <time>2016-07-16T14:26:24Z</time>
      </trkpt>
      <trkpt lat="46.06287" lon="3.51824">
        <ele>473.1</ele>
        <time>2016-07-16T14:26:35Z</time>
      </trkpt>
      <trkpt lat="46.0629" lon="3.51799">
        <ele>485.73</ele>
        <time>2016-07-16T14:26:53Z</time>
      </trkpt>
      <trkpt lat="46.06291" lon="3.51772">
        <ele>496.51</ele>
        <time>2016-07-16T14:27:11Z</time>
      </trkpt>
      <trkpt lat="46.06292" lon="3.51744">
        <ele>496.16</ele>
        <time>2016-07-16T14:27:25Z</time>
      </trkpt>
      <trkpt lat="46.0629" lon="3.51718">
        <ele>488.44</ele>
        <time>2016-07-16T14:27:36Z</time>
      </trkpt>
      <trkpt lat="46.06283" lon="3.51693">
        <ele>487.15</ele>
        <time>2016-07-16T14:27:51Z</time>
      </trkpt>
      <trkpt lat="46.06279" lon="3.51668">
        <ele>488.59</ele>
        <time>2016-07-16T14:28:08Z</time>
      </trkpt>
      <trkpt lat="46.06278" lon="3.51642">
        <ele>494.58</ele>
        <time>2016-07-16T14:28:23Z</time>
      </trkpt>
      <trkpt lat="46.06275" lon="3.51615">
        <ele>497.39</ele>
        <time>2016-07-16T14:28:36Z</time>
      </trkpt>
      <trkpt lat="46.06272" lon="3.51588">
        <ele>493.95</ele>
        <time>2016-07-16T14:28:50Z</time>
      </trkpt>
      <trkpt lat="46.0627" lon="3.51562">
        <ele>495.99</ele>
        <time>2016-07-16T14:29:06Z</time>
      </trkpt>
      <trkpt lat="46.06264" lon="3.51537">
        <ele>495.35</ele>
        <time>2016-07-16T14:29:18Z</time>
      </trkpt>
      <trkpt lat="46.06262" lon="3.5151">
        <ele>501.32</ele>
        <time>2016-07-16T14:29:30Z</time>
      </trkpt>
      <trkpt lat="46.06262" lon="3.51484">
        <ele>504.75</ele>
        <time>2016-07-16T14:29:40Z</time>
      </trkpt>
      <trkpt lat="46.06263" lon="3.51456">
        <ele>514.47</ele>
        <time>2016-07-16T14:29:50Z</time>
      </trkpt>
      <trkpt lat="46.06262" lon="3.5143">
        <ele>511.01</ele>
        <time>2016-07-16T14:30:00Z</time>
      </trkpt>
      <trkpt lat="46.06265" lon="3.51401">
        <ele>513.54</ele>
        <time>2016-07-16T14:30:18Z</time>
      </trkpt>
      <trkpt lat="46.06267" lon="3.51371">
        <ele>510.56</ele>
        <time>2016-07-16T14:30:24Z</time>
      </trkpt>
      <trkpt lat="46.06269" lon="3.51343">
        <ele>511.39</ele>
        <time>2016-07-16T14:30:29Z</time>
      </trkpt>
      <trkpt lat="46.06266" lon="3.51315">
        <ele>510.71</ele>
        <time>2016-07-16T14:30:34Z</time>
      </trkpt>
      <trkpt lat="46.06266" lon="3.51289">
        <ele>510.55</ele>
        <time>2016-07-16T14:30:40Z</time>
      </trkpt>
      <trkpt lat="46.06265" lon="3.51257">
        <ele>509.75</ele>
        <time>2016-07-16T14:30:47Z</time>
      </trkpt>
      <trkpt lat="46.06269" lon="3.51223">
        <ele>507.59</ele>
        <time>2016-07-16T14:30:51Z</time>
      </trkpt>
      <trkpt lat="46.06268" lon="3.51196">
        <ele>506.56</ele>
        <time>2016-07-16T14:30:54Z</time>
      </trkpt>
      <trkpt lat="46.06265" lon="3.51168">
        <ele>506.55</ele>
        <time>2016-07-16T14:30:58Z</time>
      </trkpt>
      <trkpt lat="46.06265" lon="3.51141">
        <ele>507.51</ele>
        <time>2016-07-16T14:31:06Z</time>
      </trkpt>
      <trkpt lat="46.06273" lon="3.51117">
        <ele>507.55</ele>
        <time>2016-07-16T14:31:15Z</time>
      </trkpt>
      <trkpt lat="46.06284" lon="3.51093">
        <ele>509.35</ele>
        <time>2016-07-16T14:31:24Z</time>
      </trkpt>
      <trkpt lat="46.06296" lon="3.5107">
        <ele>511.55</ele>
        <time>2016-07-16T14:31:33Z</time>
      </trkpt>
      <trkpt lat="46.06311" lon="3.51056">
        <ele>512.55</ele>
        <time>2016-07-16T14:31:41Z</time>
      </trkpt>
      <trkpt lat="46.06328" lon="3.51043">
        <ele>513.54</ele>
        <time>2016-07-16T14:31:49Z</time>
      </trkpt>
      <trkpt lat="46.06344" lon="3.51031">
        <ele>515.35</ele>
        <time>2016-07-16T14:31:57Z</time>
      </trkpt>
      <trkpt lat="46.0636" lon="3.51016">
        <ele>515.55</ele>
        <time>2016-07-16T14:32:05Z</time>
      </trkpt>
      <trkpt lat="46.06376" lon="3.50999">
        <ele>515.55</ele>
        <time>2016-07-16T14:32:13Z</time>
      </trkpt>
      <trkpt lat="46.06392" lon="3.50983">
        <ele>515.52</ele>
        <time>2016-07-16T14:32:20Z</time>
      </trkpt>
      <trkpt lat="46.06408" lon="3.50966">
        <ele>517.56</ele>
        <time>2016-07-16T14:32:27Z</time>
      </trkpt>
      <trkpt lat="46.06429" lon="3.50963">
        <ele>515.77</ele>
        <time>2016-07-16T14:32:32Z</time>
      </trkpt>
      <trkpt lat="46.06449" lon="3.50957">
        <ele>510.98</ele>
        <time>2016-07-16T14:32:36Z</time>
      </trkpt>
      <trkpt lat="46.06468" lon="3.50966">
        <ele>507.64</ele>
        <time>2016-07-16T14:32:39Z</time>
      </trkpt>
      <trkpt lat="46.06487" lon="3.5099">
        <ele>503.87</ele>
        <time>2016-07-16T14:32:43Z</time>
      </trkpt>
      <trkpt lat="46.065" lon="3.51016">
        <ele>503.78</ele>
        <time>2016-07-16T14:32:46Z</time>
      </trkpt>
      <trkpt lat="46.06515" lon="3.51041">
        <ele>498.66</ele>
        <time>2016-07-16T14:32:49Z</time>
      </trkpt>
      <trkpt lat="46.0653" lon="3.51067">
        <ele>495</ele>
        <time>2016-07-16T14:32:52Z</time>
      </trkpt>
      <trkpt lat="46.06545" lon="3.51095">
        <ele>493.76</ele>
        <time>2016-07-16T14:32:55Z</time>
      </trkpt>
      <trkpt lat="46.0656" lon="3.51125">
        <ele>491.51</ele>
        <time>2016-07-16T14:32:58Z</time>
      </trkpt>
      <trkpt lat="46.06573" lon="3.51153">
        <ele>490.75</ele>
        <time>2016-07-16T14:33:01Z</time>
      </trkpt>
      <trkpt lat="46.0659" lon="3.51174">
        <ele>489.63</ele>
        <time>2016-07-16T14:33:04Z</time>
      </trkpt>
      <trkpt lat="46.06601" lon="3.51195">
        <ele>488.92</ele>
        <time>2016-07-16T14:33:06Z</time>
      </trkpt>
      <trkpt lat="46.06615" lon="3.51222">
        <ele>488.36</ele>
        <time>2016-07-16T14:33:09Z</time>
      </trkpt>
      <trkpt lat="46.06627" lon="3.51249">
        <ele>486.92</ele>
        <time>2016-07-16T14:33:12Z</time>
      </trkpt>
      <trkpt lat="46.06639" lon="3.51271">
        <ele>487.53</ele>
        <time>2016-07-16T14:33:14Z</time>
      </trkpt>
      <trkpt lat="46.06648" lon="3.51294">
        <ele>483.71</ele>
        <time>2016-07-16T14:33:16Z</time>
      </trkpt>
      <trkpt lat="46.06664" lon="3.51314">
        <ele>480.8</ele>
        <time>2016-07-16T14:33:19Z</time>
      </trkpt>
      <trkpt lat="46.06679" lon="3.51344">
        <ele>475.08</ele>
        <time>2016-07-16T14:33:22Z</time>
      </trkpt>
      <trkpt lat="46.06692" lon="3.51375">
        <ele>472.61</ele>
        <time>2016-07-16T14:33:25Z</time>
      </trkpt>
      <trkpt lat="46.06704" lon="3.51407">
        <ele>467.02</ele>
        <time>2016-07-16T14:33:28Z</time>
      </trkpt>
      <trkpt lat="46.06718" lon="3.51433">
        <ele>464.76</ele>
        <time>2016-07-16T14:33:31Z</time>
      </trkpt>
      <trkpt lat="46.06735" lon="3.5146">
        <ele>463.79</ele>
        <time>2016-07-16T14:33:34Z</time>
      </trkpt>
      <trkpt lat="46.0675" lon="3.51483">
        <ele>461.6</ele>
        <time>2016-07-16T14:33:37Z</time>
      </trkpt>
      <trkpt lat="46.06767" lon="3.51507">
        <ele>462.16</ele>
        <time>2016-07-16T14:33:40Z</time>
      </trkpt>
      <trkpt lat="46.06785" lon="3.51535">
        <ele>460.82</ele>
        <time>2016-07-16T14:33:43Z</time>
      </trkpt>
      <trkpt lat="46.06801" lon="3.51556">
        <ele>456.84</ele>
        <time>2016-07-16T14:33:46Z</time>
      </trkpt>
      <trkpt lat="46.06824" lon="3.51557">
        <ele>461.46</ele>
        <time>2016-07-16T14:33:50Z</time>
      </trkpt>
      <trkpt lat="46.06846" lon="3.5155">
        <ele>461.39</ele>
        <time>2016-07-16T14:33:54Z</time>
      </trkpt>
      <trkpt lat="46.06866" lon="3.5155">
        <ele>462.12</ele>
        <time>2016-07-16T14:33:58Z</time>
      </trkpt>
      <trkpt lat="46.06884" lon="3.51553">
        <ele>466.53</ele>
        <time>2016-07-16T14:34:02Z</time>
      </trkpt>
      <trkpt lat="46.06903" lon="3.51556">
        <ele>469.47</ele>
        <time>2016-07-16T14:34:06Z</time>
      </trkpt>
      <trkpt lat="46.06923" lon="3.51558">
        <ele>465.05</ele>
        <time>2016-07-16T14:34:11Z</time>
      </trkpt>
      <trkpt lat="46.06944" lon="3.51557">
        <ele>470.45</ele>
        <time>2016-07-16T14:34:16Z</time>
      </trkpt>
      <trkpt lat="46.06965" lon="3.51562">
        <ele>466.99</ele>
        <time>2016-07-16T14:34:20Z</time>
      </trkpt>
      <trkpt lat="46.06983" lon="3.51564">
        <ele>466.35</ele>
        <time>2016-07-16T14:34:24Z</time>
      </trkpt>
      <trkpt lat="46.07003" lon="3.5157">
        <ele>460.89</ele>
        <time>2016-07-16T14:34:28Z</time>
      </trkpt>
      <trkpt lat="46.07022" lon="3.51575">
        <ele>459.82</ele>
        <time>2016-07-16T14:34:31Z</time>
      </trkpt>
      <trkpt lat="46.07042" lon="3.51586">
        <ele>457.6</ele>
        <time>2016-07-16T14:34:34Z</time>
      </trkpt>
      <trkpt lat="46.07063" lon="3.51601">
        <ele>454.9</ele>
        <time>2016-07-16T14:34:37Z</time>
      </trkpt>
      <trkpt lat="46.07082" lon="3.51612">
        <ele>453.63</ele>
        <time>2016-07-16T14:34:40Z</time>
      </trkpt>
      <trkpt lat="46.07101" lon="3.51629">
        <ele>452.79</ele>
        <time>2016-07-16T14:34:43Z</time>
      </trkpt>
      <trkpt lat="46.07115" lon="3.51656">
        <ele>451.56</ele>
        <time>2016-07-16T14:34:46Z</time>
      </trkpt>
      <trkpt lat="46.07131" lon="3.51683">
        <ele>448.8</ele>
        <time>2016-07-16T14:34:49Z</time>
      </trkpt>
      <trkpt lat="46.07137" lon="3.51708">
        <ele>445.99</ele>
        <time>2016-07-16T14:34:52Z</time>
      </trkpt>
      <trkpt lat="46.07134" lon="3.51743">
        <ele>440.36</ele>
        <time>2016-07-16T14:34:56Z</time>
      </trkpt>
      <trkpt lat="46.07124" lon="3.51773">
        <ele>437.8</ele>
        <time>2016-07-16T14:35:00Z</time>
      </trkpt>
      <trkpt lat="46.07121" lon="3.51803">
        <ele>432.08</ele>
        <time>2016-07-16T14:35:03Z</time>
      </trkpt>
      <trkpt lat="46.07121" lon="3.5183">
        <ele>429.77</ele>
        <time>2016-07-16T14:35:06Z</time>
      </trkpt>
      <trkpt lat="46.07136" lon="3.51846">
        <ele>433.54</ele>
        <time>2016-07-16T14:35:11Z</time>
      </trkpt>
      <trkpt lat="46.07149" lon="3.51828">
        <ele>432.51</ele>
        <time>2016-07-16T14:35:22Z</time>
      </trkpt>
      <trkpt lat="46.07157" lon="3.51804">
        <ele>434.35</ele>
        <time>2016-07-16T14:35:35Z</time>
      </trkpt>
      <trkpt lat="46.07172" lon="3.51787">
        <ele>439.36</ele>
        <time>2016-07-16T14:35:51Z</time>
      </trkpt>
      <trkpt lat="46.07189" lon="3.51773">
        <ele>441.55</ele>
        <time>2016-07-16T14:36:05Z</time>
      </trkpt>
      <trkpt lat="46.07205" lon="3.51759">
        <ele>443.54</ele>
        <time>2016-07-16T14:36:17Z</time>
      </trkpt>
      <trkpt lat="46.07222" lon="3.51751">
        <ele>452.24</ele>
        <time>2016-07-16T14:36:29Z</time>
      </trkpt>
      <trkpt lat="46.0724" lon="3.5174">
        <ele>454.76</ele>
        <time>2016-07-16T14:36:41Z</time>
      </trkpt>
      <trkpt lat="46.07257" lon="3.51726">
        <ele>456.47</ele>
        <time>2016-07-16T14:36:53Z</time>
      </trkpt>
      <trkpt lat="46.07274" lon="3.51715">
        <ele>451.55</ele>
        <time>2016-07-16T14:37:04Z</time>
      </trkpt>
      <trkpt lat="46.07292" lon="3.51711">
        <ele>451.52</ele>
        <time>2016-07-16T14:37:17Z</time>
      </trkpt>
      <trkpt lat="46.0731" lon="3.51716">
        <ele>452.75</ele>
        <time>2016-07-16T14:37:30Z</time>
      </trkpt>
      <trkpt lat="46.07328" lon="3.51722">
        <ele>457.35</ele>
        <time>2016-07-16T14:37:46Z</time>
      </trkpt>
      <trkpt lat="46.07344" lon="3.51733">
        <ele>459.59</ele>
        <time>2016-07-16T14:38:24Z</time>
      </trkpt>
      <trkpt lat="46.07363" lon="3.51736">
        <ele>459.59</ele>
        <time>2016-07-16T14:38:40Z</time>
      </trkpt>
      <trkpt lat="46.07379" lon="3.51748">
        <ele>462.75</ele>
        <time>2016-07-16T14:38:56Z</time>
      </trkpt>
      <trkpt lat="46.07393" lon="3.51765">
        <ele>465.54</ele>
        <time>2016-07-16T14:39:12Z</time>
      </trkpt>
      <trkpt lat="46.07408" lon="3.51783">
        <ele>468.34</ele>
        <time>2016-07-16T14:39:26Z</time>
      </trkpt>
      <trkpt lat="46.07421" lon="3.51802">
        <ele>470.39</ele>
        <time>2016-07-16T14:39:41Z</time>
      </trkpt>
      <trkpt lat="46.07431" lon="3.51824">
        <ele>474.51</ele>
        <time>2016-07-16T14:39:56Z</time>
      </trkpt>
      <trkpt lat="46.07439" lon="3.51848">
        <ele>476.72</ele>
        <time>2016-07-16T14:40:17Z</time>
      </trkpt>
      <trkpt lat="46.07445" lon="3.51873">
        <ele>483.51</ele>
        <time>2016-07-16T14:40:33Z</time>
      </trkpt>
      <trkpt lat="46.07454" lon="3.51897">
        <ele>488.35</ele>
        <time>2016-07-16T14:40:51Z</time>
      </trkpt>
      <trkpt lat="46.07461" lon="3.51922">
        <ele>485.39</ele>
        <time>2016-07-16T14:41:06Z</time>
      </trkpt>
      <trkpt lat="46.07468" lon="3.51946">
        <ele>489.55</ele>
        <time>2016-07-16T14:41:21Z</time>
      </trkpt>
      <trkpt lat="46.07477" lon="3.5197">
        <ele>491.75</ele>
        <time>2016-07-16T14:41:35Z</time>
      </trkpt>
      <trkpt lat="46.07491" lon="3.51989">
        <ele>493.59</ele>
        <time>2016-07-16T14:42:01Z</time>
      </trkpt>
      <trkpt lat="46.07508" lon="3.51997">
        <ele>495.54</ele>
        <time>2016-07-16T14:42:15Z</time>
      </trkpt>
      <trkpt lat="46.07527" lon="3.51998">
        <ele>499.51</ele>
        <time>2016-07-16T14:42:29Z</time>
      </trkpt>
      <trkpt lat="46.07546" lon="3.51997">
        <ele>500.51</ele>
        <time>2016-07-16T14:42:44Z</time>
      </trkpt>
      <trkpt lat="46.07565" lon="3.51997">
        <ele>500.31</ele>
        <time>2016-07-16T14:43:01Z</time>
      </trkpt>
      <trkpt lat="46.07583" lon="3.51995">
        <ele>502.55</ele>
        <time>2016-07-16T14:43:13Z</time>
      </trkpt>
      <trkpt lat="46.07601" lon="3.51994">
        <ele>501.59</ele>
        <time>2016-07-16T14:43:25Z</time>
      </trkpt>
      <trkpt lat="46.07619" lon="3.5199">
        <ele>503.71</ele>
        <time>2016-07-16T14:43:37Z</time>
      </trkpt>
      <trkpt lat="46.07637" lon="3.51991">
        <ele>506.28</ele>
        <time>2016-07-16T14:43:50Z</time>
      </trkpt>
      <trkpt lat="46.07656" lon="3.51987">
        <ele>505.35</ele>
        <time>2016-07-16T14:44:01Z</time>
      </trkpt>
      <trkpt lat="46.07674" lon="3.5199">
        <ele>512.3</ele>
        <time>2016-07-16T14:44:11Z</time>
      </trkpt>
      <trkpt lat="46.07692" lon="3.51984">
        <ele>517.35</ele>
        <time>2016-07-16T14:44:21Z</time>
      </trkpt>
      <trkpt lat="46.07711" lon="3.51984">
        <ele>518.75</ele>
        <time>2016-07-16T14:44:31Z</time>
      </trkpt>
      <trkpt lat="46.0773" lon="3.51985">
        <ele>519.75</ele>
        <time>2016-07-16T14:44:42Z</time>
      </trkpt>
      <trkpt lat="46.0775" lon="3.51984">
        <ele>524.5</ele>
        <time>2016-07-16T14:44:54Z</time>
      </trkpt>
      <trkpt lat="46.07768" lon="3.51982">
        <ele>526.54</ele>
        <time>2016-07-16T14:45:04Z</time>
      </trkpt>
      <trkpt lat="46.07788" lon="3.51981">
        <ele>522.76</ele>
        <time>2016-07-16T14:45:13Z</time>
      </trkpt>
      <trkpt lat="46.07808" lon="3.51982">
        <ele>523.51</ele>
        <time>2016-07-16T14:45:22Z</time>
      </trkpt>
      <trkpt lat="46.07827" lon="3.51983">
        <ele>518.76</ele>
        <time>2016-07-16T14:45:30Z</time>
      </trkpt>
      <trkpt lat="46.07846" lon="3.51988">
        <ele>517.2</ele>
        <time>2016-07-16T14:45:36Z</time>
      </trkpt>
      <trkpt lat="46.07864" lon="3.51987">
        <ele>519.55</ele>
        <time>2016-07-16T14:45:42Z</time>
      </trkpt>
      <trkpt lat="46.07882" lon="3.51989">
        <ele>518.55</ele>
        <time>2016-07-16T14:45:47Z</time>
      </trkpt>
      <trkpt lat="46.07903" lon="3.51991">
        <ele>519.54</ele>
        <time>2016-07-16T14:45:53Z</time>
      </trkpt>
      <trkpt lat="46.07923" lon="3.51994">
        <ele>520.56</ele>
        <time>2016-07-16T14:45:59Z</time>
      </trkpt>
      <trkpt lat="46.07944" lon="3.51996">
        <ele>518.59</ele>
        <time>2016-07-16T14:46:05Z</time>
      </trkpt>
      <trkpt lat="46.07962" lon="3.51995">
        <ele>516.76</ele>
        <time>2016-07-16T14:46:10Z</time>
      </trkpt>
      <trkpt lat="46.0798" lon="3.52001">
        <ele>517.51</ele>
        <time>2016-07-16T14:46:15Z</time>
      </trkpt>
      <trkpt lat="46.07997" lon="3.5201">
        <ele>516.31</ele>
        <time>2016-07-16T14:46:22Z</time>
      </trkpt>
      <trkpt lat="46.08017" lon="3.52007">
        <ele>519.51</ele>
        <time>2016-07-16T14:46:29Z</time>
      </trkpt>
      <trkpt lat="46.08038" lon="3.52003">
        <ele>520.35</ele>
        <time>2016-07-16T14:46:36Z</time>
      </trkpt>
      <trkpt lat="46.08058" lon="3.52006">
        <ele>522.54</ele>
        <time>2016-07-16T14:46:42Z</time>
      </trkpt>
      <trkpt lat="46.08079" lon="3.5201">
        <ele>522.75</ele>
        <time>2016-07-16T14:46:48Z</time>
      </trkpt>
      <trkpt lat="46.08098" lon="3.52011">
        <ele>524.35</ele>
        <time>2016-07-16T14:46:54Z</time>
      </trkpt>
      <trkpt lat="46.08119" lon="3.52009">
        <ele>523.59</ele>
        <time>2016-07-16T14:47:00Z</time>
      </trkpt>
      <trkpt lat="46.08139" lon="3.52">
        <ele>525.74</ele>
        <time>2016-07-16T14:47:07Z</time>
      </trkpt>
      <trkpt lat="46.08159" lon="3.51991">
        <ele>525.36</ele>
        <time>2016-07-16T14:47:13Z</time>
      </trkpt>
      <trkpt lat="46.08177" lon="3.5198">
        <ele>524.55</ele>
        <time>2016-07-16T14:47:18Z</time>
      </trkpt>
      <trkpt lat="46.08193" lon="3.51968">
        <ele>525.55</ele>
        <time>2016-07-16T14:47:23Z</time>
      </trkpt>
      <trkpt lat="46.08212" lon="3.51958">
        <ele>523.39</ele>
        <time>2016-07-16T14:47:28Z</time>
      </trkpt>
      <trkpt lat="46.08233" lon="3.51951">
        <ele>526.35</ele>
        <time>2016-07-16T14:47:34Z</time>
      </trkpt>
      <trkpt lat="46.08252" lon="3.51937">
        <ele>524.75</ele>
        <time>2016-07-16T14:47:40Z</time>
      </trkpt>
      <trkpt lat="46.0827" lon="3.5192">
        <ele>524.59</ele>
        <time>2016-07-16T14:47:45Z</time>
      </trkpt>
      <trkpt lat="46.08286" lon="3.51905">
        <ele>522.6</ele>
        <time>2016-07-16T14:47:49Z</time>
      </trkpt>
      <trkpt lat="46.08301" lon="3.51891">
        <ele>521.4</ele>
        <time>2016-07-16T14:47:53Z</time>
      </trkpt>
      <trkpt lat="46.08318" lon="3.51869">
        <ele>517.8</ele>
        <time>2016-07-16T14:47:58Z</time>
      </trkpt>
      <trkpt lat="46.08331" lon="3.51851">
        <ele>516.72</ele>
        <time>2016-07-16T14:48:02Z</time>
      </trkpt>
      <trkpt lat="46.08346" lon="3.51831">
        <ele>514.79</ele>
        <time>2016-07-16T14:48:06Z</time>
      </trkpt>
      <trkpt lat="46.08361" lon="3.5181">
        <ele>512.6</ele>
        <time>2016-07-16T14:48:10Z</time>
      </trkpt>
      <trkpt lat="46.08379" lon="3.51787">
        <ele>510.56</ele>
        <time>2016-07-16T14:48:14Z</time>
      </trkpt>
      <trkpt lat="46.08396" lon="3.51762">
        <ele>508.56</ele>
        <time>2016-07-16T14:48:18Z</time>
      </trkpt>
      <trkpt lat="46.0841" lon="3.51744">
        <ele>507.75</ele>
        <time>2016-07-16T14:48:21Z</time>
      </trkpt>
      <trkpt lat="46.08423" lon="3.51726">
        <ele>508.39</ele>
        <time>2016-07-16T14:48:24Z</time>
      </trkpt>
      <trkpt lat="46.08437" lon="3.51708">
        <ele>507.56</ele>
        <time>2016-07-16T14:48:27Z</time>
      </trkpt>
      <trkpt lat="46.08454" lon="3.51686">
        <ele>508.51</ele>
        <time>2016-07-16T14:48:31Z</time>
      </trkpt>
      <trkpt lat="46.08471" lon="3.51665">
        <ele>509.55</ele>
        <time>2016-07-16T14:48:35Z</time>
      </trkpt>
      <trkpt lat="46.08487" lon="3.51645">
        <ele>512.14</ele>
        <time>2016-07-16T14:48:39Z</time>
      </trkpt>
      <trkpt lat="46.08501" lon="3.51625">
        <ele>511.59</ele>
        <time>2016-07-16T14:48:43Z</time>
      </trkpt>
      <trkpt lat="46.08518" lon="3.51605">
        <ele>514.5</ele>
        <time>2016-07-16T14:48:47Z</time>
      </trkpt>
      <trkpt lat="46.08534" lon="3.51582">
        <ele>511.96</ele>
        <time>2016-07-16T14:48:51Z</time>
      </trkpt>
      <trkpt lat="46.08548" lon="3.51561">
        <ele>511.4</ele>
        <time>2016-07-16T14:48:55Z</time>
      </trkpt>
      <trkpt lat="46.08564" lon="3.51539">
        <ele>515.1</ele>
        <time>2016-07-16T14:48:58Z</time>
      </trkpt>
      <trkpt lat="46.08577" lon="3.5152">
        <ele>516.38</ele>
        <time>2016-07-16T14:49:01Z</time>
      </trkpt>
      <trkpt lat="46.0859" lon="3.51495">
        <ele>515.53</ele>
        <time>2016-07-16T14:49:04Z</time>
      </trkpt>
      <trkpt lat="46.08599" lon="3.51471">
        <ele>513.57</ele>
        <time>2016-07-16T14:49:07Z</time>
      </trkpt>
      <trkpt lat="46.08611" lon="3.51446">
        <ele>512.59</ele>
        <time>2016-07-16T14:49:10Z</time>
      </trkpt>
      <trkpt lat="46.08622" lon="3.51418">
        <ele>505.29</ele>
        <time>2016-07-16T14:49:13Z</time>
      </trkpt>
      <trkpt lat="46.08633" lon="3.51388">
        <ele>502.99</ele>
        <time>2016-07-16T14:49:17Z</time>
      </trkpt>
      <trkpt lat="46.08642" lon="3.51362">
        <ele>501.98</ele>
        <time>2016-07-16T14:49:20Z</time>
      </trkpt>
      <trkpt lat="46.08649" lon="3.51337">
        <ele>501.43</ele>
        <time>2016-07-16T14:49:23Z</time>
      </trkpt>
      <trkpt lat="46.08656" lon="3.51311">
        <ele>500.14</ele>
        <time>2016-07-16T14:49:26Z</time>
      </trkpt>
      <trkpt lat="46.08664" lon="3.51282">
        <ele>495</ele>
        <time>2016-07-16T14:49:30Z</time>
      </trkpt>
      <trkpt lat="46.08672" lon="3.51253">
        <ele>496.81</ele>
        <time>2016-07-16T14:49:35Z</time>
      </trkpt>
      <trkpt lat="46.0868" lon="3.51223">
        <ele>496.55</ele>
        <time>2016-07-16T14:49:40Z</time>
      </trkpt>
      <trkpt lat="46.08685" lon="3.51198">
        <ele>497.42</ele>
        <time>2016-07-16T14:49:44Z</time>
      </trkpt>
      <trkpt lat="46.08691" lon="3.51171">
        <ele>498.36</ele>
        <time>2016-07-16T14:49:48Z</time>
      </trkpt>
      <trkpt lat="46.08695" lon="3.51142">
        <ele>500.51</ele>
        <time>2016-07-16T14:49:53Z</time>
      </trkpt>
      <trkpt lat="46.08712" lon="3.51129">
        <ele>497.6</ele>
        <time>2016-07-16T14:49:59Z</time>
      </trkpt>
      <trkpt lat="46.08732" lon="3.51135">
        <ele>503.34</ele>
        <time>2016-07-16T14:50:05Z</time>
      </trkpt>
      <trkpt lat="46.0875" lon="3.51139">
        <ele>499.03</ele>
        <time>2016-07-16T14:50:10Z</time>
      </trkpt>
      <trkpt lat="46.08769" lon="3.51143">
        <ele>501.54</ele>
        <time>2016-07-16T14:50:14Z</time>
      </trkpt>
      <trkpt lat="46.08788" lon="3.51148">
        <ele>506.3</ele>
        <time>2016-07-16T14:50:18Z</time>
      </trkpt>
      <trkpt lat="46.0881" lon="3.51156">
        <ele>504.64</ele>
        <time>2016-07-16T14:50:22Z</time>
      </trkpt>
      <trkpt lat="46.08833" lon="3.51166">
        <ele>499.07</ele>
        <time>2016-07-16T14:50:26Z</time>
      </trkpt>
      <trkpt lat="46.08853" lon="3.51173">
        <ele>497.29</ele>
        <time>2016-07-16T14:50:30Z</time>
      </trkpt>
      <trkpt lat="46.0887" lon="3.51181">
        <ele>494.77</ele>
        <time>2016-07-16T14:50:35Z</time>
      </trkpt>
      <trkpt lat="46.08889" lon="3.51186">
        <ele>490.8</ele>
        <time>2016-07-16T14:50:40Z</time>
      </trkpt>
      <trkpt lat="46.08909" lon="3.51189">
        <ele>487.25</ele>
        <time>2016-07-16T14:50:44Z</time>
      </trkpt>
      <trkpt lat="46.08932" lon="3.51197">
        <ele>490.35</ele>
        <time>2016-07-16T14:50:48Z</time>
      </trkpt>
      <trkpt lat="46.08953" lon="3.51198">
        <ele>492.98</ele>
        <time>2016-07-16T14:50:51Z</time>
      </trkpt>
      <trkpt lat="46.08971" lon="3.51207">
        <ele>492.57</ele>
        <time>2016-07-16T14:50:53Z</time>
      </trkpt>
      <trkpt lat="46.08993" lon="3.51215">
        <ele>493.51</ele>
        <time>2016-07-16T14:50:56Z</time>
      </trkpt>
      <trkpt lat="46.09016" lon="3.51219">
        <ele>491.28</ele>
        <time>2016-07-16T14:50:59Z</time>
      </trkpt>
      <trkpt lat="46.09036" lon="3.51221">
        <ele>488.06</ele>
        <time>2016-07-16T14:51:02Z</time>
      </trkpt>
      <trkpt lat="46.09056" lon="3.51228">
        <ele>486.55</ele>
        <time>2016-07-16T14:51:06Z</time>
      </trkpt>
      <trkpt lat="46.09072" lon="3.51214">
        <ele>488.35</ele>
        <time>2016-07-16T14:51:12Z</time>
      </trkpt>
      <trkpt lat="46.09068" lon="3.51185">
        <ele>484.58</ele>
        <time>2016-07-16T14:51:21Z</time>
      </trkpt>
      <trkpt lat="46.0906" lon="3.51158">
        <ele>483.56</ele>
        <time>2016-07-16T14:51:27Z</time>
      </trkpt>
      <trkpt lat="46.09052" lon="3.51131">
        <ele>487.51</ele>
        <time>2016-07-16T14:51:33Z</time>
      </trkpt>
      <trkpt lat="46.09045" lon="3.51106">
        <ele>488.51</ele>
        <time>2016-07-16T14:51:40Z</time>
      </trkpt>
      <trkpt lat="46.09038" lon="3.5108">
        <ele>484</ele>
        <time>2016-07-16T14:51:46Z</time>
      </trkpt>
      <trkpt lat="46.0903" lon="3.51053">
        <ele>488.66</ele>
        <time>2016-07-16T14:51:54Z</time>
      </trkpt>
      <trkpt lat="46.0902" lon="3.51026">
        <ele>487.67</ele>
        <time>2016-07-16T14:52:00Z</time>
      </trkpt>
      <trkpt lat="46.09009" lon="3.51002">
        <ele>488.51</ele>
        <time>2016-07-16T14:52:06Z</time>
      </trkpt>
      <trkpt lat="46.09007" lon="3.50976">
        <ele>490.34</ele>
        <time>2016-07-16T14:52:11Z</time>
      </trkpt>
      <trkpt lat="46.09022" lon="3.50959">
        <ele>486.83</ele>
        <time>2016-07-16T14:52:15Z</time>
      </trkpt>
      <trkpt lat="46.09031" lon="3.50935">
        <ele>484.83</ele>
        <time>2016-07-16T14:52:18Z</time>
      </trkpt>
      <trkpt lat="46.09044" lon="3.50912">
        <ele>485.52</ele>
        <time>2016-07-16T14:52:21Z</time>
      </trkpt>
      <trkpt lat="46.09059" lon="3.50887">
        <ele>484.76</ele>
        <time>2016-07-16T14:52:25Z</time>
      </trkpt>
      <trkpt lat="46.09068" lon="3.50863">
        <ele>484.39</ele>
        <time>2016-07-16T14:52:28Z</time>
      </trkpt>
      <trkpt lat="46.09084" lon="3.50837">
        <ele>487.59</ele>
        <time>2016-07-16T14:52:32Z</time>
      </trkpt>
      <trkpt lat="46.09098" lon="3.50815">
        <ele>488.48</ele>
        <time>2016-07-16T14:52:35Z</time>
      </trkpt>
      <trkpt lat="46.0911" lon="3.50794">
        <ele>487.59</ele>
        <time>2016-07-16T14:52:38Z</time>
      </trkpt>
      <trkpt lat="46.09124" lon="3.50771">
        <ele>483.81</ele>
        <time>2016-07-16T14:52:41Z</time>
      </trkpt>
      <trkpt lat="46.09139" lon="3.50745">
        <ele>481.57</ele>
        <time>2016-07-16T14:52:44Z</time>
      </trkpt>
      <trkpt lat="46.09153" lon="3.5072">
        <ele>478.99</ele>
        <time>2016-07-16T14:52:47Z</time>
      </trkpt>
      <trkpt lat="46.09172" lon="3.50695">
        <ele>475.84</ele>
        <time>2016-07-16T14:52:50Z</time>
      </trkpt>
      <trkpt lat="46.09189" lon="3.50666">
        <ele>471.84</ele>
        <time>2016-07-16T14:52:53Z</time>
      </trkpt>
      <trkpt lat="46.09208" lon="3.50641">
        <ele>465.44</ele>
        <time>2016-07-16T14:52:56Z</time>
      </trkpt>
      <trkpt lat="46.09221" lon="3.50619">
        <ele>463.57</ele>
        <time>2016-07-16T14:52:59Z</time>
      </trkpt>
      <trkpt lat="46.0924" lon="3.50623">
        <ele>461.75</ele>
        <time>2016-07-16T14:53:06Z</time>
      </trkpt>
      <trkpt lat="46.09258" lon="3.50621">
        <ele>462.34</ele>
        <time>2016-07-16T14:53:13Z</time>
      </trkpt>
      <trkpt lat="46.09276" lon="3.50623">
        <ele>457.43</ele>
        <time>2016-07-16T14:53:20Z</time>
      </trkpt>
      <trkpt lat="46.09296" lon="3.5062">
        <ele>455.56</ele>
        <time>2016-07-16T14:53:27Z</time>
      </trkpt>
      <trkpt lat="46.09314" lon="3.50634">
        <ele>456.59</ele>
        <time>2016-07-16T14:53:33Z</time>
      </trkpt>
      <trkpt lat="46.09331" lon="3.50654">
        <ele>456.75</ele>
        <time>2016-07-16T14:53:37Z</time>
      </trkpt>
      <trkpt lat="46.09347" lon="3.5067">
        <ele>455.75</ele>
        <time>2016-07-16T14:53:41Z</time>
      </trkpt>
      <trkpt lat="46.09367" lon="3.50672">
        <ele>451.81</ele>
        <time>2016-07-16T14:53:44Z</time>
      </trkpt>
      <trkpt lat="46.09385" lon="3.50681">
        <ele>447.88</ele>
        <time>2016-07-16T14:53:47Z</time>
      </trkpt>
      <trkpt lat="46.09407" lon="3.50687">
        <ele>446.5</ele>
        <time>2016-07-16T14:53:50Z</time>
      </trkpt>
      <trkpt lat="46.09425" lon="3.5069">
        <ele>446.39</ele>
        <time>2016-07-16T14:53:52Z</time>
      </trkpt>
      <trkpt lat="46.09445" lon="3.50689">
        <ele>440.44</ele>
        <time>2016-07-16T14:53:56Z</time>
      </trkpt>
      <trkpt lat="46.09455" lon="3.50665">
        <ele>440.51</ele>
        <time>2016-07-16T14:54:02Z</time>
      </trkpt>
      <trkpt lat="46.09475" lon="3.50663">
        <ele>426.46</ele>
        <time>2016-07-16T14:54:10Z</time>
      </trkpt>
      <trkpt lat="46.09492" lon="3.50675">
        <ele>430.42</ele>
        <time>2016-07-16T14:54:15Z</time>
      </trkpt>
      <trkpt lat="46.0951" lon="3.50682">
        <ele>428.36</ele>
        <time>2016-07-16T14:54:21Z</time>
      </trkpt>
      <trkpt lat="46.09521" lon="3.50709">
        <ele>428.52</ele>
        <time>2016-07-16T14:54:25Z</time>
      </trkpt>
      <trkpt lat="46.09532" lon="3.50738">
        <ele>425.96</ele>
        <time>2016-07-16T14:54:28Z</time>
      </trkpt>
      <trkpt lat="46.09543" lon="3.50768">
        <ele>425.56</ele>
        <time>2016-07-16T14:54:31Z</time>
      </trkpt>
      <trkpt lat="46.09549" lon="3.50798">
        <ele>428.15</ele>
        <time>2016-07-16T14:54:34Z</time>
      </trkpt>
      <trkpt lat="46.0956" lon="3.50819">
        <ele>430.31</ele>
        <time>2016-07-16T14:54:37Z</time>
      </trkpt>
      <trkpt lat="46.09576" lon="3.50834">
        <ele>424.36</ele>
        <time>2016-07-16T14:54:42Z</time>
      </trkpt>
      <trkpt lat="46.09594" lon="3.50842">
        <ele>416.31</ele>
        <time>2016-07-16T14:54:50Z</time>
      </trkpt>
      <trkpt lat="46.09611" lon="3.50857">
        <ele>417.72</ele>
        <time>2016-07-16T14:54:59Z</time>
      </trkpt>
      <trkpt lat="46.09627" lon="3.50869">
        <ele>418.33</ele>
        <time>2016-07-16T14:55:08Z</time>
      </trkpt>
      <trkpt lat="46.09646" lon="3.50879">
        <ele>419.79</ele>
        <time>2016-07-16T14:55:16Z</time>
      </trkpt>
      <trkpt lat="46.09665" lon="3.50888">
        <ele>420.39</ele>
        <time>2016-07-16T14:55:25Z</time>
      </trkpt>
      <trkpt lat="46.09685" lon="3.50884">
        <ele>427.27</ele>
        <time>2016-07-16T14:55:33Z</time>
      </trkpt>
      <trkpt lat="46.09701" lon="3.50869">
        <ele>431.41</ele>
        <time>2016-07-16T14:55:43Z</time>
      </trkpt>
      <trkpt lat="46.09718" lon="3.50853">
        <ele>440.27</ele>
        <time>2016-07-16T14:55:50Z</time>
      </trkpt>
      <trkpt lat="46.09725" lon="3.50828">
        <ele>440.38</ele>
        <time>2016-07-16T14:55:57Z</time>
      </trkpt>
      <trkpt lat="46.09728" lon="3.508">
        <ele>439.59</ele>
        <time>2016-07-16T14:56:03Z</time>
      </trkpt>
      <trkpt lat="46.09734" lon="3.50774">
        <ele>440.55</ele>
        <time>2016-07-16T14:56:10Z</time>
      </trkpt>
      <trkpt lat="46.09741" lon="3.50745">
        <ele>444.11</ele>
        <time>2016-07-16T14:56:16Z</time>
      </trkpt>
      <trkpt lat="46.09749" lon="3.50721">
        <ele>443.43</ele>
        <time>2016-07-16T14:56:22Z</time>
      </trkpt>
      <trkpt lat="46.09755" lon="3.50696">
        <ele>442.39</ele>
        <time>2016-07-16T14:56:28Z</time>
      </trkpt>
      <trkpt lat="46.09767" lon="3.50675">
        <ele>442.6</ele>
        <time>2016-07-16T14:56:35Z</time>
      </trkpt>
      <trkpt lat="46.09785" lon="3.50682">
        <ele>444.51</ele>
        <time>2016-07-16T14:56:42Z</time>
      </trkpt>
      <trkpt lat="46.098" lon="3.50702">
        <ele>446.55</ele>
        <time>2016-07-16T14:56:48Z</time>
      </trkpt>
      <trkpt lat="46.09816" lon="3.50717">
        <ele>441.99</ele>
        <time>2016-07-16T14:56:54Z</time>
      </trkpt>
      <trkpt lat="46.09837" lon="3.50724">
        <ele>434.77</ele>
        <time>2016-07-16T14:57:00Z</time>
      </trkpt>
      <trkpt lat="46.09856" lon="3.50735">
        <ele>435.58</ele>
        <time>2016-07-16T14:57:05Z</time>
      </trkpt>
      <trkpt lat="46.09873" lon="3.50743">
        <ele>436.55</ele>
        <time>2016-07-16T14:57:10Z</time>
      </trkpt>
      <trkpt lat="46.09891" lon="3.50746">
        <ele>436.59</ele>
        <time>2016-07-16T14:57:15Z</time>
      </trkpt>
      <trkpt lat="46.0991" lon="3.50738">
        <ele>440.23</ele>
        <time>2016-07-16T14:57:21Z</time>
      </trkpt>
      <trkpt lat="46.09927" lon="3.50727">
        <ele>448.25</ele>
        <time>2016-07-16T14:57:27Z</time>
      </trkpt>
      <trkpt lat="46.09943" lon="3.5071">
        <ele>446</ele>
        <time>2016-07-16T14:57:33Z</time>
      </trkpt>
      <trkpt lat="46.09956" lon="3.50689">
        <ele>440.8</ele>
        <time>2016-07-16T14:57:38Z</time>
      </trkpt>
      <trkpt lat="46.09967" lon="3.50665">
        <ele>445.5</ele>
        <time>2016-07-16T14:57:45Z</time>
      </trkpt>
      <trkpt lat="46.09978" lon="3.50636">
        <ele>444.72</ele>
        <time>2016-07-16T14:57:50Z</time>
      </trkpt>
      <trkpt lat="46.09988" lon="3.50611">
        <ele>447.69</ele>
        <time>2016-07-16T14:57:55Z</time>
      </trkpt>
      <trkpt lat="46.09996" lon="3.50585">
        <ele>447.55</ele>
        <time>2016-07-16T14:57:59Z</time>
      </trkpt>
      <trkpt lat="46.10001" lon="3.50555">
        <ele>447.17</ele>
        <time>2016-07-16T14:58:05Z</time>
      </trkpt>
      <trkpt lat="46.10009" lon="3.5053">
        <ele>405.96</ele>
        <time>2016-07-16T14:58:11Z</time>
      </trkpt>
      <trkpt lat="46.10017" lon="3.505">
        <ele>435.96</ele>
        <time>2016-07-16T14:58:16Z</time>
      </trkpt>
      <trkpt lat="46.10023" lon="3.50466">
        <ele>448.18</ele>
        <time>2016-07-16T14:58:20Z</time>
      </trkpt>
      <trkpt lat="46.10024" lon="3.50436">
        <ele>447.78</ele>
        <time>2016-07-16T14:58:23Z</time>
      </trkpt>
      <trkpt lat="46.10014" lon="3.50403">
        <ele>448.71</ele>
        <time>2016-07-16T14:58:26Z</time>
      </trkpt>
      <trkpt lat="46.10005" lon="3.50372">
        <ele>448.62</ele>
        <time>2016-07-16T14:58:29Z</time>
      </trkpt>
      <trkpt lat="46.09996" lon="3.50347">
        <ele>448.55</ele>
        <time>2016-07-16T14:58:32Z</time>
      </trkpt>
      <trkpt lat="46.09989" lon="3.50316">
        <ele>449.47</ele>
        <time>2016-07-16T14:58:36Z</time>
      </trkpt>
      <trkpt lat="46.0999" lon="3.50286">
        <ele>448.94</ele>
        <time>2016-07-16T14:58:40Z</time>
      </trkpt>
      <trkpt lat="46.09994" lon="3.50256">
        <ele>451.74</ele>
        <time>2016-07-16T14:58:45Z</time>
      </trkpt>
      <trkpt lat="46.09987" lon="3.50225">
        <ele>448.75</ele>
        <time>2016-07-16T14:58:51Z</time>
      </trkpt>
      <trkpt lat="46.09978" lon="3.502">
        <ele>447.78</ele>
        <time>2016-07-16T14:58:57Z</time>
      </trkpt>
      <trkpt lat="46.09966" lon="3.50178">
        <ele>446.72</ele>
        <time>2016-07-16T14:59:03Z</time>
      </trkpt>
      <trkpt lat="46.09952" lon="3.50162">
        <ele>447.72</ele>
        <time>2016-07-16T14:59:10Z</time>
      </trkpt>
      <trkpt lat="46.09938" lon="3.50145">
        <ele>446.39</ele>
        <time>2016-07-16T14:59:17Z</time>
      </trkpt>
      <trkpt lat="46.09921" lon="3.50126">
        <ele>451.57</ele>
        <time>2016-07-16T14:59:25Z</time>
      </trkpt>
      <trkpt lat="46.09904" lon="3.50113">
        <ele>452.59</ele>
        <time>2016-07-16T14:59:32Z</time>
      </trkpt>
      <trkpt lat="46.09887" lon="3.50101">
        <ele>454.55</ele>
        <time>2016-07-16T14:59:38Z</time>
      </trkpt>
      <trkpt lat="46.0987" lon="3.50085">
        <ele>458.45</ele>
        <time>2016-07-16T14:59:45Z</time>
      </trkpt>
      <trkpt lat="46.09862" lon="3.50062">
        <ele>460.5</ele>
        <time>2016-07-16T14:59:51Z</time>
      </trkpt>
      <trkpt lat="46.09878" lon="3.50043">
        <ele>457.01</ele>
        <time>2016-07-16T14:59:58Z</time>
      </trkpt>
      <trkpt lat="46.09901" lon="3.50041">
        <ele>451.04</ele>
        <time>2016-07-16T15:00:02Z</time>
      </trkpt>
      <trkpt lat="46.09921" lon="3.50033">
        <ele>447.8</ele>
        <time>2016-07-16T15:00:05Z</time>
      </trkpt>
      <trkpt lat="46.09942" lon="3.50026">
        <ele>440.32</ele>
        <time>2016-07-16T15:00:08Z</time>
      </trkpt>
      <trkpt lat="46.09963" lon="3.50015">
        <ele>435.66</ele>
        <time>2016-07-16T15:00:11Z</time>
      </trkpt>
      <trkpt lat="46.09983" lon="3.50001">
        <ele>433.76</ele>
        <time>2016-07-16T15:00:14Z</time>
      </trkpt>
      <trkpt lat="46.09996" lon="3.49981">
        <ele>435.31</ele>
        <time>2016-07-16T15:00:17Z</time>
      </trkpt>
      <trkpt lat="46.1001" lon="3.49963">
        <ele>434.75</ele>
        <time>2016-07-16T15:00:20Z</time>
      </trkpt>
      <trkpt lat="46.10024" lon="3.49942">
        <ele>431.99</ele>
        <time>2016-07-16T15:00:23Z</time>
      </trkpt>
      <trkpt lat="46.10033" lon="3.49917">
        <ele>431.56</ele>
        <time>2016-07-16T15:00:26Z</time>
      </trkpt>
      <trkpt lat="46.10039" lon="3.49889">
        <ele>430.56</ele>
        <time>2016-07-16T15:00:29Z</time>
      </trkpt>
      <trkpt lat="46.10043" lon="3.49859">
        <ele>429.79</ele>
        <time>2016-07-16T15:00:32Z</time>
      </trkpt>
      <trkpt lat="46.10047" lon="3.4983">
        <ele>432.11</ele>
        <time>2016-07-16T15:00:35Z</time>
      </trkpt>
      <trkpt lat="46.1005" lon="3.498">
        <ele>432.2</ele>
        <time>2016-07-16T15:00:38Z</time>
      </trkpt>
      <trkpt lat="46.10047" lon="3.4977">
        <ele>432.55</ele>
        <time>2016-07-16T15:00:41Z</time>
      </trkpt>
      <trkpt lat="46.10029" lon="3.49752">
        <ele>434.67</ele>
        <time>2016-07-16T15:00:45Z</time>
      </trkpt>
      <trkpt lat="46.10022" lon="3.49728">
        <ele>433.4</ele>
        <time>2016-07-16T15:00:48Z</time>
      </trkpt>
      <trkpt lat="46.10034" lon="3.49702">
        <ele>433.55</ele>
        <time>2016-07-16T15:00:52Z</time>
      </trkpt>
      <trkpt lat="46.10054" lon="3.49692">
        <ele>431.75</ele>
        <time>2016-07-16T15:00:56Z</time>
      </trkpt>
      <trkpt lat="46.10076" lon="3.49682">
        <ele>431.51</ele>
        <time>2016-07-16T15:01:00Z</time>
      </trkpt>
      <trkpt lat="46.10092" lon="3.4967">
        <ele>433.5</ele>
        <time>2016-07-16T15:01:03Z</time>
      </trkpt>
      <trkpt lat="46.10113" lon="3.49668">
        <ele>431.76</ele>
        <time>2016-07-16T15:01:06Z</time>
      </trkpt>
      <trkpt lat="46.10133" lon="3.49677">
        <ele>428</ele>
        <time>2016-07-16T15:01:09Z</time>
      </trkpt>
      <trkpt lat="46.10153" lon="3.49686">
        <ele>427.56</ele>
        <time>2016-07-16T15:01:12Z</time>
      </trkpt>
      <trkpt lat="46.10173" lon="3.49687">
        <ele>422.63</ele>
        <time>2016-07-16T15:01:15Z</time>
      </trkpt>
      <trkpt lat="46.1019" lon="3.49663">
        <ele>423.51</ele>
        <time>2016-07-16T15:01:19Z</time>
      </trkpt>
      <trkpt lat="46.102" lon="3.49634">
        <ele>424.51</ele>
        <time>2016-07-16T15:01:23Z</time>
      </trkpt>
      <trkpt lat="46.10214" lon="3.49607">
        <ele>424.55</ele>
        <time>2016-07-16T15:01:27Z</time>
      </trkpt>
      <trkpt lat="46.1022" lon="3.49582">
        <ele>425.55</ele>
        <time>2016-07-16T15:01:30Z</time>
      </trkpt>
      <trkpt lat="46.10217" lon="3.49548">
        <ele>426.67</ele>
        <time>2016-07-16T15:01:34Z</time>
      </trkpt>
      <trkpt lat="46.10208" lon="3.49526">
        <ele>425.56</ele>
        <time>2016-07-16T15:01:37Z</time>
      </trkpt>
      <trkpt lat="46.10193" lon="3.495">
        <ele>424.62</ele>
        <time>2016-07-16T15:01:41Z</time>
      </trkpt>
      <trkpt lat="46.10181" lon="3.49474">
        <ele>423.59</ele>
        <time>2016-07-16T15:01:45Z</time>
      </trkpt>
      <trkpt lat="46.10197" lon="3.49456">
        <ele>427.51</ele>
        <time>2016-07-16T15:01:51Z</time>
      </trkpt>
      <trkpt lat="46.10216" lon="3.49447">
        <ele>427.55</ele>
        <time>2016-07-16T15:01:56Z</time>
      </trkpt>
      <trkpt lat="46.10238" lon="3.49443">
        <ele>431.49</ele>
        <time>2016-07-16T15:02:01Z</time>
      </trkpt>
      <trkpt lat="46.10259" lon="3.49439">
        <ele>430.44</ele>
        <time>2016-07-16T15:02:05Z</time>
      </trkpt>
      <trkpt lat="46.10277" lon="3.49429">
        <ele>428.74</ele>
        <time>2016-07-16T15:02:09Z</time>
      </trkpt>
      <trkpt lat="46.10287" lon="3.49403">
        <ele>427.63</ele>
        <time>2016-07-16T15:02:14Z</time>
      </trkpt>
      <trkpt lat="46.10288" lon="3.49369">
        <ele>427.36</ele>
        <time>2016-07-16T15:02:19Z</time>
      </trkpt>
      <trkpt lat="46.10289" lon="3.49337">
        <ele>426.75</ele>
        <time>2016-07-16T15:02:22Z</time>
      </trkpt>
      <trkpt lat="46.10288" lon="3.49303">
        <ele>427.51</ele>
        <time>2016-07-16T15:02:25Z</time>
      </trkpt>
      <trkpt lat="46.10287" lon="3.49266">
        <ele>422.75</ele>
        <time>2016-07-16T15:02:28Z</time>
      </trkpt>
      <trkpt lat="46.10281" lon="3.49237">
        <ele>418.62</ele>
        <time>2016-07-16T15:02:31Z</time>
      </trkpt>
      <trkpt lat="46.10269" lon="3.49216">
        <ele>414.81</ele>
        <time>2016-07-16T15:02:34Z</time>
      </trkpt>
      <trkpt lat="46.10254" lon="3.49192">
        <ele>411.76</ele>
        <time>2016-07-16T15:02:38Z</time>
      </trkpt>
      <trkpt lat="46.1024" lon="3.49169">
        <ele>410.56</ele>
        <time>2016-07-16T15:02:42Z</time>
      </trkpt>
      <trkpt lat="46.10224" lon="3.49147">
        <ele>410.56</ele>
        <time>2016-07-16T15:02:46Z</time>
      </trkpt>
      <trkpt lat="46.10209" lon="3.49127">
        <ele>410.59</ele>
        <time>2016-07-16T15:02:50Z</time>
      </trkpt>
      <trkpt lat="46.10207" lon="3.49097">
        <ele>409.59</ele>
        <time>2016-07-16T15:02:54Z</time>
      </trkpt>
      <trkpt lat="46.10222" lon="3.49077">
        <ele>407.79</ele>
        <time>2016-07-16T15:02:57Z</time>
      </trkpt>
      <trkpt lat="46.1024" lon="3.49065">
        <ele>408.35</ele>
        <time>2016-07-16T15:03:00Z</time>
      </trkpt>
      <trkpt lat="46.10262" lon="3.49057">
        <ele>405.8</ele>
        <time>2016-07-16T15:03:03Z</time>
      </trkpt>
      <trkpt lat="46.10283" lon="3.49052">
        <ele>404.59</ele>
        <time>2016-07-16T15:03:06Z</time>
      </trkpt>
      <trkpt lat="46.10306" lon="3.49053">
        <ele>401.76</ele>
        <time>2016-07-16T15:03:10Z</time>
      </trkpt>
      <trkpt lat="46.10326" lon="3.49051">
        <ele>402.35</ele>
        <time>2016-07-16T15:03:15Z</time>
      </trkpt>
      <trkpt lat="46.10346" lon="3.49039">
        <ele>404.54</ele>
        <time>2016-07-16T15:03:20Z</time>
      </trkpt>
      <trkpt lat="46.10364" lon="3.49027">
        <ele>404.55</ele>
        <time>2016-07-16T15:03:24Z</time>
      </trkpt>
      <trkpt lat="46.10378" lon="3.49008">
        <ele>406.48</ele>
        <time>2016-07-16T15:03:28Z</time>
      </trkpt>
      <trkpt lat="46.10386" lon="3.48983">
        <ele>407.54</ele>
        <time>2016-07-16T15:03:31Z</time>
      </trkpt>
      <trkpt lat="46.10396" lon="3.4895">
        <ele>406.56</ele>
        <time>2016-07-16T15:03:34Z</time>
      </trkpt>
      <trkpt lat="46.10406" lon="3.48916">
        <ele>406.39</ele>
        <time>2016-07-16T15:03:37Z</time>
      </trkpt>
      <trkpt lat="46.10416" lon="3.48882">
        <ele>405.75</ele>
        <time>2016-07-16T15:03:40Z</time>
      </trkpt>
      <trkpt lat="46.10425" lon="3.48859">
        <ele>405.72</ele>
        <time>2016-07-16T15:03:42Z</time>
      </trkpt>
      <trkpt lat="46.10433" lon="3.48835">
        <ele>404.6</ele>
        <time>2016-07-16T15:03:44Z</time>
      </trkpt>
      <trkpt lat="46.10445" lon="3.48799">
        <ele>401.77</ele>
        <time>2016-07-16T15:03:47Z</time>
      </trkpt>
      <trkpt lat="46.10456" lon="3.48763">
        <ele>400.59</ele>
        <time>2016-07-16T15:03:50Z</time>
      </trkpt>
      <trkpt lat="46.10464" lon="3.4874">
        <ele>398.79</ele>
        <time>2016-07-16T15:03:52Z</time>
      </trkpt>
      <trkpt lat="46.10473" lon="3.48717">
        <ele>396.8</ele>
        <time>2016-07-16T15:03:54Z</time>
      </trkpt>
      <trkpt lat="46.10478" lon="3.48683">
        <ele>390.09</ele>
        <time>2016-07-16T15:03:57Z</time>
      </trkpt>
      <trkpt lat="46.10468" lon="3.48654">
        <ele>385.85</ele>
        <time>2016-07-16T15:04:00Z</time>
      </trkpt>
      <trkpt lat="46.10446" lon="3.48641">
        <ele>381.65</ele>
        <time>2016-07-16T15:04:03Z</time>
      </trkpt>
      <trkpt lat="46.10428" lon="3.4864">
        <ele>379.8</ele>
        <time>2016-07-16T15:04:05Z</time>
      </trkpt>
      <trkpt lat="46.1041" lon="3.48648">
        <ele>377.8</ele>
        <time>2016-07-16T15:04:07Z</time>
      </trkpt>
      <trkpt lat="46.10393" lon="3.48659">
        <ele>374.04</ele>
        <time>2016-07-16T15:04:09Z</time>
      </trkpt>
      <trkpt lat="46.10372" lon="3.48654">
        <ele>371.76</ele>
        <time>2016-07-16T15:04:12Z</time>
      </trkpt>
      <trkpt lat="46.1037" lon="3.48625">
        <ele>369.6</ele>
        <time>2016-07-16T15:04:15Z</time>
      </trkpt>
      <trkpt lat="46.10373" lon="3.48594">
        <ele>367.79</ele>
        <time>2016-07-16T15:04:18Z</time>
      </trkpt>
      <trkpt lat="46.10361" lon="3.48567">
        <ele>364.8</ele>
        <time>2016-07-16T15:04:21Z</time>
      </trkpt>
      <trkpt lat="46.10339" lon="3.4855">
        <ele>361.8</ele>
        <time>2016-07-16T15:04:24Z</time>
      </trkpt>
      <trkpt lat="46.1032" lon="3.48524">
        <ele>359.76</ele>
        <time>2016-07-16T15:04:27Z</time>
      </trkpt>
      <trkpt lat="46.10304" lon="3.48495">
        <ele>357.6</ele>
        <time>2016-07-16T15:04:30Z</time>
      </trkpt>
      <trkpt lat="46.10292" lon="3.48475">
        <ele>355.79</ele>
        <time>2016-07-16T15:04:32Z</time>
      </trkpt>
      <trkpt lat="46.10278" lon="3.48456">
        <ele>353</ele>
        <time>2016-07-16T15:04:34Z</time>
      </trkpt>
      <trkpt lat="46.10262" lon="3.48439">
        <ele>349.85</ele>
        <time>2016-07-16T15:04:36Z</time>
      </trkpt>
      <trkpt lat="46.10247" lon="3.48422">
        <ele>347.64</ele>
        <time>2016-07-16T15:04:38Z</time>
      </trkpt>
      <trkpt lat="46.10235" lon="3.48399">
        <ele>345.8</ele>
        <time>2016-07-16T15:04:40Z</time>
      </trkpt>
      <trkpt lat="46.10218" lon="3.48372">
        <ele>344.72</ele>
        <time>2016-07-16T15:04:43Z</time>
      </trkpt>
      <trkpt lat="46.10205" lon="3.48349">
        <ele>345.51</ele>
        <time>2016-07-16T15:04:46Z</time>
      </trkpt>
      <trkpt lat="46.10194" lon="3.48326">
        <ele>347.31</ele>
        <time>2016-07-16T15:04:50Z</time>
      </trkpt>
      <trkpt lat="46.10181" lon="3.48306">
        <ele>346.56</ele>
        <time>2016-07-16T15:04:55Z</time>
      </trkpt>
      <trkpt lat="46.10162" lon="3.48295">
        <ele>347.74</ele>
        <time>2016-07-16T15:05:02Z</time>
      </trkpt>
      <trkpt lat="46.10144" lon="3.48283">
        <ele>347.55</ele>
        <time>2016-07-16T15:05:08Z</time>
      </trkpt>
      <trkpt lat="46.10128" lon="3.48272">
        <ele>350.48</ele>
        <time>2016-07-16T15:05:14Z</time>
      </trkpt>
      <trkpt lat="46.1011" lon="3.48257">
        <ele>351.31</ele>
        <time>2016-07-16T15:05:22Z</time>
      </trkpt>
      <trkpt lat="46.10096" lon="3.48238">
        <ele>354.55</ele>
        <time>2016-07-16T15:05:32Z</time>
      </trkpt>
      <trkpt lat="46.10089" lon="3.48213">
        <ele>366.46</ele>
        <time>2016-07-16T15:05:45Z</time>
      </trkpt>
      <trkpt lat="46.10087" lon="3.48187">
        <ele>369.56</ele>
        <time>2016-07-16T15:05:57Z</time>
      </trkpt>
      <trkpt lat="46.10082" lon="3.48161">
        <ele>376.54</ele>
        <time>2016-07-16T15:06:10Z</time>
      </trkpt>
      <trkpt lat="46.10075" lon="3.48135">
        <ele>380.58</ele>
        <time>2016-07-16T15:06:24Z</time>
      </trkpt>
      <trkpt lat="46.10068" lon="3.48111">
        <ele>385.59</ele>
        <time>2016-07-16T15:06:38Z</time>
      </trkpt>
      <trkpt lat="46.10059" lon="3.48087">
        <ele>383.55</ele>
        <time>2016-07-16T15:06:51Z</time>
      </trkpt>
      <trkpt lat="46.10047" lon="3.48066">
        <ele>380.52</ele>
        <time>2016-07-16T15:07:04Z</time>
      </trkpt>
      <trkpt lat="46.10038" lon="3.48043">
        <ele>382.38</ele>
        <time>2016-07-16T15:07:18Z</time>
      </trkpt>
      <trkpt lat="46.10029" lon="3.4802">
        <ele>390.26</ele>
        <time>2016-07-16T15:07:31Z</time>
      </trkpt>
      <trkpt lat="46.10022" lon="3.47995">
        <ele>396.55</ele>
        <time>2016-07-16T15:07:44Z</time>
      </trkpt>
      <trkpt lat="46.10016" lon="3.47969">
        <ele>402.34</ele>
        <time>2016-07-16T15:07:57Z</time>
      </trkpt>
      <trkpt lat="46.10012" lon="3.47943">
        <ele>408.3</ele>
        <time>2016-07-16T15:08:09Z</time>
      </trkpt>
      <trkpt lat="46.10011" lon="3.47915">
        <ele>408.55</ele>
        <time>2016-07-16T15:08:20Z</time>
      </trkpt>
      <trkpt lat="46.10008" lon="3.47889">
        <ele>407.79</ele>
        <time>2016-07-16T15:08:29Z</time>
      </trkpt>
      <trkpt lat="46.10003" lon="3.47863">
        <ele>404.59</ele>
        <time>2016-07-16T15:08:39Z</time>
      </trkpt>
      <trkpt lat="46.09995" lon="3.47838">
        <ele>403.59</ele>
        <time>2016-07-16T15:08:49Z</time>
      </trkpt>
      <trkpt lat="46.09987" lon="3.47811">
        <ele>404.55</ele>
        <time>2016-07-16T15:09:00Z</time>
      </trkpt>
      <trkpt lat="46.0998" lon="3.47787">
        <ele>403.55</ele>
        <time>2016-07-16T15:09:10Z</time>
      </trkpt>
      <trkpt lat="46.09976" lon="3.47761">
        <ele>404.48</ele>
        <time>2016-07-16T15:09:20Z</time>
      </trkpt>
      <trkpt lat="46.09971" lon="3.47735">
        <ele>406.74</ele>
        <time>2016-07-16T15:09:30Z</time>
      </trkpt>
      <trkpt lat="46.09965" lon="3.47709">
        <ele>410.34</ele>
        <time>2016-07-16T15:09:40Z</time>
      </trkpt>
      <trkpt lat="46.09959" lon="3.47684">
        <ele>411.55</ele>
        <time>2016-07-16T15:09:49Z</time>
      </trkpt>
      <trkpt lat="46.09952" lon="3.47659">
        <ele>409.55</ele>
        <time>2016-07-16T15:09:58Z</time>
      </trkpt>
      <trkpt lat="46.09946" lon="3.47634">
        <ele>409.55</ele>
        <time>2016-07-16T15:10:07Z</time>
      </trkpt>
      <trkpt lat="46.09939" lon="3.47608">
        <ele>406.15</ele>
        <time>2016-07-16T15:10:16Z</time>
      </trkpt>
      <trkpt lat="46.0995" lon="3.47586">
        <ele>404.59</ele>
        <time>2016-07-16T15:10:29Z</time>
      </trkpt>
      <trkpt lat="46.0997" lon="3.47587">
        <ele>404.75</ele>
        <time>2016-07-16T15:10:39Z</time>
      </trkpt>
      <trkpt lat="46.09989" lon="3.47585">
        <ele>401.6</ele>
        <time>2016-07-16T15:10:47Z</time>
      </trkpt>
      <trkpt lat="46.10008" lon="3.47585">
        <ele>397.51</ele>
        <time>2016-07-16T15:10:59Z</time>
      </trkpt>
      <trkpt lat="46.10027" lon="3.47583">
        <ele>396.55</ele>
        <time>2016-07-16T15:11:08Z</time>
      </trkpt>
      <trkpt lat="46.10046" lon="3.47568">
        <ele>397.36</ele>
        <time>2016-07-16T15:11:15Z</time>
      </trkpt>
      <trkpt lat="46.10065" lon="3.47558">
        <ele>397.55</ele>
        <time>2016-07-16T15:11:21Z</time>
      </trkpt>
      <trkpt lat="46.10082" lon="3.47546">
        <ele>395.59</ele>
        <time>2016-07-16T15:11:26Z</time>
      </trkpt>
      <trkpt lat="46.10101" lon="3.47533">
        <ele>396.55</ele>
        <time>2016-07-16T15:11:32Z</time>
      </trkpt>
      <trkpt lat="46.10117" lon="3.47513">
        <ele>392.76</ele>
        <time>2016-07-16T15:11:37Z</time>
      </trkpt>
      <trkpt lat="46.10118" lon="3.47485">
        <ele>392.71</ele>
        <time>2016-07-16T15:11:43Z</time>
      </trkpt>
      <trkpt lat="46.10119" lon="3.47456">
        <ele>392.55</ele>
        <time>2016-07-16T15:11:49Z</time>
      </trkpt>
      <trkpt lat="46.10121" lon="3.47427">
        <ele>392.59</ele>
        <time>2016-07-16T15:11:56Z</time>
      </trkpt>
      <trkpt lat="46.10128" lon="3.47401">
        <ele>390.95</ele>
        <time>2016-07-16T15:12:01Z</time>
      </trkpt>
      <trkpt lat="46.10139" lon="3.47374">
        <ele>390.55</ele>
        <time>2016-07-16T15:12:06Z</time>
      </trkpt>
      <trkpt lat="46.10151" lon="3.47351">
        <ele>389.79</ele>
        <time>2016-07-16T15:12:11Z</time>
      </trkpt>
      <trkpt lat="46.10162" lon="3.47329">
        <ele>391.71</ele>
        <time>2016-07-16T15:12:16Z</time>
      </trkpt>
      <trkpt lat="46.10172" lon="3.47307">
        <ele>390.79</ele>
        <time>2016-07-16T15:12:20Z</time>
      </trkpt>
      <trkpt lat="46.10182" lon="3.47283">
        <ele>388.76</ele>
        <time>2016-07-16T15:12:24Z</time>
      </trkpt>
      <trkpt lat="46.10194" lon="3.47259">
        <ele>389.71</ele>
        <time>2016-07-16T15:12:29Z</time>
      </trkpt>
      <trkpt lat="46.10205" lon="3.47235">
        <ele>389.39</ele>
        <time>2016-07-16T15:12:34Z</time>
      </trkpt>
      <trkpt lat="46.10218" lon="3.47215">
        <ele>388.16</ele>
        <time>2016-07-16T15:12:39Z</time>
      </trkpt>
      <trkpt lat="46.1023" lon="3.47194">
        <ele>388.74</ele>
        <time>2016-07-16T15:12:44Z</time>
      </trkpt>
      <trkpt lat="46.10243" lon="3.47172">
        <ele>388.55</ele>
        <time>2016-07-16T15:12:49Z</time>
      </trkpt>
      <trkpt lat="46.10253" lon="3.47151">
        <ele>388.56</ele>
        <time>2016-07-16T15:12:53Z</time>
      </trkpt>
      <trkpt lat="46.10267" lon="3.47127">
        <ele>387.39</ele>
        <time>2016-07-16T15:12:59Z</time>
      </trkpt>
      <trkpt lat="46.10284" lon="3.47111">
        <ele>386.65</ele>
        <time>2016-07-16T15:13:05Z</time>
      </trkpt>
      <trkpt lat="46.10302" lon="3.47101">
        <ele>385.55</ele>
        <time>2016-07-16T15:13:10Z</time>
      </trkpt>
      <trkpt lat="46.10322" lon="3.47092">
        <ele>384.79</ele>
        <time>2016-07-16T15:13:15Z</time>
      </trkpt>
      <trkpt lat="46.10338" lon="3.4708">
        <ele>385.39</ele>
        <time>2016-07-16T15:13:22Z</time>
      </trkpt>
      <trkpt lat="46.10334" lon="3.47054">
        <ele>389.7</ele>
        <time>2016-07-16T15:13:33Z</time>
      </trkpt>
      <trkpt lat="46.10326" lon="3.47029">
        <ele>394.35</ele>
        <time>2016-07-16T15:13:45Z</time>
      </trkpt>
      <trkpt lat="46.10318" lon="3.47005">
        <ele>395.55</ele>
        <time>2016-07-16T15:13:57Z</time>
      </trkpt>
      <trkpt lat="46.1031" lon="3.46982">
        <ele>398.35</ele>
        <time>2016-07-16T15:14:10Z</time>
      </trkpt>
      <trkpt lat="46.10301" lon="3.46958">
        <ele>403.51</ele>
        <time>2016-07-16T15:14:25Z</time>
      </trkpt>
      <trkpt lat="46.10316" lon="3.46945">
        <ele>401.56</ele>
        <time>2016-07-16T15:14:38Z</time>
      </trkpt>
      <trkpt lat="46.10336" lon="3.46937">
        <ele>404.3</ele>
        <time>2016-07-16T15:14:47Z</time>
      </trkpt>
      <trkpt lat="46.10355" lon="3.4693">
        <ele>404.51</ele>
        <time>2016-07-16T15:14:53Z</time>
      </trkpt>
      <trkpt lat="46.10373" lon="3.46921">
        <ele>405.55</ele>
        <time>2016-07-16T15:14:59Z</time>
      </trkpt>
      <trkpt lat="46.10392" lon="3.46912">
        <ele>407.58</ele>
        <time>2016-07-16T15:15:06Z</time>
      </trkpt>
      <trkpt lat="46.1041" lon="3.46903">
        <ele>405.75</ele>
        <time>2016-07-16T15:15:13Z</time>
      </trkpt>
      <trkpt lat="46.10429" lon="3.46895">
        <ele>405.6</ele>
        <time>2016-07-16T15:15:20Z</time>
      </trkpt>
      <trkpt lat="46.10447" lon="3.46885">
        <ele>401.37</ele>
        <time>2016-07-16T15:15:26Z</time>
      </trkpt>
      <trkpt lat="46.10466" lon="3.46875">
        <ele>403.31</ele>
        <time>2016-07-16T15:15:33Z</time>
      </trkpt>
      <trkpt lat="46.10484" lon="3.4687">
        <ele>407.63</ele>
        <time>2016-07-16T15:15:39Z</time>
      </trkpt>
      <trkpt lat="46.10503" lon="3.46863">
        <ele>406.56</ele>
        <time>2016-07-16T15:15:45Z</time>
      </trkpt>
      <trkpt lat="46.10521" lon="3.46858">
        <ele>405.59</ele>
        <time>2016-07-16T15:15:49Z</time>
      </trkpt>
      <trkpt lat="46.10541" lon="3.46843">
        <ele>406.55</ele>
        <time>2016-07-16T15:15:53Z</time>
      </trkpt>
      <trkpt lat="46.10559" lon="3.46839">
        <ele>409.11</ele>
        <time>2016-07-16T15:15:57Z</time>
      </trkpt>
      <trkpt lat="46.10575" lon="3.46824">
        <ele>408.55</ele>
        <time>2016-07-16T15:16:03Z</time>
      </trkpt>
      <trkpt lat="46.10592" lon="3.4681">
        <ele>410.39</ele>
        <time>2016-07-16T15:16:10Z</time>
      </trkpt>
      <trkpt lat="46.10611" lon="3.468">
        <ele>410.83</ele>
        <time>2016-07-16T15:16:16Z</time>
      </trkpt>
      <trkpt lat="46.10629" lon="3.46795">
        <ele>416.65</ele>
        <time>2016-07-16T15:16:21Z</time>
      </trkpt>
      <trkpt lat="46.10648" lon="3.46791">
        <ele>412.71</ele>
        <time>2016-07-16T15:16:26Z</time>
      </trkpt>
      <trkpt lat="46.1067" lon="3.46787">
        <ele>409.59</ele>
        <time>2016-07-16T15:16:31Z</time>
      </trkpt>
      <trkpt lat="46.10688" lon="3.46777">
        <ele>408.41</ele>
        <time>2016-07-16T15:16:36Z</time>
      </trkpt>
      <trkpt lat="46.10702" lon="3.46761">
        <ele>408.36</ele>
        <time>2016-07-16T15:16:41Z</time>
      </trkpt>
      <trkpt lat="46.10714" lon="3.46735">
        <ele>407.67</ele>
        <time>2016-07-16T15:16:47Z</time>
      </trkpt>
      <trkpt lat="46.10725" lon="3.46713">
        <ele>407.55</ele>
        <time>2016-07-16T15:16:52Z</time>
      </trkpt>
      <trkpt lat="46.10735" lon="3.46691">
        <ele>409.35</ele>
        <time>2016-07-16T15:16:57Z</time>
      </trkpt>
      <trkpt lat="46.10745" lon="3.46668">
        <ele>409.55</ele>
        <time>2016-07-16T15:17:02Z</time>
      </trkpt>
      <trkpt lat="46.10757" lon="3.46647">
        <ele>410.51</ele>
        <time>2016-07-16T15:17:07Z</time>
      </trkpt>
      <trkpt lat="46.10772" lon="3.46627">
        <ele>412.12</ele>
        <time>2016-07-16T15:17:12Z</time>
      </trkpt>
      <trkpt lat="46.10783" lon="3.46603">
        <ele>413.55</ele>
        <time>2016-07-16T15:17:17Z</time>
      </trkpt>
      <trkpt lat="46.10783" lon="3.46576">
        <ele>415.38</ele>
        <time>2016-07-16T15:17:22Z</time>
      </trkpt>
      <trkpt lat="46.10779" lon="3.4655">
        <ele>418.27</ele>
        <time>2016-07-16T15:17:27Z</time>
      </trkpt>
      <trkpt lat="46.10775" lon="3.46525">
        <ele>418.36</ele>
        <time>2016-07-16T15:17:32Z</time>
      </trkpt>
      <trkpt lat="46.10783" lon="3.46501">
        <ele>420.59</ele>
        <time>2016-07-16T15:17:39Z</time>
      </trkpt>
      <trkpt lat="46.10805" lon="3.46494">
        <ele>420.58</ele>
        <time>2016-07-16T15:17:44Z</time>
      </trkpt>
      <trkpt lat="46.10823" lon="3.46489">
        <ele>418.6</ele>
        <time>2016-07-16T15:17:47Z</time>
      </trkpt>
      <trkpt lat="46.10843" lon="3.46486">
        <ele>414</ele>
        <time>2016-07-16T15:17:51Z</time>
      </trkpt>
      <trkpt lat="46.10867" lon="3.46483">
        <ele>411.76</ele>
        <time>2016-07-16T15:17:55Z</time>
      </trkpt>
      <trkpt lat="46.1089" lon="3.46477">
        <ele>409.76</ele>
        <time>2016-07-16T15:17:59Z</time>
      </trkpt>
      <trkpt lat="46.10911" lon="3.46472">
        <ele>407.79</ele>
        <time>2016-07-16T15:18:02Z</time>
      </trkpt>
      <trkpt lat="46.10935" lon="3.46465">
        <ele>405.6</ele>
        <time>2016-07-16T15:18:05Z</time>
      </trkpt>
      <trkpt lat="46.10957" lon="3.46463">
        <ele>405.52</ele>
        <time>2016-07-16T15:18:08Z</time>
      </trkpt>
      <trkpt lat="46.10977" lon="3.4646">
        <ele>402.8</ele>
        <time>2016-07-16T15:18:11Z</time>
      </trkpt>
      <trkpt lat="46.10997" lon="3.46459">
        <ele>402.52</ele>
        <time>2016-07-16T15:18:14Z</time>
      </trkpt>
      <trkpt lat="46.11016" lon="3.4646">
        <ele>402.58</ele>
        <time>2016-07-16T15:18:17Z</time>
      </trkpt>
      <trkpt lat="46.11036" lon="3.46454">
        <ele>402.75</ele>
        <time>2016-07-16T15:18:23Z</time>
      </trkpt>
      <trkpt lat="46.11053" lon="3.4646">
        <ele>404.56</ele>
        <time>2016-07-16T15:21:18Z</time>
      </trkpt>
      <trkpt lat="46.11072" lon="3.46459">
        <ele>405.58</ele>
        <time>2016-07-16T15:21:24Z</time>
      </trkpt>
      <trkpt lat="46.11091" lon="3.46463">
        <ele>404.55</ele>
        <time>2016-07-16T15:21:29Z</time>
      </trkpt>
      <trkpt lat="46.11112" lon="3.46465">
        <ele>405.58</ele>
        <time>2016-07-16T15:21:35Z</time>
      </trkpt>
      <trkpt lat="46.11131" lon="3.46469">
        <ele>404.74</ele>
        <time>2016-07-16T15:21:40Z</time>
      </trkpt>
      <trkpt lat="46.11152" lon="3.46475">
        <ele>404.51</ele>
        <time>2016-07-16T15:21:46Z</time>
      </trkpt>
      <trkpt lat="46.11173" lon="3.46474">
        <ele>403.52</ele>
        <time>2016-07-16T15:21:51Z</time>
      </trkpt>
      <trkpt lat="46.11194" lon="3.46476">
        <ele>406.3</ele>
        <time>2016-07-16T15:21:56Z</time>
      </trkpt>
      <trkpt lat="46.11213" lon="3.46474">
        <ele>408.53</ele>
        <time>2016-07-16T15:22:01Z</time>
      </trkpt>
      <trkpt lat="46.11232" lon="3.46467">
        <ele>406.76</ele>
        <time>2016-07-16T15:22:06Z</time>
      </trkpt>
      <trkpt lat="46.11251" lon="3.46464">
        <ele>400.81</ele>
        <time>2016-07-16T15:22:12Z</time>
      </trkpt>
      <trkpt lat="46.11271" lon="3.46465">
        <ele>399.4</ele>
        <time>2016-07-16T15:22:17Z</time>
      </trkpt>
      <trkpt lat="46.1129" lon="3.46467">
        <ele>400.54</ele>
        <time>2016-07-16T15:22:22Z</time>
      </trkpt>
      <trkpt lat="46.1131" lon="3.46468">
        <ele>400.55</ele>
        <time>2016-07-16T15:22:27Z</time>
      </trkpt>
      <trkpt lat="46.1133" lon="3.46471">
        <ele>398.79</ele>
        <time>2016-07-16T15:22:32Z</time>
      </trkpt>
      <trkpt lat="46.11351" lon="3.46474">
        <ele>399.55</ele>
        <time>2016-07-16T15:22:37Z</time>
      </trkpt>
      <trkpt lat="46.11372" lon="3.46481">
        <ele>399.55</ele>
        <time>2016-07-16T15:22:43Z</time>
      </trkpt>
      <trkpt lat="46.11392" lon="3.46483">
        <ele>396.75</ele>
        <time>2016-07-16T15:22:50Z</time>
      </trkpt>
      <trkpt lat="46.11408" lon="3.46504">
        <ele>392.77</ele>
        <time>2016-07-16T15:22:54Z</time>
      </trkpt>
      <trkpt lat="46.11429" lon="3.46514">
        <ele>390.6</ele>
        <time>2016-07-16T15:22:57Z</time>
      </trkpt>
      <trkpt lat="46.11451" lon="3.4651">
        <ele>388.73</ele>
        <time>2016-07-16T15:23:00Z</time>
      </trkpt>
      <trkpt lat="46.11474" lon="3.46502">
        <ele>390.95</ele>
        <time>2016-07-16T15:23:04Z</time>
      </trkpt>
      <trkpt lat="46.11494" lon="3.46491">
        <ele>391.4</ele>
        <time>2016-07-16T15:23:08Z</time>
      </trkpt>
      <trkpt lat="46.11509" lon="3.46475">
        <ele>390.59</ele>
        <time>2016-07-16T15:23:11Z</time>
      </trkpt>
      <trkpt lat="46.11524" lon="3.46456">
        <ele>389.59</ele>
        <time>2016-07-16T15:23:15Z</time>
      </trkpt>
      <trkpt lat="46.11538" lon="3.46436">
        <ele>387.79</ele>
        <time>2016-07-16T15:23:19Z</time>
      </trkpt>
      <trkpt lat="46.11557" lon="3.46414">
        <ele>389.28</ele>
        <time>2016-07-16T15:23:23Z</time>
      </trkpt>
      <trkpt lat="46.11571" lon="3.46397">
        <ele>387.76</ele>
        <time>2016-07-16T15:23:26Z</time>
      </trkpt>
      <trkpt lat="46.1159" lon="3.46378">
        <ele>389.67</ele>
        <time>2016-07-16T15:23:30Z</time>
      </trkpt>
      <trkpt lat="46.11606" lon="3.46365">
        <ele>388.59</ele>
        <time>2016-07-16T15:23:33Z</time>
      </trkpt>
      <trkpt lat="46.11625" lon="3.46349">
        <ele>387.56</ele>
        <time>2016-07-16T15:23:37Z</time>
      </trkpt>
      <trkpt lat="46.11643" lon="3.46341">
        <ele>386.37</ele>
        <time>2016-07-16T15:23:40Z</time>
      </trkpt>
      <trkpt lat="46.11667" lon="3.46338">
        <ele>385.63</ele>
        <time>2016-07-16T15:23:44Z</time>
      </trkpt>
      <trkpt lat="46.11688" lon="3.46339">
        <ele>383.6</ele>
        <time>2016-07-16T15:23:47Z</time>
      </trkpt>
      <trkpt lat="46.1171" lon="3.46338">
        <ele>381.76</ele>
        <time>2016-07-16T15:23:50Z</time>
      </trkpt>
      <trkpt lat="46.11731" lon="3.4634">
        <ele>377.81</ele>
        <time>2016-07-16T15:23:53Z</time>
      </trkpt>
      <trkpt lat="46.11751" lon="3.46337">
        <ele>375.79</ele>
        <time>2016-07-16T15:23:59Z</time>
      </trkpt>
      <trkpt lat="46.11771" lon="3.46329">
        <ele>373.79</ele>
        <time>2016-07-16T15:24:04Z</time>
      </trkpt>
      <trkpt lat="46.11793" lon="3.4632">
        <ele>372.55</ele>
        <time>2016-07-16T15:24:08Z</time>
      </trkpt>
      <trkpt lat="46.11814" lon="3.4631">
        <ele>370.56</ele>
        <time>2016-07-16T15:24:12Z</time>
      </trkpt>
      <trkpt lat="46.11835" lon="3.46299">
        <ele>370.35</ele>
        <time>2016-07-16T15:24:16Z</time>
      </trkpt>
      <trkpt lat="46.11857" lon="3.46287">
        <ele>367</ele>
        <time>2016-07-16T15:24:20Z</time>
      </trkpt>
      <trkpt lat="46.11875" lon="3.46281">
        <ele>368.28</ele>
        <time>2016-07-16T15:24:23Z</time>
      </trkpt>
      <trkpt lat="46.11895" lon="3.46271">
        <ele>366.76</ele>
        <time>2016-07-16T15:24:26Z</time>
      </trkpt>
      <trkpt lat="46.11913" lon="3.46262">
        <ele>366.2</ele>
        <time>2016-07-16T15:24:29Z</time>
      </trkpt>
      <trkpt lat="46.1193" lon="3.46253">
        <ele>364.92</ele>
        <time>2016-07-16T15:24:32Z</time>
      </trkpt>
      <trkpt lat="46.11952" lon="3.46239">
        <ele>364.55</ele>
        <time>2016-07-16T15:24:36Z</time>
      </trkpt>
      <trkpt lat="46.11973" lon="3.46228">
        <ele>364.55</ele>
        <time>2016-07-16T15:24:40Z</time>
      </trkpt>
      <trkpt lat="46.1199" lon="3.46218">
        <ele>364.55</ele>
        <time>2016-07-16T15:24:45Z</time>
      </trkpt>
      <trkpt lat="46.12008" lon="3.46215">
        <ele>362.75</ele>
        <time>2016-07-16T15:24:49Z</time>
      </trkpt>
      <trkpt lat="46.12028" lon="3.46211">
        <ele>363.52</ele>
        <time>2016-07-16T15:24:53Z</time>
      </trkpt>
      <trkpt lat="46.12049" lon="3.46209">
        <ele>363.55</ele>
        <time>2016-07-16T15:24:57Z</time>
      </trkpt>
      <trkpt lat="46.12068" lon="3.46208">
        <ele>362.75</ele>
        <time>2016-07-16T15:25:01Z</time>
      </trkpt>
      <trkpt lat="46.12088" lon="3.46207">
        <ele>360.6</ele>
        <time>2016-07-16T15:25:05Z</time>
      </trkpt>
      <trkpt lat="46.12109" lon="3.46207">
        <ele>359.55</ele>
        <time>2016-07-16T15:25:10Z</time>
      </trkpt>
      <trkpt lat="46.12128" lon="3.46207">
        <ele>359.75</ele>
        <time>2016-07-16T15:25:15Z</time>
      </trkpt>
      <trkpt lat="46.12147" lon="3.4621">
        <ele>357.55</ele>
        <time>2016-07-16T15:25:20Z</time>
      </trkpt>
      <trkpt lat="46.12164" lon="3.46225">
        <ele>356.55</ele>
        <time>2016-07-16T15:25:27Z</time>
      </trkpt>
      <trkpt lat="46.12165" lon="3.46251">
        <ele>356.32</ele>
        <time>2016-07-16T15:25:31Z</time>
      </trkpt>
      <trkpt lat="46.12177" lon="3.46272">
        <ele>353.56</ele>
        <time>2016-07-16T15:25:37Z</time>
      </trkpt>
      <trkpt lat="46.12198" lon="3.46268">
        <ele>353.55</ele>
        <time>2016-07-16T15:25:43Z</time>
      </trkpt>
      <trkpt lat="46.12217" lon="3.46266">
        <ele>353.55</ele>
        <time>2016-07-16T15:25:48Z</time>
      </trkpt>
      <trkpt lat="46.12236" lon="3.46264">
        <ele>353.55</ele>
        <time>2016-07-16T15:25:53Z</time>
      </trkpt>
      <trkpt lat="46.12257" lon="3.46262">
        <ele>352.55</ele>
        <time>2016-07-16T15:25:58Z</time>
      </trkpt>
      <trkpt lat="46.12275" lon="3.46251">
        <ele>353.51</ele>
        <time>2016-07-16T15:26:03Z</time>
      </trkpt>
      <trkpt lat="46.12292" lon="3.46233">
        <ele>351.51</ele>
        <time>2016-07-16T15:27:28Z</time>
      </trkpt>
      <trkpt lat="46.12307" lon="3.46217">
        <ele>351.75</ele>
        <time>2016-07-16T15:27:34Z</time>
      </trkpt>
      <trkpt lat="46.12321" lon="3.462">
        <ele>351.52</ele>
        <time>2016-07-16T15:27:39Z</time>
      </trkpt>
      <trkpt lat="46.12337" lon="3.46181">
        <ele>348.72</ele>
        <time>2016-07-16T15:27:44Z</time>
      </trkpt>
      <trkpt lat="46.12351" lon="3.46165">
        <ele>344.8</ele>
        <time>2016-07-16T15:27:48Z</time>
      </trkpt>
      <trkpt lat="46.12367" lon="3.46147">
        <ele>346.55</ele>
        <time>2016-07-16T15:27:53Z</time>
      </trkpt>
      <trkpt lat="46.12384" lon="3.46135">
        <ele>344.56</ele>
        <time>2016-07-16T15:27:57Z</time>
      </trkpt>
      <trkpt lat="46.12401" lon="3.46124">
        <ele>346.35</ele>
        <time>2016-07-16T15:28:01Z</time>
      </trkpt>
      <trkpt lat="46.1242" lon="3.46113">
        <ele>347.51</ele>
        <time>2016-07-16T15:28:06Z</time>
      </trkpt>
      <trkpt lat="46.1244" lon="3.46112">
        <ele>345.56</ele>
        <time>2016-07-16T15:28:11Z</time>
      </trkpt>
      <trkpt lat="46.1246" lon="3.46112">
        <ele>344.72</ele>
        <time>2016-07-16T15:28:17Z</time>
      </trkpt>
      <trkpt lat="46.12478" lon="3.4611">
        <ele>343.75</ele>
        <time>2016-07-16T15:28:22Z</time>
      </trkpt>
      <trkpt lat="46.12497" lon="3.46101">
        <ele>341.59</ele>
        <time>2016-07-16T15:28:27Z</time>
      </trkpt>
      <trkpt lat="46.12513" lon="3.46086">
        <ele>341.59</ele>
        <time>2016-07-16T15:28:31Z</time>
      </trkpt>
      <trkpt lat="46.12528" lon="3.46069">
        <ele>342.15</ele>
        <time>2016-07-16T15:28:35Z</time>
      </trkpt>
      <trkpt lat="46.12541" lon="3.46045">
        <ele>344.31</ele>
        <time>2016-07-16T15:28:40Z</time>
      </trkpt>
      <trkpt lat="46.12547" lon="3.46018">
        <ele>349.59</ele>
        <time>2016-07-16T15:28:47Z</time>
      </trkpt>
      <trkpt lat="46.12553" lon="3.45993">
        <ele>349.42</ele>
        <time>2016-07-16T15:28:53Z</time>
      </trkpt>
      <trkpt lat="46.12571" lon="3.45988">
        <ele>350.59</ele>
        <time>2016-07-16T15:29:01Z</time>
      </trkpt>
      <trkpt lat="46.12587" lon="3.46">
        <ele>350.74</ele>
        <time>2016-07-16T15:29:06Z</time>
      </trkpt>
      <trkpt lat="46.12608" lon="3.46004">
        <ele>347.59</ele>
        <time>2016-07-16T15:29:12Z</time>
      </trkpt>
      <trkpt lat="46.12626" lon="3.46003">
        <ele>345.56</ele>
        <time>2016-07-16T15:29:18Z</time>
      </trkpt>
      <trkpt lat="46.12645" lon="3.45998">
        <ele>342.4</ele>
        <time>2016-07-16T15:29:25Z</time>
      </trkpt>
      <trkpt lat="46.12662" lon="3.45982">
        <ele>346.51</ele>
        <time>2016-07-16T15:29:31Z</time>
      </trkpt>
      <trkpt lat="46.12675" lon="3.45959">
        <ele>335.59</ele>
        <time>2016-07-16T15:29:48Z</time>
      </trkpt>
      <trkpt lat="46.12687" lon="3.45938">
        <ele>332.03</ele>
        <time>2016-07-16T15:29:54Z</time>
      </trkpt>
      <trkpt lat="46.12702" lon="3.45917">
        <ele>330.51</ele>
        <time>2016-07-16T15:30:14Z</time>
      </trkpt>
      <trkpt lat="46.12723" lon="3.45908">
        <ele>325.83</ele>
        <time>2016-07-16T15:30:19Z</time>
      </trkpt>
      <trkpt lat="46.12738" lon="3.45889">
        <ele>325.92</ele>
        <time>2016-07-16T15:30:23Z</time>
      </trkpt>
      <trkpt lat="46.12758" lon="3.45885">
        <ele>322.76</ele>
        <time>2016-07-16T15:30:28Z</time>
      </trkpt>
      <trkpt lat="46.12775" lon="3.45893">
        <ele>320.45</ele>
        <time>2016-07-16T15:30:32Z</time>
      </trkpt>
      <trkpt lat="46.12791" lon="3.45875">
        <ele>321.35</ele>
        <time>2016-07-16T15:30:36Z</time>
      </trkpt>
      <trkpt lat="46.12807" lon="3.45859">
        <ele>318.96</ele>
        <time>2016-07-16T15:30:42Z</time>
      </trkpt>
      <trkpt lat="46.12821" lon="3.45838">
        <ele>312.8</ele>
        <time>2016-07-16T15:30:52Z</time>
      </trkpt>
      <trkpt lat="46.12841" lon="3.45846">
        <ele>308.8</ele>
        <time>2016-07-16T15:30:58Z</time>
      </trkpt>
      <trkpt lat="46.1286" lon="3.45854">
        <ele>305.76</ele>
        <time>2016-07-16T15:31:02Z</time>
      </trkpt>
      <trkpt lat="46.12878" lon="3.45863">
        <ele>301.03</ele>
        <time>2016-07-16T15:31:06Z</time>
      </trkpt>
      <trkpt lat="46.12896" lon="3.45874">
        <ele>294.89</ele>
        <time>2016-07-16T15:31:09Z</time>
      </trkpt>
      <trkpt lat="46.12915" lon="3.45867">
        <ele>295.35</ele>
        <time>2016-07-16T15:31:14Z</time>
      </trkpt>
      <trkpt lat="46.12925" lon="3.45894">
        <ele>290.83</ele>
        <time>2016-07-16T15:31:21Z</time>
      </trkpt>
      <trkpt lat="46.12939" lon="3.45913">
        <ele>287.76</ele>
        <time>2016-07-16T15:31:26Z</time>
      </trkpt>
      <trkpt lat="46.12958" lon="3.45921">
        <ele>283.59</ele>
        <time>2016-07-16T15:31:34Z</time>
      </trkpt>
      <trkpt lat="46.12977" lon="3.45931">
        <ele>282.56</ele>
        <time>2016-07-16T15:31:43Z</time>
      </trkpt>
      <trkpt lat="46.12995" lon="3.45935">
        <ele>281.55</ele>
        <time>2016-07-16T15:31:54Z</time>
      </trkpt>
      <trkpt lat="46.13014" lon="3.45934">
        <ele>281.55</ele>
        <time>2016-07-16T15:32:00Z</time>
      </trkpt>
      <trkpt lat="46.13032" lon="3.45934">
        <ele>281.55</ele>
        <time>2016-07-16T15:32:07Z</time>
      </trkpt>
      <trkpt lat="46.13052" lon="3.45929">
        <ele>281.55</ele>
        <time>2016-07-16T15:32:14Z</time>
      </trkpt>
      <trkpt lat="46.1307" lon="3.45915">
        <ele>283.35</ele>
        <time>2016-07-16T15:32:21Z</time>
      </trkpt>
      <trkpt lat="46.13088" lon="3.459">
        <ele>284.55</ele>
        <time>2016-07-16T15:32:28Z</time>
      </trkpt>
      <trkpt lat="46.13105" lon="3.45888">
        <ele>286.55</ele>
        <time>2016-07-16T15:32:37Z</time>
      </trkpt>
      <trkpt lat="46.13123" lon="3.45884">
        <ele>289.58</ele>
        <time>2016-07-16T15:32:44Z</time>
      </trkpt>
      <trkpt lat="46.13141" lon="3.45873">
        <ele>287.55</ele>
        <time>2016-07-16T15:32:51Z</time>
      </trkpt>
      <trkpt lat="46.1316" lon="3.4588">
        <ele>287.55</ele>
        <time>2016-07-16T15:32:57Z</time>
      </trkpt>
      <trkpt lat="46.13179" lon="3.45891">
        <ele>288.12</ele>
        <time>2016-07-16T15:33:03Z</time>
      </trkpt>
      <trkpt lat="46.132" lon="3.459">
        <ele>289.55</ele>
        <time>2016-07-16T15:33:09Z</time>
      </trkpt>
      <trkpt lat="46.13218" lon="3.45906">
        <ele>288.78</ele>
        <time>2016-07-16T15:33:15Z</time>
      </trkpt>
      <trkpt lat="46.13236" lon="3.45914">
        <ele>289.35</ele>
        <time>2016-07-16T15:33:23Z</time>
      </trkpt>
      <trkpt lat="46.13257" lon="3.45916">
        <ele>289.72</ele>
        <time>2016-07-16T15:33:30Z</time>
      </trkpt>
      <trkpt lat="46.13276" lon="3.45923">
        <ele>289.51</ele>
        <time>2016-07-16T15:33:36Z</time>
      </trkpt>
      <trkpt lat="46.13295" lon="3.45928">
        <ele>288.43</ele>
        <time>2016-07-16T15:33:42Z</time>
      </trkpt>
      <trkpt lat="46.13313" lon="3.45936">
        <ele>288.76</ele>
        <time>2016-07-16T15:33:48Z</time>
      </trkpt>
      <trkpt lat="46.13328" lon="3.45917">
        <ele>287.75</ele>
        <time>2016-07-16T15:33:55Z</time>
      </trkpt>
      <trkpt lat="46.13341" lon="3.45891">
        <ele>285.55</ele>
        <time>2016-07-16T15:34:00Z</time>
      </trkpt>
      <trkpt lat="46.13356" lon="3.45872">
        <ele>285.59</ele>
        <time>2016-07-16T15:34:05Z</time>
      </trkpt>
      <trkpt lat="46.13368" lon="3.4585">
        <ele>287.55</ele>
        <time>2016-07-16T15:34:10Z</time>
      </trkpt>
      <trkpt lat="46.13379" lon="3.45824">
        <ele>287.59</ele>
        <time>2016-07-16T15:34:15Z</time>
      </trkpt>
      <trkpt lat="46.13393" lon="3.45799">
        <ele>287.55</ele>
        <time>2016-07-16T15:34:20Z</time>
      </trkpt>
      <trkpt lat="46.13402" lon="3.45775">
        <ele>286.75</ele>
        <time>2016-07-16T15:34:24Z</time>
      </trkpt>
      <trkpt lat="46.13415" lon="3.45751">
        <ele>285.75</ele>
        <time>2016-07-16T15:34:29Z</time>
      </trkpt>
      <trkpt lat="46.13434" lon="3.45738">
        <ele>283.59</ele>
        <time>2016-07-16T15:34:35Z</time>
      </trkpt>
      <trkpt lat="46.13451" lon="3.45723">
        <ele>283.55</ele>
        <time>2016-07-16T15:34:42Z</time>
      </trkpt>
      <trkpt lat="46.13455" lon="3.45698">
        <ele>285.54</ele>
        <time>2016-07-16T15:34:48Z</time>
      </trkpt>
      <trkpt lat="46.13463" lon="3.45671">
        <ele>283.8</ele>
        <time>2016-07-16T15:34:53Z</time>
      </trkpt>
      <trkpt lat="46.13475" lon="3.45645">
        <ele>283.55</ele>
        <time>2016-07-16T15:34:58Z</time>
      </trkpt>
      <trkpt lat="46.13488" lon="3.45622">
        <ele>281.56</ele>
        <time>2016-07-16T15:35:03Z</time>
      </trkpt>
      <trkpt lat="46.13501" lon="3.45599">
        <ele>279.63</ele>
        <time>2016-07-16T15:35:08Z</time>
      </trkpt>
      <trkpt lat="46.13518" lon="3.45585">
        <ele>282.35</ele>
        <time>2016-07-16T15:35:13Z</time>
      </trkpt>
      <trkpt lat="46.13535" lon="3.45575">
        <ele>282.55</ele>
        <time>2016-07-16T15:35:18Z</time>
      </trkpt>
      <trkpt lat="46.13553" lon="3.45564">
        <ele>282.39</ele>
        <time>2016-07-16T15:35:24Z</time>
      </trkpt>
      <trkpt lat="46.13574" lon="3.45569">
        <ele>279.67</ele>
        <time>2016-07-16T15:35:29Z</time>
      </trkpt>
      <trkpt lat="46.13592" lon="3.45569">
        <ele>280.55</ele>
        <time>2016-07-16T15:35:33Z</time>
      </trkpt>
      <trkpt lat="46.13612" lon="3.45571">
        <ele>280.55</ele>
        <time>2016-07-16T15:35:37Z</time>
      </trkpt>
      <trkpt lat="46.13631" lon="3.45571">
        <ele>280.71</ele>
        <time>2016-07-16T15:35:41Z</time>
      </trkpt>
      <trkpt lat="46.13646" lon="3.4555">
        <ele>280.55</ele>
        <time>2016-07-16T15:35:46Z</time>
      </trkpt>
      <trkpt lat="46.13651" lon="3.45522">
        <ele>280.58</ele>
        <time>2016-07-16T15:35:51Z</time>
      </trkpt>
      <trkpt lat="46.13654" lon="3.45496">
        <ele>280.55</ele>
        <time>2016-07-16T15:35:56Z</time>
      </trkpt>
      <trkpt lat="46.13661" lon="3.45467">
        <ele>278.99</ele>
        <time>2016-07-16T15:36:01Z</time>
      </trkpt>
      <trkpt lat="46.13667" lon="3.45439">
        <ele>275.64</ele>
        <time>2016-07-16T15:36:05Z</time>
      </trkpt>
      <trkpt lat="46.13673" lon="3.45414">
        <ele>275.35</ele>
        <time>2016-07-16T15:36:09Z</time>
      </trkpt>
      <trkpt lat="46.13683" lon="3.45386">
        <ele>273.4</ele>
        <time>2016-07-16T15:36:13Z</time>
      </trkpt>
      <trkpt lat="46.13695" lon="3.4536">
        <ele>272.39</ele>
        <time>2016-07-16T15:36:17Z</time>
      </trkpt>
      <trkpt lat="46.13706" lon="3.45338">
        <ele>275.36</ele>
        <time>2016-07-16T15:36:23Z</time>
      </trkpt>
      <trkpt lat="46.13724" lon="3.45346">
        <ele>276.51</ele>
        <time>2016-07-16T15:36:31Z</time>
      </trkpt>
      <trkpt lat="46.13743" lon="3.4536">
        <ele>275.55</ele>
        <time>2016-07-16T15:36:37Z</time>
      </trkpt>
      <trkpt lat="46.13762" lon="3.45376">
        <ele>274.59</ele>
        <time>2016-07-16T15:36:42Z</time>
      </trkpt>
      <trkpt lat="46.13778" lon="3.45398">
        <ele>271.76</ele>
        <time>2016-07-16T15:36:47Z</time>
      </trkpt>
      <trkpt lat="46.13794" lon="3.45417">
        <ele>273.36</ele>
        <time>2016-07-16T15:36:52Z</time>
      </trkpt>
      <trkpt lat="46.13811" lon="3.45431">
        <ele>275.35</ele>
        <time>2016-07-16T15:36:57Z</time>
      </trkpt>
      <trkpt lat="46.13831" lon="3.45424">
        <ele>275.42</ele>
        <time>2016-07-16T15:37:04Z</time>
      </trkpt>
      <trkpt lat="46.13841" lon="3.45403">
        <ele>279.47</ele>
        <time>2016-07-16T15:37:10Z</time>
      </trkpt>
      <trkpt lat="46.13844" lon="3.45376">
        <ele>279.55</ele>
        <time>2016-07-16T15:37:16Z</time>
      </trkpt>
      <trkpt lat="46.13845" lon="3.45349">
        <ele>284.46</ele>
        <time>2016-07-16T15:37:23Z</time>
      </trkpt>
      <trkpt lat="46.13848" lon="3.45321">
        <ele>282.56</ele>
        <time>2016-07-16T15:37:28Z</time>
      </trkpt>
      <trkpt lat="46.13852" lon="3.45292">
        <ele>280.79</ele>
        <time>2016-07-16T15:37:33Z</time>
      </trkpt>
      <trkpt lat="46.13855" lon="3.45262">
        <ele>279.55</ele>
        <time>2016-07-16T15:37:38Z</time>
      </trkpt>
      <trkpt lat="46.13858" lon="3.45232">
        <ele>280.55</ele>
        <time>2016-07-16T15:37:43Z</time>
      </trkpt>
      <trkpt lat="46.13862" lon="3.45201">
        <ele>280.55</ele>
        <time>2016-07-16T15:37:48Z</time>
      </trkpt>
      <trkpt lat="46.13865" lon="3.45168">
        <ele>282.86</ele>
        <time>2016-07-16T15:37:54Z</time>
      </trkpt>
      <trkpt lat="46.13869" lon="3.45137">
        <ele>279.79</ele>
        <time>2016-07-16T15:37:59Z</time>
      </trkpt>
      <trkpt lat="46.13873" lon="3.4511">
        <ele>279.55</ele>
        <time>2016-07-16T15:38:03Z</time>
      </trkpt>
      <trkpt lat="46.13876" lon="3.45081">
        <ele>277.56</ele>
        <time>2016-07-16T15:38:07Z</time>
      </trkpt>
      <trkpt lat="46.13879" lon="3.45052">
        <ele>274.57</ele>
        <time>2016-07-16T15:38:11Z</time>
      </trkpt>
      <trkpt lat="46.13878" lon="3.45024">
        <ele>273.56</ele>
        <time>2016-07-16T15:38:16Z</time>
      </trkpt>
      <trkpt lat="46.13877" lon="3.44995">
        <ele>275.18</ele>
        <time>2016-07-16T15:38:21Z</time>
      </trkpt>
      <trkpt lat="46.13887" lon="3.4497">
        <ele>277.63</ele>
        <time>2016-07-16T15:38:27Z</time>
      </trkpt>
      <trkpt lat="46.13907" lon="3.44962">
        <ele>278.55</ele>
        <time>2016-07-16T15:38:32Z</time>
      </trkpt>
      <trkpt lat="46.13927" lon="3.44962">
        <ele>278.71</ele>
        <time>2016-07-16T15:38:37Z</time>
      </trkpt>
      <trkpt lat="46.13948" lon="3.44965">
        <ele>277.75</ele>
        <time>2016-07-16T15:38:42Z</time>
      </trkpt>
      <trkpt lat="46.13969" lon="3.44965">
        <ele>276.59</ele>
        <time>2016-07-16T15:38:47Z</time>
      </trkpt>
      <trkpt lat="46.1399" lon="3.44966">
        <ele>276.55</ele>
        <time>2016-07-16T15:38:52Z</time>
      </trkpt>
      <trkpt lat="46.14008" lon="3.44966">
        <ele>276.55</ele>
        <time>2016-07-16T15:38:57Z</time>
      </trkpt>
      <trkpt lat="46.14028" lon="3.44965">
        <ele>276.55</ele>
        <time>2016-07-16T15:39:06Z</time>
      </trkpt>
      <trkpt lat="46.14047" lon="3.44957">
        <ele>277.55</ele>
        <time>2016-07-16T15:39:13Z</time>
      </trkpt>
      <trkpt lat="46.14067" lon="3.4495">
        <ele>278.51</ele>
        <time>2016-07-16T15:39:20Z</time>
      </trkpt>
      <trkpt lat="46.14087" lon="3.44941">
        <ele>280.67</ele>
        <time>2016-07-16T15:39:27Z</time>
      </trkpt>
      <trkpt lat="46.14106" lon="3.44939">
        <ele>282.55</ele>
        <time>2016-07-16T15:39:33Z</time>
      </trkpt>
      <trkpt lat="46.14125" lon="3.44937">
        <ele>283.51</ele>
        <time>2016-07-16T15:39:39Z</time>
      </trkpt>
      <trkpt lat="46.14144" lon="3.44938">
        <ele>286.31</ele>
        <time>2016-07-16T15:39:50Z</time>
      </trkpt>
      <trkpt lat="46.14163" lon="3.44935">
        <ele>287.32</ele>
        <time>2016-07-16T15:39:57Z</time>
      </trkpt>
      <trkpt lat="46.14182" lon="3.44934">
        <ele>286.75</ele>
        <time>2016-07-16T15:40:03Z</time>
      </trkpt>
      <trkpt lat="46.14201" lon="3.4493">
        <ele>284.75</ele>
        <time>2016-07-16T15:40:09Z</time>
      </trkpt>
      <trkpt lat="46.1422" lon="3.44927">
        <ele>286.15</ele>
        <time>2016-07-16T15:40:16Z</time>
      </trkpt>
      <trkpt lat="46.14239" lon="3.44926">
        <ele>287.74</ele>
        <time>2016-07-16T15:40:23Z</time>
      </trkpt>
      <trkpt lat="46.14257" lon="3.44929">
        <ele>287.55</ele>
        <time>2016-07-16T15:40:30Z</time>
      </trkpt>
      <trkpt lat="46.14275" lon="3.44932">
        <ele>286.56</ele>
        <time>2016-07-16T15:40:37Z</time>
      </trkpt>
      <trkpt lat="46.14295" lon="3.44938">
        <ele>288.54</ele>
        <time>2016-07-16T15:40:45Z</time>
      </trkpt>
      <trkpt lat="46.14313" lon="3.4494">
        <ele>290.54</ele>
        <time>2016-07-16T15:40:52Z</time>
      </trkpt>
      <trkpt lat="46.14331" lon="3.44929">
        <ele>296.5</ele>
        <time>2016-07-16T15:41:02Z</time>
      </trkpt>
      <trkpt lat="46.14341" lon="3.44906">
        <ele>296.54</ele>
        <time>2016-07-16T15:41:10Z</time>
      </trkpt>
      <trkpt lat="46.14349" lon="3.4488">
        <ele>295.76</ele>
        <time>2016-07-16T15:41:19Z</time>
      </trkpt>
      <trkpt lat="46.14357" lon="3.44856">
        <ele>293.75</ele>
        <time>2016-07-16T15:41:28Z</time>
      </trkpt>
      <trkpt lat="46.14366" lon="3.44831">
        <ele>289.56</ele>
        <time>2016-07-16T15:41:36Z</time>
      </trkpt>
      <trkpt lat="46.14374" lon="3.44807">
        <ele>293.35</ele>
        <time>2016-07-16T15:41:46Z</time>
      </trkpt>
      <trkpt lat="46.1438" lon="3.44783">
        <ele>295.51</ele>
        <time>2016-07-16T15:41:55Z</time>
      </trkpt>
      <trkpt lat="46.14391" lon="3.44759">
        <ele>297.51</ele>
        <time>2016-07-16T15:42:04Z</time>
      </trkpt>
      <trkpt lat="46.14405" lon="3.44742">
        <ele>298.47</ele>
        <time>2016-07-16T15:42:13Z</time>
      </trkpt>
      <trkpt lat="46.14419" lon="3.44722">
        <ele>301.51</ele>
        <time>2016-07-16T15:42:22Z</time>
      </trkpt>
      <trkpt lat="46.14435" lon="3.44705">
        <ele>303.55</ele>
        <time>2016-07-16T15:42:32Z</time>
      </trkpt>
      <trkpt lat="46.14453" lon="3.447">
        <ele>306.31</ele>
        <time>2016-07-16T15:42:41Z</time>
      </trkpt>
      <trkpt lat="46.14472" lon="3.44693">
        <ele>304.55</ele>
        <time>2016-07-16T15:42:50Z</time>
      </trkpt>
      <trkpt lat="46.1449" lon="3.44686">
        <ele>305.52</ele>
        <time>2016-07-16T15:42:59Z</time>
      </trkpt>
      <trkpt lat="46.14507" lon="3.44673">
        <ele>307.32</ele>
        <time>2016-07-16T15:43:08Z</time>
      </trkpt>
      <trkpt lat="46.14522" lon="3.44656">
        <ele>310.54</ele>
        <time>2016-07-16T15:43:17Z</time>
      </trkpt>
      <trkpt lat="46.14538" lon="3.44638">
        <ele>308.76</ele>
        <time>2016-07-16T15:43:27Z</time>
      </trkpt>
      <trkpt lat="46.14551" lon="3.44618">
        <ele>309.55</ele>
        <time>2016-07-16T15:43:34Z</time>
      </trkpt>
      <trkpt lat="46.14566" lon="3.44598">
        <ele>307.6</ele>
        <time>2016-07-16T15:43:39Z</time>
      </trkpt>
      <trkpt lat="46.14581" lon="3.4458">
        <ele>305.57</ele>
        <time>2016-07-16T15:43:43Z</time>
      </trkpt>
      <trkpt lat="46.14597" lon="3.44562">
        <ele>306.51</ele>
        <time>2016-07-16T15:43:47Z</time>
      </trkpt>
      <trkpt lat="46.14613" lon="3.44543">
        <ele>303.76</ele>
        <time>2016-07-16T15:43:51Z</time>
      </trkpt>
      <trkpt lat="46.14626" lon="3.44522">
        <ele>305.54</ele>
        <time>2016-07-16T15:43:55Z</time>
      </trkpt>
      <trkpt lat="46.14641" lon="3.44499">
        <ele>304.59</ele>
        <time>2016-07-16T15:43:59Z</time>
      </trkpt>
      <trkpt lat="46.14655" lon="3.4448">
        <ele>303.55</ele>
        <time>2016-07-16T15:44:03Z</time>
      </trkpt>
      <trkpt lat="46.14669" lon="3.44457">
        <ele>302.59</ele>
        <time>2016-07-16T15:44:08Z</time>
      </trkpt>
      <trkpt lat="46.14684" lon="3.44435">
        <ele>305.31</ele>
        <time>2016-07-16T15:44:14Z</time>
      </trkpt>
      <trkpt lat="46.14693" lon="3.44412">
        <ele>307.55</ele>
        <time>2016-07-16T15:44:19Z</time>
      </trkpt>
      <trkpt lat="46.14704" lon="3.44387">
        <ele>310.18</ele>
        <time>2016-07-16T15:44:24Z</time>
      </trkpt>
      <trkpt lat="46.14712" lon="3.4436">
        <ele>310.56</ele>
        <time>2016-07-16T15:44:29Z</time>
      </trkpt>
      <trkpt lat="46.14723" lon="3.44339">
        <ele>309.52</ele>
        <time>2016-07-16T15:44:34Z</time>
      </trkpt>
      <trkpt lat="46.14738" lon="3.44317">
        <ele>310.55</ele>
        <time>2016-07-16T15:44:40Z</time>
      </trkpt>
      <trkpt lat="46.14754" lon="3.44301">
        <ele>311.55</ele>
        <time>2016-07-16T15:44:45Z</time>
      </trkpt>
      <trkpt lat="46.14769" lon="3.44285">
        <ele>313.35</ele>
        <time>2016-07-16T15:44:50Z</time>
      </trkpt>
      <trkpt lat="46.14786" lon="3.44268">
        <ele>313.71</ele>
        <time>2016-07-16T15:44:56Z</time>
      </trkpt>
      <trkpt lat="46.14803" lon="3.44253">
        <ele>314.51</ele>
        <time>2016-07-16T15:45:03Z</time>
      </trkpt>
      <trkpt lat="46.1482" lon="3.44239">
        <ele>314.57</ele>
        <time>2016-07-16T15:45:10Z</time>
      </trkpt>
      <trkpt lat="46.14836" lon="3.44224">
        <ele>315.55</ele>
        <time>2016-07-16T15:45:17Z</time>
      </trkpt>
      <trkpt lat="46.14852" lon="3.44206">
        <ele>316.52</ele>
        <time>2016-07-16T15:45:25Z</time>
      </trkpt>
      <trkpt lat="46.14869" lon="3.44189">
        <ele>317.36</ele>
        <time>2016-07-16T15:45:31Z</time>
      </trkpt>
      <trkpt lat="46.14885" lon="3.44174">
        <ele>317.55</ele>
        <time>2016-07-16T15:45:36Z</time>
      </trkpt>
      <trkpt lat="46.14904" lon="3.44163">
        <ele>317.55</ele>
        <time>2016-07-16T15:45:41Z</time>
      </trkpt>
      <trkpt lat="46.14924" lon="3.44155">
        <ele>320.34</ele>
        <time>2016-07-16T15:45:47Z</time>
      </trkpt>
      <trkpt lat="46.14942" lon="3.44145">
        <ele>320.52</ele>
        <time>2016-07-16T15:45:52Z</time>
      </trkpt>
      <trkpt lat="46.1496" lon="3.44135">
        <ele>320.59</ele>
        <time>2016-07-16T15:45:57Z</time>
      </trkpt>
      <trkpt lat="46.14979" lon="3.44129">
        <ele>322.31</ele>
        <time>2016-07-16T15:46:02Z</time>
      </trkpt>
      <trkpt lat="46.14999" lon="3.44122">
        <ele>319.55</ele>
        <time>2016-07-16T15:46:08Z</time>
      </trkpt>
      <trkpt lat="46.15017" lon="3.44113">
        <ele>319.51</ele>
        <time>2016-07-16T15:46:13Z</time>
      </trkpt>
      <trkpt lat="46.15036" lon="3.44103">
        <ele>321.35</ele>
        <time>2016-07-16T15:46:19Z</time>
      </trkpt>
      <trkpt lat="46.15054" lon="3.44094">
        <ele>320.56</ele>
        <time>2016-07-16T15:46:24Z</time>
      </trkpt>
      <trkpt lat="46.15073" lon="3.44086">
        <ele>320.55</ele>
        <time>2016-07-16T15:46:29Z</time>
      </trkpt>
      <trkpt lat="46.1509" lon="3.4408">
        <ele>320.55</ele>
        <time>2016-07-16T15:46:35Z</time>
      </trkpt>
      <trkpt lat="46.15109" lon="3.44069">
        <ele>319.56</ele>
        <time>2016-07-16T15:46:42Z</time>
      </trkpt>
      <trkpt lat="46.15128" lon="3.44053">
        <ele>319.55</ele>
        <time>2016-07-16T15:46:48Z</time>
      </trkpt>
      <trkpt lat="46.15143" lon="3.44039">
        <ele>318.55</ele>
        <time>2016-07-16T15:46:52Z</time>
      </trkpt>
      <trkpt lat="46.1516" lon="3.44024">
        <ele>317.75</ele>
        <time>2016-07-16T15:46:57Z</time>
      </trkpt>
      <trkpt lat="46.1518" lon="3.44021">
        <ele>317.55</ele>
        <time>2016-07-16T15:47:03Z</time>
      </trkpt>
      <trkpt lat="46.152" lon="3.44027">
        <ele>315.6</ele>
        <time>2016-07-16T15:47:09Z</time>
      </trkpt>
      <trkpt lat="46.15221" lon="3.44028">
        <ele>315.37</ele>
        <time>2016-07-16T15:47:15Z</time>
      </trkpt>
      <trkpt lat="46.1524" lon="3.4403">
        <ele>313.95</ele>
        <time>2016-07-16T15:47:21Z</time>
      </trkpt>
      <trkpt lat="46.15258" lon="3.44034">
        <ele>316.15</ele>
        <time>2016-07-16T15:47:27Z</time>
      </trkpt>
      <trkpt lat="46.15276" lon="3.44041">
        <ele>314.75</ele>
        <time>2016-07-16T15:47:34Z</time>
      </trkpt>
      <trkpt lat="46.15296" lon="3.44038">
        <ele>316.16</ele>
        <time>2016-07-16T15:47:43Z</time>
      </trkpt>
      <trkpt lat="46.15314" lon="3.44035">
        <ele>320.56</ele>
        <time>2016-07-16T15:47:52Z</time>
      </trkpt>
      <trkpt lat="46.15333" lon="3.44035">
        <ele>321.59</ele>
        <time>2016-07-16T15:48:01Z</time>
      </trkpt>
      <trkpt lat="46.15351" lon="3.44036">
        <ele>321.55</ele>
        <time>2016-07-16T15:48:09Z</time>
      </trkpt>
      <trkpt lat="46.15371" lon="3.44035">
        <ele>323.39</ele>
        <time>2016-07-16T15:48:18Z</time>
      </trkpt>
      <trkpt lat="46.15389" lon="3.44038">
        <ele>325.54</ele>
        <time>2016-07-16T15:48:27Z</time>
      </trkpt>
      <trkpt lat="46.15403" lon="3.44019">
        <ele>325.33</ele>
        <time>2016-07-16T15:48:37Z</time>
      </trkpt>
      <trkpt lat="46.1542" lon="3.44008">
        <ele>327.55</ele>
        <time>2016-07-16T15:48:46Z</time>
      </trkpt>
      <trkpt lat="46.15438" lon="3.44004">
        <ele>328.52</ele>
        <time>2016-07-16T15:48:55Z</time>
      </trkpt>
      <trkpt lat="46.15458" lon="3.43998">
        <ele>327.95</ele>
        <time>2016-07-16T15:49:05Z</time>
      </trkpt>
      <trkpt lat="46.15477" lon="3.43999">
        <ele>328.75</ele>
        <time>2016-07-16T15:49:15Z</time>
      </trkpt>
      <trkpt lat="46.15495" lon="3.44007">
        <ele>332.52</ele>
        <time>2016-07-16T15:49:25Z</time>
      </trkpt>
      <trkpt lat="46.15512" lon="3.43994">
        <ele>333.52</ele>
        <time>2016-07-16T15:49:35Z</time>
      </trkpt>
      <trkpt lat="46.15528" lon="3.43982">
        <ele>332.36</ele>
        <time>2016-07-16T15:49:43Z</time>
      </trkpt>
      <trkpt lat="46.15548" lon="3.4398">
        <ele>334.55</ele>
        <time>2016-07-16T15:49:52Z</time>
      </trkpt>
      <trkpt lat="46.15567" lon="3.43982">
        <ele>333.95</ele>
        <time>2016-07-16T15:50:00Z</time>
      </trkpt>
      <trkpt lat="46.15586" lon="3.43988">
        <ele>336.39</ele>
        <time>2016-07-16T15:50:09Z</time>
      </trkpt>
      <trkpt lat="46.15606" lon="3.43992">
        <ele>337.35</ele>
        <time>2016-07-16T15:50:18Z</time>
      </trkpt>
      <trkpt lat="46.15625" lon="3.43995">
        <ele>336.79</ele>
        <time>2016-07-16T15:50:27Z</time>
      </trkpt>
      <trkpt lat="46.15643" lon="3.43998">
        <ele>337.55</ele>
        <time>2016-07-16T15:50:36Z</time>
      </trkpt>
      <trkpt lat="46.15662" lon="3.44004">
        <ele>339.55</ele>
        <time>2016-07-16T15:50:46Z</time>
      </trkpt>
      <trkpt lat="46.15681" lon="3.44012">
        <ele>338.71</ele>
        <time>2016-07-16T15:50:55Z</time>
      </trkpt>
      <trkpt lat="46.15698" lon="3.4402">
        <ele>338.59</ele>
        <time>2016-07-16T15:51:04Z</time>
      </trkpt>
      <trkpt lat="46.15716" lon="3.44031">
        <ele>340.39</ele>
        <time>2016-07-16T15:51:14Z</time>
      </trkpt>
      <trkpt lat="46.15733" lon="3.44042">
        <ele>345.32</ele>
        <time>2016-07-16T15:51:24Z</time>
      </trkpt>
      <trkpt lat="46.15751" lon="3.44051">
        <ele>346.51</ele>
        <time>2016-07-16T15:51:34Z</time>
      </trkpt>
      <trkpt lat="46.15768" lon="3.44062">
        <ele>349.52</ele>
        <time>2016-07-16T15:51:42Z</time>
      </trkpt>
      <trkpt lat="46.15785" lon="3.4407">
        <ele>350.36</ele>
        <time>2016-07-16T15:51:51Z</time>
      </trkpt>
      <trkpt lat="46.15802" lon="3.44079">
        <ele>349.56</ele>
        <time>2016-07-16T15:52:00Z</time>
      </trkpt>
      <trkpt lat="46.15822" lon="3.44082">
        <ele>349.55</ele>
        <time>2016-07-16T15:52:12Z</time>
      </trkpt>
      <trkpt lat="46.15841" lon="3.4408">
        <ele>352.31</ele>
        <time>2016-07-16T15:52:21Z</time>
      </trkpt>
      <trkpt lat="46.15859" lon="3.4407">
        <ele>352.55</ele>
        <time>2016-07-16T15:52:30Z</time>
      </trkpt>
      <trkpt lat="46.15877" lon="3.44057">
        <ele>352.35</ele>
        <time>2016-07-16T15:52:39Z</time>
      </trkpt>
      <trkpt lat="46.15891" lon="3.4404">
        <ele>354.31</ele>
        <time>2016-07-16T15:52:54Z</time>
      </trkpt>
      <trkpt lat="46.15895" lon="3.44013">
        <ele>356.55</ele>
        <time>2016-07-16T15:53:08Z</time>
      </trkpt>
      <trkpt lat="46.15901" lon="3.43988">
        <ele>358.55</ele>
        <time>2016-07-16T15:53:21Z</time>
      </trkpt>
      <trkpt lat="46.15908" lon="3.43962">
        <ele>365.7</ele>
        <time>2016-07-16T15:53:37Z</time>
      </trkpt>
      <trkpt lat="46.1591" lon="3.43935">
        <ele>368.32</ele>
        <time>2016-07-16T15:53:51Z</time>
      </trkpt>
      <trkpt lat="46.15918" lon="3.43911">
        <ele>375.35</ele>
        <time>2016-07-16T15:54:08Z</time>
      </trkpt>
      <trkpt lat="46.15929" lon="3.43889">
        <ele>375.55</ele>
        <time>2016-07-16T15:54:22Z</time>
      </trkpt>
      <trkpt lat="46.15939" lon="3.43867">
        <ele>381.31</ele>
        <time>2016-07-16T15:54:35Z</time>
      </trkpt>
      <trkpt lat="46.15944" lon="3.4384">
        <ele>380.39</ele>
        <time>2016-07-16T15:54:45Z</time>
      </trkpt>
      <trkpt lat="46.15945" lon="3.43811">
        <ele>381.55</ele>
        <time>2016-07-16T15:54:54Z</time>
      </trkpt>
      <trkpt lat="46.15957" lon="3.43791">
        <ele>382.51</ele>
        <time>2016-07-16T15:55:03Z</time>
      </trkpt>
      <trkpt lat="46.15977" lon="3.43785">
        <ele>386.51</ele>
        <time>2016-07-16T15:55:12Z</time>
      </trkpt>
      <trkpt lat="46.15995" lon="3.43781">
        <ele>385.56</ele>
        <time>2016-07-16T15:55:19Z</time>
      </trkpt>
      <trkpt lat="46.16011" lon="3.43766">
        <ele>386.55</ele>
        <time>2016-07-16T15:55:26Z</time>
      </trkpt>
      <trkpt lat="46.16025" lon="3.43749">
        <ele>386.39</ele>
        <time>2016-07-16T15:55:33Z</time>
      </trkpt>
      <trkpt lat="46.16041" lon="3.4373">
        <ele>387.92</ele>
        <time>2016-07-16T15:55:41Z</time>
      </trkpt>
      <trkpt lat="46.16052" lon="3.43704">
        <ele>387.59</ele>
        <time>2016-07-16T15:55:49Z</time>
      </trkpt>
      <trkpt lat="46.16064" lon="3.43681">
        <ele>384.76</ele>
        <time>2016-07-16T15:55:53Z</time>
      </trkpt>
      <trkpt lat="46.16085" lon="3.43678">
        <ele>381.6</ele>
        <time>2016-07-16T15:55:57Z</time>
      </trkpt>
      <trkpt lat="46.16103" lon="3.43687">
        <ele>381.55</ele>
        <time>2016-07-16T15:56:00Z</time>
      </trkpt>
      <trkpt lat="46.16126" lon="3.43695">
        <ele>378.99</ele>
        <time>2016-07-16T15:56:03Z</time>
      </trkpt>
      <trkpt lat="46.16149" lon="3.43697">
        <ele>375.64</ele>
        <time>2016-07-16T15:56:06Z</time>
      </trkpt>
      <trkpt lat="46.16168" lon="3.437">
        <ele>372.04</ele>
        <time>2016-07-16T15:56:08Z</time>
      </trkpt>
      <trkpt lat="46.16187" lon="3.43702">
        <ele>370.61</ele>
        <time>2016-07-16T15:56:10Z</time>
      </trkpt>
      <trkpt lat="46.16208" lon="3.43703">
        <ele>369.76</ele>
        <time>2016-07-16T15:56:12Z</time>
      </trkpt>
      <trkpt lat="46.16228" lon="3.43703">
        <ele>367</ele>
        <time>2016-07-16T15:56:14Z</time>
      </trkpt>
      <trkpt lat="46.16249" lon="3.43703">
        <ele>364.81</ele>
        <time>2016-07-16T15:56:16Z</time>
      </trkpt>
      <trkpt lat="46.16267" lon="3.43704">
        <ele>364.56</ele>
        <time>2016-07-16T15:56:18Z</time>
      </trkpt>
      <trkpt lat="46.16285" lon="3.43697">
        <ele>361.03</ele>
        <time>2016-07-16T15:56:20Z</time>
      </trkpt>
      <trkpt lat="46.16301" lon="3.43683">
        <ele>358.01</ele>
        <time>2016-07-16T15:56:22Z</time>
      </trkpt>
      <trkpt lat="46.16318" lon="3.43667">
        <ele>354.85</ele>
        <time>2016-07-16T15:56:24Z</time>
      </trkpt>
      <trkpt lat="46.16336" lon="3.43651">
        <ele>352.8</ele>
        <time>2016-07-16T15:56:26Z</time>
      </trkpt>
      <trkpt lat="46.16351" lon="3.4363">
        <ele>350.8</ele>
        <time>2016-07-16T15:56:28Z</time>
      </trkpt>
      <trkpt lat="46.16366" lon="3.43612">
        <ele>348.96</ele>
        <time>2016-07-16T15:56:30Z</time>
      </trkpt>
      <trkpt lat="46.16382" lon="3.43597">
        <ele>347.61</ele>
        <time>2016-07-16T15:56:32Z</time>
      </trkpt>
      <trkpt lat="46.16399" lon="3.43585">
        <ele>346.6</ele>
        <time>2016-07-16T15:56:34Z</time>
      </trkpt>
      <trkpt lat="46.16423" lon="3.43576">
        <ele>346.55</ele>
        <time>2016-07-16T15:56:37Z</time>
      </trkpt>
      <trkpt lat="46.16446" lon="3.43574">
        <ele>344.6</ele>
        <time>2016-07-16T15:56:40Z</time>
      </trkpt>
      <trkpt lat="46.16466" lon="3.43575">
        <ele>342.76</ele>
        <time>2016-07-16T15:56:43Z</time>
      </trkpt>
      <trkpt lat="46.16484" lon="3.43584">
        <ele>341.56</ele>
        <time>2016-07-16T15:56:46Z</time>
      </trkpt>
      <trkpt lat="46.16504" lon="3.43589">
        <ele>340.71</ele>
        <time>2016-07-16T15:56:50Z</time>
      </trkpt>
      <trkpt lat="46.16522" lon="3.43594">
        <ele>339.56</ele>
        <time>2016-07-16T15:56:54Z</time>
      </trkpt>
      <trkpt lat="46.1654" lon="3.43596">
        <ele>337.76</ele>
        <time>2016-07-16T15:56:59Z</time>
      </trkpt>
      <trkpt lat="46.16559" lon="3.43599">
        <ele>337.51</ele>
        <time>2016-07-16T15:57:04Z</time>
      </trkpt>
      <trkpt lat="46.1658" lon="3.43599">
        <ele>337.58</ele>
        <time>2016-07-16T15:57:09Z</time>
      </trkpt>
      <trkpt lat="46.166" lon="3.43602">
        <ele>339.34</ele>
        <time>2016-07-16T15:57:14Z</time>
      </trkpt>
      <trkpt lat="46.1662" lon="3.43599">
        <ele>336.03</ele>
        <time>2016-07-16T15:57:18Z</time>
      </trkpt>
      <trkpt lat="46.16639" lon="3.43594">
        <ele>335.43</ele>
        <time>2016-07-16T15:57:21Z</time>
      </trkpt>
      <trkpt lat="46.1666" lon="3.4359">
        <ele>333.79</ele>
        <time>2016-07-16T15:57:24Z</time>
      </trkpt>
      <trkpt lat="46.16679" lon="3.4359">
        <ele>332.75</ele>
        <time>2016-07-16T15:57:27Z</time>
      </trkpt>
      <trkpt lat="46.16698" lon="3.43584">
        <ele>332.71</ele>
        <time>2016-07-16T15:57:30Z</time>
      </trkpt>
      <trkpt lat="46.16719" lon="3.43591">
        <ele>331.59</ele>
        <time>2016-07-16T15:57:33Z</time>
      </trkpt>
      <trkpt lat="46.16736" lon="3.43601">
        <ele>331.39</ele>
        <time>2016-07-16T15:57:36Z</time>
      </trkpt>
      <trkpt lat="46.16758" lon="3.43612">
        <ele>330.52</ele>
        <time>2016-07-16T15:57:40Z</time>
      </trkpt>
      <trkpt lat="46.16776" lon="3.43622">
        <ele>330.55</ele>
        <time>2016-07-16T15:57:44Z</time>
      </trkpt>
      <trkpt lat="46.16794" lon="3.43631">
        <ele>330.52</ele>
        <time>2016-07-16T15:57:48Z</time>
      </trkpt>
      <trkpt lat="46.16815" lon="3.4364">
        <ele>331.36</ele>
        <time>2016-07-16T15:57:53Z</time>
      </trkpt>
      <trkpt lat="46.16836" lon="3.43627">
        <ele>330.59</ele>
        <time>2016-07-16T15:57:58Z</time>
      </trkpt>
      <trkpt lat="46.16849" lon="3.43603">
        <ele>328.57</ele>
        <time>2016-07-16T15:58:02Z</time>
      </trkpt>
      <trkpt lat="46.16859" lon="3.43579">
        <ele>328.55</ele>
        <time>2016-07-16T15:58:05Z</time>
      </trkpt>
      <trkpt lat="46.16875" lon="3.43557">
        <ele>325.8</ele>
        <time>2016-07-16T15:58:08Z</time>
      </trkpt>
      <trkpt lat="46.16898" lon="3.43551">
        <ele>323.79</ele>
        <time>2016-07-16T15:58:11Z</time>
      </trkpt>
      <trkpt lat="46.16923" lon="3.43555">
        <ele>320.61</ele>
        <time>2016-07-16T15:58:14Z</time>
      </trkpt>
      <trkpt lat="46.1695" lon="3.43556">
        <ele>318.6</ele>
        <time>2016-07-16T15:58:17Z</time>
      </trkpt>
      <trkpt lat="46.1697" lon="3.43555">
        <ele>317.75</ele>
        <time>2016-07-16T15:58:19Z</time>
      </trkpt>
      <trkpt lat="46.1699" lon="3.43561">
        <ele>315.8</ele>
        <time>2016-07-16T15:58:21Z</time>
      </trkpt>
      <trkpt lat="46.17009" lon="3.43574">
        <ele>313</ele>
        <time>2016-07-16T15:58:23Z</time>
      </trkpt>
      <trkpt lat="46.17024" lon="3.43595">
        <ele>311.77</ele>
        <time>2016-07-16T15:58:25Z</time>
      </trkpt>
      <trkpt lat="46.17039" lon="3.43618">
        <ele>309.8</ele>
        <time>2016-07-16T15:58:27Z</time>
      </trkpt>
      <trkpt lat="46.17056" lon="3.43638">
        <ele>307.8</ele>
        <time>2016-07-16T15:58:29Z</time>
      </trkpt>
      <trkpt lat="46.17076" lon="3.43652">
        <ele>307.56</ele>
        <time>2016-07-16T15:58:31Z</time>
      </trkpt>
      <trkpt lat="46.17095" lon="3.43659">
        <ele>306.75</ele>
        <time>2016-07-16T15:58:33Z</time>
      </trkpt>
      <trkpt lat="46.17115" lon="3.43655">
        <ele>306.56</ele>
        <time>2016-07-16T15:58:35Z</time>
      </trkpt>
      <trkpt lat="46.17133" lon="3.43648">
        <ele>306.55</ele>
        <time>2016-07-16T15:58:37Z</time>
      </trkpt>
      <trkpt lat="46.17155" lon="3.43636">
        <ele>305.43</ele>
        <time>2016-07-16T15:58:40Z</time>
      </trkpt>
      <trkpt lat="46.17174" lon="3.43629">
        <ele>303.76</ele>
        <time>2016-07-16T15:58:43Z</time>
      </trkpt>
      <trkpt lat="46.17196" lon="3.43617">
        <ele>301.76</ele>
        <time>2016-07-16T15:58:47Z</time>
      </trkpt>
      <trkpt lat="46.17215" lon="3.43606">
        <ele>302.55</ele>
        <time>2016-07-16T15:58:51Z</time>
      </trkpt>
      <trkpt lat="46.17232" lon="3.43596">
        <ele>304.54</ele>
        <time>2016-07-16T15:58:54Z</time>
      </trkpt>
      <trkpt lat="46.1725" lon="3.43576">
        <ele>303.75</ele>
        <time>2016-07-16T15:58:58Z</time>
      </trkpt>
      <trkpt lat="46.17262" lon="3.43549">
        <ele>307.34</ele>
        <time>2016-07-16T15:59:02Z</time>
      </trkpt>
      <trkpt lat="46.17271" lon="3.43522">
        <ele>311.3</ele>
        <time>2016-07-16T15:59:07Z</time>
      </trkpt>
      <trkpt lat="46.17277" lon="3.43496">
        <ele>308.77</ele>
        <time>2016-07-16T15:59:13Z</time>
      </trkpt>
      <trkpt lat="46.17267" lon="3.43474">
        <ele>314.51</ele>
        <time>2016-07-16T15:59:21Z</time>
      </trkpt>
      <trkpt lat="46.17248" lon="3.43468">
        <ele>316.35</ele>
        <time>2016-07-16T15:59:27Z</time>
      </trkpt>
      <trkpt lat="46.17228" lon="3.43464">
        <ele>319.31</ele>
        <time>2016-07-16T15:59:33Z</time>
      </trkpt>
      <trkpt lat="46.17219" lon="3.43437">
        <ele>321.55</ele>
        <time>2016-07-16T15:59:40Z</time>
      </trkpt>
      <trkpt lat="46.17218" lon="3.43408">
        <ele>322.51</ele>
        <time>2016-07-16T15:59:47Z</time>
      </trkpt>
      <trkpt lat="46.17212" lon="3.43381">
        <ele>324.54</ele>
        <time>2016-07-16T15:59:53Z</time>
      </trkpt>
      <trkpt lat="46.17204" lon="3.43356">
        <ele>324.59</ele>
        <time>2016-07-16T15:59:59Z</time>
      </trkpt>
      <trkpt lat="46.17198" lon="3.43331">
        <ele>327.54</ele>
        <time>2016-07-16T16:00:05Z</time>
      </trkpt>
      <trkpt lat="46.17202" lon="3.43304">
        <ele>329.51</ele>
        <time>2016-07-16T16:00:11Z</time>
      </trkpt>
      <trkpt lat="46.17212" lon="3.4328">
        <ele>330.55</ele>
        <time>2016-07-16T16:00:16Z</time>
      </trkpt>
      <trkpt lat="46.17208" lon="3.43254">
        <ele>330.55</ele>
        <time>2016-07-16T16:00:21Z</time>
      </trkpt>
      <trkpt lat="46.1719" lon="3.43235">
        <ele>330.55</ele>
        <time>2016-07-16T16:00:25Z</time>
      </trkpt>
      <trkpt lat="46.17174" lon="3.43218">
        <ele>329.56</ele>
        <time>2016-07-16T16:00:28Z</time>
      </trkpt>
      <trkpt lat="46.17157" lon="3.43203">
        <ele>329.55</ele>
        <time>2016-07-16T16:00:31Z</time>
      </trkpt>
      <trkpt lat="46.17137" lon="3.4319">
        <ele>328.59</ele>
        <time>2016-07-16T16:00:34Z</time>
      </trkpt>
      <trkpt lat="46.17118" lon="3.43176">
        <ele>328.55</ele>
        <time>2016-07-16T16:00:37Z</time>
      </trkpt>
      <trkpt lat="46.171" lon="3.4316">
        <ele>325.61</ele>
        <time>2016-07-16T16:00:40Z</time>
      </trkpt>
      <trkpt lat="46.17082" lon="3.43146">
        <ele>324.75</ele>
        <time>2016-07-16T16:00:44Z</time>
      </trkpt>
      <trkpt lat="46.17066" lon="3.43125">
        <ele>321.79</ele>
        <time>2016-07-16T16:00:48Z</time>
      </trkpt>
      <trkpt lat="46.17051" lon="3.4311">
        <ele>319.55</ele>
        <time>2016-07-16T16:00:54Z</time>
      </trkpt>
    </trkseg>
  </trk>
</gpx>